BCO-DMO ERDDAP
Accessing BCO-DMO data
log in    
Brought to you by BCO-DMO    
 
 
taxon cumulative_secs date_utc time_utc Z Z_flag target_Z Z_bot temp temp_flag PAR PAR_flag sal sal_flag ang_vel_X ang_vel_Y ang_vel_Z pump_down pump_up latitude longitude DOP batt_V time
unitless seconds unitless unitless meters (m) unitless meters (m) meters (m) degrees Centigrade (C) unitless moles per square meter per second (mol m-2 s-1) unitless practical salinity scale (PSU) unitless unitless (raw counts from the gyro) unitless (raw counts from the gyro) unitless (raw counts from the gyro) unitless unitless degrees_north degrees_east unitless volts UTC
Cyprid 493316326 2015-08-19 16:18:46 0.0 0 125.0 127.0 0.0 0 4 0 5.0 0 -558 -3328 161 20 0 2015-08-19T16:18:46Z
Cyprid 493316331 2015-08-19 16:18:51 0.0 0 125.0 127.0 0.0 0 4 0 5.0 0 -247 305 52 21 0 2015-08-19T16:18:51Z
Cyprid 493316336 2015-08-19 16:18:56 0.0 0 125.0 127.0 0.0 0 4 0 5.0 0 -64 1406 237 22 0 2015-08-19T16:18:56Z
Cyprid 493316341 2015-08-19 16:19:01 0.0 0 125.0 127.0 0.0 0 4 0 5.0 0 -217 -205 291 21 0 2015-08-19T16:19:01Z
Cyprid 493316346 2015-08-19 16:19:06 0.0 0 125.0 127.0 0.0 0 4 0 5.0 0 2286 297 615 22 0 2015-08-19T16:19:06Z
Cyprid 493316351 2015-08-19 16:19:11 0.0 0 125.0 127.0 0.0 0 4 0 5.0 0 2787 -1911 808 22 0 2015-08-19T16:19:11Z
Cyprid 493316356 2015-08-19 16:19:16 0.0 0 125.0 127.0 0.0 0 4 0 5.0 0 -88 -611 918 21 0 2015-08-19T16:19:16Z
Cyprid 493316361 2015-08-19 16:19:21 0.0 0 125.0 127.0 0.0 0 4 0 5.0 0 927 -237 510 22 0 2015-08-19T16:19:21Z
Cyprid 493316366 2015-08-19 16:19:26 0.0 0 125.0 127.0 0.0 0 4 0 5.0 0 406 389 -355 22 0 2015-08-19T16:19:26Z
Cyprid 493316371 2015-08-19 16:19:31 0.0 0 125.0 127.0 0.0 0 4 0 5.0 0 -1350 -431 256 21 0 2015-08-19T16:19:31Z
Cyprid 493316376 2015-08-19 16:19:36 0.0 0 125.0 127.0 0.0 0 4 0 5.0 0 -2187 -1021 77 21 0 2015-08-19T16:19:36Z
Cyprid 493316381 2015-08-19 16:19:41 0.0 0 125.0 127.0 0.0 0 4 0 5.0 0 664 -1122 98 22 0 2015-08-19T16:19:41Z
Cyprid 493316386 2015-08-19 16:19:46 0.01 0 125.0 127.0 0.0 0 4 0 5.0 0 189 1400 -120 22 0 2015-08-19T16:19:46Z
Cyprid 493316391 2015-08-19 16:19:51 0.0 0 125.0 127.0 0.0 0 4 0 5.0 0 -1374 831 -662 22 0 2015-08-19T16:19:51Z
Cyprid 493316396 2015-08-19 16:19:56 0.0 0 125.0 127.0 0.0 0 4 0 5.0 0 -602 -677 487 21 0 2015-08-19T16:19:56Z
Cyprid 493316401 2015-08-19 16:20:01 0.01 0 125.0 127.0 0.0 0 4 0 5.0 0 -1207 51 -245 22 0 2015-08-19T16:20:01Z
Cyprid 493316406 2015-08-19 16:20:06 0.02 0 125.0 127.0 0.0 0 4 0 5.0 0 -1526 -1362 125 22 0 2015-08-19T16:20:06Z
Cyprid 493316411 2015-08-19 16:20:11 0.0 0 125.0 127.0 0.0 0 4 0 5.0 0 -683 396 785 22 0 2015-08-19T16:20:11Z
Cyprid 493316416 2015-08-19 16:20:16 0.02 0 125.0 127.0 0.0 0 4 0 5.0 0 79 -96 560 21 0 2015-08-19T16:20:16Z
Cyprid 493316421 2015-08-19 16:20:21 0.05 0 125.0 127.0 0.0 0 4 0 5.0 0 995 200 755 22 0 2015-08-19T16:20:21Z
Cyprid 493316426 2015-08-19 16:20:26 0.08 0 125.0 127.0 0.0 0 4 0 5.0 0 -956 821 839 21 0 2015-08-19T16:20:26Z
Cyprid 493316431 2015-08-19 16:20:31 0.19 0 125.0 127.0 0.0 0 4 0 5.0 0 -8 -653 1520 22 0 2015-08-19T16:20:31Z
Cyprid 493316436 2015-08-19 16:20:36 0.35 0 125.0 127.0 0.0 0 4 0 5.0 0 307 311 2080 22 0 2015-08-19T16:20:36Z
Cyprid 493316436 2015-08-19 16:20:36 0.38 0 125.0 127.0 0.0 0 5 0 5.0 0 -86 -535 2137 125 0 2015-08-19T16:20:36Z
Cyprid 493316468 2015-08-19 16:21:08 3.06 0 15.0 127.0 0.0 0 7 0 5.0 0 -6 -305 5274 0 0 2015-08-19T16:21:08Z
Cyprid 493316473 2015-08-19 16:21:13 3.68 0 15.0 127.0 0.0 0 7 0 5.0 0 -91 -216 3568 0 125 2015-08-19T16:21:13Z
Cyprid 493316505 2015-08-19 16:21:45 7.04 0 15.0 127.0 0.0 0 7 0 5.0 0 -44 -108 2131 0 70 2015-08-19T16:21:45Z
Cyprid 493316525 2015-08-19 16:22:05 8.46 0 15.0 127.0 0.0 0 8 0 5.0 0 -5 -141 2041 0 5 2015-08-19T16:22:05Z
Cyprid 493316535 2015-08-19 16:22:15 8.86 0 15.0 127.0 0.0 0 8 0 5.0 0 10 -117 1827 0 5 2015-08-19T16:22:15Z
Cyprid 493316545 2015-08-19 16:22:25 9.34 0 15.0 127.0 0.0 0 8 0 5.0 0 46 -103 1679 0 5 2015-08-19T16:22:25Z
Cyprid 493316555 2015-08-19 16:22:35 9.75 0 15.0 127.01 0.0 0 8 0 5.0 0 20 -94 1539 0 5 2015-08-19T16:22:35Z
Cyprid 493316565 2015-08-19 16:22:45 9.95 0 15.0 127.01 0.0 0 8 0 5.0 0 21 -115 1321 0 5 2015-08-19T16:22:45Z
Cyprid 493316575 2015-08-19 16:22:55 10.27 0 15.0 127.01 0.0 0 8 0 5.0 0 -18 -88 1125 0 4 2015-08-19T16:22:55Z
Cyprid 493316585 2015-08-19 16:23:05 10.6 0 15.0 127.02 0.0 0 8 0 5.0 0 19 -56 811 0 5 2015-08-19T16:23:05Z
Cyprid 493316595 2015-08-19 16:23:15 10.78 0 15.0 127.02 0.0 0 8 0 5.0 0 33 -73 631 2 0 2015-08-19T16:23:15Z
Cyprid 493316605 2015-08-19 16:23:25 11.01 0 15.0 127.02 0.0 0 8 0 5.0 0 33 -66 630 0 5 2015-08-19T16:23:25Z
Cyprid 493316615 2015-08-19 16:23:35 11.21 0 15.0 127.02 0.0 0 8 0 5.0 0 -4 -21 405 1 0 2015-08-19T16:23:35Z
Cyprid 493316625 2015-08-19 16:23:45 11.28 0 15.0 127.03 0.0 0 8 0 5.0 0 22 -45 390 3 0 2015-08-19T16:23:45Z
Cyprid 493316635 2015-08-19 16:23:55 11.33 0 15.0 127.03 0.0 0 8 0 5.0 0 -16 -65 595 3 0 2015-08-19T16:23:55Z
Cyprid 493316645 2015-08-19 16:24:05 11.64 0 15.0 127.03 0.0 0 8 0 5.0 0 34 -71 821 0 5 2015-08-19T16:24:05Z
Cyprid 493316655 2015-08-19 16:24:15 11.81 0 15.0 127.04 0.0 0 8 0 5.0 0 22 -53 681 0 0 2015-08-19T16:24:15Z
Cyprid 493316665 2015-08-19 16:24:25 11.92 0 15.0 127.04 0.0 0 8 0 5.0 0 -5 -63 642 1 0 2015-08-19T16:24:25Z
Cyprid 493316675 2015-08-19 16:24:35 12.25 0 15.0 127.04 0.0 0 8 0 5.0 0 -18 -62 677 0 5 2015-08-19T16:24:35Z
Cyprid 493316685 2015-08-19 16:24:45 12.42 0 15.0 127.04 0.0 0 8 0 5.0 0 -9 -52 467 0 2 2015-08-19T16:24:45Z
Cyprid 493316695 2015-08-19 16:24:55 12.46 0 15.0 127.05 0.0 0 8 0 5.0 0 35 -49 274 5 0 2015-08-19T16:24:55Z
Cyprid 493316705 2015-08-19 16:25:05 12.62 0 15.0 127.05 0.0 0 8 0 5.0 0 32 -52 470 0 5 2015-08-19T16:25:05Z
Cyprid 493316715 2015-08-19 16:25:15 12.77 0 15.0 127.05 0.0 0 8 0 5.0 0 44 -44 375 0 0 2015-08-19T16:25:15Z
Cyprid 493316725 2015-08-19 16:25:25 12.97 0 15.0 127.06 0.0 0 8 0 5.0 0 24 -28 288 0 4 2015-08-19T16:25:25Z
Cyprid 493316735 2015-08-19 16:25:35 13.01 0 15.0 127.06 0.0 0 8 0 5.0 0 46 -15 93 6 0 2015-08-19T16:25:35Z
Cyprid 493316745 2015-08-19 16:25:45 12.95 0 15.0 127.06 0.0 0 8 0 5.0 0 28 -24 210 3 0 2015-08-19T16:25:45Z
Cyprid 493316755 2015-08-19 16:25:55 13.15 0 15.0 127.06 0.0 0 8 0 5.0 0 16 -45 473 0 5 2015-08-19T16:25:55Z
Cyprid 493316765 2015-08-19 16:26:05 13.33 0 15.0 127.07 0.0 0 8 0 5.0 0 35 -58 402 0 2 2015-08-19T16:26:05Z
Cyprid 493316775 2015-08-19 16:26:15 13.34 0 15.0 127.07 0.0 0 8 0 5.0 0 5 -29 256 5 0 2015-08-19T16:26:15Z
Cyprid 493316785 2015-08-19 16:26:25 13.5 0 15.0 127.07 0.0 0 8 0 5.0 0 1 -62 382 0 5 2015-08-19T16:26:25Z
Cyprid 493316795 2015-08-19 16:26:35 13.62 0 15.0 127.08 0.0 0 8 0 5.0 0 40 -44 242 0 0 2015-08-19T16:26:35Z
Cyprid 493316805 2015-08-19 16:26:45 13.69 0 15.0 127.08 0.0 0 8 0 5.0 0 13 -25 152 0 1 2015-08-19T16:26:45Z
Cyprid 493316815 2015-08-19 16:26:55 13.74 0 15.0 127.08 0.0 0 8 0 5.0 0 26 -32 68 1 0 2015-08-19T16:26:55Z
Cyprid 493316825 2015-08-19 16:27:05 13.88 0 15.0 127.08 0.0 0 8 0 5.0 0 23 -48 64 0 4 2015-08-19T16:27:05Z
Cyprid 493316835 2015-08-19 16:27:15 13.96 0 15.0 127.08 0.0 0 8 0 5.0 0 38 -41 -187 1 0 2015-08-19T16:27:15Z
Cyprid 493316845 2015-08-19 16:27:25 13.89 0 15.0 127.09 0.0 0 8 0 5.0 0 41 -11 -330 4 0 2015-08-19T16:27:25Z
Cyprid 493316855 2015-08-19 16:27:35 13.84 0 15.0 127.09 0.0 0 8 0 5.0 0 26 14 -180 2 0 2015-08-19T16:27:35Z
Cyprid 493316865 2015-08-19 16:27:45 13.87 0 15.0 127.09 0.0 0 8 0 5.0 0 19 -38 -4 1 0 2015-08-19T16:27:45Z
Cyprid 493316875 2015-08-19 16:27:55 13.93 0 15.0 127.1 0.0 0 8 0 5.0 0 31 -15 207 0 0 2015-08-19T16:27:55Z
Cyprid 493316885 2015-08-19 16:28:05 14.06 0 15.0 127.1 0.0 0 8 0 5.0 0 10 -51 317 0 3 2015-08-19T16:28:05Z
Cyprid 493316895 2015-08-19 16:28:15 14.18 0 15.0 127.1 0.0 0 8 0 5.0 0 33 -39 244 0 1 2015-08-19T16:28:15Z
Cyprid 493316905 2015-08-19 16:28:25 14.19 0 15.0 127.1 0.0 0 8 0 5.0 0 47 -33 174 1 0 2015-08-19T16:28:25Z
Cyprid 493316915 2015-08-19 16:28:35 14.29 0 15.0 127.11 0.0 0 8 0 5.0 0 13 -46 180 0 3 2015-08-19T16:28:35Z
Cyprid 493316925 2015-08-19 16:28:45 14.39 0 15.0 127.11 0.0 0 8 0 5.0 0 20 -47 59 0 1 2015-08-19T16:28:45Z
Cyprid 493316935 2015-08-19 16:28:55 14.34 0 15.0 127.11 0.0 0 8 0 5.0 0 23 -58 -140 4 0 2015-08-19T16:28:55Z
Cyprid 493316945 2015-08-19 16:29:05 14.31 0 15.0 127.12 0.0 0 8 0 5.0 0 51 6 -44 0 0 2015-08-19T16:29:05Z
Cyprid 493316955 2015-08-19 16:29:15 14.33 0 15.0 127.12 0.0 0 8 0 5.0 0 18 -40 36 1 0 2015-08-19T16:29:15Z
Cyprid 493316965 2015-08-19 16:29:25 14.41 0 15.0 127.12 0.0 0 8 0 5.0 0 34 -23 138 0 2 2015-08-19T16:29:25Z
Cyprid 493316975 2015-08-19 16:29:35 14.48 0 15.0 127.12 0.0 0 8 0 5.0 0 32 -64 135 0 0 2015-08-19T16:29:35Z
Cyprid 493316985 2015-08-19 16:29:45 14.48 0 15.0 127.13 0.0 0 8 0 5.0 0 7 -46 122 0 0 2015-08-19T16:29:45Z
Cyprid 493316995 2015-08-19 16:29:55 14.49 0 15.0 127.13 0.0 0 8 0 5.0 0 16 -55 101 2 0 2015-08-19T16:29:55Z
Cyprid 493317005 2015-08-19 16:30:05 14.45 0 15.0 127.13 0.0 0 8 0 5.0 0 43 -50 175 2 0 2015-08-19T16:30:05Z
Cyprid 493317015 2015-08-19 16:30:15 14.54 0 15.0 127.14 0.0 0 8 0 5.0 0 10 -73 326 0 4 2015-08-19T16:30:15Z
Cyprid 493317025 2015-08-19 16:30:25 14.57 0 15.0 127.14 0.0 0 8 0 5.0 0 29 -50 255 2 0 2015-08-19T16:30:25Z
Cyprid 493317035 2015-08-19 16:30:35 14.73 0 15.0 127.14 0.0 0 8 0 5.0 0 17 -49 290 0 5 2015-08-19T16:30:35Z
Cyprid 493317045 2015-08-19 16:30:45 14.71 0 15.0 127.14 0.0 0 8 0 5.0 0 40 -47 124 2 0 2015-08-19T16:30:45Z
Cyprid 493317055 2015-08-19 16:30:55 14.77 0 15.0 127.15 0.0 0 8 0 5.0 0 23 -44 84 0 4 2015-08-19T16:30:55Z
Cyprid 493317065 2015-08-19 16:31:05 14.74 0 15.0 127.15 0.0 0 8 0 5.0 0 27 -26 -172 4 0 2015-08-19T16:31:05Z
Cyprid 493317075 2015-08-19 16:31:15 14.83 0 15.0 127.15 0.0 0 8 0 5.0 0 -8 -2 -81 0 5 2015-08-19T16:31:15Z
Cyprid 493317085 2015-08-19 16:31:25 14.9 0 15.0 127.16 0.0 0 8 0 5.0 0 -12 -29 -185 0 1 2015-08-19T16:31:25Z
Cyprid 493317095 2015-08-19 16:31:35 14.74 0 15.0 127.16 0.0 0 8 0 5.0 0 33 -30 -318 5 0 2015-08-19T16:31:35Z
Cyprid 493317105 2015-08-19 16:31:45 14.7 0 15.0 127.16 0.0 0 8 0 5.0 0 3 -27 -145 0 0 2015-08-19T16:31:45Z
Cyprid 493317115 2015-08-19 16:31:55 14.62 0 15.0 127.16 0.0 0 8 0 5.0 0 39 -36 -50 5 0 2015-08-19T16:31:55Z
Cyprid 493317125 2015-08-19 16:32:05 14.57 0 15.0 127.17 0.0 0 8 0 5.0 0 46 -46 270 0 0 2015-08-19T16:32:05Z
Cyprid 493317135 2015-08-19 16:32:15 14.67 0 15.0 127.17 0.0 0 8 0 5.0 0 35 -57 506 0 2 2015-08-19T16:32:15Z
Cyprid 493317145 2015-08-19 16:32:25 14.77 0 15.0 127.17 0.0 0 8 0 5.0 0 19 -39 469 0 2 2015-08-19T16:32:25Z
Cyprid 493317155 2015-08-19 16:32:35 14.78 0 15.0 127.17 0.0 0 8 0 5.0 0 30 -52 370 1 0 2015-08-19T16:32:35Z
Cyprid 493317165 2015-08-19 16:32:45 14.83 0 15.0 127.18 0.0 0 8 0 5.0 0 26 -68 449 0 2 2015-08-19T16:32:45Z
Cyprid 493317175 2015-08-19 16:32:55 14.97 0 15.0 127.18 0.0 0 8 0 5.0 0 25 -54 391 0 5 2015-08-19T16:32:55Z
Cyprid 493317185 2015-08-19 16:33:05 15.08 0 15.0 127.18 0.0 0 8 0 5.0 0 33 -17 161 0 2 2015-08-19T16:33:05Z
Cyprid 493317195 2015-08-19 16:33:15 15.02 0 15.0 127.19 0.0 0 8 0 5.0 0 41 -31 -169 3 0 2015-08-19T16:33:15Z
Cyprid 493317205 2015-08-19 16:33:25 14.91 0 15.0 127.19 0.0 0 8 0 5.0 0 12 -23 -197 2 0 2015-08-19T16:33:25Z
Cyprid 493317215 2015-08-19 16:33:35 14.87 0 15.0 127.19 0.0 0 8 0 5.0 0 11 -31 -79 0 0 2015-08-19T16:33:35Z
Cyprid 493317225 2015-08-19 16:33:45 14.91 0 15.0 127.19 0.0 0 8 0 5.0 0 22 -23 -17 0 2 2015-08-19T16:33:45Z
Cyprid 493317235 2015-08-19 16:33:55 14.82 0 15.0 127.2 0.0 0 8 0 5.0 0 13 -17 -89 5 0 2015-08-19T16:33:55Z
Cyprid 493317245 2015-08-19 16:34:05 14.76 0 15.0 127.2 0.0 0 8 0 5.0 0 36 -48 57 0 0 2015-08-19T16:34:05Z
Cyprid 493317255 2015-08-19 16:34:15 14.84 0 15.0 127.2 0.0 0 8 0 5.0 0 24 -51 218 0 3 2015-08-19T16:34:15Z
Cyprid 493317265 2015-08-19 16:34:25 14.87 0 15.0 127.21 0.0 0 8 0 5.0 0 29 -44 244 2 0 2015-08-19T16:34:25Z
Cyprid 493317275 2015-08-19 16:34:35 15.02 0 15.0 127.21 0.0 0 8 0 5.0 0 37 -50 334 0 5 2015-08-19T16:34:35Z
Cyprid 493317288 2015-08-19 16:34:48 15.04 0 15.0 127.21 15.22 0 0 0 5.0 0 18 -110 115 1 0 2015-08-19T16:34:48Z
Cyprid 493317298 2015-08-19 16:34:58 14.95 0 15.0 127.21 15.21 0 0 0 5.0 0 2 -89 121 4 0 2015-08-19T16:34:58Z
Cyprid 493317308 2015-08-19 16:35:08 15.05 0 15.0 127.22 15.21 0 0 0 5.0 0 -19 -66 187 0 5 2015-08-19T16:35:08Z
Cyprid 493317318 2015-08-19 16:35:18 15.09 0 15.0 127.22 15.21 0 0 0 5.0 0 33 -29 147 0 0 2015-08-19T16:35:18Z
Cyprid 493317328 2015-08-19 16:35:28 14.93 0 15.0 127.22 15.21 0 0 0 5.0 0 -1 -80 139 5 0 2015-08-19T16:35:28Z
Cyprid 493317338 2015-08-19 16:35:38 15.03 0 15.0 127.23 15.21 0 0 0 5.0 0 30 -36 285 0 5 2015-08-19T16:35:38Z
Cyprid 493317348 2015-08-19 16:35:48 15.14 0 15.0 127.23 15.2 0 0 0 5.0 0 -5 -59 110 0 4 2015-08-19T16:35:48Z
Cyprid 493317358 2015-08-19 16:35:58 15.15 0 15.0 127.23 15.2 0 0 0 5.0 0 38 -39 -41 4 0 2015-08-19T16:35:58Z
Cyprid 493317368 2015-08-19 16:36:08 15.2 0 15.0 127.23 15.21 0 0 0 5.0 0 30 -27 -141 0 5 2015-08-19T16:36:08Z
Cyprid 493317380 2015-08-19 16:36:20 15.05 0 15.0 127.24 15.2 0 0 0 5.0 0 39 0 -247 5 0 2015-08-19T16:36:20Z
Cyprid 493317390 2015-08-19 16:36:30 14.99 0 15.0 127.24 15.21 0 0 0 5.0 0 1 14 -63 1 0 2015-08-19T16:36:30Z
Cyprid 493317400 2015-08-19 16:36:40 14.99 0 15.0 127.24 15.21 0 0 0 5.0 0 5 -56 88 0 1 2015-08-19T16:36:40Z
Cyprid 493317410 2015-08-19 16:36:50 15.0 0 15.0 127.25 15.21 0 0 0 5.0 0 4 -59 165 0 0 2015-08-19T16:36:50Z
Cyprid 493317420 2015-08-19 16:37:00 14.93 0 15.0 127.25 15.22 0 0 0 5.0 0 18 -26 292 3 0 2015-08-19T16:37:00Z
Cyprid 493317430 2015-08-19 16:37:10 15.02 0 15.0 127.25 15.21 0 0 0 5.0 0 23 -13 376 0 5 2015-08-19T16:37:10Z
Cyprid 493317440 2015-08-19 16:37:20 15.17 0 15.0 127.25 15.2 0 0 0 5.0 0 -5 -68 177 0 4 2015-08-19T16:37:20Z
Cyprid 493317450 2015-08-19 16:37:30 15.11 0 15.0 127.26 15.21 0 0 0 5.0 0 29 -21 34 5 0 2015-08-19T16:37:30Z
Cyprid 493317460 2015-08-19 16:37:40 15.0 0 15.0 127.26 15.2 0 0 0 5.0 0 23 18 124 2 0 2015-08-19T16:37:40Z
Cyprid 493317470 2015-08-19 16:37:50 15.06 0 15.0 127.26 15.21 0 0 0 5.0 0 24 -56 181 0 5 2015-08-19T16:37:50Z
Cyprid 493317480 2015-08-19 16:38:00 15.14 0 15.0 127.26 15.2 0 0 0 5.0 0 -1 -19 86 0 0 2015-08-19T16:38:00Z
Cyprid 493317490 2015-08-19 16:38:10 15.1 0 15.0 127.27 15.19 0 0 0 5.0 0 15 -2 -5 2 0 2015-08-19T16:38:10Z
Cyprid 493317500 2015-08-19 16:38:20 15.08 0 15.0 127.27 15.2 0 0 0 5.0 0 27 -24 -8 0 0 2015-08-19T16:38:20Z
Cyprid 493317510 2015-08-19 16:38:30 14.95 0 15.0 127.27 15.19 0 0 0 5.0 0 1 -67 40 5 0 2015-08-19T16:38:30Z
Cyprid 493317520 2015-08-19 16:38:40 14.98 0 15.0 127.28 15.19 0 0 0 5.0 0 24 -25 252 0 5 2015-08-19T16:38:40Z
Cyprid 493317530 2015-08-19 16:38:50 15.09 0 15.0 127.28 15.2 0 0 0 5.0 0 22 -11 182 0 2 2015-08-19T16:38:50Z
Cyprid 493317540 2015-08-19 16:39:00 14.98 0 15.0 127.28 15.19 0 0 0 5.0 0 34 -70 137 5 0 2015-08-19T16:39:00Z
Cyprid 493317550 2015-08-19 16:39:10 14.92 0 15.0 127.28 15.2 0 0 0 5.0 0 7 -40 237 0 0 2015-08-19T16:39:10Z
Cyprid 493317560 2015-08-19 16:39:20 15.1 0 15.0 127.29 15.18 0 0 0 5.0 0 21 -5 265 0 5 2015-08-19T16:39:20Z
Cyprid 493317570 2015-08-19 16:39:30 15.13 0 15.0 127.29 15.18 0 0 0 5.0 0 20 -71 140 0 0 2015-08-19T16:39:30Z
Cyprid 493317580 2015-08-19 16:39:40 15.04 0 15.0 127.29 15.19 0 0 0 5.0 0 44 -5 76 4 0 2015-08-19T16:39:40Z
Cyprid 493317590 2015-08-19 16:39:50 15.07 0 15.0 127.3 15.19 0 0 0 5.0 0 35 -61 79 0 5 2015-08-19T16:39:50Z
Cyprid 493317600 2015-08-19 16:40:00 15.08 0 15.0 127.3 15.19 0 0 0 5.0 0 51 -43 -26 3 0 2015-08-19T16:40:00Z
Cyprid 493317611 2015-08-19 16:40:11 14.99 0 15.0 127.3 15.19 0 0 0 5.0 0 15 -60 -12 1 0 2015-08-19T16:40:11Z
Cyprid 493317621 2015-08-19 16:40:21 14.99 0 15.0 127.3 15.18 0 0 0 5.0 0 -3 -58 49 0 1 2015-08-19T16:40:21Z
Cyprid 493317631 2015-08-19 16:40:31 15.0 0 15.0 127.31 15.18 0 0 0 5.0 0 33 -56 55 0 0 2015-08-19T16:40:31Z
Cyprid 493317641 2015-08-19 16:40:41 15.04 0 15.0 127.31 15.18 0 0 0 5.0 0 21 36 58 0 1 2015-08-19T16:40:41Z
Cyprid 493317651 2015-08-19 16:40:51 14.98 0 15.0 127.31 15.18 0 0 0 5.0 0 19 -49 57 3 0 2015-08-19T16:40:51Z
Cyprid 493317661 2015-08-19 16:41:01 15.0 0 15.0 127.32 15.19 0 0 0 5.0 0 33 -8 111 0 3 2015-08-19T16:41:01Z
Cyprid 493317671 2015-08-19 16:41:11 14.97 0 15.0 127.32 15.17 0 0 0 5.0 0 15 -35 155 3 0 2015-08-19T16:41:11Z
Cyprid 493317681 2015-08-19 16:41:21 15.0 0 15.0 127.32 15.18 0 0 0 5.0 0 51 -45 221 0 4 2015-08-19T16:41:21Z
Cyprid 493317691 2015-08-19 16:41:31 15.08 0 15.0 127.32 15.17 0 0 0 5.0 0 20 -59 142 0 0 2015-08-19T16:41:31Z
Cyprid 493317701 2015-08-19 16:41:41 15.04 0 15.0 127.33 15.17 0 0 0 5.0 0 35 -62 115 2 0 2015-08-19T16:41:41Z
Cyprid 493317711 2015-08-19 16:41:51 15.02 0 15.0 127.33 15.16 0 0 0 5.0 0 9 -73 126 0 1 2015-08-19T16:41:51Z
Cyprid 493317721 2015-08-19 16:42:01 15.07 0 15.0 127.33 15.17 0 0 0 5.0 0 36 -72 82 0 2 2015-08-19T16:42:01Z
Cyprid 493317731 2015-08-19 16:42:11 15.08 0 15.0 127.33 15.17 0 0 0 5.0 0 40 -29 36 1 0 2015-08-19T16:42:11Z
Cyprid 493317741 2015-08-19 16:42:21 15.01 0 15.0 127.34 15.17 0 0 0 5.0 0 21 -48 51 3 0 2015-08-19T16:42:21Z
Cyprid 493317751 2015-08-19 16:42:31 15.07 0 15.0 127.34 15.16 0 0 0 5.0 0 20 -72 88 0 5 2015-08-19T16:42:31Z
Cyprid 493317761 2015-08-19 16:42:41 15.01 0 15.0 127.34 15.17 0 0 0 5.0 0 19 -23 31 5 0 2015-08-19T16:42:41Z
Cyprid 493317771 2015-08-19 16:42:51 15.0 0 15.0 127.35 15.17 0 0 0 5.0 0 24 -27 88 0 3 2015-08-19T16:42:51Z
Cyprid 493317781 2015-08-19 16:43:01 15.01 0 15.0 127.35 15.17 0 0 0 5.0 0 34 -26 77 1 0 2015-08-19T16:43:01Z
Cyprid 493317791 2015-08-19 16:43:11 15.02 0 15.0 127.35 15.17 0 0 0 5.0 0 33 -38 84 0 0 2015-08-19T16:43:11Z
Cyprid 493317801 2015-08-19 16:43:21 15.0 0 15.0 127.35 15.17 0 0 0 5.0 0 23 -32 94 0 0 2015-08-19T16:43:21Z
Cyprid 493317811 2015-08-19 16:43:31 14.95 0 15.0 127.36 15.17 0 0 0 5.0 0 32 15 118 2 0 2015-08-19T16:43:31Z
Cyprid 493317821 2015-08-19 16:43:41 15.01 0 15.0 127.36 15.16 0 0 0 5.0 0 8 -16 169 0 4 2015-08-19T16:43:41Z
Cyprid 493317831 2015-08-19 16:43:51 15.07 0 15.0 127.36 15.17 0 0 0 5.0 0 16 -43 71 0 0 2015-08-19T16:43:51Z
Cyprid 493317841 2015-08-19 16:44:01 15.05 0 15.0 127.36 15.17 0 0 0 5.0 0 16 -49 15 1 0 2015-08-19T16:44:01Z
Cyprid 493317851 2015-08-19 16:44:11 15.0 0 15.0 127.37 15.17 0 0 0 5.0 0 16 -98 41 2 0 2015-08-19T16:44:11Z
Cyprid 493317861 2015-08-19 16:44:21 15.01 0 15.0 127.37 15.17 0 0 0 5.0 0 31 -74 92 0 2 2015-08-19T16:44:21Z
Cyprid 493317871 2015-08-19 16:44:31 14.96 0 15.0 127.37 15.17 0 0 0 5.0 0 31 -57 95 3 0 2015-08-19T16:44:31Z
Cyprid 493317881 2015-08-19 16:44:41 15.06 0 15.0 127.38 15.18 0 0 0 5.0 0 41 -66 123 0 5 2015-08-19T16:44:41Z
Cyprid 493317891 2015-08-19 16:44:51 14.96 0 15.0 127.38 15.17 0 0 0 5.0 0 21 -31 89 5 0 2015-08-19T16:44:51Z
Cyprid 493317901 2015-08-19 16:45:01 15.0 0 15.0 127.38 15.17 0 0 0 5.0 0 41 -40 108 0 5 2015-08-19T16:45:01Z
Cyprid 493317911 2015-08-19 16:45:11 14.95 0 15.0 127.38 15.18 0 0 0 5.0 0 -11 -45 73 5 0 2015-08-19T16:45:11Z
Cyprid 493317921 2015-08-19 16:45:21 14.93 0 15.0 127.39 15.17 0 0 0 5.0 0 41 -4 167 0 1 2015-08-19T16:45:21Z
Cyprid 493317931 2015-08-19 16:45:31 15.03 0 15.0 127.39 15.17 0 0 0 5.0 0 92 -69 175 0 4 2015-08-19T16:45:31Z
Cyprid 493317941 2015-08-19 16:45:41 15.01 0 15.0 127.39 15.16 0 0 0 5.0 0 -5 -41 91 4 0 2015-08-19T16:45:41Z
Cyprid 493317951 2015-08-19 16:45:51 14.94 0 15.0 127.4 15.17 0 0 0 5.0 0 4 -55 159 0 0 2015-08-19T16:45:51Z
Cyprid 493317961 2015-08-19 16:46:01 15.03 0 15.0 127.4 15.16 0 0 0 5.0 0 17 -12 142 0 5 2015-08-19T16:46:01Z
Cyprid 493317972 2015-08-19 16:46:12 15.04 0 15.0 127.4 15.15 0 0 0 5.0 0 21 -55 46 5 0 2015-08-19T16:46:12Z
Cyprid 493317982 2015-08-19 16:46:22 15.08 0 15.0 127.41 15.15 0 0 0 5.0 0 37 -56 57 0 5 2015-08-19T16:46:22Z
Cyprid 493317992 2015-08-19 16:46:32 15.09 0 15.0 127.41 15.16 0 0 0 5.0 0 3 1 -44 2 0 2015-08-19T16:46:32Z
Cyprid 493318002 2015-08-19 16:46:42 15.0 0 15.0 127.41 15.15 0 0 0 5.0 0 32 0 -31 3 0 2015-08-19T16:46:42Z
Cyprid 493318012 2015-08-19 16:46:52 15.02 0 15.0 127.41 15.14 0 0 0 5.0 0 45 -47 52 0 4 2015-08-19T16:46:52Z
Cyprid 493318022 2015-08-19 16:47:02 14.99 0 15.0 127.41 15.16 0 0 0 5.0 0 29 -43 66 4 0 2015-08-19T16:47:02Z
Cyprid 493318032 2015-08-19 16:47:12 14.88 0 15.0 127.42 15.15 0 0 0 5.0 0 44 -17 189 2 0 2015-08-19T16:47:12Z
Cyprid 493318042 2015-08-19 16:47:22 14.92 0 15.0 127.42 15.15 0 0 0 5.0 0 -5 -46 337 0 4 2015-08-19T16:47:22Z
Cyprid 493318052 2015-08-19 16:47:32 14.98 0 15.0 127.42 15.15 0 0 0 5.0 0 -1 -29 266 1 0 2015-08-19T16:47:32Z
Cyprid 493318062 2015-08-19 16:47:42 15.0 0 15.0 127.43 15.14 0 0 0 5.0 0 -2 -112 255 0 1 2015-08-19T16:47:42Z
Cyprid 493318072 2015-08-19 16:47:52 15.07 0 15.0 127.43 15.15 0 0 0 5.0 0 -11 -77 161 0 3 2015-08-19T16:47:52Z
Cyprid 493318082 2015-08-19 16:48:02 15.12 0 15.0 127.43 15.14 0 0 0 5.0 0 3 -29 -1 0 0 2015-08-19T16:48:02Z
Cyprid 493318092 2015-08-19 16:48:12 15.07 0 15.0 127.43 15.14 0 0 0 5.0 0 19 -5 -130 3 0 2015-08-19T16:48:12Z
Cyprid 493318102 2015-08-19 16:48:22 14.99 0 15.0 127.44 15.14 0 0 0 5.0 0 26 -80 -65 1 0 2015-08-19T16:48:22Z
Cyprid 493318112 2015-08-19 16:48:32 15.02 0 15.0 127.44 15.15 0 0 0 5.0 0 23 -16 -36 0 3 2015-08-19T16:48:32Z
Cyprid 493318122 2015-08-19 16:48:42 14.88 0 15.0 127.44 15.15 0 0 0 5.0 0 20 6 -36 5 0 2015-08-19T16:48:42Z
Cyprid 493318132 2015-08-19 16:48:52 14.9 0 15.0 127.45 15.16 0 0 0 5.0 0 47 -9 82 0 1 2015-08-19T16:48:52Z
Cyprid 493318142 2015-08-19 16:49:02 15.0 0 15.0 127.45 15.16 0 0 0 5.0 0 5 19 123 0 5 2015-08-19T16:49:02Z
Cyprid 493318152 2015-08-19 16:49:12 14.92 0 15.0 127.45 15.17 0 0 0 5.0 0 47 -21 54 5 0 2015-08-19T16:49:12Z
Cyprid 493318162 2015-08-19 16:49:22 14.85 0 15.0 127.45 15.16 0 0 0 5.0 0 39 -56 188 3 0 2015-08-19T16:49:22Z
Cyprid 493318172 2015-08-19 16:49:32 15.02 0 15.0 127.46 15.15 0 0 0 5.0 0 37 -55 309 0 5 2015-08-19T16:49:32Z
Cyprid 493318182 2015-08-19 16:49:42 14.96 0 15.0 127.46 15.15 0 0 0 5.0 0 46 -29 276 2 0 2015-08-19T16:49:42Z
Cyprid 493318192 2015-08-19 16:49:52 15.03 0 15.0 127.46 15.14 0 0 0 5.0 0 38 -32 227 0 5 2015-08-19T16:49:52Z
Cyprid 493318202 2015-08-19 16:50:02 15.16 0 15.0 127.47 15.14 0 0 0 5.0 0 -14 -9 19 0 2 2015-08-19T16:50:02Z
Cyprid 493318212 2015-08-19 16:50:12 14.96 0 15.0 127.47 15.14 0 0 0 5.0 0 11 -50 -166 5 0 2015-08-19T16:50:12Z
Cyprid 493318222 2015-08-19 16:50:22 14.83 0 15.0 127.47 15.15 0 0 0 5.0 0 14 11 21 5 0 2015-08-19T16:50:22Z
Cyprid 493318232 2015-08-19 16:50:32 15.05 0 15.0 127.47 15.15 0 0 0 5.0 0 36 -92 230 0 5 2015-08-19T16:50:32Z
Cyprid 493318242 2015-08-19 16:50:42 14.97 0 15.0 127.48 15.15 0 0 0 5.0 0 20 -96 233 2 0 2015-08-19T16:50:42Z
Cyprid 493318252 2015-08-19 16:50:52 14.97 0 15.0 127.48 15.14 0 0 0 5.0 0 23 -84 253 0 2 2015-08-19T16:50:52Z
Cyprid 493318262 2015-08-19 16:51:02 15.1 0 15.0 127.48 15.13 0 0 0 5.0 0 5 -20 111 0 5 2015-08-19T16:51:02Z
Cyprid 493318272 2015-08-19 16:51:12 15.1 0 15.0 127.49 15.13 0 0 0 5.0 0 -8 -93 -57 5 0 2015-08-19T16:51:12Z
Cyprid 493318282 2015-08-19 16:51:22 15.08 0 15.0 127.49 15.13 0 0 0 5.0 0 -9 -59 -33 0 3 2015-08-19T16:51:22Z
Cyprid 493318292 2015-08-19 16:51:32 14.98 0 15.0 127.49 15.13 0 0 0 5.0 0 22 -59 -45 5 0 2015-08-19T16:51:32Z
Cyprid 493318302 2015-08-19 16:51:42 14.93 0 15.0 127.49 15.13 0 1 0 5.0 0 6 -40 75 0 1 2015-08-19T16:51:42Z
Cyprid 493318312 2015-08-19 16:51:52 15.02 0 15.0 127.5 15.12 0 0 0 5.0 0 -12 -22 72 0 4 2015-08-19T16:51:52Z
Cyprid 493318322 2015-08-19 16:52:02 15.01 0 15.0 127.5 15.14 0 0 0 5.0 0 41 2 20 4 0 2015-08-19T16:52:02Z
Cyprid 493318333 2015-08-19 16:52:13 14.96 0 15.0 127.5 15.14 0 0 0 5.0 0 26 -23 86 0 0 2015-08-19T16:52:13Z
Cyprid 493318343 2015-08-19 16:52:23 14.92 0 15.0 127.5 15.14 0 1 0 5.0 0 23 -36 117 0 0 2015-08-19T16:52:23Z
Cyprid 493318353 2015-08-19 16:52:33 14.96 0 15.0 127.51 15.13 0 0 0 5.0 0 53 -3 143 0 1 2015-08-19T16:52:33Z
Cyprid 493318363 2015-08-19 16:52:43 15.07 0 15.0 127.51 15.13 0 1 0 5.0 0 66 -67 66 0 4 2015-08-19T16:52:43Z
Cyprid 493318373 2015-08-19 16:52:53 15.08 0 15.0 127.51 15.11 0 0 0 5.0 0 17 -60 -61 3 0 2015-08-19T16:52:53Z
Cyprid 493318383 2015-08-19 16:53:03 14.97 0 15.0 127.52 15.12 0 1 0 5.0 0 29 -24 -3 3 0 2015-08-19T16:53:03Z
Cyprid 493318393 2015-08-19 16:53:13 15.01 0 15.0 127.52 15.12 0 1 0 5.0 0 34 -35 59 0 5 2015-08-19T16:53:13Z
Cyprid 493318403 2015-08-19 16:53:23 14.99 0 15.0 127.52 15.13 0 0 0 5.0 0 32 -80 13 5 0 2015-08-19T16:53:23Z
Cyprid 493318413 2015-08-19 16:53:33 15.08 0 15.0 127.52 15.12 0 1 0 5.0 0 11 -71 69 0 5 2015-08-19T16:53:33Z
Cyprid 493318423 2015-08-19 16:53:43 15.06 0 15.0 127.53 15.13 0 0 0 5.0 0 22 23 3 2 0 2015-08-19T16:53:43Z
Cyprid 493318433 2015-08-19 16:53:53 14.9 0 15.0 127.53 15.12 0 1 0 5.0 0 13 -49 82 5 0 2015-08-19T16:53:53Z
Cyprid 493318443 2015-08-19 16:54:03 14.97 0 15.0 127.53 15.12 0 1 0 5.0 0 31 -30 213 0 5 2015-08-19T16:54:03Z
Cyprid 493318453 2015-08-19 16:54:13 15.13 0 15.0 127.53 15.12 0 1 0 5.0 0 23 -98 70 0 5 2015-08-19T16:54:13Z
Cyprid 493318463 2015-08-19 16:54:23 14.97 0 15.0 127.54 15.12 0 1 0 5.0 0 27 -3 -140 5 0 2015-08-19T16:54:23Z
Cyprid 493318473 2015-08-19 16:54:33 14.91 0 15.0 127.54 15.12 0 0 0 5.0 0 40 -21 -63 4 0 2015-08-19T16:54:33Z
Cyprid 493318483 2015-08-19 16:54:43 14.97 0 15.0 127.54 15.12 0 1 0 5.0 0 39 -62 97 0 5 2015-08-19T16:54:43Z
Cyprid 493318493 2015-08-19 16:54:53 15.0 0 15.0 127.55 15.12 0 0 0 5.0 0 22 -82 61 2 0 2015-08-19T16:54:53Z
Cyprid 493318503 2015-08-19 16:55:03 14.93 0 15.0 127.55 15.13 0 1 0 5.0 0 43 -29 108 1 0 2015-08-19T16:55:03Z
Cyprid 493318513 2015-08-19 16:55:13 15.03 0 15.0 127.55 15.12 0 0 0 5.0 0 18 -106 110 0 5 2015-08-19T16:55:13Z
Cyprid 493318523 2015-08-19 16:55:23 15.01 0 15.0 127.55 15.13 0 1 0 5.0 0 29 -5 12 5 0 2015-08-19T16:55:23Z
Cyprid 493318533 2015-08-19 16:55:33 15.03 0 15.0 127.56 15.12 0 1 0 5.0 0 36 -83 25 0 5 2015-08-19T16:55:33Z
Cyprid 493318543 2015-08-19 16:55:43 15.02 0 15.0 127.56 15.12 0 0 0 5.0 0 21 -1 -48 5 0 2015-08-19T16:55:43Z
Cyprid 493318553 2015-08-19 16:55:53 14.9 0 15.0 127.56 15.13 0 1 0 5.0 0 19 -59 76 1 0 2015-08-19T16:55:53Z
Cyprid 493318563 2015-08-19 16:56:03 15.01 0 15.0 127.57 15.12 0 1 0 5.0 0 42 -25 148 0 5 2015-08-19T16:56:03Z
Cyprid 493318573 2015-08-19 16:56:13 15.03 0 15.0 127.57 15.12 0 0 0 5.0 0 21 18 64 2 0 2015-08-19T16:56:13Z
Cyprid 493318583 2015-08-19 16:56:23 14.93 0 15.0 127.57 15.12 0 1 0 5.0 0 28 -38 91 3 0 2015-08-19T16:56:23Z
Cyprid 493318593 2015-08-19 16:56:33 15.02 0 15.0 127.57 15.13 0 1 0 5.0 0 30 -35 134 0 5 2015-08-19T16:56:33Z
Cyprid 493318603 2015-08-19 16:56:43 15.07 0 15.0 127.58 15.11 0 0 0 5.0 0 29 -50 39 0 0 2015-08-19T16:56:43Z
Cyprid 493318613 2015-08-19 16:56:53 15.03 0 15.0 127.58 15.12 0 0 0 5.0 0 20 3 -38 2 0 2015-08-19T16:56:53Z
Cyprid 493318623 2015-08-19 16:57:03 15.0 0 15.0 127.58 15.12 0 1 0 5.0 0 8 -32 -29 0 0 2015-08-19T16:57:03Z
Cyprid 493318633 2015-08-19 16:57:13 14.96 0 15.0 127.58 15.12 0 1 0 5.0 0 6 -48 11 1 0 2015-08-19T16:57:13Z
Cyprid 493318643 2015-08-19 16:57:23 14.87 0 15.0 127.59 15.12 0 0 0 5.0 0 12 -83 97 4 0 2015-08-19T16:57:23Z
Cyprid 493318653 2015-08-19 16:57:33 15.0 0 15.0 127.59 15.13 0 1 0 5.0 0 24 -32 275 0 5 2015-08-19T16:57:33Z
Cyprid 493318663 2015-08-19 16:57:43 15.06 0 15.0 127.59 15.13 0 1 0 5.0 0 12 -40 141 0 3 2015-08-19T16:57:43Z
Cyprid 493318673 2015-08-19 16:57:53 15.01 0 15.0 127.6 15.12 0 1 0 5.0 0 38 -32 39 5 0 2015-08-19T16:57:53Z
Cyprid 493318683 2015-08-19 16:58:03 15.11 0 15.0 127.6 15.12 0 1 0 5.0 0 33 -87 43 0 5 2015-08-19T16:58:03Z
Cyprid 493318694 2015-08-19 16:58:14 15.08 0 15.0 127.6 15.12 0 1 0 5.0 0 28 -69 -66 2 0 2015-08-19T16:58:14Z
Cyprid 493318704 2015-08-19 16:58:24 15.08 0 15.0 127.6 15.12 0 1 0 5.0 0 44 -3 -82 0 2 2015-08-19T16:58:24Z
Cyprid 493318714 2015-08-19 16:58:34 14.99 0 15.0 127.61 15.13 0 1 0 5.0 0 24 -15 -77 5 0 2015-08-19T16:58:34Z
Cyprid 493318724 2015-08-19 16:58:44 14.93 0 15.0 127.61 15.13 0 0 0 5.0 0 48 -49 36 0 1 2015-08-19T16:58:44Z
Cyprid 493318734 2015-08-19 16:58:54 14.95 0 15.0 127.61 15.13 0 1 0 5.0 0 -9 -29 99 0 1 2015-08-19T16:58:54Z
Cyprid 493318744 2015-08-19 16:59:04 14.99 0 15.0 127.62 15.13 0 1 0 5.0 0 18 -27 114 0 0 2015-08-19T16:59:04Z
Cyprid 493318754 2015-08-19 16:59:14 14.95 0 15.0 127.62 15.13 0 1 0 5.0 0 8 -32 125 1 0 2015-08-19T16:59:14Z
Cyprid 493318764 2015-08-19 16:59:24 14.91 0 15.0 127.62 15.13 0 0 0 5.0 0 39 -62 168 1 0 2015-08-19T16:59:24Z
Cyprid 493318774 2015-08-19 16:59:34 14.9 0 15.0 127.62 15.12 0 1 0 5.0 0 29 -56 223 0 0 2015-08-19T16:59:34Z
Cyprid 493318784 2015-08-19 16:59:44 15.02 0 15.0 127.63 15.12 0 1 0 5.0 0 37 -72 218 0 5 2015-08-19T16:59:44Z
Cyprid 493318794 2015-08-19 16:59:54 15.06 0 15.0 127.63 15.13 0 1 0 5.0 0 29 -54 84 2 0 2015-08-19T16:59:54Z
Cyprid 493318804 2015-08-19 17:00:04 15.01 0 15.0 127.63 15.13 0 1 0 5.0 0 22 -53 77 1 0 2015-08-19T17:00:04Z
Cyprid 493318815 2015-08-19 17:00:15 15.06 0 15.0 127.64 15.13 0 1 0 5.0 0 15 -45 46 0 3 2015-08-19T17:00:15Z
Cyprid 493318825 2015-08-19 17:00:25 14.99 0 15.0 127.64 15.13 0 1 0 5.0 0 25 -32 19 5 0 2015-08-19T17:00:25Z
Cyprid 493318835 2015-08-19 17:00:35 15.04 0 15.0 127.64 15.13 0 1 0 5.0 0 32 -79 53 0 5 2015-08-19T17:00:35Z
Cyprid 493318845 2015-08-19 17:00:45 14.98 0 15.0 127.64 15.14 0 0 0 5.0 0 31 -2 7 5 0 2015-08-19T17:00:45Z
Cyprid 493318855 2015-08-19 17:00:55 14.94 0 15.0 127.65 15.13 0 1 0 5.0 0 36 -85 98 0 2 2015-08-19T17:00:55Z
Cyprid 493318865 2015-08-19 17:01:05 15.01 0 15.0 127.65 15.14 0 1 0 5.0 0 41 -10 96 0 1 2015-08-19T17:01:05Z
Cyprid 493318875 2015-08-19 17:01:15 15.0 0 15.0 127.65 15.13 0 1 0 5.0 0 29 -92 63 1 0 2015-08-19T17:01:15Z
Cyprid 493318885 2015-08-19 17:01:25 15.02 0 15.0 127.66 15.13 0 1 0 5.0 0 12 9 62 0 2 2015-08-19T17:01:25Z
Cyprid 493318895 2015-08-19 17:01:35 15.0 0 15.0 127.66 15.13 0 1 0 5.0 0 37 -9 42 3 0 2015-08-19T17:01:35Z
Cyprid 493318905 2015-08-19 17:01:45 15.03 0 15.0 127.66 15.14 0 0 0 5.0 0 56 -69 62 0 4 2015-08-19T17:01:45Z
Cyprid 493318915 2015-08-19 17:01:55 15.14 0 15.0 127.66 15.14 0 1 0 5.0 0 45 -78 -96 0 2 2015-08-19T17:01:55Z
Cyprid 493318925 2015-08-19 17:02:05 15.02 0 15.0 127.67 15.13 0 1 0 5.0 0 26 -24 -160 5 0 2015-08-19T17:02:05Z
Cyprid 493318935 2015-08-19 17:02:15 14.98 0 15.0 127.67 15.13 0 1 0 5.0 0 38 -53 -53 0 0 2015-08-19T17:02:15Z
Cyprid 493318945 2015-08-19 17:02:25 14.96 0 15.0 127.67 15.13 0 1 0 5.0 0 33 -47 7 0 0 2015-08-19T17:02:25Z
Cyprid 493318955 2015-08-19 17:02:35 14.94 0 15.0 127.67 15.14 0 1 0 5.0 0 12 -27 62 1 0 2015-08-19T17:02:35Z
Cyprid 493318965 2015-08-19 17:02:45 14.99 0 15.0 127.68 15.14 0 1 0 5.0 0 25 -61 79 0 3 2015-08-19T17:02:45Z
Cyprid 493318975 2015-08-19 17:02:55 14.96 0 15.0 127.68 15.14 0 1 0 5.0 0 23 12 72 4 0 2015-08-19T17:02:55Z
Cyprid 493318985 2015-08-19 17:03:05 14.96 0 15.0 127.68 15.14 0 1 0 5.0 0 5 -33 89 0 4 2015-08-19T17:03:05Z
Cyprid 493318995 2015-08-19 17:03:15 14.94 0 15.0 127.69 15.13 0 1 0 5.0 0 20 -72 90 5 0 2015-08-19T17:03:15Z
Cyprid 493319005 2015-08-19 17:03:25 14.96 0 15.0 127.69 15.14 0 0 0 5.0 0 30 5 197 0 5 2015-08-19T17:03:25Z
Cyprid 493319015 2015-08-19 17:03:35 15.04 0 15.0 127.69 15.14 0 0 0 5.0 0 16 -36 106 0 0 2015-08-19T17:03:35Z
Cyprid 493319025 2015-08-19 17:03:45 15.01 0 15.0 127.69 15.14 0 1 0 5.0 0 33 -24 55 2 0 2015-08-19T17:03:45Z
Cyprid 493319035 2015-08-19 17:03:55 15.06 0 15.0 127.7 15.13 0 1 0 5.0 0 8 -7 25 0 4 2015-08-19T17:03:55Z
Cyprid 493319045 2015-08-19 17:04:05 15.03 0 15.0 127.7 15.13 0 1 0 5.0 0 48 -78 -46 5 0 2015-08-19T17:04:05Z
Cyprid 493319055 2015-08-19 17:04:15 14.93 0 15.0 127.7 15.13 0 1 0 5.0 0 17 -43 67 0 0 2015-08-19T17:04:15Z
Cyprid 493319065 2015-08-19 17:04:25 14.93 0 15.0 127.71 15.13 0 1 0 5.0 0 35 -69 187 0 0 2015-08-19T17:04:25Z
Cyprid 493319075 2015-08-19 17:04:35 14.92 0 15.0 127.71 15.13 0 1 0 5.0 0 45 -85 253 0 0 2015-08-19T17:04:35Z
Cyprid 493319085 2015-08-19 17:04:45 14.97 0 15.0 127.71 15.13 0 1 0 5.0 0 26 -76 228 0 2 2015-08-19T17:04:45Z
Cyprid 493319095 2015-08-19 17:04:55 14.98 0 15.0 127.71 15.14 0 1 0 5.0 0 36 -50 154 1 0 2015-08-19T17:04:55Z
Cyprid 493319105 2015-08-19 17:05:05 14.98 0 15.0 127.72 15.13 0 1 0 5.0 0 8 -53 147 0 0 2015-08-19T17:05:05Z
Cyprid 493319115 2015-08-19 17:05:15 15.08 0 15.0 127.72 15.13 0 1 0 5.0 0 34 -85 55 0 5 2015-08-19T17:05:15Z
Cyprid 493319125 2015-08-19 17:05:25 15.03 0 15.0 127.72 15.13 0 1 0 5.0 0 33 -3 -55 5 0 2015-08-19T17:05:25Z
Cyprid 493319135 2015-08-19 17:05:35 15.01 0 15.0 127.72 15.14 0 0 0 5.0 0 47 -39 14 0 1 2015-08-19T17:05:35Z
Cyprid 493319145 2015-08-19 17:05:45 14.99 0 15.0 127.73 15.14 0 1 0 5.0 0 22 -31 43 0 0 2015-08-19T17:05:45Z
Cyprid 493319155 2015-08-19 17:05:55 14.9 0 15.0 127.73 15.14 0 1 0 5.0 0 20 -18 122 5 0 2015-08-19T17:05:55Z
Cyprid 493319165 2015-08-19 17:06:05 14.94 0 15.0 127.73 15.14 0 1 0 5.0 0 4 -91 211 0 5 2015-08-19T17:06:05Z
Cyprid 493319175 2015-08-19 17:06:15 14.99 0 15.0 127.74 15.14 0 0 0 5.0 0 2 -39 162 0 0 2015-08-19T17:06:15Z
Cyprid 493319185 2015-08-19 17:06:25 14.99 0 15.0 127.74 15.14 0 1 0 5.0 0 34 -26 114 1 0 2015-08-19T17:06:25Z
Cyprid 493319195 2015-08-19 17:06:35 15.03 0 15.0 127.74 15.13 0 0 0 5.0 0 16 15 98 0 2 2015-08-19T17:06:35Z
Cyprid 493319205 2015-08-19 17:06:45 15.03 0 15.0 127.74 15.13 0 1 0 5.0 0 -2 -35 33 1 0 2015-08-19T17:06:45Z
Cyprid 493319215 2015-08-19 17:06:55 14.94 0 15.0 127.75 15.12 0 1 0 5.0 0 18 -50 79 3 0 2015-08-19T17:06:55Z
Cyprid 493319225 2015-08-19 17:07:05 15.01 0 15.0 127.75 15.12 0 1 0 5.0 0 34 -79 106 0 5 2015-08-19T17:07:05Z
Cyprid 493319235 2015-08-19 17:07:15 15.06 0 15.0 127.75 15.12 0 1 0 5.0 0 38 -22 22 1 0 2015-08-19T17:07:15Z
Cyprid 493319245 2015-08-19 17:07:25 15.0 0 15.0 127.75 15.12 0 1 0 5.0 0 31 -7 10 2 0 2015-08-19T17:07:25Z
Cyprid 493319255 2015-08-19 17:07:35 15.0 0 15.0 127.76 15.12 0 1 0 5.0 0 51 -61 49 0 1 2015-08-19T17:07:35Z
Cyprid 493319265 2015-08-19 17:07:45 15.01 0 15.0 127.76 15.12 0 1 0 5.0 0 27 -43 41 0 0 2015-08-19T17:07:45Z
Cyprid 493319275 2015-08-19 17:07:55 14.97 0 15.0 127.76 15.12 0 1 0 5.0 0 15 -87 72 2 0 2015-08-19T17:07:55Z
Cyprid 493319285 2015-08-19 17:08:05 15.04 0 15.0 127.77 15.12 0 1 0 5.0 0 25 -20 86 0 5 2015-08-19T17:08:05Z
Cyprid 493319296 2015-08-19 17:08:16 15.08 0 15.0 127.77 15.11 0 0 0 5.0 0 41 -3 -16 2 0 2015-08-19T17:08:16Z
Cyprid 493319306 2015-08-19 17:08:26 14.99 0 15.0 127.77 15.12 0 1 0 5.0 0 29 -8 5 3 0 2015-08-19T17:08:26Z
Cyprid 493319316 2015-08-19 17:08:36 15.02 0 15.0 127.77 15.13 0 1 0 5.0 0 50 -55 55 0 4 2015-08-19T17:08:36Z
Cyprid 493319326 2015-08-19 17:08:46 15.03 0 15.0 127.78 15.13 0 1 0 5.0 0 24 -67 21 2 0 2015-08-19T17:08:46Z
Cyprid 493319336 2015-08-19 17:08:56 15.04 0 15.0 127.78 15.11 0 0 0 5.0 0 -13 -7 32 0 1 2015-08-19T17:08:56Z
Cyprid 493319346 2015-08-19 17:09:06 15.04 0 15.0 127.78 15.12 0 1 0 5.0 0 12 -32 10 0 0 2015-08-19T17:09:06Z
Cyprid 493319356 2015-08-19 17:09:16 14.99 0 15.0 127.79 15.12 0 1 0 5.0 0 18 -7 32 2 0 2015-08-19T17:09:16Z
Cyprid 493319366 2015-08-19 17:09:26 15.05 0 15.0 127.79 15.13 0 1 0 5.0 0 42 -78 20 0 5 2015-08-19T17:09:26Z
Cyprid 493319376 2015-08-19 17:09:36 15.06 0 15.0 127.79 15.12 0 1 0 5.0 0 34 -41 -65 5 0 2015-08-19T17:09:36Z
Cyprid 493319386 2015-08-19 17:09:46 14.87 0 15.0 127.79 15.12 0 1 0 5.0 0 -3 -70 84 4 0 2015-08-19T17:09:46Z
Cyprid 493319396 2015-08-19 17:09:56 14.93 0 15.0 127.8 15.12 0 1 0 5.0 0 -5 -50 257 0 5 2015-08-19T17:09:56Z
Cyprid 493319406 2015-08-19 17:10:06 15.04 0 15.0 127.8 15.13 0 1 0 5.0 0 -6 -25 219 0 2 2015-08-19T17:10:06Z
Cyprid 493319416 2015-08-19 17:10:16 15.06 0 15.0 127.8 15.12 0 1 0 5.0 0 20 -58 134 0 0 2015-08-19T17:10:16Z
Cyprid 493319426 2015-08-19 17:10:26 15.07 0 15.0 127.81 15.13 0 1 0 5.0 0 28 -46 70 0 0 2015-08-19T17:10:26Z
Cyprid 493319436 2015-08-19 17:10:36 15.03 0 15.0 127.81 15.12 0 1 0 5.0 0 25 -10 41 2 0 2015-08-19T17:10:36Z
Cyprid 493319446 2015-08-19 17:10:46 15.01 0 15.0 127.81 15.13 0 1 0 5.0 0 43 -69 77 0 1 2015-08-19T17:10:46Z
Cyprid 493319456 2015-08-19 17:10:56 15.08 0 15.0 127.81 15.14 0 1 0 5.0 0 36 -88 45 0 2 2015-08-19T17:10:56Z
Cyprid 493319466 2015-08-19 17:11:06 15.06 0 15.0 127.82 15.12 0 1 0 5.0 0 28 -87 -11 2 0 2015-08-19T17:11:06Z
Cyprid 493319476 2015-08-19 17:11:16 15.04 0 15.0 127.82 15.13 0 1 0 5.0 0 29 -74 30 0 0 2015-08-19T17:11:16Z
Cyprid 493319486 2015-08-19 17:11:26 15.13 0 15.0 127.82 15.13 0 1 0 5.0 0 30 -15 -9 0 5 2015-08-19T17:11:26Z
Cyprid 493319496 2015-08-19 17:11:36 14.97 0 15.0 127.83 15.13 0 1 0 5.0 0 4 -50 -145 5 0 2015-08-19T17:11:36Z
Cyprid 493319506 2015-08-19 17:11:46 14.81 0 15.0 127.83 15.14 0 1 0 5.0 0 43 -15 24 5 0 2015-08-19T17:11:46Z
Cyprid 493319516 2015-08-19 17:11:56 14.98 0 15.0 127.83 15.13 0 1 0 5.0 0 34 -95 217 0 5 2015-08-19T17:11:56Z
Cyprid 493319526 2015-08-19 17:12:06 14.99 0 15.0 127.83 15.14 0 1 0 5.0 0 12 -1 191 1 0 2015-08-19T17:12:06Z
Cyprid 493319536 2015-08-19 17:12:16 14.82 0 15.0 127.83 15.14 0 1 0 5.0 0 14 -85 248 5 0 2015-08-19T17:12:16Z
Cyprid 493319546 2015-08-19 17:12:26 15.04 0 15.0 127.84 15.13 0 1 0 5.0 0 38 -53 400 0 5 2015-08-19T17:12:26Z
Cyprid 493319556 2015-08-19 17:12:36 15.08 0 15.0 127.84 15.14 0 0 0 5.0 0 -30 -35 292 0 4 2015-08-19T17:12:36Z
Cyprid 493319566 2015-08-19 17:12:46 15.04 0 15.0 127.84 15.13 0 1 0 5.0 0 41 -77 140 5 0 2015-08-19T17:12:46Z
Cyprid 493319576 2015-08-19 17:12:56 15.18 0 15.0 127.85 15.13 0 1 0 5.0 0 36 -51 178 0 5 2015-08-19T17:12:56Z
Cyprid 493319586 2015-08-19 17:13:06 15.2 0 15.0 127.85 15.12 0 1 0 5.0 0 52 -36 35 0 2 2015-08-19T17:13:06Z
Cyprid 493319596 2015-08-19 17:13:16 15.07 0 15.0 127.85 15.13 0 1 0 5.0 0 29 -2 -81 5 0 2015-08-19T17:13:16Z
Cyprid 493319606 2015-08-19 17:13:26 15.08 0 15.0 127.85 15.12 0 1 0 5.0 0 1 -42 -24 0 4 2015-08-19T17:13:26Z
Cyprid 493319616 2015-08-19 17:13:36 15.13 0 15.0 127.86 15.11 0 1 0 5.0 0 0 -39 -83 1 0 2015-08-19T17:13:36Z
Cyprid 493319626 2015-08-19 17:13:46 15.03 0 15.0 127.86 15.11 0 1 0 5.0 0 15 -56 -39 4 0 2015-08-19T17:13:46Z
Cyprid 493319636 2015-08-19 17:13:56 14.96 0 15.0 127.86 15.11 0 1 0 5.0 0 -4 -40 71 0 1 2015-08-19T17:13:56Z
Cyprid 493319646 2015-08-19 17:14:06 15.04 0 15.0 127.87 15.12 0 1 0 5.0 0 16 -38 84 0 3 2015-08-19T17:14:06Z
Cyprid 493319656 2015-08-19 17:14:16 15.08 0 15.0 127.87 15.12 0 1 0 5.0 0 38 -17 20 1 0 2015-08-19T17:14:16Z
Cyprid 493319666 2015-08-19 17:14:26 15.07 0 15.0 127.87 15.12 0 1 0 5.0 0 16 -24 -7 0 0 2015-08-19T17:14:26Z
Cyprid 493319676 2015-08-19 17:14:36 14.95 0 15.0 127.87 15.12 0 1 0 5.0 0 13 -66 47 5 0 2015-08-19T17:14:36Z
Cyprid 493319686 2015-08-19 17:14:46 14.97 0 15.0 127.88 15.12 0 1 0 5.0 0 25 -12 178 0 5 2015-08-19T17:14:46Z
Cyprid 493319696 2015-08-19 17:14:56 15.01 0 15.0 127.88 15.13 0 1 0 5.0 0 7 -90 120 1 0 2015-08-19T17:14:56Z
Cyprid 493319706 2015-08-19 17:15:06 14.98 0 15.0 127.88 15.13 0 1 0 5.0 0 40 2 133 1 0 2015-08-19T17:15:06Z
Cyprid 493319716 2015-08-19 17:15:16 15.03 0 15.0 127.89 15.13 0 1 0 5.0 0 47 -41 105 0 3 2015-08-19T17:15:16Z
Cyprid 493319726 2015-08-19 17:15:26 15.07 0 15.0 127.89 15.13 0 1 0 5.0 0 41 -40 6 0 0 2015-08-19T17:15:26Z
Cyprid 493319736 2015-08-19 17:15:36 15.06 0 15.0 127.89 15.13 0 1 0 5.0 0 36 -15 -60 1 0 2015-08-19T17:15:36Z
Cyprid 493319746 2015-08-19 17:15:46 15.02 0 15.0 127.89 15.12 0 1 0 5.0 0 13 -68 -46 1 0 2015-08-19T17:15:46Z
Cyprid 493319756 2015-08-19 17:15:56 15.01 0 15.0 127.89 15.13 0 1 0 5.0 0 38 -29 3 0 0 2015-08-19T17:15:56Z
Cyprid 493319766 2015-08-19 17:16:06 15.09 0 15.0 127.89 15.13 0 0 0 5.0 0 21 21 4 0 5 2015-08-19T17:16:06Z
Cyprid 493319776 2015-08-19 17:16:16 15.11 0 15.0 127.89 15.13 0 1 0 5.0 0 38 -34 -177 4 0 2015-08-19T17:16:16Z
Cyprid 493319786 2015-08-19 17:16:26 15.05 0 15.0 127.89 15.14 0 1 0 5.0 0 35 -44 -146 0 0 2015-08-19T17:16:26Z
Cyprid 493319796 2015-08-19 17:16:36 14.91 0 15.0 127.89 15.13 0 1 0 5.0 0 -2 -54 -19 5 0 2015-08-19T17:16:36Z
Cyprid 493319806 2015-08-19 17:16:46 14.96 0 15.0 127.89 15.13 0 1 0 5.0 0 40 -27 154 0 5 2015-08-19T17:16:46Z
Cyprid 493319816 2015-08-19 17:16:56 14.99 0 15.0 127.89 15.13 0 1 0 5.0 0 22 -39 129 1 0 2015-08-19T17:16:56Z
Cyprid 493319826 2015-08-19 17:17:06 14.98 0 15.0 127.89 15.13 0 1 0 5.0 0 13 -27 131 0 0 2015-08-19T17:17:06Z
Cyprid 493319836 2015-08-19 17:17:16 15.13 0 15.0 127.89 15.13 0 1 0 5.0 0 18 -28 54 0 5 2015-08-19T17:17:16Z
Cyprid 493319846 2015-08-19 17:17:26 15.02 0 15.0 127.89 15.13 0 1 0 5.0 0 32 -76 -75 5 0 2015-08-19T17:17:26Z
Cyprid 493319856 2015-08-19 17:17:36 14.98 0 15.0 127.89 15.14 0 1 0 5.0 0 36 -39 28 0 0 2015-08-19T17:17:36Z
Cyprid 493319866 2015-08-19 17:17:46 15.1 0 15.0 127.89 15.13 0 1 0 5.0 0 29 -59 40 0 5 2015-08-19T17:17:46Z
Cyprid 493319876 2015-08-19 17:17:56 14.95 0 15.0 127.89 15.14 0 1 0 5.0 0 10 -11 -36 5 0 2015-08-19T17:17:56Z
Cyprid 493319886 2015-08-19 17:18:06 14.94 0 15.0 127.89 15.14 0 1 0 5.0 0 33 -40 46 0 0 2015-08-19T17:18:06Z
Cyprid 493319896 2015-08-19 17:18:16 15.06 0 15.0 127.89 15.12 0 1 0 5.0 0 30 -80 49 0 5 2015-08-19T17:18:16Z
Cyprid 493319906 2015-08-19 17:18:26 14.99 0 15.0 127.89 15.14 0 1 0 5.0 0 30 -18 -26 5 0 2015-08-19T17:18:26Z
Cyprid 493319916 2015-08-19 17:18:36 14.93 0 15.0 127.89 15.13 0 1 0 5.0 0 25 -53 80 1 0 2015-08-19T17:18:36Z
Cyprid 493319926 2015-08-19 17:18:46 15.03 0 15.0 127.89 15.12 0 1 0 5.0 0 44 -21 133 0 5 2015-08-19T17:18:46Z
Cyprid 493319936 2015-08-19 17:18:56 15.05 0 15.0 127.89 15.13 0 1 0 5.0 0 40 4 69 4 0 2015-08-19T17:18:56Z
Cyprid 493319946 2015-08-19 17:19:06 15.04 0 15.0 127.89 15.14 0 1 0 5.0 0 23 -40 88 0 3 2015-08-19T17:19:06Z
Cyprid 493319956 2015-08-19 17:19:16 15.07 0 15.0 127.89 15.14 0 1 0 5.0 0 24 -39 31 0 0 2015-08-19T17:19:16Z
Cyprid 493319966 2015-08-19 17:19:26 15.08 0 15.0 127.89 15.13 0 1 0 5.0 0 39 -54 -32 0 0 2015-08-19T17:19:26Z
Cyprid 493319976 2015-08-19 17:19:36 14.95 0 15.0 127.89 15.14 0 1 0 5.0 0 23 -19 -4 5 0 2015-08-19T17:19:36Z
Cyprid 493319986 2015-08-19 17:19:46 14.97 0 15.0 127.89 15.14 0 1 0 5.0 0 -3 -77 91 0 5 2015-08-19T17:19:46Z
Cyprid 493319996 2015-08-19 17:19:56 14.96 0 15.0 127.89 15.14 0 1 0 5.0 0 31 -26 115 5 0 2015-08-19T17:19:56Z
Cyprid 493320006 2015-08-19 17:20:06 14.98 0 15.0 127.89 15.14 0 1 0 5.0 0 16 -88 180 0 5 2015-08-19T17:20:06Z
Cyprid 493320016 2015-08-19 17:20:16 15.0 0 15.0 127.89 15.14 0 1 0 5.0 0 25 -50 143 3 0 2015-08-19T17:20:16Z
Cyprid 493320026 2015-08-19 17:20:26 15.16 0 15.0 127.89 15.14 0 1 0 5.0 0 21 -80 116 0 5 2015-08-19T17:20:26Z
Cyprid 493320036 2015-08-19 17:20:36 15.11 0 15.0 127.89 15.14 0 1 0 5.0 0 16 -86 -7 2 0 2015-08-19T17:20:36Z
Cyprid 493320046 2015-08-19 17:20:46 15.04 0 15.0 127.89 15.14 0 1 0 5.0 0 43 8 -25 1 0 2015-08-19T17:20:46Z
Cyprid 493320056 2015-08-19 17:20:56 15.12 0 15.0 127.89 15.14 0 1 0 5.0 0 18 -53 -95 0 5 2015-08-19T17:20:56Z
Cyprid 493320066 2015-08-19 17:21:06 15.04 0 15.0 127.89 15.13 0 1 0 5.0 0 21 -17 -218 5 0 2015-08-19T17:21:06Z
Cyprid 493320076 2015-08-19 17:21:16 14.94 0 15.0 127.89 15.14 0 1 0 5.0 0 23 -19 -69 3 0 2015-08-19T17:21:16Z
Cyprid 493320086 2015-08-19 17:21:26 15.0 0 15.0 127.89 15.14 0 1 0 5.0 0 30 -6 48 0 5 2015-08-19T17:21:26Z
Cyprid 493320096 2015-08-19 17:21:36 14.91 0 15.0 127.89 15.14 0 1 0 5.0 0 -2 -66 43 5 0 2015-08-19T17:21:36Z
Cyprid 493320106 2015-08-19 17:21:46 14.84 0 15.0 127.89 15.14 0 1 0 5.0 0 47 -4 202 1 0 2015-08-19T17:21:46Z
Cyprid 493320116 2015-08-19 17:21:56 14.94 0 15.0 127.89 15.15 0 1 0 5.0 0 36 -82 277 0 5 2015-08-19T17:21:56Z
Cyprid 493320126 2015-08-19 17:22:06 14.94 0 15.0 127.89 15.15 0 1 0 5.0 0 33 -25 229 5 0 2015-08-19T17:22:06Z
Cyprid 493320136 2015-08-19 17:22:16 14.97 0 15.0 127.89 15.15 0 1 0 5.0 0 22 -86 262 0 5 2015-08-19T17:22:16Z
Cyprid 493320146 2015-08-19 17:22:26 15.0 0 15.0 127.89 15.15 0 1 0 5.0 0 17 -95 180 2 0 2015-08-19T17:22:26Z
Cyprid 493320156 2015-08-19 17:22:36 15.04 0 15.0 127.89 15.15 0 1 0 5.0 0 1 -39 146 0 3 2015-08-19T17:22:36Z
Cyprid 493320166 2015-08-19 17:22:46 15.13 0 15.0 127.89 15.15 0 1 0 5.0 0 39 -58 19 0 1 2015-08-19T17:22:46Z
Cyprid 493320176 2015-08-19 17:22:56 15.0 0 15.0 127.89 15.15 0 1 0 5.0 0 30 -19 -93 5 0 2015-08-19T17:22:56Z
Cyprid 493320186 2015-08-19 17:23:06 14.94 0 15.0 127.89 15.14 0 1 0 5.0 0 40 -52 20 0 0 2015-08-19T17:23:06Z
Cyprid 493320196 2015-08-19 17:23:16 15.03 0 15.0 127.89 15.14 0 1 0 5.0 0 22 -76 71 0 5 2015-08-19T17:23:16Z
Cyprid 493320206 2015-08-19 17:23:26 14.96 0 15.0 127.89 15.15 0 1 0 5.0 0 21 -19 15 5 0 2015-08-19T17:23:26Z
Cyprid 493320216 2015-08-19 17:23:36 14.96 0 15.0 127.89 15.15 0 1 0 5.0 0 4 10 73 0 2 2015-08-19T17:23:36Z
Cyprid 493320226 2015-08-19 17:23:46 15.01 0 15.0 127.89 15.14 0 1 0 5.0 0 16 -27 73 0 0 2015-08-19T17:23:46Z
Cyprid 493320236 2015-08-19 17:23:56 14.87 0 15.0 127.89 15.14 0 1 0 5.0 0 7 -78 142 5 0 2015-08-19T17:23:56Z
Cyprid 493320246 2015-08-19 17:24:06 14.96 0 15.0 127.89 15.15 0 1 0 5.0 0 39 -21 295 0 5 2015-08-19T17:24:06Z
Cyprid 493320256 2015-08-19 17:24:16 14.94 0 15.0 127.89 15.14 0 1 0 5.0 0 -5 -46 257 3 0 2015-08-19T17:24:16Z
Cyprid 493320266 2015-08-19 17:24:26 15.0 0 15.0 127.89 15.14 0 1 0 5.0 0 26 -13 257 0 5 2015-08-19T17:24:26Z
Cyprid 493320276 2015-08-19 17:24:36 15.01 0 15.0 127.89 15.14 0 1 0 5.0 0 32 -27 163 4 0 2015-08-19T17:24:36Z
Cyprid 493320286 2015-08-19 17:24:46 15.0 0 15.0 127.89 15.13 0 1 0 5.0 0 32 -35 151 0 3 2015-08-19T17:24:46Z
Cyprid 493320296 2015-08-19 17:24:56 15.05 0 15.0 127.89 15.13 0 1 0 5.0 0 18 -27 81 0 0 2015-08-19T17:24:56Z
Cyprid 493320306 2015-08-19 17:25:06 15.08 0 15.0 127.89 15.13 0 1 0 5.0 0 -8 -24 0 0 1 2015-08-19T17:25:06Z
Cyprid 493320316 2015-08-19 17:25:16 14.96 0 15.0 127.89 15.13 0 1 0 5.0 0 7 -114 271 5 0 2015-08-19T17:25:16Z
Cyprid 493320326 2015-08-19 17:25:26 15.0 0 15.0 127.89 15.13 0 1 0 5.0 0 47 3 424 0 5 2015-08-19T17:25:26Z
Cyprid 493320336 2015-08-19 17:25:36 15.0 0 15.0 127.89 15.13 0 1 0 5.0 0 27 -15 93 4 0 2015-08-19T17:25:36Z
Cyprid 493320346 2015-08-19 17:25:46 14.9 0 15.0 127.89 15.13 0 1 0 5.0 0 -2 -73 148 1 0 2015-08-19T17:25:46Z
Cyprid 493320356 2015-08-19 17:25:56 15.02 0 15.0 127.89 15.13 0 1 0 5.0 0 0 -33 180 0 5 2015-08-19T17:25:56Z
Cyprid 493320366 2015-08-19 17:26:06 14.92 0 15.0 127.89 15.13 0 1 0 5.0 0 9 -80 126 5 0 2015-08-19T17:26:06Z
Cyprid 493320377 2015-08-19 17:26:17 14.88 0 15.0 127.89 15.12 0 1 0 5.0 0 19 -64 299 0 0 2015-08-19T17:26:17Z
Cyprid 493320387 2015-08-19 17:26:27 14.98 0 15.0 127.89 15.12 0 1 0 5.0 0 10 -32 293 0 5 2015-08-19T17:26:27Z
Cyprid 493320397 2015-08-19 17:26:37 15.14 0 15.0 127.89 15.13 0 1 0 5.0 0 -6 13 103 0 2 2015-08-19T17:26:37Z
Cyprid 493320407 2015-08-19 17:26:47 15.05 0 15.0 127.89 15.13 0 1 0 5.0 0 14 -63 -54 5 0 2015-08-19T17:26:47Z
Cyprid 493320417 2015-08-19 17:26:57 15.0 0 15.0 127.89 15.13 0 1 0 5.0 0 12 -49 1 0 1 2015-08-19T17:26:57Z
Cyprid 493320427 2015-08-19 17:27:07 15.05 0 15.0 127.89 15.13 0 1 0 5.0 0 11 -7 -24 0 2 2015-08-19T17:27:07Z
Cyprid 493320437 2015-08-19 17:27:17 15.0 0 15.0 127.89 15.13 0 1 0 5.0 0 35 -13 -44 4 0 2015-08-19T17:27:17Z
Cyprid 493320447 2015-08-19 17:27:27 14.91 0 15.0 127.89 15.13 0 1 0 5.0 0 5 -46 38 0 0 2015-08-19T17:27:27Z
Cyprid 493320457 2015-08-19 17:27:37 14.95 0 15.0 127.89 15.13 0 1 0 5.0 0 9 -58 96 0 2 2015-08-19T17:27:37Z
Cyprid 493320467 2015-08-19 17:27:47 15.05 0 15.0 127.89 15.14 0 1 0 5.0 0 20 -32 57 0 2 2015-08-19T17:27:47Z
Cyprid 493320477 2015-08-19 17:27:57 15.02 0 15.0 127.89 15.13 0 1 0 5.0 0 5 -21 9 3 0 2015-08-19T17:27:57Z
Cyprid 493320487 2015-08-19 17:28:07 14.97 0 15.0 127.89 15.13 0 1 0 5.0 0 39 -34 97 0 0 2015-08-19T17:28:07Z
Cyprid 493320497 2015-08-19 17:28:17 15.09 0 15.0 127.89 15.14 0 1 0 5.0 0 38 -75 103 0 5 2015-08-19T17:28:17Z
Cyprid 493320507 2015-08-19 17:28:27 15.0 0 15.0 127.89 15.13 0 1 0 5.0 0 28 -1 35 5 0 2015-08-19T17:28:27Z
Cyprid 493320517 2015-08-19 17:28:37 14.99 0 15.0 127.89 15.14 0 1 0 5.0 0 55 -67 96 0 1 2015-08-19T17:28:37Z
Cyprid 493320527 2015-08-19 17:28:47 15.07 0 15.0 127.89 15.13 0 1 0 5.0 0 62 -76 69 0 4 2015-08-19T17:28:47Z
Cyprid 493320537 2015-08-19 17:28:57 15.04 0 15.0 127.89 15.13 0 1 0 5.0 0 4 -21 2 5 0 2015-08-19T17:28:57Z
Cyprid 493320547 2015-08-19 17:29:07 15.03 0 15.0 127.89 15.13 0 1 0 5.0 0 27 -37 52 0 3 2015-08-19T17:29:07Z
Cyprid 493320557 2015-08-19 17:29:17 15.05 0 15.0 127.89 15.13 0 1 0 5.0 0 16 -16 26 1 0 2015-08-19T17:29:17Z
Cyprid 493320567 2015-08-19 17:29:27 14.99 0 15.0 127.89 15.14 0 1 0 5.0 0 22 -11 65 2 0 2015-08-19T17:29:27Z
Cyprid 493320577 2015-08-19 17:29:37 14.94 0 15.0 127.89 15.14 0 1 0 5.0 0 39 -32 134 0 0 2015-08-19T17:29:37Z
Cyprid 493320587 2015-08-19 17:29:47 15.0 0 15.0 127.89 15.14 0 1 0 5.0 0 47 -24 179 0 3 2015-08-19T17:29:47Z
Cyprid 493320597 2015-08-19 17:29:57 14.98 0 15.0 127.89 15.14 0 1 0 5.0 0 6 -100 156 4 0 2015-08-19T17:29:57Z
Cyprid 493320607 2015-08-19 17:30:07 15.09 0 15.0 127.89 15.14 0 1 0 5.0 0 5 -29 199 0 5 2015-08-19T17:30:07Z
Cyprid 493320618 2015-08-19 17:30:18 15.09 0 15.0 127.89 15.13 0 1 0 5.0 0 19 -48 76 0 0 2015-08-19T17:30:18Z
Cyprid 493320628 2015-08-19 17:30:28 15.09 0 15.0 127.89 15.13 0 1 0 5.0 0 41 -22 -24 0 0 2015-08-19T17:30:28Z
Cyprid 493320638 2015-08-19 17:30:38 14.97 0 15.0 127.89 15.13 0 1 0 5.0 0 45 -64 36 5 0 2015-08-19T17:30:38Z
Cyprid 493320648 2015-08-19 17:30:48 14.99 0 15.0 127.89 15.14 0 1 0 5.0 0 14 -85 249 0 5 2015-08-19T17:30:48Z
Cyprid 493320658 2015-08-19 17:30:58 15.05 0 15.0 127.89 15.13 0 1 0 5.0 0 33 -38 180 1 0 2015-08-19T17:30:58Z
Cyprid 493320668 2015-08-19 17:31:08 15.0 0 15.0 127.89 15.14 0 1 0 5.0 0 24 0 174 2 0 2015-08-19T17:31:08Z
Cyprid 493320678 2015-08-19 17:31:18 14.96 0 15.0 127.89 15.12 0 1 0 5.0 0 39 -52 226 0 0 2015-08-19T17:31:18Z
Cyprid 493320688 2015-08-19 17:31:28 14.96 0 15.0 127.89 15.13 0 1 0 5.0 0 17 -57 290 0 0 2015-08-19T17:31:28Z
Cyprid 493320698 2015-08-19 17:31:38 15.12 0 15.0 127.89 15.13 0 1 0 5.0 0 27 -89 247 0 5 2015-08-19T17:31:38Z
Cyprid 493320708 2015-08-19 17:31:48 15.14 0 15.0 127.89 15.13 0 1 0 5.0 0 36 -73 133 2 0 2015-08-19T17:31:48Z
Cyprid 493320718 2015-08-19 17:31:58 15.06 0 15.0 127.89 15.13 0 1 0 5.0 0 14 -51 103 2 0 2015-08-19T17:31:58Z
Cyprid 493320728 2015-08-19 17:32:08 15.04 0 15.0 127.89 15.13 0 1 0 5.0 0 40 -12 122 0 2 2015-08-19T17:32:08Z
Cyprid 493320738 2015-08-19 17:32:18 15.11 0 15.0 127.89 15.13 0 1 0 5.0 0 -5 -8 64 0 1 2015-08-19T17:32:18Z
Cyprid 493320748 2015-08-19 17:32:28 15.1 0 15.0 127.89 15.12 0 1 0 5.0 0 33 -34 -22 0 0 2015-08-19T17:32:28Z
Cyprid 493320758 2015-08-19 17:32:38 14.95 0 15.0 127.89 15.14 0 1 0 5.0 0 23 -65 -18 5 0 2015-08-19T17:32:38Z
Cyprid 493320768 2015-08-19 17:32:48 15.0 0 15.0 127.89 15.14 0 1 0 5.0 0 10 1 83 0 5 2015-08-19T17:32:48Z
Cyprid 493320778 2015-08-19 17:32:58 15.12 0 15.0 127.89 15.12 0 1 0 5.0 0 53 -64 -1 0 1 2015-08-19T17:32:58Z
Cyprid 493320788 2015-08-19 17:33:08 14.94 0 15.0 127.89 15.13 0 1 0 5.0 0 45 -33 -55 5 0 2015-08-19T17:33:08Z
Cyprid 493320798 2015-08-19 17:33:18 14.92 0 15.0 127.89 15.13 0 1 0 5.0 0 30 -40 52 0 0 2015-08-19T17:33:18Z
Cyprid 493320808 2015-08-19 17:33:28 14.97 0 15.0 127.89 15.13 0 1 0 5.0 0 23 9 156 0 2 2015-08-19T17:33:28Z
Cyprid 493320818 2015-08-19 17:33:38 14.9 0 15.0 127.89 15.12 0 1 0 5.0 0 34 -94 221 5 0 2015-08-19T17:33:38Z
Cyprid 493320828 2015-08-19 17:33:48 14.94 0 15.0 127.89 15.13 0 1 0 5.0 0 37 -28 374 0 5 2015-08-19T17:33:48Z
Cyprid 493320838 2015-08-19 17:33:58 15.0 0 15.0 127.89 15.13 0 1 0 5.0 0 24 -69 292 0 0 2015-08-19T17:33:58Z
Cyprid 493320848 2015-08-19 17:34:08 14.99 0 15.0 127.89 15.13 0 1 0 5.0 0 5 -97 256 1 0 2015-08-19T17:34:08Z
Cyprid 493320858 2015-08-19 17:34:18 15.09 0 15.0 127.89 15.13 0 1 0 5.0 0 34 -20 194 0 5 2015-08-19T17:34:18Z
Cyprid 493320868 2015-08-19 17:34:28 15.01 0 15.0 127.89 15.14 0 1 0 5.0 0 16 -89 66 5 0 2015-08-19T17:34:28Z
Cyprid 493320878 2015-08-19 17:34:38 14.98 0 15.0 127.89 15.12 0 1 0 5.0 0 21 -23 129 0 0 2015-08-19T17:34:38Z
Cyprid 493320888 2015-08-19 17:34:48 15.08 0 15.0 127.89 15.13 0 1 0 5.0 0 29 -4 106 0 5 2015-08-19T17:34:48Z
Cyprid 493320898 2015-08-19 17:34:58 15.09 0 15.0 127.89 15.13 0 1 0 5.0 0 13 16 -23 4 0 2015-08-19T17:34:58Z
Cyprid 493320908 2015-08-19 17:35:08 15.03 0 15.0 127.89 15.11 0 1 0 5.0 0 37 -34 0 0 0 2015-08-19T17:35:08Z
Cyprid 493320918 2015-08-19 17:35:18 14.99 0 15.0 127.89 15.12 0 1 0 5.0 0 30 -48 26 0 0 2015-08-19T17:35:18Z
Cyprid 493320928 2015-08-19 17:35:28 14.99 0 15.0 127.89 15.12 0 1 0 5.0 0 38 -30 53 0 0 2015-08-19T17:35:28Z
Cyprid 493320938 2015-08-19 17:35:38 14.96 0 15.0 127.89 15.12 0 1 0 5.0 0 6 -99 72 1 0 2015-08-19T17:35:38Z
Cyprid 493320948 2015-08-19 17:35:48 14.98 0 15.0 127.89 15.12 0 1 0 5.0 0 -11 -18 122 0 1 2015-08-19T17:35:48Z
Cyprid 493320958 2015-08-19 17:35:58 15.02 0 15.0 127.89 15.12 0 1 0 5.0 0 37 -92 100 0 1 2015-08-19T17:35:58Z
Cyprid 493320968 2015-08-19 17:36:08 15.0 0 15.0 127.89 15.13 0 1 0 5.0 0 14 -78 90 2 0 2015-08-19T17:36:08Z
Cyprid 493320978 2015-08-19 17:36:18 14.98 0 15.0 127.89 15.11 0 1 0 5.0 0 17 -54 140 0 0 2015-08-19T17:36:18Z
Cyprid 493320988 2015-08-19 17:36:28 15.06 0 15.0 127.89 15.11 0 1 0 5.0 0 32 -8 99 0 5 2015-08-19T17:36:28Z
Cyprid 493320998 2015-08-19 17:36:38 15.01 0 15.0 127.89 15.11 0 1 0 5.0 0 18 -66 -8 5 0 2015-08-19T17:36:38Z
Cyprid 493321008 2015-08-19 17:36:48 15.01 0 15.0 127.89 15.11 0 1 0 5.0 0 23 -96 36 0 2 2015-08-19T17:36:48Z
Cyprid 493321018 2015-08-19 17:36:58 15.01 0 15.0 127.89 15.11 0 1 0 5.0 0 27 -33 17 0 0 2015-08-19T17:36:58Z
Cyprid 493321028 2015-08-19 17:37:08 15.01 0 15.0 127.89 15.11 0 1 0 5.0 0 48 24 0 1 0 2015-08-19T17:37:08Z
Cyprid 493321038 2015-08-19 17:37:18 14.9 0 15.0 127.89 15.12 0 1 0 5.0 0 31 19 83 4 0 2015-08-19T17:37:18Z
Cyprid 493321048 2015-08-19 17:37:28 15.02 0 15.0 127.89 15.11 0 1 0 5.0 0 28 -77 197 0 5 2015-08-19T17:37:28Z
Cyprid 493321058 2015-08-19 17:37:38 14.99 0 15.0 127.89 15.12 0 1 0 5.0 0 8 -115 149 2 0 2015-08-19T17:37:38Z
Cyprid 493321068 2015-08-19 17:37:48 15.0 0 15.0 127.89 15.12 0 1 0 5.0 0 9 -98 160 0 2 2015-08-19T17:37:48Z
Cyprid 493321078 2015-08-19 17:37:58 15.08 0 15.0 127.89 15.11 0 1 0 5.0 0 40 -94 79 0 2 2015-08-19T17:37:58Z
Cyprid 493321088 2015-08-19 17:38:08 15.16 0 15.0 127.89 15.12 0 1 0 5.0 0 24 -87 -113 0 2 2015-08-19T17:38:08Z
Cyprid 493321098 2015-08-19 17:38:18 15.07 0 15.0 127.89 15.11 0 1 0 5.0 0 33 1 -236 5 0 2015-08-19T17:38:18Z
Cyprid 493321108 2015-08-19 17:38:28 14.96 0 15.0 127.89 15.11 0 1 0 5.0 0 23 -38 -103 1 0 2015-08-19T17:38:28Z
Cyprid 493321118 2015-08-19 17:38:38 15.0 0 15.0 127.89 15.12 0 1 0 5.0 0 9 -43 -18 0 3 2015-08-19T17:38:38Z
Cyprid 493321128 2015-08-19 17:38:48 14.92 0 15.0 127.89 15.11 0 1 0 5.0 0 14 -67 27 5 0 2015-08-19T17:38:48Z
Cyprid 493321138 2015-08-19 17:38:58 14.92 0 15.0 127.89 15.12 0 1 0 5.0 0 54 -52 134 0 4 2015-08-19T17:38:58Z
Cyprid 493321148 2015-08-19 17:39:08 14.84 0 15.0 127.89 15.12 0 1 0 5.0 0 35 -34 173 5 0 2015-08-19T17:39:08Z
Cyprid 493321158 2015-08-19 17:39:18 14.85 0 15.0 127.89 15.12 0 1 0 5.0 0 16 -25 303 0 2 2015-08-19T17:39:18Z
Cyprid 493321168 2015-08-19 17:39:28 14.87 0 15.0 127.89 15.12 0 1 0 5.0 0 32 -11 348 1 0 2015-08-19T17:39:28Z
Cyprid 493321178 2015-08-19 17:39:38 14.93 0 15.0 127.89 15.12 0 1 0 5.0 0 22 -76 365 0 3 2015-08-19T17:39:38Z
Cyprid 493321188 2015-08-19 17:39:48 14.98 0 15.0 127.89 15.12 0 1 0 5.0 0 28 -52 284 0 0 2015-08-19T17:39:48Z
Cyprid 493321198 2015-08-19 17:39:58 15.06 0 15.0 127.89 15.12 0 1 0 5.0 0 19 -77 183 0 3 2015-08-19T17:39:58Z
Cyprid 493321208 2015-08-19 17:40:08 15.13 0 15.0 127.89 15.12 0 1 0 5.0 0 28 -52 31 0 0 2015-08-19T17:40:08Z
Cyprid 493321218 2015-08-19 17:40:18 15.0 0 15.0 127.89 15.12 0 1 0 5.0 0 16 -8 -73 5 0 2015-08-19T17:40:18Z
Cyprid 493321228 2015-08-19 17:40:28 15.0 0 15.0 127.89 15.12 0 1 0 5.0 0 5 -1 23 0 4 2015-08-19T17:40:28Z
Cyprid 493321238 2015-08-19 17:40:38 15.08 0 15.0 127.89 15.13 0 1 0 5.0 0 49 -31 -14 0 0 2015-08-19T17:40:38Z
Cyprid 493321248 2015-08-19 17:40:48 14.99 0 15.0 127.89 15.12 0 1 0 5.0 0 29 0 -12 4 0 2015-08-19T17:40:48Z
Cyprid 493321258 2015-08-19 17:40:58 14.92 0 15.0 127.89 15.13 0 1 0 5.0 0 47 -43 107 0 0 2015-08-19T17:40:58Z
Cyprid 493321268 2015-08-19 17:41:08 14.96 0 15.0 127.89 15.13 0 1 0 5.0 0 33 -51 186 0 3 2015-08-19T17:41:08Z
Cyprid 493321278 2015-08-19 17:41:18 14.97 0 15.0 127.89 15.12 0 1 0 5.0 0 20 -81 165 2 0 2015-08-19T17:41:18Z
Cyprid 493321288 2015-08-19 17:41:28 14.92 0 15.0 127.89 15.12 0 1 0 5.0 0 50 -24 227 1 0 2015-08-19T17:41:28Z
Cyprid 493321298 2015-08-19 17:41:38 14.95 0 15.0 127.89 15.12 0 1 0 5.0 0 21 -14 256 0 2 2015-08-19T17:41:38Z
Cyprid 493321308 2015-08-19 17:41:48 14.99 0 15.0 127.89 15.11 0 1 0 5.0 0 12 -49 216 0 0 2015-08-19T17:41:48Z
Cyprid 493321318 2015-08-19 17:41:58 14.99 0 15.0 127.89 15.1 0 1 0 5.0 0 16 -45 186 0 0 2015-08-19T17:41:58Z
Cyprid 493321328 2015-08-19 17:42:08 15.02 0 15.0 127.89 15.1 0 1 0 5.0 0 39 -69 159 0 1 2015-08-19T17:42:08Z
Cyprid 493321338 2015-08-19 17:42:18 15.09 0 15.0 127.89 15.09 0 1 0 5.0 0 25 -92 74 0 2 2015-08-19T17:42:18Z
Cyprid 493321348 2015-08-19 17:42:28 15.02 0 15.0 127.89 15.1 0 1 0 5.0 0 19 -22 8 5 0 2015-08-19T17:42:28Z
Cyprid 493321358 2015-08-19 17:42:38 14.95 0 15.0 127.89 15.09 0 1 0 5.0 0 26 -46 109 0 1 2015-08-19T17:42:38Z
Cyprid 493321368 2015-08-19 17:42:48 14.97 0 15.0 127.89 15.09 0 1 0 5.0 0 -10 -13 149 0 1 2015-08-19T17:42:48Z
Cyprid 493321378 2015-08-19 17:42:58 15.01 0 15.0 127.89 15.08 0 1 0 5.0 0 67 -72 132 0 1 2015-08-19T17:42:58Z
Cyprid 493321388 2015-08-19 17:43:08 15.0 0 15.0 127.89 15.08 0 1 0 5.0 0 32 2 106 1 0 2015-08-19T17:43:08Z
Cyprid 493321398 2015-08-19 17:43:18 15.0 0 15.0 127.89 15.08 0 1 0 5.0 0 29 -43 108 0 0 2015-08-19T17:43:18Z
Cyprid 493321408 2015-08-19 17:43:28 15.08 0 15.0 127.89 15.08 0 1 0 5.0 0 -1 21 64 0 4 2015-08-19T17:43:28Z
Cyprid 493321418 2015-08-19 17:43:38 14.94 0 15.0 127.89 15.08 0 1 0 5.0 0 18 -57 -34 5 0 2015-08-19T17:43:38Z
Cyprid 493321428 2015-08-19 17:43:48 14.94 0 15.0 127.89 15.08 0 1 0 5.0 0 15 -44 61 0 0 2015-08-19T17:43:48Z
Cyprid 493321438 2015-08-19 17:43:58 14.94 0 15.0 127.89 15.08 0 1 0 5.0 0 30 -51 146 0 0 2015-08-19T17:43:58Z
Cyprid 493321448 2015-08-19 17:44:08 14.93 0 15.0 127.89 15.09 0 1 0 5.0 0 25 -53 261 0 0 2015-08-19T17:44:08Z
Cyprid 493321458 2015-08-19 17:44:18 14.91 0 15.0 127.89 15.09 0 1 0 5.0 0 50 -20 525 1 0 2015-08-19T17:44:18Z
Cyprid 493321468 2015-08-19 17:44:28 15.06 0 15.0 127.89 15.1 0 1 0 5.0 0 14 -102 293 0 5 2015-08-19T17:44:28Z
Cyprid 493321478 2015-08-19 17:44:38 15.0 0 15.0 127.89 15.09 0 1 0 5.0 0 39 -5 102 5 0 2015-08-19T17:44:38Z
Cyprid 493321488 2015-08-19 17:44:48 14.94 0 15.0 127.89 15.11 0 1 0 5.0 0 52 -78 171 0 1 2015-08-19T17:44:48Z
Cyprid 493321498 2015-08-19 17:44:58 15.09 0 15.0 127.89 15.09 0 1 0 5.0 0 39 -17 133 0 5 2015-08-19T17:44:58Z
Cyprid 493321508 2015-08-19 17:45:08 15.14 0 15.0 127.89 15.09 0 1 0 5.0 0 30 -58 -29 1 0 2015-08-19T17:45:08Z
Cyprid 493321518 2015-08-19 17:45:18 15.05 0 15.0 127.89 15.1 0 1 0 5.0 0 31 -39 -76 3 0 2015-08-19T17:45:18Z
Cyprid 493321528 2015-08-19 17:45:28 15.16 0 15.0 127.89 15.1 0 1 0 5.0 0 25 -64 -103 0 5 2015-08-19T17:45:28Z
Cyprid 493321538 2015-08-19 17:45:38 15.1 0 15.0 127.89 15.1 0 1 0 5.0 0 15 -80 -224 4 0 2015-08-19T17:45:38Z
Cyprid 493321548 2015-08-19 17:45:48 15.02 0 15.0 127.89 15.1 0 1 0 5.0 0 16 -26 -112 0 0 2015-08-19T17:45:48Z
Cyprid 493321558 2015-08-19 17:45:58 15.08 0 15.0 127.89 15.11 0 1 0 5.0 0 16 -48 -84 0 3 2015-08-19T17:45:58Z
Cyprid 493321568 2015-08-19 17:46:08 14.99 0 15.0 127.89 15.1 0 1 0 5.0 0 6 -59 -147 5 0 2015-08-19T17:46:08Z
Cyprid 493321579 2015-08-19 17:46:19 14.95 0 15.0 127.89 15.1 0 1 0 5.0 0 -18 -44 -19 0 1 2015-08-19T17:46:19Z
Cyprid 493321589 2015-08-19 17:46:29 15.04 0 15.0 127.89 15.11 0 1 0 5.0 0 11 -49 -24 0 4 2015-08-19T17:46:29Z
Cyprid 493321599 2015-08-19 17:46:39 14.92 0 15.0 127.89 15.11 0 1 0 5.0 0 13 -57 -64 5 0 2015-08-19T17:46:39Z
Cyprid 493321609 2015-08-19 17:46:49 14.83 0 15.0 127.89 15.12 0 1 0 5.0 0 37 -3 128 4 0 2015-08-19T17:46:49Z
Cyprid 493321619 2015-08-19 17:46:59 15.0 0 15.0 127.89 15.11 0 1 0 5.0 0 51 -55 356 0 5 2015-08-19T17:46:59Z
Cyprid 493321629 2015-08-19 17:47:09 15.09 0 15.0 127.89 15.11 0 1 0 5.0 0 6 -23 227 0 5 2015-08-19T17:47:09Z
Cyprid 493321639 2015-08-19 17:47:19 15.1 0 15.0 127.89 15.12 0 1 0 5.0 0 -10 -18 93 3 0 2015-08-19T17:47:19Z
Cyprid 493321649 2015-08-19 17:47:29 15.18 0 15.0 127.89 15.11 0 1 0 5.0 0 59 -58 14 0 5 2015-08-19T17:47:29Z
Cyprid 493321659 2015-08-19 17:47:39 15.14 0 15.0 127.89 15.11 0 1 0 5.0 0 12 -12 -133 5 0 2015-08-19T17:47:39Z
Cyprid 493321669 2015-08-19 17:47:49 15.07 0 15.0 127.89 15.11 0 1 0 5.0 0 19 -17 -51 0 0 2015-08-19T17:47:49Z
Cyprid 493321679 2015-08-19 17:47:59 15.08 0 15.0 127.89 15.11 0 1 0 5.0 0 17 5 -13 0 2 2015-08-19T17:47:59Z
Cyprid 493321689 2015-08-19 17:48:09 15.07 0 15.0 127.89 15.11 0 1 0 5.0 0 2 -13 -16 2 0 2015-08-19T17:48:09Z
Cyprid 493321700 2015-08-19 17:48:20 15.1 0 15.0 127.89 15.11 0 1 0 5.0 0 13 -23 -13 0 3 2015-08-19T17:48:20Z
Cyprid 493321710 2015-08-19 17:48:30 15.02 0 15.0 127.89 15.11 0 1 0 5.0 0 46 -21 -13 5 0 2015-08-19T17:48:30Z
Cyprid 493321720 2015-08-19 17:48:40 15.07 0 15.0 127.89 15.12 0 1 0 5.0 0 33 -80 33 0 5 2015-08-19T17:48:40Z
Cyprid 493321730 2015-08-19 17:48:50 15.02 0 15.0 127.89 15.12 0 1 0 5.0 0 18 -14 28 5 0 2015-08-19T17:48:50Z
Cyprid 493321740 2015-08-19 17:49:00 15.0 0 15.0 127.89 15.12 0 1 0 5.0 0 -9 -14 78 0 4 2015-08-19T17:49:00Z
Cyprid 493321750 2015-08-19 17:49:10 15.06 0 15.0 127.89 15.12 0 1 0 5.0 0 23 -28 28 0 0 2015-08-19T17:49:10Z
Cyprid 493321760 2015-08-19 17:49:20 15.02 0 15.0 127.89 15.12 0 1 0 5.0 0 25 -20 31 3 0 2015-08-19T17:49:20Z
Cyprid 493321770 2015-08-19 17:49:30 15.01 0 15.0 127.89 15.12 0 1 0 5.0 0 -15 -60 117 0 2 2015-08-19T17:49:30Z
Cyprid 493321780 2015-08-19 17:49:40 15.01 0 15.0 127.89 15.12 0 1 0 5.0 0 22 -6 171 1 0 2015-08-19T17:49:40Z
Cyprid 493321790 2015-08-19 17:49:50 15.08 0 15.0 127.89 15.12 0 1 0 5.0 0 65 -10 179 0 4 2015-08-19T17:49:50Z
Cyprid 493321800 2015-08-19 17:50:00 15.1 0 15.0 127.89 15.12 0 1 0 5.0 0 17 -48 86 2 0 2015-08-19T17:50:00Z
Cyprid 493321811 2015-08-19 17:50:11 15.03 0 15.0 127.89 15.12 0 1 0 5.0 0 36 -27 97 1 0 2015-08-19T17:50:11Z
Cyprid 493321821 2015-08-19 17:50:21 15.12 0 15.0 127.89 15.12 0 1 0 5.0 0 51 -57 39 0 5 2015-08-19T17:50:21Z
Cyprid 493321831 2015-08-19 17:50:31 15.05 0 15.0 127.89 15.13 0 1 0 5.0 0 6 -11 -98 5 0 2015-08-19T17:50:31Z
Cyprid 493321841 2015-08-19 17:50:41 14.99 0 15.0 127.89 15.12 0 1 0 5.0 0 10 -45 -19 1 0 2015-08-19T17:50:41Z
Cyprid 493321851 2015-08-19 17:50:51 15.02 0 15.0 127.89 15.12 0 1 0 5.0 0 44 -46 65 0 3 2015-08-19T17:50:51Z
Cyprid 493321861 2015-08-19 17:51:01 15.08 0 15.0 127.89 15.12 0 1 0 5.0 0 36 -27 19 0 0 2015-08-19T17:51:01Z
Cyprid 493321871 2015-08-19 17:51:11 15.05 0 15.0 127.89 15.12 0 1 0 5.0 0 8 3 -23 1 0 2015-08-19T17:51:11Z
Cyprid 493321881 2015-08-19 17:51:21 14.97 0 15.0 127.89 15.13 0 1 0 5.0 0 33 -69 35 3 0 2015-08-19T17:51:21Z
Cyprid 493321891 2015-08-19 17:51:31 14.95 0 15.0 127.89 15.13 0 1 0 5.0 0 62 -78 142 0 2 2015-08-19T17:51:31Z
Cyprid 493321901 2015-08-19 17:51:41 15.0 0 15.0 127.89 15.12 0 1 0 5.0 0 22 -22 206 0 1 2015-08-19T17:51:41Z
Cyprid 493321911 2015-08-19 17:51:51 15.04 0 15.0 127.89 15.12 0 1 0 5.0 0 34 -45 213 0 0 2015-08-19T17:51:51Z
Cyprid 493321921 2015-08-19 17:52:01 15.08 0 15.0 127.89 15.12 0 1 0 5.0 0 -9 -8 167 0 2 2015-08-19T17:52:01Z
Cyprid 493321932 2015-08-19 17:52:12 15.08 0 15.0 127.89 15.13 0 1 0 5.0 0 11 -3 110 1 0 2015-08-19T17:52:12Z
Cyprid 493321942 2015-08-19 17:52:22 15.09 0 15.0 127.89 15.13 0 1 0 5.0 0 14 -89 79 0 1 2015-08-19T17:52:22Z
Cyprid 493321952 2015-08-19 17:52:32 15.16 0 15.0 127.89 15.12 0 1 0 5.0 0 26 -62 -28 0 2 2015-08-19T17:52:32Z
Cyprid 493321962 2015-08-19 17:52:42 15.05 0 15.0 127.89 15.12 0 1 0 5.0 0 14 -73 -101 5 0 2015-08-19T17:52:42Z
Cyprid 493321972 2015-08-19 17:52:52 15.0 0 15.0 127.89 15.13 0 1 0 5.0 0 -6 -31 4 0 1 2015-08-19T17:52:52Z
Cyprid 493321982 2015-08-19 17:53:02 14.98 0 15.0 127.89 15.12 0 1 0 5.0 0 -1 -39 143 0 0 2015-08-19T17:53:02Z
Cyprid 493321992 2015-08-19 17:53:12 15.0 0 15.0 127.89 15.13 0 1 0 5.0 0 35 -52 214 0 0 2015-08-19T17:53:12Z
Cyprid 493322002 2015-08-19 17:53:22 15.09 0 15.0 127.89 15.13 0 1 0 5.0 0 6 -24 157 0 4 2015-08-19T17:53:22Z
Cyprid 493322012 2015-08-19 17:53:32 15.02 0 15.0 127.89 15.12 0 1 0 5.0 0 1 -54 59 5 0 2015-08-19T17:53:32Z
Cyprid 493322022 2015-08-19 17:53:42 15.1 0 15.0 127.89 15.12 0 1 0 5.0 0 21 -31 76 0 5 2015-08-19T17:53:42Z
Cyprid 493322032 2015-08-19 17:53:52 15.11 0 15.0 127.89 15.12 0 1 0 5.0 0 26 -50 -40 2 0 2015-08-19T17:53:52Z
Cyprid 493322042 2015-08-19 17:54:02 15.08 0 15.0 127.89 15.13 0 1 0 5.0 0 35 -29 -72 0 0 2015-08-19T17:54:02Z
Cyprid 493322052 2015-08-19 17:54:12 15.02 0 15.0 127.89 15.13 0 1 0 5.0 0 24 1 -70 2 0 2015-08-19T17:54:12Z
Cyprid 493322062 2015-08-19 17:54:22 14.91 0 15.0 127.89 15.13 0 1 0 5.0 0 -5 -67 39 3 0 2015-08-19T17:54:22Z
Cyprid 493322072 2015-08-19 17:54:32 14.98 0 15.0 127.89 15.13 0 1 0 5.0 0 36 -7 181 0 5 2015-08-19T17:54:32Z
Cyprid 493322082 2015-08-19 17:54:42 15.0 0 15.0 127.89 15.13 0 1 0 5.0 0 26 10 142 2 0 2015-08-19T17:54:42Z
Cyprid 493322092 2015-08-19 17:54:52 14.98 0 15.0 127.89 15.13 0 1 0 5.0 0 40 -34 152 0 0 2015-08-19T17:54:52Z
Cyprid 493322102 2015-08-19 17:55:02 15.07 0 15.0 127.89 15.13 0 1 0 5.0 0 28 -67 94 0 5 2015-08-19T17:55:02Z
Cyprid 493322112 2015-08-19 17:55:12 15.14 0 15.0 127.89 15.13 0 1 0 5.0 0 49 10 -88 1 0 2015-08-19T17:55:12Z
Cyprid 493322122 2015-08-19 17:55:22 14.96 0 15.0 127.89 15.13 0 1 0 5.0 0 11 -45 -147 5 0 2015-08-19T17:55:22Z
Cyprid 493322132 2015-08-19 17:55:32 14.91 0 15.0 127.89 15.13 0 1 0 5.0 0 32 -20 2 0 0 2015-08-19T17:55:32Z
Cyprid 493322142 2015-08-19 17:55:42 14.91 0 15.0 127.89 15.13 0 1 0 5.0 0 28 -48 128 0 0 2015-08-19T17:55:42Z
Cyprid 493322152 2015-08-19 17:55:52 14.92 0 15.0 127.89 15.13 0 1 0 5.0 0 17 -55 236 0 0 2015-08-19T17:55:52Z
Cyprid 493322162 2015-08-19 17:56:02 14.99 0 15.0 127.89 15.13 0 1 0 5.0 0 10 -38 254 0 3 2015-08-19T17:56:02Z
Cyprid 493322173 2015-08-19 17:56:13 14.99 0 15.0 127.89 15.14 0 1 0 5.0 0 26 -11 169 2 0 2015-08-19T17:56:13Z
Cyprid 493322183 2015-08-19 17:56:23 14.99 0 15.0 127.89 15.13 0 1 0 5.0 0 15 -87 -45 0 1 2015-08-19T17:56:23Z
Cyprid 493322193 2015-08-19 17:56:33 14.94 0 15.0 127.89 15.14 0 1 0 5.0 0 -8 -84 77 3 0 2015-08-19T17:56:33Z
Cyprid 493322203 2015-08-19 17:56:43 14.92 0 15.0 127.89 15.13 0 1 0 5.0 0 40 -9 222 0 1 2015-08-19T17:56:43Z
Cyprid 493322213 2015-08-19 17:56:53 15.06 0 15.0 127.89 15.12 0 1 0 5.0 0 29 -23 262 0 5 2015-08-19T17:56:53Z
Cyprid 493322223 2015-08-19 17:57:03 15.11 0 15.0 127.89 15.13 0 1 0 5.0 0 13 -8 81 1 0 2015-08-19T17:57:03Z
Cyprid 493322233 2015-08-19 17:57:13 14.95 0 15.0 127.89 15.14 0 1 0 5.0 0 18 -26 -10 5 0 2015-08-19T17:57:13Z
Cyprid 493322243 2015-08-19 17:57:23 14.91 0 15.0 127.89 15.14 0 1 0 5.0 0 58 -74 102 0 1 2015-08-19T17:57:23Z
Cyprid 493322253 2015-08-19 17:57:33 15.03 0 15.0 127.89 15.13 0 1 0 5.0 0 27 -8 109 0 5 2015-08-19T17:57:33Z
Cyprid 493322263 2015-08-19 17:57:43 15.0 0 15.0 127.89 15.13 0 1 0 5.0 0 6 -65 8 5 0 2015-08-19T17:57:43Z
Cyprid 493322273 2015-08-19 17:57:53 14.94 0 15.0 127.89 15.12 0 1 0 5.0 0 19 -39 101 0 0 2015-08-19T17:57:53Z
Cyprid 493322283 2015-08-19 17:58:03 15.06 0 15.0 127.89 15.12 0 1 0 5.0 0 22 -33 110 0 5 2015-08-19T17:58:03Z
Cyprid 493322293 2015-08-19 17:58:13 15.05 0 15.0 127.89 15.13 0 1 0 5.0 0 27 13 21 4 0 2015-08-19T17:58:13Z
Cyprid 493322303 2015-08-19 17:58:23 15.06 0 15.0 127.89 15.12 0 1 0 5.0 0 27 1 0 0 4 2015-08-19T17:58:23Z
Cyprid 493322313 2015-08-19 17:58:33 15.07 0 15.0 127.89 15.12 0 1 0 5.0 0 2 13 -110 2 0 2015-08-19T17:58:33Z
Cyprid 493322323 2015-08-19 17:58:43 15.07 0 15.0 127.89 15.13 0 1 0 5.0 0 58 -51 -121 0 1 2015-08-19T17:58:43Z
Cyprid 493322333 2015-08-19 17:58:53 14.96 0 15.0 127.89 15.13 0 1 0 5.0 0 38 -13 -81 5 0 2015-08-19T17:58:53Z
Cyprid 493322343 2015-08-19 17:59:03 14.98 0 15.0 127.89 15.13 0 1 0 5.0 0 17 -82 4 0 5 2015-08-19T17:59:03Z
Cyprid 493322353 2015-08-19 17:59:13 14.97 0 15.0 127.89 15.12 0 1 0 5.0 0 25 -88 4 4 0 2015-08-19T17:59:13Z
Cyprid 493322363 2015-08-19 17:59:23 14.97 0 15.0 127.89 15.13 0 1 0 5.0 0 -9 -29 63 0 3 2015-08-19T17:59:23Z
Cyprid 493322373 2015-08-19 17:59:33 14.92 0 15.0 127.89 15.13 0 1 0 5.0 0 15 -63 98 5 0 2015-08-19T17:59:33Z
Cyprid 493322383 2015-08-19 17:59:43 14.97 0 15.0 127.89 15.14 0 1 0 5.0 0 27 -5 207 0 5 2015-08-19T17:59:43Z
Cyprid 493322393 2015-08-19 17:59:53 15.03 0 15.0 127.89 15.14 0 1 0 5.0 0 18 -58 134 0 0 2015-08-19T17:59:53Z
Cyprid 493322403 2015-08-19 18:00:03 15.0 0 15.0 127.89 15.13 0 1 0 5.0 0 24 -84 76 1 0 2015-08-19T18:00:03Z
Cyprid 493322413 2015-08-19 18:00:13 15.04 0 15.0 127.89 15.14 0 1 0 5.0 0 17 -85 46 0 2 2015-08-19T18:00:13Z
Cyprid 493322423 2015-08-19 18:00:23 15.0 0 15.0 127.89 15.14 0 1 0 5.0 0 50 -27 -12 3 0 2015-08-19T18:00:23Z
Cyprid 493322433 2015-08-19 18:00:33 14.9 0 15.0 127.89 15.13 0 1 0 5.0 0 29 -1 79 2 0 2015-08-19T18:00:33Z
Cyprid 493322443 2015-08-19 18:00:43 14.96 0 15.0 127.89 15.13 0 1 0 5.0 0 15 -75 138 0 5 2015-08-19T18:00:43Z
Cyprid 493322453 2015-08-19 18:00:53 15.01 0 15.0 127.89 15.12 0 1 0 5.0 0 14 -77 72 2 0 2015-08-19T18:00:53Z
Cyprid 493322463 2015-08-19 18:01:03 14.94 0 15.0 127.89 15.13 0 1 0 5.0 0 20 -77 101 2 0 2015-08-19T18:01:03Z
Cyprid 493322473 2015-08-19 18:01:13 14.98 0 15.0 127.89 15.13 0 1 0 5.0 0 33 -93 125 0 4 2015-08-19T18:01:13Z
Cyprid 493322483 2015-08-19 18:01:23 14.96 0 15.0 127.89 15.13 0 1 0 5.0 0 30 -17 105 5 0 2015-08-19T18:01:23Z
Cyprid 493322493 2015-08-19 18:01:33 14.94 0 15.0 127.89 15.13 0 1 0 5.0 0 43 -40 164 0 3 2015-08-19T18:01:33Z
Cyprid 493322503 2015-08-19 18:01:43 15.03 0 15.0 127.89 15.14 0 1 0 5.0 0 35 -66 108 0 2 2015-08-19T18:01:43Z
Cyprid 493322513 2015-08-19 18:01:53 15.0 0 15.0 127.89 15.13 0 1 0 5.0 0 -3 -96 58 4 0 2015-08-19T18:01:53Z
Cyprid 493322523 2015-08-19 18:02:03 14.95 0 15.0 127.89 15.13 0 1 0 5.0 0 3 -7 144 0 1 2015-08-19T18:02:03Z
Cyprid 493322533 2015-08-19 18:02:13 15.04 0 15.0 127.89 15.13 0 1 0 5.0 0 6 -15 102 0 4 2015-08-19T18:02:13Z
Cyprid 493322543 2015-08-19 18:02:23 15.0 0 15.0 127.89 15.13 0 1 0 5.0 0 22 -66 51 5 0 2015-08-19T18:02:23Z
Cyprid 493322553 2015-08-19 18:02:33 15.02 0 15.0 127.89 15.13 0 1 0 5.0 0 8 -32 72 0 5 2015-08-19T18:02:33Z
Cyprid 493322563 2015-08-19 18:02:43 14.97 0 15.0 127.89 15.13 0 1 0 5.0 0 46 -80 45 5 0 2015-08-19T18:02:43Z
Cyprid 493322573 2015-08-19 18:02:53 14.94 0 15.0 127.89 15.13 0 1 0 5.0 0 33 -18 161 0 1 2015-08-19T18:02:53Z
Cyprid 493322583 2015-08-19 18:03:03 14.87 0 15.0 127.89 15.13 0 1 0 5.0 0 46 -85 259 3 0 2015-08-19T18:03:03Z
Cyprid 493322593 2015-08-19 18:03:13 14.9 0 15.0 127.89 15.14 0 1 0 5.0 0 71 -55 374 0 4 2015-08-19T18:03:13Z
Cyprid 493322603 2015-08-19 18:03:23 15.04 0 15.0 127.89 15.13 0 1 0 5.0 0 6 -50 286 0 3 2015-08-19T18:03:23Z
Cyprid 493322613 2015-08-19 18:03:33 15.04 0 15.0 127.89 15.13 0 1 0 5.0 0 3 -39 210 3 0 2015-08-19T18:03:33Z
Cyprid 493322623 2015-08-19 18:03:43 15.0 0 15.0 127.89 15.13 0 1 0 5.0 0 22 -60 250 0 0 2015-08-19T18:03:43Z
Cyprid 493322633 2015-08-19 18:03:53 15.14 0 15.0 127.89 15.13 0 1 0 5.0 0 25 -21 219 0 5 2015-08-19T18:03:53Z
Cyprid 493322643 2015-08-19 18:04:03 15.12 0 15.0 127.89 15.12 0 1 0 5.0 0 19 -48 109 4 0 2015-08-19T18:04:03Z
Cyprid 493322654 2015-08-19 18:04:14 15.08 0 15.0 127.89 15.13 0 1 0 5.0 0 17 15 115 0 1 2015-08-19T18:04:14Z
Cyprid 493322664 2015-08-19 18:04:24 15.09 0 15.0 127.89 15.12 0 1 0 5.0 0 12 -47 73 0 1 2015-08-19T18:04:24Z
Cyprid 493322674 2015-08-19 18:04:34 15.07 0 15.0 127.89 15.12 0 1 0 5.0 0 22 -54 32 1 0 2015-08-19T18:04:34Z
Cyprid 493322684 2015-08-19 18:04:44 15.11 0 15.0 127.89 15.13 0 1 0 5.0 0 30 -83 2 0 2 2015-08-19T18:04:44Z
Cyprid 493322694 2015-08-19 18:04:54 15.05 0 15.0 127.89 15.13 0 1 0 5.0 0 16 -79 -44 4 0 2015-08-19T18:04:54Z
Cyprid 493322704 2015-08-19 18:05:04 14.99 0 15.0 127.89 15.12 0 1 0 5.0 0 -8 -33 47 0 1 2015-08-19T18:05:04Z
Cyprid 493322714 2015-08-19 18:05:14 15.03 0 15.0 127.89 15.13 0 1 0 5.0 0 50 -35 79 0 1 2015-08-19T18:05:14Z
Cyprid 493322724 2015-08-19 18:05:24 15.04 0 15.0 127.89 15.12 0 1 0 5.0 0 24 -39 64 0 0 2015-08-19T18:05:24Z
Cyprid 493322734 2015-08-19 18:05:34 15.02 0 15.0 127.89 15.12 0 1 0 5.0 0 32 -36 56 0 0 2015-08-19T18:05:34Z
Cyprid 493322744 2015-08-19 18:05:44 15.08 0 15.0 127.89 15.13 0 1 0 5.0 0 45 -17 9 0 2 2015-08-19T18:05:44Z
Cyprid 493322754 2015-08-19 18:05:54 15.0 0 15.0 127.89 15.13 0 1 0 5.0 0 21 -26 -14 5 0 2015-08-19T18:05:54Z
Cyprid 493322764 2015-08-19 18:06:04 14.94 0 15.0 127.89 15.13 0 1 0 5.0 0 68 -34 98 0 1 2015-08-19T18:06:04Z
Cyprid 493322774 2015-08-19 18:06:14 14.93 0 15.0 127.89 15.12 0 1 0 5.0 0 50 -53 177 0 0 2015-08-19T18:06:14Z
Cyprid 493322784 2015-08-19 18:06:24 14.99 0 15.0 127.89 15.13 0 1 0 5.0 0 9 -85 215 0 2 2015-08-19T18:06:24Z
Cyprid 493322794 2015-08-19 18:06:34 15.04 0 15.0 127.89 15.12 0 1 0 5.0 0 7 15 165 0 1 2015-08-19T18:06:34Z
Cyprid 493322804 2015-08-19 18:06:44 15.03 0 15.0 127.89 15.13 0 1 0 5.0 0 24 9 124 2 0 2015-08-19T18:06:44Z
Cyprid 493322814 2015-08-19 18:06:54 15.06 0 15.0 127.89 15.12 0 1 0 5.0 0 38 -45 101 0 3 2015-08-19T18:06:54Z
Cyprid 493322824 2015-08-19 18:07:04 15.05 0 15.0 127.89 15.12 0 1 0 5.0 0 24 -99 100 2 0 2015-08-19T18:07:04Z
Cyprid 493322834 2015-08-19 18:07:14 15.04 0 15.0 127.89 15.12 0 1 0 5.0 0 11 -64 93 0 0 2015-08-19T18:07:14Z
Cyprid 493322844 2015-08-19 18:07:24 15.02 0 15.0 127.89 15.13 0 1 0 5.0 0 22 -43 100 0 0 2015-08-19T18:07:24Z
Cyprid 493322854 2015-08-19 18:07:34 14.99 0 15.0 127.89 15.12 0 1 0 5.0 0 41 19 119 1 0 2015-08-19T18:07:34Z
Cyprid 493322864 2015-08-19 18:07:44 15.04 0 15.0 127.89 15.12 0 1 0 5.0 0 42 -46 104 0 3 2015-08-19T18:07:44Z
Cyprid 493322874 2015-08-19 18:07:54 15.1 0 15.0 127.89 15.12 0 1 0 5.0 0 36 -19 0 0 0 2015-08-19T18:07:54Z
Cyprid 493322884 2015-08-19 18:08:04 15.02 0 15.0 127.89 15.12 0 1 0 5.0 0 17 -87 -57 4 0 2015-08-19T18:08:04Z
Cyprid 493322895 2015-08-19 18:08:15 15.02 0 15.0 127.89 15.11 0 1 0 5.0 0 21 -61 0 0 5 2015-08-19T18:08:15Z
Cyprid 493322905 2015-08-19 18:08:25 15.08 0 15.0 127.89 15.12 0 1 0 5.0 0 27 -60 -76 2 0 2015-08-19T18:08:25Z
Cyprid 493322915 2015-08-19 18:08:35 15.06 0 15.0 127.89 15.12 0 1 0 5.0 0 19 -38 -94 0 0 2015-08-19T18:08:35Z
Cyprid 493322925 2015-08-19 18:08:45 14.86 0 15.0 127.89 15.12 0 1 0 5.0 0 0 -52 -30 5 0 2015-08-19T18:08:45Z
Cyprid 493322935 2015-08-19 18:08:55 14.96 0 15.0 127.89 15.12 0 1 0 5.0 0 29 -7 116 0 5 2015-08-19T18:08:55Z
Cyprid 493322945 2015-08-19 18:09:05 14.98 0 15.0 127.89 15.12 0 1 0 5.0 0 27 0 88 2 0 2015-08-19T18:09:05Z
Cyprid 493322955 2015-08-19 18:09:15 14.93 0 15.0 127.89 15.13 0 1 0 5.0 0 -1 -43 143 1 0 2015-08-19T18:09:15Z
Cyprid 493322965 2015-08-19 18:09:25 14.99 0 15.0 127.89 15.13 0 1 0 5.0 0 31 -67 177 0 4 2015-08-19T18:09:25Z
Cyprid 493322975 2015-08-19 18:09:35 14.92 0 15.0 127.89 15.13 0 1 0 5.0 0 5 -15 134 5 0 2015-08-19T18:09:35Z
Cyprid 493322985 2015-08-19 18:09:45 15.01 0 15.0 127.89 15.12 0 1 0 5.0 0 39 -84 153 0 5 2015-08-19T18:09:45Z
Cyprid 493322995 2015-08-19 18:09:55 15.05 0 15.0 127.89 15.13 0 1 0 5.0 0 40 -57 68 1 0 2015-08-19T18:09:55Z
Cyprid 493323005 2015-08-19 18:10:05 14.93 0 15.0 127.89 15.13 0 1 0 5.0 0 17 -31 93 5 0 2015-08-19T18:10:05Z
Cyprid 493323016 2015-08-19 18:10:16 14.99 0 15.0 127.89 15.12 0 1 0 5.0 0 34 -21 228 0 5 2015-08-19T18:10:16Z
Cyprid 493323026 2015-08-19 18:10:26 15.07 0 15.0 127.89 15.13 0 1 0 5.0 0 43 -90 133 0 1 2015-08-19T18:10:26Z
Cyprid 493323036 2015-08-19 18:10:36 15.03 0 15.0 127.89 15.11 0 1 0 5.0 0 15 -85 31 2 0 2015-08-19T18:10:36Z
Cyprid 493323046 2015-08-19 18:10:46 14.99 0 15.0 127.89 15.11 0 1 0 5.0 0 23 -70 39 0 0 2015-08-19T18:10:46Z
Cyprid 493323056 2015-08-19 18:10:56 15.06 0 15.0 127.89 15.1 0 1 0 5.0 0 1 -32 -6 0 3 2015-08-19T18:10:56Z
Cyprid 493323066 2015-08-19 18:11:06 15.0 0 15.0 127.89 15.11 0 1 0 5.0 0 16 -35 -78 5 0 2015-08-19T18:11:06Z
Cyprid 493323076 2015-08-19 18:11:16 14.97 0 15.0 127.89 15.11 0 1 0 5.0 0 37 -3 13 0 2 2015-08-19T18:11:16Z
Cyprid 493323086 2015-08-19 18:11:26 14.97 0 15.0 127.89 15.11 0 1 0 5.0 0 42 -59 10 0 0 2015-08-19T18:11:26Z
Cyprid 493323096 2015-08-19 18:11:36 14.94 0 15.0 127.89 15.12 0 1 0 5.0 0 31 -77 49 2 0 2015-08-19T18:11:36Z
Cyprid 493323106 2015-08-19 18:11:46 14.99 0 15.0 127.89 15.12 0 1 0 5.0 0 30 -62 88 0 4 2015-08-19T18:11:46Z
Cyprid 493323116 2015-08-19 18:11:56 14.94 0 15.0 127.89 15.12 0 1 0 5.0 0 0 8 60 5 0 2015-08-19T18:11:56Z
Cyprid 493323126 2015-08-19 18:12:06 14.85 0 15.0 127.89 15.12 0 1 0 5.0 0 22 -41 164 0 0 2015-08-19T18:12:06Z
Cyprid 493323136 2015-08-19 18:12:16 14.99 0 15.0 127.89 15.12 0 1 0 5.0 0 29 -99 199 0 5 2015-08-19T18:12:16Z
Cyprid 493323146 2015-08-19 18:12:26 15.07 0 15.0 127.89 15.12 0 1 0 5.0 0 25 -32 94 0 0 2015-08-19T18:12:26Z
Cyprid 493323156 2015-08-19 18:12:36 14.93 0 15.0 127.89 15.1 0 1 0 5.0 0 10 12 37 5 0 2015-08-19T18:12:36Z
Cyprid 493323166 2015-08-19 18:12:46 14.93 0 15.0 127.89 15.09 0 1 0 5.0 0 -4 -15 132 0 2 2015-08-19T18:12:46Z
Cyprid 493323176 2015-08-19 18:12:56 14.97 0 15.0 127.89 15.09 0 1 0 5.0 0 30 -43 139 0 1 2015-08-19T18:12:56Z
Cyprid 493323186 2015-08-19 18:13:06 14.93 0 15.0 127.89 15.08 0 1 0 5.0 0 48 -76 141 3 0 2015-08-19T18:13:06Z
Cyprid 493323196 2015-08-19 18:13:16 14.94 0 15.0 127.89 15.07 0 1 0 5.0 0 40 -9 201 0 3 2015-08-19T18:13:16Z
Cyprid 493323206 2015-08-19 18:13:26 14.89 0 15.0 127.89 15.05 0 1 0 5.0 0 36 -57 252 5 0 2015-08-19T18:13:26Z
Cyprid 493323216 2015-08-19 18:13:36 15.03 0 15.0 127.89 15.03 0 1 0 5.0 0 47 -16 374 0 5 2015-08-19T18:13:36Z
Cyprid 493323226 2015-08-19 18:13:46 15.1 0 15.0 127.89 15.01 0 1 0 5.0 0 -4 -11 191 0 4 2015-08-19T18:13:46Z
Cyprid 493323236 2015-08-19 18:13:56 15.16 0 15.0 127.89 15.0 0 1 0 5.0 0 -8 -42 -18 1 0 2015-08-19T18:13:56Z
Cyprid 493323246 2015-08-19 18:14:06 15.13 0 15.0 127.89 14.99 0 1 0 5.0 0 5 -20 -145 0 0 2015-08-19T18:14:06Z
Cyprid 493323256 2015-08-19 18:14:16 15.05 0 15.0 127.89 15.0 0 1 0 5.0 0 13 -15 -132 4 0 2015-08-19T18:14:16Z
Cyprid 493323266 2015-08-19 18:14:26 14.94 0 15.0 127.89 15.01 0 1 0 5.0 0 35 -75 13 1 0 2015-08-19T18:14:26Z
Cyprid 493323276 2015-08-19 18:14:36 14.94 0 15.0 127.89 15.02 0 1 0 5.0 0 43 -21 161 0 1 2015-08-19T18:14:36Z
Cyprid 493323286 2015-08-19 18:14:46 14.92 0 15.0 127.89 15.01 0 1 0 5.0 0 25 0 234 1 0 2015-08-19T18:14:46Z
Cyprid 493323296 2015-08-19 18:14:56 14.96 0 15.0 127.89 15.0 0 1 0 5.0 0 27 -45 249 0 3 2015-08-19T18:14:56Z
Cyprid 493323306 2015-08-19 18:15:06 14.98 0 15.0 127.89 14.99 0 1 0 5.0 0 23 -69 188 2 0 2015-08-19T18:15:06Z
Cyprid 493323316 2015-08-19 18:15:16 15.01 0 15.0 127.89 14.99 0 1 0 5.0 0 15 -83 164 0 2 2015-08-19T18:15:16Z
Cyprid 493323326 2015-08-19 18:15:26 15.04 0 15.0 127.89 14.99 0 1 0 5.0 0 20 -30 98 0 0 2015-08-19T18:15:26Z
Cyprid 493323336 2015-08-19 18:15:36 15.1 0 15.0 127.89 14.98 0 1 0 5.0 0 10 -39 -13 0 3 2015-08-19T18:15:36Z
Cyprid 493323346 2015-08-19 18:15:46 14.99 0 15.0 127.89 14.98 0 1 0 5.0 0 65 -58 -65 5 0 2015-08-19T18:15:46Z
Cyprid 493323356 2015-08-19 18:15:56 15.03 0 15.0 127.89 14.98 0 1 0 5.0 0 -4 -37 10 0 4 2015-08-19T18:15:56Z
Cyprid 493323366 2015-08-19 18:16:06 15.1 0 15.0 127.89 14.98 0 1 0 5.0 0 15 -29 -28 0 0 2015-08-19T18:16:06Z
Cyprid 493323376 2015-08-19 18:16:16 15.08 0 15.0 127.89 14.98 0 1 0 5.0 0 -13 -26 -66 1 0 2015-08-19T18:16:16Z
Cyprid 493323386 2015-08-19 18:16:26 15.06 0 15.0 127.89 14.99 0 1 0 5.0 0 21 -34 -12 0 0 2015-08-19T18:16:26Z
Cyprid 493323396 2015-08-19 18:16:36 15.02 0 15.0 127.89 15.0 0 1 0 5.0 0 30 -37 34 1 0 2015-08-19T18:16:36Z
Cyprid 493323406 2015-08-19 18:16:46 15.05 0 15.0 127.89 15.0 0 1 0 5.0 0 17 -2 48 0 2 2015-08-19T18:16:46Z
Cyprid 493323416 2015-08-19 18:16:56 15.12 0 15.0 127.89 15.0 0 1 0 5.0 0 44 -62 -13 0 1 2015-08-19T18:16:56Z
Cyprid 493323426 2015-08-19 18:17:06 15.08 0 15.0 127.89 15.01 0 1 0 5.0 0 24 -62 -46 3 0 2015-08-19T18:17:06Z
Cyprid 493323436 2015-08-19 18:17:16 15.13 0 15.0 127.89 15.01 0 1 0 5.0 0 32 -53 -40 0 5 2015-08-19T18:17:16Z
Cyprid 493323446 2015-08-19 18:17:26 15.07 0 15.0 127.89 15.02 0 1 0 5.0 0 23 -15 -102 5 0 2015-08-19T18:17:26Z
Cyprid 493323456 2015-08-19 18:17:36 15.05 0 15.0 127.89 15.01 0 1 0 5.0 0 6 -50 -29 0 2 2015-08-19T18:17:36Z
Cyprid 493323466 2015-08-19 18:17:46 15.07 0 15.0 127.89 15.01 0 1 0 5.0 0 8 -47 -19 0 0 2015-08-19T18:17:46Z
Cyprid 493323476 2015-08-19 18:17:56 15.03 0 15.0 127.89 15.02 0 1 0 5.0 0 3 3 16 2 0 2015-08-19T18:17:56Z
Cyprid 493323486 2015-08-19 18:18:06 15.01 0 15.0 127.89 15.05 0 1 0 5.0 0 27 -33 67 0 1 2015-08-19T18:18:06Z
Cyprid 493323497 2015-08-19 18:18:17 15.11 0 15.0 127.89 15.04 0 1 0 5.0 0 56 -49 21 0 4 2015-08-19T18:18:17Z
Cyprid 493323507 2015-08-19 18:18:27 15.05 0 15.0 127.89 15.05 0 1 0 5.0 0 10 -7 -42 5 0 2015-08-19T18:18:27Z
Cyprid 493323517 2015-08-19 18:18:37 15.01 0 15.0 127.89 15.07 0 1 0 5.0 0 49 0 35 0 1 2015-08-19T18:18:37Z
Cyprid 493323527 2015-08-19 18:18:47 15.09 0 15.0 127.89 15.09 0 1 0 5.0 0 57 -3 -5 0 4 2015-08-19T18:18:47Z
Cyprid 493323537 2015-08-19 18:18:57 14.95 0 15.0 127.89 15.1 0 1 0 5.0 0 14 -22 -70 5 0 2015-08-19T18:18:57Z
Cyprid 493323547 2015-08-19 18:19:07 14.87 0 15.0 127.89 15.1 0 1 0 5.0 0 40 -6 96 4 0 2015-08-19T18:19:07Z
Cyprid 493323557 2015-08-19 18:19:17 15.01 0 15.0 127.89 15.11 0 1 0 5.0 0 22 -82 293 0 5 2015-08-19T18:19:17Z
Cyprid 493323567 2015-08-19 18:19:27 14.93 0 15.0 127.89 15.11 0 1 0 5.0 0 6 -84 295 4 0 2015-08-19T18:19:27Z
Cyprid 493323577 2015-08-19 18:19:37 14.95 0 15.0 127.89 15.11 0 1 0 5.0 0 34 -13 354 0 5 2015-08-19T18:19:37Z
Cyprid 493323587 2015-08-19 18:19:47 15.09 0 15.0 127.89 15.07 0 1 0 5.0 0 13 0 191 0 2 2015-08-19T18:19:47Z
Cyprid 493323597 2015-08-19 18:19:57 14.96 0 15.0 127.89 15.04 0 1 0 5.0 0 28 -69 90 5 0 2015-08-19T18:19:57Z
Cyprid 493323607 2015-08-19 18:20:07 14.94 0 15.0 127.89 15.02 0 1 0 5.0 0 13 -47 183 0 0 2015-08-19T18:20:07Z
Cyprid 493323617 2015-08-19 18:20:17 14.95 0 15.0 127.89 15.0 0 1 0 5.0 0 -3 -8 243 0 1 2015-08-19T18:20:17Z
Cyprid 493323627 2015-08-19 18:20:27 14.92 0 15.0 127.89 14.99 0 1 0 5.0 0 26 -15 237 2 0 2015-08-19T18:20:27Z
Cyprid 493323637 2015-08-19 18:20:37 14.89 0 15.0 127.89 14.99 0 1 0 5.0 0 31 -38 287 0 0 2015-08-19T18:20:37Z
Cyprid 493323647 2015-08-19 18:20:47 14.84 0 15.0 127.89 14.98 0 1 0 5.0 0 40 0 350 2 0 2015-08-19T18:20:47Z
Cyprid 493323657 2015-08-19 18:20:57 14.88 0 15.0 127.89 14.97 0 1 0 5.0 0 22 10 364 0 4 2015-08-19T18:20:57Z
Cyprid 493323667 2015-08-19 18:21:07 14.87 0 15.0 127.89 14.96 0 1 0 5.0 0 17 -75 305 5 0 2015-08-19T18:21:07Z
Cyprid 493323677 2015-08-19 18:21:17 14.87 0 15.0 127.89 14.96 0 1 0 5.0 0 11 -91 390 0 4 2015-08-19T18:21:17Z
Cyprid 493323687 2015-08-19 18:21:27 14.9 0 15.0 127.89 14.96 0 1 0 5.0 0 34 -90 315 2 0 2015-08-19T18:21:27Z
Cyprid 493323697 2015-08-19 18:21:37 14.91 0 15.0 127.89 14.95 0 1 0 5.0 0 -8 -25 341 0 1 2015-08-19T18:21:37Z
Cyprid 493323707 2015-08-19 18:21:47 14.85 0 15.0 127.89 14.94 0 1 0 5.0 0 27 -49 378 3 0 2015-08-19T18:21:47Z
Cyprid 493323717 2015-08-19 18:21:57 14.9 0 15.0 127.89 14.94 0 1 0 5.0 0 18 -43 421 0 5 2015-08-19T18:21:57Z
Cyprid 493323727 2015-08-19 18:22:07 14.94 0 15.0 127.89 14.93 0 1 0 5.0 0 -3 -53 322 3 0 2015-08-19T18:22:07Z
Cyprid 493323738 2015-08-19 18:22:18 14.96 0 15.0 127.89 14.93 0 1 0 5.0 0 10 -59 332 0 3 2015-08-19T18:22:18Z
Cyprid 493323748 2015-08-19 18:22:28 15.06 0 15.0 127.89 14.92 0 1 0 5.0 0 12 -1 213 0 2 2015-08-19T18:22:28Z
Cyprid 493323758 2015-08-19 18:22:38 15.08 0 15.0 127.89 14.93 0 1 0 5.0 0 3 -70 87 1 0 2015-08-19T18:22:38Z
Cyprid 493323768 2015-08-19 18:22:48 15.06 0 15.0 127.89 14.92 0 1 0 5.0 0 23 -19 39 0 0 2015-08-19T18:22:48Z
Cyprid 493323778 2015-08-19 18:22:58 15.08 0 15.0 127.89 14.91 0 1 0 5.0 0 14 -29 0 0 0 2015-08-19T18:22:58Z
Cyprid 493323788 2015-08-19 18:23:08 15.07 0 15.0 127.89 14.91 0 1 0 5.0 0 22 -35 -11 0 0 2015-08-19T18:23:08Z
Cyprid 493323798 2015-08-19 18:23:18 15.07 0 15.0 127.89 14.92 0 1 0 5.0 0 28 -41 -21 0 0 2015-08-19T18:23:18Z
Cyprid 493323808 2015-08-19 18:23:28 15.05 0 15.0 127.89 14.92 0 1 0 5.0 0 48 -46 -38 0 0 2015-08-19T18:23:28Z
Cyprid 493323818 2015-08-19 18:23:38 15.14 0 15.0 127.89 14.92 0 1 0 5.0 0 26 -45 -104 0 4 2015-08-19T18:23:38Z
Cyprid 493323828 2015-08-19 18:23:48 15.07 0 15.0 127.89 14.92 0 1 0 5.0 0 -1 1 -215 5 0 2015-08-19T18:23:48Z
Cyprid 493323838 2015-08-19 18:23:58 14.96 0 15.0 127.89 14.92 0 1 0 5.0 0 12 17 -113 2 0 2015-08-19T18:23:58Z
Cyprid 493323848 2015-08-19 18:24:08 15.01 0 15.0 127.89 14.92 0 1 0 5.0 0 26 -73 -54 0 5 2015-08-19T18:24:08Z
Cyprid 493323859 2015-08-19 18:24:19 15.03 0 15.0 127.89 14.92 0 1 0 5.0 0 24 -43 -110 4 0 2015-08-19T18:24:19Z
Cyprid 493323869 2015-08-19 18:24:29 14.93 0 15.0 127.89 14.93 0 1 0 5.0 0 34 -88 -11 1 0 2015-08-19T18:24:29Z
Cyprid 493323879 2015-08-19 18:24:39 14.98 0 15.0 127.89 14.94 0 1 0 5.0 0 1 7 54 0 4 2015-08-19T18:24:39Z
Cyprid 493323889 2015-08-19 18:24:49 15.02 0 15.0 127.89 14.93 0 1 0 5.0 0 6 -4 2 2 0 2015-08-19T18:24:49Z
Cyprid 493323899 2015-08-19 18:24:59 14.97 0 15.0 127.89 14.93 0 1 0 5.0 0 7 -60 31 1 0 2015-08-19T18:24:59Z
Cyprid 493323909 2015-08-19 18:25:09 14.98 0 15.0 127.89 14.93 0 1 0 5.0 0 -10 -18 69 0 1 2015-08-19T18:25:09Z
Cyprid 493323919 2015-08-19 18:25:19 14.97 0 15.0 127.89 14.93 0 1 0 5.0 0 21 -69 82 1 0 2015-08-19T18:25:19Z
Cyprid 493323929 2015-08-19 18:25:29 14.92 0 15.0 127.89 14.93 0 1 0 5.0 0 30 4 160 1 0 2015-08-19T18:25:29Z
Cyprid 493323939 2015-08-19 18:25:39 14.99 0 15.0 127.89 14.93 0 1 0 5.0 0 -12 -70 176 0 4 2015-08-19T18:25:39Z
Cyprid 493323949 2015-08-19 18:25:49 15.02 0 15.0 127.89 14.93 0 1 0 5.0 0 21 -77 102 2 0 2015-08-19T18:25:49Z
Cyprid 493323959 2015-08-19 18:25:59 14.96 0 15.0 127.89 14.93 0 1 0 5.0 0 43 -11 133 2 0 2015-08-19T18:25:59Z
Cyprid 493323969 2015-08-19 18:26:09 15.0 0 15.0 127.89 14.93 0 1 0 5.0 0 8 12 153 0 4 2015-08-19T18:26:09Z
Cyprid 493323980 2015-08-19 18:26:20 14.97 0 15.0 127.89 14.93 0 1 0 5.0 0 25 -84 119 5 0 2015-08-19T18:26:20Z
Cyprid 493323990 2015-08-19 18:26:30 14.98 0 15.0 127.89 14.93 0 1 0 5.0 0 32 -11 169 0 5 2015-08-19T18:26:30Z
Cyprid 493324000 2015-08-19 18:26:40 14.99 0 15.0 127.89 14.94 0 1 0 5.0 0 31 -4 128 4 0 2015-08-19T18:26:40Z
Cyprid 493324010 2015-08-19 18:26:50 14.96 0 15.0 127.89 14.93 0 1 0 5.0 0 12 -10 171 0 2 2015-08-19T18:26:50Z
Cyprid 493324020 2015-08-19 18:27:00 14.97 0 15.0 127.89 14.93 0 1 0 5.0 0 7 -39 171 1 0 2015-08-19T18:27:00Z
Cyprid 493324030 2015-08-19 18:27:10 15.03 0 15.0 127.89 14.93 0 1 0 5.0 0 63 -50 161 0 3 2015-08-19T18:27:10Z
Cyprid 493324040 2015-08-19 18:27:20 15.02 0 15.0 127.89 14.94 0 1 0 5.0 0 6 -56 94 3 0 2015-08-19T18:27:20Z
Cyprid 493324050 2015-08-19 18:27:30 15.04 0 15.0 127.89 14.93 0 1 0 5.0 0 5 -5 43 0 4 2015-08-19T18:27:30Z
Cyprid 493324060 2015-08-19 18:27:40 15.08 0 15.0 127.89 14.93 0 1 0 5.0 0 -11 -38 -131 1 0 2015-08-19T18:27:40Z
Cyprid 493324070 2015-08-19 18:27:50 15.03 0 15.0 127.89 14.93 0 1 0 5.0 0 6 -84 -174 2 0 2015-08-19T18:27:50Z
Cyprid 493324080 2015-08-19 18:28:00 15.04 0 15.0 127.89 14.93 0 1 0 5.0 0 28 -59 -153 0 2 2015-08-19T18:28:00Z
Cyprid 493324090 2015-08-19 18:28:10 15.06 0 15.0 127.89 14.94 0 1 0 5.0 0 29 -49 -230 0 0 2015-08-19T18:28:10Z
Cyprid 493324100 2015-08-19 18:28:20 15.05 0 15.0 127.89 14.93 0 1 0 5.0 0 30 -29 -281 0 0 2015-08-19T18:28:20Z
Cyprid 493324110 2015-08-19 18:28:30 14.94 0 15.0 127.89 14.94 0 1 0 5.0 0 22 -7 -213 5 0 2015-08-19T18:28:30Z
Cyprid 493324120 2015-08-19 18:28:40 14.86 0 15.0 127.89 14.93 0 1 0 5.0 0 29 -41 -38 0 0 2015-08-19T18:28:40Z
Cyprid 493324130 2015-08-19 18:28:50 14.93 0 15.0 127.89 14.94 0 1 0 5.0 0 17 20 69 0 4 2015-08-19T18:28:50Z
Cyprid 493324140 2015-08-19 18:29:00 14.94 0 15.0 127.89 14.94 0 1 0 5.0 0 -2 -50 50 3 0 2015-08-19T18:29:00Z
Cyprid 493324150 2015-08-19 18:29:10 14.94 0 15.0 127.89 14.94 0 1 0 5.0 0 -25 -6 96 0 1 2015-08-19T18:29:10Z
Cyprid 493324160 2015-08-19 18:29:20 15.05 0 15.0 127.89 14.93 0 1 0 5.0 0 4 -64 14 0 5 2015-08-19T18:29:20Z
Cyprid 493324170 2015-08-19 18:29:30 15.07 0 15.0 127.89 14.93 0 1 0 5.0 0 20 -87 -105 4 0 2015-08-19T18:29:30Z
Cyprid 493324180 2015-08-19 18:29:40 15.01 0 15.0 127.89 14.93 0 1 0 5.0 0 2 -53 -40 0 0 2015-08-19T18:29:40Z
Cyprid 493324190 2015-08-19 18:29:50 15.01 0 15.0 127.89 14.93 0 1 0 5.0 0 -12 -9 -4 0 1 2015-08-19T18:29:50Z
Cyprid 493324200 2015-08-19 18:30:00 15.02 0 15.0 127.89 14.94 0 1 0 5.0 0 20 -35 -65 0 0 2015-08-19T18:30:00Z
Cyprid 493324210 2015-08-19 18:30:10 14.93 0 15.0 127.89 14.94 0 1 0 5.0 0 32 -59 -103 5 0 2015-08-19T18:30:10Z
Cyprid 493324220 2015-08-19 18:30:20 14.96 0 15.0 127.89 14.95 0 1 0 5.0 0 25 -12 47 0 5 2015-08-19T18:30:20Z
Cyprid 493324230 2015-08-19 18:30:30 15.02 0 15.0 127.89 14.95 0 1 0 5.0 0 31 -49 55 0 0 2015-08-19T18:30:30Z
Cyprid 493324240 2015-08-19 18:30:40 14.91 0 15.0 127.89 14.96 0 1 0 5.0 0 4 -66 44 5 0 2015-08-19T18:30:40Z
Cyprid 493324250 2015-08-19 18:30:50 14.91 0 15.0 127.89 14.96 0 1 0 5.0 0 46 -84 157 0 4 2015-08-19T18:30:50Z
Cyprid 493324260 2015-08-19 18:31:00 14.98 0 15.0 127.89 14.95 0 1 0 5.0 0 7 -59 122 0 0 2015-08-19T18:31:00Z
Cyprid 493324270 2015-08-19 18:31:10 14.95 0 15.0 127.89 14.95 0 1 0 5.0 0 17 -102 110 2 0 2015-08-19T18:31:10Z
Cyprid 493324280 2015-08-19 18:31:20 15.0 0 15.0 127.89 14.96 0 1 0 5.0 0 42 -70 107 0 4 2015-08-19T18:31:20Z
Cyprid 493324290 2015-08-19 18:31:30 14.97 0 15.0 127.89 14.97 0 1 0 5.0 0 10 -34 76 5 0 2015-08-19T18:31:30Z
Cyprid 493324300 2015-08-19 18:31:40 14.82 0 15.0 127.89 14.97 0 1 0 5.0 0 20 -17 217 2 0 2015-08-19T18:31:40Z
Cyprid 493324310 2015-08-19 18:31:50 14.86 0 15.0 127.89 14.96 0 1 0 5.0 0 -1 -24 319 0 4 2015-08-19T18:31:50Z
Cyprid 493324320 2015-08-19 18:32:00 14.91 0 15.0 127.89 14.96 0 1 0 5.0 0 36 -16 279 2 0 2015-08-19T18:32:00Z
Cyprid 493324330 2015-08-19 18:32:10 14.87 0 15.0 127.89 14.95 0 1 0 5.0 0 48 -46 308 0 0 2015-08-19T18:32:10Z
Cyprid 493324340 2015-08-19 18:32:20 15.01 0 15.0 127.89 14.96 0 1 0 5.0 0 26 -69 170 0 5 2015-08-19T18:32:20Z
Cyprid 493324350 2015-08-19 18:32:30 14.93 0 15.0 127.89 14.95 0 1 0 5.0 0 34 -31 220 5 0 2015-08-19T18:32:30Z
Cyprid 493324360 2015-08-19 18:32:40 14.86 0 15.0 127.89 14.95 0 1 0 5.0 0 28 -21 342 2 0 2015-08-19T18:32:40Z
Cyprid 493324370 2015-08-19 18:32:50 15.01 0 15.0 127.89 14.95 0 1 0 5.0 0 33 -99 376 0 5 2015-08-19T18:32:50Z
Cyprid 493324380 2015-08-19 18:33:00 14.97 0 15.0 127.89 14.94 0 1 0 5.0 0 43 -57 303 3 0 2015-08-19T18:33:00Z
Cyprid 493324390 2015-08-19 18:33:10 14.97 0 15.0 127.89 14.94 0 1 0 5.0 0 23 -29 320 0 2 2015-08-19T18:33:10Z
Cyprid 493324400 2015-08-19 18:33:20 15.14 0 15.0 127.89 14.94 0 1 0 5.0 0 31 -75 213 0 5 2015-08-19T18:33:20Z
Cyprid 493324410 2015-08-19 18:33:30 15.1 0 15.0 127.89 14.94 0 1 0 5.0 0 35 -34 49 5 0 2015-08-19T18:33:30Z
Cyprid 493324420 2015-08-19 18:33:40 15.01 0 15.0 127.89 14.94 0 1 0 5.0 0 28 -36 85 0 0 2015-08-19T18:33:40Z
Cyprid 493324430 2015-08-19 18:33:50 15.07 0 15.0 127.89 14.94 0 1 0 5.0 0 -8 -5 63 0 4 2015-08-19T18:33:50Z
Cyprid 493324440 2015-08-19 18:34:00 15.06 0 15.0 127.89 14.93 0 1 0 5.0 0 30 -2 -34 4 0 2015-08-19T18:34:00Z
Cyprid 493324451 2015-08-19 18:34:11 15.08 0 15.0 127.89 14.93 0 1 0 5.0 0 -13 -26 -21 0 4 2015-08-19T18:34:11Z
Cyprid 493324461 2015-08-19 18:34:21 15.06 0 15.0 127.89 14.94 0 1 0 5.0 0 29 -40 -88 4 0 2015-08-19T18:34:21Z
Cyprid 493324471 2015-08-19 18:34:31 15.01 0 15.0 127.89 14.94 0 1 0 5.0 0 31 7 -26 0 1 2015-08-19T18:34:31Z
Cyprid 493324481 2015-08-19 18:34:41 14.99 0 15.0 127.89 14.94 0 1 0 5.0 0 20 -54 7 1 0 2015-08-19T18:34:41Z
Cyprid 493324491 2015-08-19 18:34:51 14.96 0 15.0 127.89 14.94 0 1 0 5.0 0 22 -49 45 0 0 2015-08-19T18:34:51Z
Cyprid 493324501 2015-08-19 18:35:01 14.83 0 15.0 127.89 14.94 0 1 0 5.0 0 19 -81 145 5 0 2015-08-19T18:35:01Z
Cyprid 493324511 2015-08-19 18:35:11 14.92 0 15.0 127.89 14.95 0 1 0 5.0 0 29 -1 376 0 5 2015-08-19T18:35:11Z
Cyprid 493324521 2015-08-19 18:35:21 15.0 0 15.0 127.89 14.94 0 1 0 5.0 0 39 -90 265 0 1 2015-08-19T18:35:21Z
Cyprid 493324531 2015-08-19 18:35:31 14.95 0 15.0 127.89 14.93 0 1 0 5.0 0 16 -59 215 3 0 2015-08-19T18:35:31Z
Cyprid 493324541 2015-08-19 18:35:41 14.97 0 15.0 127.89 14.94 0 1 0 5.0 0 30 -47 285 0 3 2015-08-19T18:35:41Z
Cyprid 493324551 2015-08-19 18:35:51 15.05 0 15.0 127.89 14.94 0 1 0 5.0 0 -2 -51 168 0 1 2015-08-19T18:35:51Z
Cyprid 493324561 2015-08-19 18:36:01 15.01 0 15.0 127.89 14.94 0 1 0 5.0 0 47 -47 126 3 0 2015-08-19T18:36:01Z
Cyprid 493324571 2015-08-19 18:36:11 14.94 0 15.0 127.89 14.94 0 1 0 5.0 0 40 -44 202 0 0 2015-08-19T18:36:11Z
Cyprid 493324581 2015-08-19 18:36:21 15.01 0 15.0 127.89 14.94 0 1 0 5.0 0 74 -57 266 0 3 2015-08-19T18:36:21Z
Cyprid 493324591 2015-08-19 18:36:31 15.03 0 15.0 127.89 14.94 0 1 0 5.0 0 39 -9 209 1 0 2015-08-19T18:36:31Z
Cyprid 493324601 2015-08-19 18:36:41 14.99 0 15.0 127.89 14.93 0 1 0 5.0 0 10 -15 227 2 0 2015-08-19T18:36:41Z
Cyprid 493324611 2015-08-19 18:36:51 14.94 0 15.0 127.89 14.94 0 1 0 5.0 0 37 -54 310 0 0 2015-08-19T18:36:51Z
Cyprid 493324621 2015-08-19 18:37:01 15.04 0 15.0 127.89 14.94 0 1 0 5.0 0 10 -85 354 0 5 2015-08-19T18:37:01Z
Cyprid 493324631 2015-08-19 18:37:11 15.1 0 15.0 127.89 14.93 0 1 0 5.0 0 17 -63 209 2 0 2015-08-19T18:37:11Z
Cyprid 493324641 2015-08-19 18:37:21 15.01 0 15.0 127.89 14.93 0 1 0 5.0 0 25 -42 184 3 0 2015-08-19T18:37:21Z
Cyprid 493324651 2015-08-19 18:37:31 15.09 0 15.0 127.89 14.93 0 1 0 5.0 0 1 -105 182 0 5 2015-08-19T18:37:31Z
Cyprid 493324661 2015-08-19 18:37:41 15.16 0 15.0 127.89 14.93 0 1 0 5.0 0 29 -33 62 0 0 2015-08-19T18:37:41Z
Cyprid 493324671 2015-08-19 18:37:51 15.06 0 15.0 127.89 14.93 0 1 0 5.0 0 21 -34 12 5 0 2015-08-19T18:37:51Z
Cyprid 493324681 2015-08-19 18:38:01 15.14 0 15.0 127.89 14.93 0 1 0 5.0 0 4 -91 76 0 5 2015-08-19T18:38:01Z
Cyprid 493324691 2015-08-19 18:38:11 15.08 0 15.0 127.89 14.94 0 1 0 5.0 0 38 -9 30 3 0 2015-08-19T18:38:11Z
Cyprid 493324701 2015-08-19 18:38:21 15.01 0 15.0 127.89 14.93 0 1 0 5.0 0 21 -24 61 0 0 2015-08-19T18:38:21Z
Cyprid 493324711 2015-08-19 18:38:31 15.05 0 15.0 127.89 14.94 0 1 0 5.0 0 22 9 69 0 2 2015-08-19T18:38:31Z
Cyprid 493324721 2015-08-19 18:38:41 15.12 0 15.0 127.89 14.94 0 1 0 5.0 0 -10 -4 -12 0 2 2015-08-19T18:38:41Z
Cyprid 493324731 2015-08-19 18:38:51 14.99 0 15.0 127.89 14.93 0 1 0 5.0 0 26 -42 -88 5 0 2015-08-19T18:38:51Z
Cyprid 493324741 2015-08-19 18:39:01 15.02 0 15.0 127.89 14.94 0 1 0 5.0 0 15 -41 3 0 3 2015-08-19T18:39:01Z
Cyprid 493324751 2015-08-19 18:39:11 14.98 0 15.0 127.89 14.93 0 1 0 5.0 0 33 19 42 4 0 2015-08-19T18:39:11Z
Cyprid 493324761 2015-08-19 18:39:21 14.91 0 15.0 127.89 14.94 0 1 0 5.0 0 33 -41 153 0 0 2015-08-19T18:39:21Z
Cyprid 493324771 2015-08-19 18:39:31 14.88 0 15.0 127.89 14.93 0 1 0 5.0 0 26 -39 289 0 0 2015-08-19T18:39:31Z
Cyprid 493324781 2015-08-19 18:39:41 14.96 0 15.0 127.89 14.93 0 1 0 5.0 0 40 -35 308 0 3 2015-08-19T18:39:41Z
Cyprid 493324791 2015-08-19 18:39:51 14.93 0 15.0 127.89 14.94 0 1 0 5.0 0 23 -19 288 5 0 2015-08-19T18:39:51Z
Cyprid 493324801 2015-08-19 18:40:01 14.97 0 15.0 127.89 14.93 0 1 0 5.0 0 5 -73 356 0 5 2015-08-19T18:40:01Z
Cyprid 493324812 2015-08-19 18:40:12 14.98 0 15.0 127.89 14.93 0 1 0 5.0 0 -4 -86 259 2 0 2015-08-19T18:40:12Z
Cyprid 493324822 2015-08-19 18:40:22 15.09 0 15.0 127.89 14.92 0 1 0 5.0 0 10 -35 220 0 5 2015-08-19T18:40:22Z
Cyprid 493324832 2015-08-19 18:40:32 15.13 0 15.0 127.89 14.93 0 1 0 5.0 0 18 -8 62 1 0 2015-08-19T18:40:32Z
Cyprid 493324842 2015-08-19 18:40:42 15.08 0 15.0 127.89 14.93 0 1 0 5.0 0 10 -58 -47 2 0 2015-08-19T18:40:42Z
Cyprid 493324852 2015-08-19 18:40:52 14.98 0 15.0 127.89 14.93 0 1 0 5.0 0 37 -60 8 3 0 2015-08-19T18:40:52Z
Cyprid 493324862 2015-08-19 18:41:02 15.07 0 15.0 127.89 14.92 0 1 0 5.0 0 7 -13 113 0 5 2015-08-19T18:41:02Z
Cyprid 493324872 2015-08-19 18:41:12 15.09 0 15.0 127.89 14.93 0 1 0 5.0 0 35 -40 62 0 0 2015-08-19T18:41:12Z
Cyprid 493324882 2015-08-19 18:41:22 14.98 0 15.0 127.89 14.92 0 1 0 5.0 0 13 -65 76 5 0 2015-08-19T18:41:22Z
Cyprid 493324892 2015-08-19 18:41:32 14.98 0 15.0 127.89 14.92 0 1 0 5.0 0 65 -48 192 0 4 2015-08-19T18:41:32Z
Cyprid 493324902 2015-08-19 18:41:42 15.02 0 15.0 127.89 14.92 0 1 0 5.0 0 59 -45 170 1 0 2015-08-19T18:41:42Z
Cyprid 493324912 2015-08-19 18:41:52 14.98 0 15.0 127.89 14.91 0 1 0 5.0 0 40 -24 191 2 0 2015-08-19T18:41:52Z
Cyprid 493324922 2015-08-19 18:42:02 15.12 0 15.0 127.89 14.92 0 1 0 5.0 0 20 -61 202 0 5 2015-08-19T18:42:02Z
Cyprid 493324932 2015-08-19 18:42:12 15.17 0 15.0 127.89 14.9 0 1 0 5.0 0 15 -1 63 0 1 2015-08-19T18:42:12Z
Cyprid 493324942 2015-08-19 18:42:22 15.13 0 15.0 127.89 14.89 0 1 0 5.0 0 28 -52 -75 3 0 2015-08-19T18:42:22Z
Cyprid 493324952 2015-08-19 18:42:32 15.11 0 15.0 127.89 14.89 0 1 0 5.0 0 20 -72 -57 0 2 2015-08-19T18:42:32Z
Cyprid 493324962 2015-08-19 18:42:42 15.14 0 15.0 127.89 14.9 0 1 0 5.0 0 13 -28 -116 0 0 2015-08-19T18:42:42Z
Cyprid 493324972 2015-08-19 18:42:52 15.1 0 15.0 127.89 14.91 0 1 0 5.0 0 32 16 -146 1 0 2015-08-19T18:42:52Z
Cyprid 493324982 2015-08-19 18:43:02 15.02 0 15.0 127.89 14.91 0 1 0 5.0 0 19 -16 -114 2 0 2015-08-19T18:43:02Z
Cyprid 493324992 2015-08-19 18:43:12 15.09 0 15.0 127.89 14.91 0 1 0 5.0 0 16 -86 -92 0 5 2015-08-19T18:43:12Z
Cyprid 493325002 2015-08-19 18:43:22 14.96 0 15.0 127.89 14.92 0 1 0 5.0 0 14 -39 -189 5 0 2015-08-19T18:43:22Z
Cyprid 493325012 2015-08-19 18:43:32 14.81 0 15.0 127.89 14.91 0 1 0 5.0 0 26 -69 -1 5 0 2015-08-19T18:43:32Z
Cyprid 493325022 2015-08-19 18:43:42 14.79 0 15.0 127.89 14.92 0 1 0 5.0 0 12 -10 321 0 1 2015-08-19T18:43:42Z
Cyprid 493325032 2015-08-19 18:43:52 14.92 0 15.0 127.89 14.92 0 1 0 5.0 0 38 -91 398 0 5 2015-08-19T18:43:52Z
Cyprid 493325042 2015-08-19 18:44:02 15.07 0 15.0 127.89 14.92 0 1 0 5.0 0 16 -93 239 0 2 2015-08-19T18:44:02Z
Cyprid 493325052 2015-08-19 18:44:12 15.03 0 15.0 127.89 14.91 0 1 0 5.0 0 8 -92 130 4 0 2015-08-19T18:44:12Z
Cyprid 493325062 2015-08-19 18:44:22 15.01 0 15.0 127.89 14.92 0 1 0 5.0 0 16 -96 158 0 2 2015-08-19T18:44:22Z
Cyprid 493325072 2015-08-19 18:44:32 15.09 0 15.0 127.89 14.91 0 1 0 5.0 0 16 -24 83 0 3 2015-08-19T18:44:32Z
Cyprid 493325082 2015-08-19 18:44:42 15.06 0 15.0 127.89 14.91 0 1 0 5.0 0 32 24 -29 4 0 2015-08-19T18:44:42Z
Cyprid 493325092 2015-08-19 18:44:52 15.06 0 15.0 127.89 14.91 0 1 0 5.0 0 51 -35 -26 0 3 2015-08-19T18:44:52Z
Cyprid 493325102 2015-08-19 18:45:02 15.07 0 15.0 127.89 14.92 0 1 0 5.0 0 38 13 -97 1 0 2015-08-19T18:45:02Z
Cyprid 493325112 2015-08-19 18:45:12 15.06 0 15.0 127.89 14.92 0 1 0 5.0 0 16 -8 -98 0 0 2015-08-19T18:45:12Z
Cyprid 493325122 2015-08-19 18:45:22 14.98 0 15.0 127.89 14.91 0 1 0 5.0 0 12 -28 -49 3 0 2015-08-19T18:45:22Z
Cyprid 493325132 2015-08-19 18:45:32 14.98 0 15.0 127.89 14.92 0 1 0 5.0 0 -4 -34 31 0 3 2015-08-19T18:45:32Z
Cyprid 493325142 2015-08-19 18:45:42 14.88 0 15.0 127.89 14.93 0 1 0 5.0 0 17 -64 76 5 0 2015-08-19T18:45:42Z
Cyprid 493325152 2015-08-19 18:45:52 14.91 0 15.0 127.89 14.93 0 1 0 5.0 0 34 -86 203 0 4 2015-08-19T18:45:52Z
Cyprid 493325162 2015-08-19 18:46:02 14.87 0 15.0 127.89 14.94 0 1 0 5.0 0 25 -10 234 5 0 2015-08-19T18:46:02Z
Cyprid 493325173 2015-08-19 18:46:13 14.93 0 15.0 127.89 14.93 0 1 0 5.0 0 48 -58 336 0 5 2015-08-19T18:46:13Z
Cyprid 493325183 2015-08-19 18:46:23 14.94 0 15.0 127.89 14.93 0 1 0 5.0 0 -28 -19 446 3 0 2015-08-19T18:46:23Z
Cyprid 493325193 2015-08-19 18:46:33 15.0 0 15.0 127.89 14.91 0 1 0 5.0 0 22 -75 260 0 5 2015-08-19T18:46:33Z
Cyprid 493325203 2015-08-19 18:46:43 14.98 0 15.0 127.89 14.91 0 1 0 5.0 0 51 -31 150 5 0 2015-08-19T18:46:43Z
Cyprid 493325213 2015-08-19 18:46:53 14.97 0 15.0 127.89 14.91 0 1 0 5.0 0 34 -32 168 0 3 2015-08-19T18:46:53Z
Cyprid 493325223 2015-08-19 18:47:03 14.95 0 15.0 127.89 14.91 0 1 0 5.0 0 24 -51 151 3 0 2015-08-19T18:47:03Z
Cyprid 493325233 2015-08-19 18:47:13 14.98 0 15.0 127.89 14.89 0 1 0 5.0 0 43 -41 189 0 3 2015-08-19T18:47:13Z
Cyprid 493325243 2015-08-19 18:47:23 14.97 0 15.0 127.89 14.9 0 1 0 5.0 0 19 -83 146 2 0 2015-08-19T18:47:23Z
Cyprid 493325253 2015-08-19 18:47:33 15.0 0 15.0 127.89 14.89 0 1 0 5.0 0 15 -37 154 0 3 2015-08-19T18:47:33Z
Cyprid 493325263 2015-08-19 18:47:43 15.07 0 15.0 127.89 14.89 0 1 0 5.0 0 24 -33 84 0 0 2015-08-19T18:47:43Z
Cyprid 493325273 2015-08-19 18:47:53 15.06 0 15.0 127.89 14.89 0 1 0 5.0 0 8 -22 39 1 0 2015-08-19T18:47:53Z
Cyprid 493325283 2015-08-19 18:48:03 15.11 0 15.0 127.89 14.88 0 1 0 5.0 0 57 -55 -22 0 4 2015-08-19T18:48:03Z
Cyprid 493325293 2015-08-19 18:48:13 15.09 0 15.0 127.89 14.89 0 1 0 5.0 0 22 -89 -141 4 0 2015-08-19T18:48:13Z
Cyprid 493325303 2015-08-19 18:48:23 15.16 0 15.0 127.89 14.89 0 1 0 5.0 0 16 -3 -125 0 5 2015-08-19T18:48:23Z
Cyprid 493325313 2015-08-19 18:48:33 15.16 0 15.0 127.89 14.9 0 1 0 5.0 0 -1 -27 -260 3 0 2015-08-19T18:48:33Z
Cyprid 493325323 2015-08-19 18:48:43 15.06 0 15.0 127.89 14.91 0 1 0 5.0 0 63 33 -230 1 0 2015-08-19T18:48:43Z
Cyprid 493325333 2015-08-19 18:48:53 15.07 0 15.0 127.89 14.91 0 1 0 5.0 0 59 -45 -175 0 1 2015-08-19T18:48:53Z
Cyprid 493325343 2015-08-19 18:49:03 15.12 0 15.0 127.89 14.92 0 1 0 5.0 0 2 -45 -220 0 2 2015-08-19T18:49:03Z
Cyprid 493325353 2015-08-19 18:49:13 14.99 0 15.0 127.89 14.91 0 1 0 5.0 0 11 -32 -241 5 0 2015-08-19T18:49:13Z
Cyprid 493325363 2015-08-19 18:49:23 15.08 0 15.0 127.89 14.93 0 1 0 5.0 0 35 -85 -145 0 5 2015-08-19T18:49:23Z
Cyprid 493325373 2015-08-19 18:49:33 15.0 0 15.0 127.89 14.93 0 1 0 5.0 0 7 10 -191 5 0 2015-08-19T18:49:33Z
Cyprid 493325383 2015-08-19 18:49:43 14.98 0 15.0 127.89 14.93 0 1 0 5.0 0 13 30 -92 0 2 2015-08-19T18:49:43Z
Cyprid 493325393 2015-08-19 18:49:53 15.04 0 15.0 127.89 14.94 0 1 0 5.0 0 60 -75 -93 0 1 2015-08-19T18:49:53Z
Cyprid 493325403 2015-08-19 18:50:03 15.03 0 15.0 127.89 14.94 0 1 0 5.0 0 8 24 -113 1 0 2015-08-19T18:50:03Z
Cyprid 493325413 2015-08-19 18:50:13 15.02 0 15.0 127.89 14.95 0 1 0 5.0 0 22 -14 -68 0 0 2015-08-19T18:50:13Z
Cyprid 493325423 2015-08-19 18:50:23 15.06 0 15.0 127.89 14.95 0 1 0 5.0 0 15 4 -52 0 2 2015-08-19T18:50:23Z
Cyprid 493325433 2015-08-19 18:50:33 15.0 0 15.0 127.89 14.95 0 1 0 5.0 0 33 21 -37 4 0 2015-08-19T18:50:33Z
Cyprid 493325443 2015-08-19 18:50:43 15.02 0 15.0 127.89 14.97 0 1 0 5.0 0 24 -41 -7 0 5 2015-08-19T18:50:43Z
Cyprid 493325453 2015-08-19 18:50:53 15.02 0 15.0 127.89 14.95 0 1 0 5.0 0 32 -2 -33 5 0 2015-08-19T18:50:53Z
Cyprid 493325463 2015-08-19 18:51:03 15.02 0 15.0 127.89 14.96 0 1 0 5.0 0 4 -74 5 0 5 2015-08-19T18:51:03Z
Cyprid 493325473 2015-08-19 18:51:13 15.03 0 15.0 127.89 14.96 0 1 0 5.0 0 15 -81 -32 4 0 2015-08-19T18:51:13Z
Cyprid 493325483 2015-08-19 18:51:23 14.99 0 15.0 127.89 14.97 0 1 0 5.0 0 19 -9 54 0 1 2015-08-19T18:51:23Z
Cyprid 493325493 2015-08-19 18:51:33 14.94 0 15.0 127.89 15.0 0 1 0 5.0 0 46 -14 95 2 0 2015-08-19T18:51:33Z
Cyprid 493325503 2015-08-19 18:51:43 14.99 0 15.0 127.89 15.0 0 1 0 5.0 0 6 16 118 0 4 2015-08-19T18:51:43Z
Cyprid 493325513 2015-08-19 18:51:53 14.95 0 15.0 127.89 15.0 0 1 0 5.0 0 21 -78 77 5 0 2015-08-19T18:51:53Z
Cyprid 493325523 2015-08-19 18:52:03 14.96 0 15.0 127.89 14.99 0 1 0 5.0 0 43 -89 140 0 4 2015-08-19T18:52:03Z
Cyprid 493325534 2015-08-19 18:52:14 14.95 0 15.0 127.89 14.99 0 1 0 5.0 0 20 -4 127 4 0 2015-08-19T18:52:14Z
Cyprid 493325544 2015-08-19 18:52:24 14.96 0 15.0 127.89 14.98 0 1 0 5.0 0 3 -14 195 0 4 2015-08-19T18:52:24Z
Cyprid 493325554 2015-08-19 18:52:34 14.95 0 15.0 127.89 14.98 0 1 0 5.0 0 41 -27 186 4 0 2015-08-19T18:52:34Z
Cyprid 493325564 2015-08-19 18:52:44 15.01 0 15.0 127.89 14.98 0 1 0 5.0 0 21 -91 208 0 5 2015-08-19T18:52:44Z
Cyprid 493325574 2015-08-19 18:52:54 14.97 0 15.0 127.89 14.96 0 1 0 5.0 0 23 -15 145 5 0 2015-08-19T18:52:54Z
Cyprid 493325584 2015-08-19 18:53:04 15.08 0 15.0 127.89 14.96 0 1 0 5.0 0 29 -64 182 0 5 2015-08-19T18:53:04Z
Cyprid 493325594 2015-08-19 18:53:14 15.09 0 15.0 127.89 14.96 0 1 0 5.0 0 15 -31 77 0 0 2015-08-19T18:53:14Z
Cyprid 493325604 2015-08-19 18:53:24 14.99 0 15.0 127.89 14.95 0 1 0 5.0 0 27 -43 54 4 0 2015-08-19T18:53:24Z
Cyprid 493325614 2015-08-19 18:53:34 15.05 0 15.0 127.89 14.95 0 1 0 5.0 0 15 -36 77 0 5 2015-08-19T18:53:34Z
Cyprid 493325624 2015-08-19 18:53:44 15.1 0 15.0 127.89 14.95 0 1 0 5.0 0 29 -49 -15 0 0 2015-08-19T18:53:44Z
Cyprid 493325634 2015-08-19 18:53:54 14.93 0 15.0 127.89 14.95 0 1 0 5.0 0 12 -75 -15 5 0 2015-08-19T18:53:54Z
Cyprid 493325644 2015-08-19 18:54:04 14.91 0 15.0 127.89 14.95 0 1 0 5.0 0 28 -25 109 0 0 2015-08-19T18:54:04Z
Cyprid 493325654 2015-08-19 18:54:14 15.0 0 15.0 127.89 14.94 0 1 0 5.0 0 46 -19 144 0 5 2015-08-19T18:54:14Z
Cyprid 493325664 2015-08-19 18:54:24 14.93 0 15.0 127.89 14.95 0 1 0 5.0 0 15 -67 204 5 0 2015-08-19T18:54:24Z
Cyprid 493325674 2015-08-19 18:54:34 14.96 0 15.0 127.89 14.94 0 1 0 5.0 0 -25 -53 78 0 3 2015-08-19T18:54:34Z
Cyprid 493325684 2015-08-19 18:54:44 14.95 0 15.0 127.89 14.95 0 1 0 5.0 0 -35 -44 75 3 0 2015-08-19T18:54:44Z
Cyprid 493325694 2015-08-19 18:54:54 14.87 0 15.0 127.89 14.95 0 1 0 5.0 0 2 -82 211 2 0 2015-08-19T18:54:54Z
Cyprid 493325704 2015-08-19 18:55:04 14.95 0 15.0 127.89 14.95 0 1 0 5.0 0 28 -47 289 0 5 2015-08-19T18:55:04Z
Cyprid 493325714 2015-08-19 18:55:14 15.11 0 15.0 127.89 14.95 0 1 0 5.0 0 5 -34 124 0 4 2015-08-19T18:55:14Z
Cyprid 493325724 2015-08-19 18:55:24 15.03 0 15.0 127.89 14.95 0 1 0 5.0 0 28 -64 -73 5 0 2015-08-19T18:55:24Z
Cyprid 493325734 2015-08-19 18:55:34 15.05 0 15.0 127.89 14.95 0 1 0 5.0 0 25 -79 -49 0 2 2015-08-19T18:55:34Z
Cyprid 493325744 2015-08-19 18:55:44 15.0 0 15.0 127.89 14.96 0 1 0 5.0 0 7 -72 -20 4 0 2015-08-19T18:55:44Z
Cyprid 493325754 2015-08-19 18:55:54 14.93 0 15.0 127.89 14.96 0 1 0 5.0 0 13 -53 96 0 0 2015-08-19T18:55:54Z
Cyprid 493325764 2015-08-19 18:56:04 15.03 0 15.0 127.89 14.95 0 1 0 5.0 0 34 -7 154 0 5 2015-08-19T18:56:04Z
Cyprid 493325774 2015-08-19 18:56:14 15.02 0 15.0 127.89 14.95 0 1 0 5.0 0 25 26 76 4 0 2015-08-19T18:56:14Z
Cyprid 493325784 2015-08-19 18:56:24 14.93 0 15.0 127.89 14.95 0 1 0 5.0 0 24 -52 108 0 0 2015-08-19T18:56:24Z
Cyprid 493325794 2015-08-19 18:56:34 14.92 0 15.0 127.89 14.95 0 1 0 5.0 0 37 -31 142 0 0 2015-08-19T18:56:34Z
Cyprid 493325804 2015-08-19 18:56:44 14.9 0 15.0 127.89 14.95 0 1 0 5.0 0 13 -74 180 1 0 2015-08-19T18:56:44Z
Cyprid 493325814 2015-08-19 18:56:54 14.88 0 15.0 127.89 14.95 0 1 0 5.0 0 49 11 285 1 0 2015-08-19T18:56:54Z
Cyprid 493325824 2015-08-19 18:57:04 14.92 0 15.0 127.89 14.94 0 1 0 5.0 0 43 -23 349 0 2 2015-08-19T18:57:04Z
Cyprid 493325834 2015-08-19 18:57:14 14.9 0 15.0 127.89 14.95 0 1 0 5.0 0 6 -7 364 2 0 2015-08-19T18:57:14Z
Cyprid 493325844 2015-08-19 18:57:24 14.94 0 15.0 127.89 14.94 0 1 0 5.0 0 31 -54 358 0 3 2015-08-19T18:57:24Z
Cyprid 493325854 2015-08-19 18:57:34 15.05 0 15.0 127.89 14.94 0 1 0 5.0 0 5 -115 231 0 2 2015-08-19T18:57:34Z
Cyprid 493325864 2015-08-19 18:57:44 15.05 0 15.0 127.89 14.94 0 1 0 5.0 0 21 -83 134 2 0 2015-08-19T18:57:44Z
Cyprid 493325874 2015-08-19 18:57:54 14.99 0 15.0 127.89 14.93 0 1 0 5.0 0 40 -20 141 1 0 2015-08-19T18:57:54Z
Cyprid 493325884 2015-08-19 18:58:04 15.01 0 15.0 127.89 14.92 0 1 0 5.0 0 40 5 140 0 2 2015-08-19T18:58:04Z
Cyprid 493325894 2015-08-19 18:58:14 15.09 0 15.0 127.89 14.92 0 1 0 5.0 0 1 -37 50 0 2 2015-08-19T18:58:14Z
Cyprid 493325904 2015-08-19 18:58:24 15.28 0 15.0 127.89 14.93 0 1 0 5.0 0 45 -71 -179 0 5 2015-08-19T18:58:24Z
Cyprid 493325914 2015-08-19 18:58:34 15.07 0 15.0 127.89 14.93 0 1 0 5.0 0 28 8 -378 5 0 2015-08-19T18:58:34Z
Cyprid 493325924 2015-08-19 18:58:44 15.05 0 15.0 127.89 14.93 0 1 0 5.0 0 1 -38 -240 3 0 2015-08-19T18:58:44Z
Cyprid 493325934 2015-08-19 18:58:54 15.01 0 15.0 127.89 14.92 0 1 0 5.0 0 -4 -22 -105 0 1 2015-08-19T18:58:54Z
Cyprid 493325944 2015-08-19 18:59:04 14.92 0 15.0 127.89 14.94 0 1 0 5.0 0 28 -50 -4 5 0 2015-08-19T18:59:04Z
Cyprid 493325954 2015-08-19 18:59:14 14.95 0 15.0 127.89 14.94 0 1 0 5.0 0 26 -16 175 0 5 2015-08-19T18:59:14Z
Cyprid 493325964 2015-08-19 18:59:24 15.05 0 15.0 127.89 14.95 0 1 0 5.0 0 33 -21 124 0 1 2015-08-19T18:59:24Z
Cyprid 493325974 2015-08-19 18:59:34 14.97 0 15.0 127.89 14.94 0 1 0 5.0 0 44 -15 92 5 0 2015-08-19T18:59:34Z
Cyprid 493325984 2015-08-19 18:59:44 15.05 0 15.0 127.89 14.94 0 1 0 5.0 0 34 -60 152 0 5 2015-08-19T18:59:44Z
Cyprid 493325994 2015-08-19 18:59:54 15.08 0 15.0 127.89 14.95 0 1 0 5.0 0 13 -41 62 0 0 2015-08-19T18:59:54Z
Cyprid 493326004 2015-08-19 19:00:04 15.02 0 15.0 127.89 14.94 0 1 0 5.0 0 16 -80 5 2 0 2015-08-19T19:00:04Z
Cyprid 493326014 2015-08-19 19:00:14 15.07 0 15.0 127.89 14.95 0 1 0 5.0 0 16 -79 -17 0 4 2015-08-19T19:00:14Z
Cyprid 493326024 2015-08-19 19:00:24 14.99 0 15.0 127.89 14.94 0 1 0 5.0 0 -6 -25 -122 5 0 2015-08-19T19:00:24Z
Cyprid 493326034 2015-08-19 19:00:34 14.91 0 15.0 127.89 14.95 0 1 0 5.0 0 23 -44 -28 0 0 2015-08-19T19:00:34Z
Cyprid 493326044 2015-08-19 19:00:44 15.11 0 15.0 127.89 14.95 0 1 0 5.0 0 48 -48 -14 0 5 2015-08-19T19:00:44Z
Cyprid 493326054 2015-08-19 19:00:54 15.15 0 15.0 127.89 14.95 0 1 0 5.0 0 20 -29 -147 0 0 2015-08-19T19:00:54Z
Cyprid 493326064 2015-08-19 19:01:04 14.93 0 15.0 127.89 14.95 0 1 0 5.0 0 22 -26 -193 5 0 2015-08-19T19:01:04Z
Cyprid 493326074 2015-08-19 19:01:14 14.95 0 15.0 127.89 14.94 0 1 0 5.0 0 42 17 -59 0 2 2015-08-19T19:01:14Z
Cyprid 493326084 2015-08-19 19:01:24 15.01 0 15.0 127.89 14.95 0 1 0 5.0 0 17 -32 -32 0 0 2015-08-19T19:01:24Z
Cyprid 493326094 2015-08-19 19:01:34 14.96 0 15.0 127.89 14.95 0 1 0 5.0 0 26 -14 15 2 0 2015-08-19T19:01:34Z
Cyprid 493326104 2015-08-19 19:01:44 14.9 0 15.0 127.89 14.95 0 2 0 5.0 0 -8 -49 95 1 0 2015-08-19T19:01:44Z
Cyprid 493326114 2015-08-19 19:01:54 15.06 0 15.0 127.89 14.94 0 1 0 5.0 0 17 -7 128 0 5 2015-08-19T19:01:54Z
Cyprid 493326124 2015-08-19 19:02:04 15.26 0 15.0 127.89 14.96 0 1 0 5.0 0 12 -68 -89 0 5 2015-08-19T19:02:04Z
Cyprid 493326135 2015-08-19 19:02:15 15.1 0 15.0 127.89 14.95 0 1 0 5.0 0 45 -11 -298 5 0 2015-08-19T19:02:15Z
Cyprid 493326145 2015-08-19 19:02:25 14.97 0 15.0 127.89 14.96 0 2 0 5.0 0 -6 -37 -136 5 0 2015-08-19T19:02:25Z
Cyprid 493326155 2015-08-19 19:02:35 15.07 0 15.0 127.89 14.97 0 2 0 5.0 0 2 -2 27 0 5 2015-08-19T19:02:35Z
Cyprid 493326165 2015-08-19 19:02:45 14.98 0 15.0 127.89 14.97 0 2 0 5.0 0 7 -7 34 4 0 2015-08-19T19:02:45Z
Cyprid 493326175 2015-08-19 19:02:55 14.9 0 15.0 127.89 14.97 0 2 0 5.0 0 20 -40 133 0 0 2015-08-19T19:02:55Z
Cyprid 493326185 2015-08-19 19:03:05 15.08 0 15.0 127.89 14.97 0 2 0 5.0 0 12 -62 134 0 5 2015-08-19T19:03:05Z
Cyprid 493326195 2015-08-19 19:03:15 15.07 0 15.0 127.89 14.97 0 1 0 5.0 0 32 6 14 1 0 2015-08-19T19:03:15Z
Cyprid 493326205 2015-08-19 19:03:25 14.95 0 15.0 127.89 14.96 0 1 0 5.0 0 36 -34 28 5 0 2015-08-19T19:03:25Z
Cyprid 493326215 2015-08-19 19:03:35 15.08 0 15.0 127.89 14.97 0 2 0 5.0 0 4 -5 131 0 5 2015-08-19T19:03:35Z
Cyprid 493326225 2015-08-19 19:03:45 14.97 0 15.0 127.89 14.97 0 1 0 5.0 0 29 -53 116 4 0 2015-08-19T19:03:45Z
Cyprid 493326235 2015-08-19 19:03:55 15.02 0 15.0 127.89 14.96 0 1 0 5.0 0 30 -59 115 0 5 2015-08-19T19:03:55Z
Cyprid 493326245 2015-08-19 19:04:05 15.07 0 15.0 127.89 14.97 0 1 0 5.0 0 2 -22 -5 0 0 2015-08-19T19:04:05Z
Cyprid 493326255 2015-08-19 19:04:15 15.04 0 15.0 127.89 14.97 0 1 0 5.0 0 8 -80 -74 2 0 2015-08-19T19:04:15Z
Cyprid 493326265 2015-08-19 19:04:25 15.01 0 15.0 127.89 14.98 0 1 0 5.0 0 23 -25 -21 0 0 2015-08-19T19:04:25Z
Cyprid 493326275 2015-08-19 19:04:35 14.91 0 15.0 127.89 15.0 0 2 0 5.0 0 14 -73 74 4 0 2015-08-19T19:04:35Z
Cyprid 493326285 2015-08-19 19:04:45 14.89 0 15.0 127.89 14.99 0 2 0 5.0 0 3 -34 183 0 3 2015-08-19T19:04:45Z
Cyprid 493326295 2015-08-19 19:04:55 14.88 0 15.0 127.89 14.98 0 2 0 5.0 0 20 -40 207 3 0 2015-08-19T19:04:55Z
Cyprid 493326305 2015-08-19 19:05:05 14.91 0 15.0 127.89 14.98 0 2 0 5.0 0 58 -45 213 0 4 2015-08-19T19:05:05Z
Cyprid 493326315 2015-08-19 19:05:15 14.99 0 15.0 127.89 14.98 0 1 0 5.0 0 12 -44 103 0 0 2015-08-19T19:05:15Z
Cyprid 493326325 2015-08-19 19:05:25 14.88 0 15.0 127.89 14.98 0 2 0 5.0 0 23 -31 117 5 0 2015-08-19T19:05:25Z
Cyprid 493326335 2015-08-19 19:05:35 14.94 0 15.0 127.89 14.97 0 2 0 5.0 0 12 -72 170 0 5 2015-08-19T19:05:35Z
Cyprid 493326345 2015-08-19 19:05:45 15.05 0 15.0 127.89 14.97 0 2 0 5.0 0 41 -83 57 0 2 2015-08-19T19:05:45Z
Cyprid 493326355 2015-08-19 19:05:55 15.02 0 15.0 127.89 14.96 0 2 0 5.0 0 4 -84 -11 4 0 2015-08-19T19:05:55Z
Cyprid 493326365 2015-08-19 19:06:05 14.98 0 15.0 127.89 14.97 0 2 0 5.0 0 -2 -28 68 0 1 2015-08-19T19:06:05Z
Cyprid 493326375 2015-08-19 19:06:15 14.97 0 15.0 127.89 14.98 0 2 0 5.0 0 29 -36 88 0 0 2015-08-19T19:06:15Z
Cyprid 493326385 2015-08-19 19:06:25 14.84 0 15.0 127.89 14.98 0 2 0 5.0 0 39 -65 175 5 0 2015-08-19T19:06:25Z
Cyprid 493326395 2015-08-19 19:06:35 14.82 0 15.0 127.89 14.98 0 2 0 5.0 0 38 -104 285 0 2 2015-08-19T19:06:35Z
Cyprid 493326405 2015-08-19 19:06:45 14.84 0 15.0 127.89 14.97 0 2 0 5.0 0 32 -53 298 0 0 2015-08-19T19:06:45Z
Cyprid 493326415 2015-08-19 19:06:55 14.94 0 15.0 127.89 14.96 0 1 0 5.0 0 67 -47 254 0 4 2015-08-19T19:06:55Z
Cyprid 493326425 2015-08-19 19:07:05 15.01 0 15.0 127.89 14.96 0 1 0 5.0 0 30 -52 116 0 0 2015-08-19T19:07:05Z
Cyprid 493326435 2015-08-19 19:07:15 15.12 0 15.0 127.89 14.95 0 1 0 5.0 0 56 -64 -64 0 4 2015-08-19T19:07:15Z
Cyprid 493326445 2015-08-19 19:07:25 15.02 0 15.0 127.89 14.96 0 1 0 5.0 0 24 -13 -171 5 0 2015-08-19T19:07:25Z
Cyprid 493326455 2015-08-19 19:07:35 15.09 0 15.0 127.89 14.95 0 1 0 5.0 0 0 17 -135 0 4 2015-08-19T19:07:35Z
Cyprid 493326465 2015-08-19 19:07:45 15.01 0 15.0 127.89 14.96 0 1 0 5.0 0 27 -57 -189 5 0 2015-08-19T19:07:45Z
Cyprid 493326475 2015-08-19 19:07:55 14.91 0 15.0 127.89 14.96 0 2 0 5.0 0 21 -20 -27 1 0 2015-08-19T19:07:55Z
Cyprid 493326485 2015-08-19 19:08:05 14.95 0 15.0 127.89 14.96 0 1 0 5.0 0 14 2 84 0 2 2015-08-19T19:08:05Z
Cyprid 493326495 2015-08-19 19:08:15 15.0 0 15.0 127.89 14.96 0 1 0 5.0 0 69 -81 80 0 1 2015-08-19T19:08:15Z
Cyprid 493326505 2015-08-19 19:08:25 15.0 0 15.0 127.89 14.96 0 1 0 5.0 0 23 22 59 1 0 2015-08-19T19:08:25Z
Cyprid 493326515 2015-08-19 19:08:35 14.97 0 15.0 127.89 14.96 0 1 0 5.0 0 9 -86 68 1 0 2015-08-19T19:08:35Z
Cyprid 493326525 2015-08-19 19:08:45 14.98 0 15.0 127.89 14.96 0 1 0 5.0 0 -6 10 106 0 1 2015-08-19T19:08:45Z
Cyprid 493326535 2015-08-19 19:08:55 15.07 0 15.0 127.89 14.96 0 1 0 5.0 0 15 10 55 0 4 2015-08-19T19:08:55Z
Cyprid 493326545 2015-08-19 19:09:05 15.09 0 15.0 127.89 14.96 0 1 0 5.0 0 1 -49 -69 3 0 2015-08-19T19:09:05Z
Cyprid 493326555 2015-08-19 19:09:15 15.06 0 15.0 127.89 14.96 0 1 0 5.0 0 -20 0 -51 0 1 2015-08-19T19:09:15Z
Cyprid 493326565 2015-08-19 19:09:25 15.1 0 15.0 127.89 14.97 0 1 0 5.0 0 57 -77 -93 0 1 2015-08-19T19:09:25Z
Cyprid 493326575 2015-08-19 19:09:35 15.09 0 15.0 127.89 14.97 0 1 0 5.0 0 37 -23 -149 0 0 2015-08-19T19:09:35Z
Cyprid 493326585 2015-08-19 19:09:45 15.03 0 15.0 127.89 14.97 0 1 0 5.0 0 30 -26 -143 3 0 2015-08-19T19:09:45Z
Cyprid 493326595 2015-08-19 19:09:55 14.94 0 15.0 127.89 14.98 0 1 0 5.0 0 15 -70 -37 1 0 2015-08-19T19:09:55Z
Cyprid 493326605 2015-08-19 19:10:05 15.0 0 15.0 127.89 15.0 0 1 0 5.0 0 -7 -22 11 0 3 2015-08-19T19:10:05Z
Cyprid 493326616 2015-08-19 19:10:16 15.02 0 15.0 127.89 14.99 0 1 0 5.0 0 5 -8 -24 1 0 2015-08-19T19:10:16Z
Cyprid 493326626 2015-08-19 19:10:26 14.92 0 15.0 127.89 15.0 0 1 0 5.0 0 28 4 75 4 0 2015-08-19T19:10:26Z
Cyprid 493326636 2015-08-19 19:10:36 14.91 0 15.0 127.89 15.01 0 1 0 5.0 0 37 -62 218 0 3 2015-08-19T19:10:36Z
Cyprid 493326646 2015-08-19 19:10:46 15.03 0 15.0 127.89 15.02 0 1 0 5.0 0 -8 -67 177 0 3 2015-08-19T19:10:46Z
Cyprid 493326656 2015-08-19 19:10:56 15.09 0 15.0 127.89 15.01 0 1 0 5.0 0 21 -40 81 0 0 2015-08-19T19:10:56Z
Cyprid 493326666 2015-08-19 19:11:06 15.08 0 15.0 127.89 15.0 0 1 0 5.0 0 27 -37 -21 0 0 2015-08-19T19:11:06Z
Cyprid 493326676 2015-08-19 19:11:16 15.05 0 15.0 127.89 14.99 0 1 0 5.0 0 -10 -35 -75 2 0 2015-08-19T19:11:16Z
Cyprid 493326686 2015-08-19 19:11:26 14.98 0 15.0 127.89 15.01 0 1 0 5.0 0 24 -59 -30 1 0 2015-08-19T19:11:26Z
Cyprid 493326696 2015-08-19 19:11:36 15.02 0 15.0 127.89 15.02 0 1 0 5.0 0 42 -36 -20 0 3 2015-08-19T19:11:36Z
Cyprid 493326706 2015-08-19 19:11:46 15.03 0 15.0 127.89 15.01 0 1 0 5.0 0 18 -76 -62 2 0 2015-08-19T19:11:46Z
Cyprid 493326716 2015-08-19 19:11:56 14.97 0 15.0 127.89 15.02 0 1 0 5.0 0 33 -7 -16 1 0 2015-08-19T19:11:56Z
Cyprid 493326726 2015-08-19 19:12:06 14.85 0 15.0 127.89 15.03 0 1 0 5.0 0 11 -50 109 5 0 2015-08-19T19:12:06Z
Cyprid 493326737 2015-08-19 19:12:17 14.93 0 15.0 127.89 15.04 0 1 0 5.0 0 40 -18 325 0 5 2015-08-19T19:12:17Z
Cyprid 493326747 2015-08-19 19:12:27 15.15 0 15.0 127.89 15.04 0 1 0 5.0 0 37 -88 166 0 5 2015-08-19T19:12:27Z
Cyprid 493326757 2015-08-19 19:12:37 15.15 0 15.0 127.89 15.03 0 1 0 5.0 0 37 -61 -77 1 0 2015-08-19T19:12:37Z
Cyprid 493326767 2015-08-19 19:12:47 15.02 0 15.0 127.89 15.03 0 1 0 5.0 0 19 -55 -152 5 0 2015-08-19T19:12:47Z
Cyprid 493326777 2015-08-19 19:12:57 15.01 0 15.0 127.89 15.04 0 1 0 5.0 0 61 -34 -54 0 4 2015-08-19T19:12:57Z
Cyprid 493326787 2015-08-19 19:13:07 14.94 0 15.0 127.89 15.04 0 1 0 5.0 0 27 -16 -34 5 0 2015-08-19T19:13:07Z
Cyprid 493326797 2015-08-19 19:13:17 14.84 0 15.0 127.89 15.03 0 1 0 5.0 0 -10 -76 99 1 0 2015-08-19T19:13:17Z
Cyprid 493326807 2015-08-19 19:13:27 14.91 0 15.0 127.89 15.03 0 1 0 5.0 0 51 -62 222 0 4 2015-08-19T19:13:27Z
Cyprid 493326817 2015-08-19 19:13:37 15.05 0 15.0 127.89 15.03 0 1 0 5.0 0 13 -28 89 0 3 2015-08-19T19:13:37Z
Cyprid 493326827 2015-08-19 19:13:47 14.95 0 15.0 127.89 15.04 0 1 0 5.0 0 26 -26 -30 5 0 2015-08-19T19:13:47Z
Cyprid 493326837 2015-08-19 19:13:57 15.02 0 15.0 127.89 15.03 0 1 0 5.0 0 35 0 -16 0 5 2015-08-19T19:13:57Z
Cyprid 493326847 2015-08-19 19:14:07 15.07 0 15.0 127.89 15.04 0 1 0 5.0 0 46 -48 -81 3 0 2015-08-19T19:14:07Z
Cyprid 493326858 2015-08-19 19:14:18 14.96 0 15.0 127.89 15.05 0 1 0 5.0 0 15 8 21 2 0 2015-08-19T19:14:18Z
Cyprid 493326868 2015-08-19 19:14:28 14.9 0 15.0 127.89 15.04 0 1 0 5.0 0 7 -46 116 0 0 2015-08-19T19:14:28Z
Cyprid 493326878 2015-08-19 19:14:38 14.96 0 15.0 127.89 15.04 0 1 0 5.0 0 29 -5 217 0 2 2015-08-19T19:14:38Z
Cyprid 493326888 2015-08-19 19:14:48 14.91 0 15.0 127.89 15.04 0 1 0 5.0 0 11 -20 259 4 0 2015-08-19T19:14:48Z
Cyprid 493326898 2015-08-19 19:14:58 14.97 0 15.0 127.89 15.03 0 1 0 5.0 0 9 -86 295 0 5 2015-08-19T19:14:58Z
Cyprid 493326908 2015-08-19 19:15:08 15.02 0 15.0 127.89 15.02 0 1 0 5.0 0 19 3 187 1 0 2015-08-19T19:15:08Z
Cyprid 493326918 2015-08-19 19:15:18 15.04 0 15.0 127.89 15.01 0 1 0 5.0 0 44 -29 122 0 1 2015-08-19T19:15:18Z
Cyprid 493326928 2015-08-19 19:15:28 15.05 0 15.0 127.89 15.0 0 1 0 5.0 0 34 -45 34 0 0 2015-08-19T19:15:28Z
Cyprid 493326938 2015-08-19 19:15:38 15.08 0 15.0 127.89 14.99 0 1 0 5.0 0 6 -50 -32 0 1 2015-08-19T19:15:38Z
Cyprid 493326948 2015-08-19 19:15:48 15.18 0 15.0 127.89 15.0 0 1 0 5.0 0 -5 -10 -150 0 4 2015-08-19T19:15:48Z
Cyprid 493326958 2015-08-19 19:15:58 14.97 0 15.0 127.89 15.0 0 1 0 5.0 0 9 -45 -249 5 0 2015-08-19T19:15:58Z
Cyprid 493326968 2015-08-19 19:16:08 14.8 0 15.0 127.89 15.01 0 1 0 5.0 0 4 -11 -58 5 0 2015-08-19T19:16:08Z
Cyprid 493326978 2015-08-19 19:16:18 14.9 0 15.0 127.89 15.01 0 1 0 5.0 0 12 -72 96 0 5 2015-08-19T19:16:18Z
Cyprid 493326988 2015-08-19 19:16:28 14.91 0 15.0 127.89 15.02 0 1 0 5.0 0 44 -43 127 5 0 2015-08-19T19:16:28Z
Cyprid 493326998 2015-08-19 19:16:38 14.89 0 15.0 127.89 15.01 0 1 0 5.0 0 38 -8 272 0 2 2015-08-19T19:16:38Z
Cyprid 493327008 2015-08-19 19:16:48 14.95 0 15.0 127.89 15.01 0 1 0 5.0 0 28 -19 260 0 2 2015-08-19T19:16:48Z
Cyprid 493327018 2015-08-19 19:16:58 14.93 0 15.0 127.89 15.0 0 1 0 5.0 0 -3 -51 193 3 0 2015-08-19T19:16:58Z
Cyprid 493327028 2015-08-19 19:17:08 15.03 0 15.0 127.89 15.01 0 1 0 5.0 0 39 -19 226 0 5 2015-08-19T19:17:08Z
Cyprid 493327038 2015-08-19 19:17:18 15.1 0 15.0 127.89 15.0 0 1 0 5.0 0 32 -42 94 0 0 2015-08-19T19:17:18Z
Cyprid 493327048 2015-08-19 19:17:28 15.1 0 15.0 127.89 15.0 0 1 0 5.0 0 21 -50 -48 0 0 2015-08-19T19:17:28Z
Cyprid 493327058 2015-08-19 19:17:38 15.15 0 15.0 127.89 15.01 0 1 0 5.0 0 0 24 -179 0 2 2015-08-19T19:17:38Z
Cyprid 493327068 2015-08-19 19:17:48 15.02 0 15.0 127.89 15.01 0 1 0 5.0 0 12 -44 -234 5 0 2015-08-19T19:17:48Z
Cyprid 493327078 2015-08-19 19:17:58 14.89 0 15.0 127.89 15.01 0 1 0 5.0 0 30 -18 -44 3 0 2015-08-19T19:17:58Z
Cyprid 493327088 2015-08-19 19:18:08 15.07 0 15.0 127.89 15.02 0 1 0 5.0 0 -1 -63 146 0 5 2015-08-19T19:18:08Z
Cyprid 493327099 2015-08-19 19:18:19 15.24 0 15.0 127.89 15.01 0 1 0 5.0 0 2 -15 -15 0 5 2015-08-19T19:18:19Z
Cyprid 493327109 2015-08-19 19:18:29 15.12 0 15.0 127.89 15.01 0 1 0 5.0 0 41 -81 -186 5 0 2015-08-19T19:18:29Z
Cyprid 493327119 2015-08-19 19:18:39 14.93 0 15.0 127.89 15.01 0 1 0 5.0 0 25 -88 -8 5 0 2015-08-19T19:18:39Z
Cyprid 493327129 2015-08-19 19:18:49 14.98 0 15.0 127.89 15.01 0 1 0 5.0 0 36 11 219 0 5 2015-08-19T19:18:49Z
Cyprid 493327139 2015-08-19 19:18:59 15.1 0 15.0 127.89 15.01 0 1 0 5.0 0 34 -7 109 0 3 2015-08-19T19:18:59Z
Cyprid 493327149 2015-08-19 19:19:09 15.2 0 15.0 127.89 15.0 0 1 0 5.0 0 41 -60 -76 0 2 2015-08-19T19:19:09Z
Cyprid 493327159 2015-08-19 19:19:19 15.16 0 15.0 127.89 15.01 0 1 0 5.0 0 10 -63 -239 4 0 2015-08-19T19:19:19Z
Cyprid 493327169 2015-08-19 19:19:29 15.08 0 15.0 127.89 15.01 0 1 0 5.0 0 44 -33 -129 0 0 2015-08-19T19:19:29Z
Cyprid 493327179 2015-08-19 19:19:39 14.95 0 15.0 127.89 15.02 0 1 0 5.0 0 39 -46 23 5 0 2015-08-19T19:19:39Z
Cyprid 493327189 2015-08-19 19:19:49 15.03 0 15.0 127.89 15.02 0 1 0 5.0 0 25 -65 181 0 5 2015-08-19T19:19:49Z
Cyprid 493327199 2015-08-19 19:19:59 15.09 0 15.0 127.89 15.02 0 1 0 5.0 0 26 -83 101 0 2 2015-08-19T19:19:59Z
Cyprid 493327209 2015-08-19 19:20:09 15.09 0 15.0 127.89 15.02 0 1 0 5.0 0 22 -62 0 2 0 2015-08-19T19:20:09Z
Cyprid 493327220 2015-08-19 19:20:20 15.11 0 15.0 127.89 15.01 0 1 0 5.0 0 9 -45 -32 0 3 2015-08-19T19:20:20Z
Cyprid 493327230 2015-08-19 19:20:30 15.12 0 15.0 127.89 15.02 0 1 0 5.0 0 28 9 -120 2 0 2015-08-19T19:20:30Z
Cyprid 493327240 2015-08-19 19:20:40 15.07 0 15.0 127.89 15.02 0 1 0 5.0 0 36 -37 -94 0 0 2015-08-19T19:20:40Z
Cyprid 493327250 2015-08-19 19:20:50 15.02 0 15.0 127.89 15.03 0 1 0 5.0 0 11 22 -48 2 0 2015-08-19T19:20:50Z
Cyprid 493327260 2015-08-19 19:21:00 14.98 0 15.0 127.89 15.04 0 1 0 5.0 0 17 -20 10 0 0 2015-08-19T19:21:00Z
Cyprid 493327270 2015-08-19 19:21:10 14.97 0 15.0 127.89 15.04 0 1 0 5.0 0 18 -53 56 0 0 2015-08-19T19:21:10Z
Cyprid 493327280 2015-08-19 19:21:20 14.9 0 15.0 127.89 15.05 0 1 0 5.0 0 24 -29 144 3 0 2015-08-19T19:21:20Z
Cyprid 493327290 2015-08-19 19:21:30 14.96 0 15.0 127.89 15.05 0 1 0 5.0 0 20 -7 223 0 5 2015-08-19T19:21:30Z
Cyprid 493327300 2015-08-19 19:21:40 14.97 0 15.0 127.89 15.05 0 1 0 5.0 0 16 -11 181 4 0 2015-08-19T19:21:40Z
Cyprid 493327310 2015-08-19 19:21:50 15.02 0 15.0 127.89 15.05 0 1 0 5.0 0 20 -61 184 0 5 2015-08-19T19:21:50Z
Cyprid 493327320 2015-08-19 19:22:00 15.02 0 15.0 127.89 15.05 0 1 0 5.0 0 18 -85 117 4 0 2015-08-19T19:22:00Z
Cyprid 493327331 2015-08-19 19:22:11 15.02 0 15.0 127.89 15.04 0 1 0 5.0 0 35 -68 140 0 3 2015-08-19T19:22:11Z
Cyprid 493327341 2015-08-19 19:22:21 15.08 0 15.0 127.89 15.04 0 1 0 5.0 0 47 -55 53 0 1 2015-08-19T19:22:21Z
Cyprid 493327351 2015-08-19 19:22:31 15.02 0 15.0 127.89 15.05 0 1 0 5.0 0 35 -29 8 4 0 2015-08-19T19:22:31Z
Cyprid 493327361 2015-08-19 19:22:41 15.05 0 15.0 127.89 15.04 0 1 0 5.0 0 56 -41 71 0 5 2015-08-19T19:22:41Z
Cyprid 493327371 2015-08-19 19:22:51 15.08 0 15.0 127.89 15.05 0 1 0 5.0 0 16 -72 20 2 0 2015-08-19T19:22:51Z
Cyprid 493327381 2015-08-19 19:23:01 15.1 0 15.0 127.89 15.05 0 1 0 5.0 0 0 -42 9 0 2 2015-08-19T19:23:01Z
Cyprid 493327391 2015-08-19 19:23:11 15.05 0 15.0 127.89 15.05 0 1 0 5.0 0 -17 -59 -14 4 0 2015-08-19T19:23:11Z
Cyprid 493327401 2015-08-19 19:23:21 15.09 0 15.0 127.89 15.05 0 1 0 5.0 0 8 -7 24 0 5 2015-08-19T19:23:21Z
Cyprid 493327411 2015-08-19 19:23:31 15.04 0 15.0 127.89 15.05 0 1 0 5.0 0 3 -63 -19 5 0 2015-08-19T19:23:31Z
Cyprid 493327421 2015-08-19 19:23:41 15.07 0 15.0 127.89 15.04 0 1 0 5.0 0 19 -21 4 0 5 2015-08-19T19:23:41Z
Cyprid 493327431 2015-08-19 19:23:51 14.94 0 15.0 127.89 15.05 0 1 0 5.0 0 30 -57 -49 5 0 2015-08-19T19:23:51Z
Cyprid 493327441 2015-08-19 19:24:01 14.88 0 15.0 127.89 15.05 0 1 0 5.0 0 6 -48 103 3 0 2015-08-19T19:24:01Z
Cyprid 493327452 2015-08-19 19:24:12 14.97 0 15.0 127.89 15.06 0 1 0 5.0 0 10 -64 271 0 5 2015-08-19T19:24:12Z
Cyprid 493327462 2015-08-19 19:24:22 15.0 0 15.0 127.89 15.05 0 1 0 5.0 0 42 -19 212 1 0 2015-08-19T19:24:22Z
Cyprid 493327472 2015-08-19 19:24:32 14.95 0 15.0 127.89 15.05 0 1 0 5.0 0 49 -27 220 2 0 2015-08-19T19:24:32Z
Cyprid 493327482 2015-08-19 19:24:42 14.97 0 15.0 127.89 15.05 0 1 0 5.0 0 32 -53 258 0 3 2015-08-19T19:24:42Z
Cyprid 493327492 2015-08-19 19:24:52 15.0 0 15.0 127.89 15.04 0 1 0 5.0 0 29 -34 218 1 0 2015-08-19T19:24:52Z
Cyprid 493327502 2015-08-19 19:25:02 15.07 0 15.0 127.89 15.04 0 1 0 5.0 0 32 -21 170 0 3 2015-08-19T19:25:02Z
Cyprid 493327512 2015-08-19 19:25:12 15.16 0 15.0 127.89 15.04 0 1 0 5.0 0 32 -48 7 0 2 2015-08-19T19:25:12Z
Cyprid 493327522 2015-08-19 19:25:22 15.14 0 15.0 127.89 15.04 0 1 0 5.0 0 18 -66 -155 3 0 2015-08-19T19:25:22Z
Cyprid 493327532 2015-08-19 19:25:32 14.92 0 15.0 127.89 15.05 0 1 0 5.0 0 46 -73 -17 5 0 2015-08-19T19:25:32Z
Cyprid 493327542 2015-08-19 19:25:42 14.88 0 15.0 127.89 15.04 0 1 0 5.0 0 6 -48 172 0 1 2015-08-19T19:25:42Z
Cyprid 493327552 2015-08-19 19:25:52 15.0 0 15.0 127.89 15.04 0 1 0 5.0 0 14 -67 224 0 5 2015-08-19T19:25:52Z
Cyprid 493327562 2015-08-19 19:26:02 15.01 0 15.0 127.89 15.04 0 1 0 5.0 0 2 -59 152 4 0 2015-08-19T19:26:02Z
Cyprid 493327572 2015-08-19 19:26:12 14.96 0 15.0 127.89 15.03 0 1 0 5.0 0 29 -34 204 0 0 2015-08-19T19:26:12Z
Cyprid 493327582 2015-08-19 19:26:22 14.95 0 15.0 127.89 15.03 0 1 0 5.0 0 37 -55 242 0 0 2015-08-19T19:26:22Z
Cyprid 493327592 2015-08-19 19:26:32 14.94 0 15.0 127.89 15.03 0 1 0 5.0 0 31 -28 256 0 0 2015-08-19T19:26:32Z
Cyprid 493327602 2015-08-19 19:26:42 14.96 0 15.0 127.89 15.03 0 1 0 5.0 0 3 5 254 0 1 2015-08-19T19:26:42Z
Cyprid 493327612 2015-08-19 19:26:52 15.07 0 15.0 127.89 15.02 0 1 0 5.0 0 -10 -12 129 0 4 2015-08-19T19:26:52Z
Cyprid 493327622 2015-08-19 19:27:02 15.06 0 15.0 127.89 15.02 0 1 0 5.0 0 2 -77 27 5 0 2015-08-19T19:27:02Z
Cyprid 493327632 2015-08-19 19:27:12 15.04 0 15.0 127.89 15.02 0 1 0 5.0 0 35 -91 47 0 4 2015-08-19T19:27:12Z
Cyprid 493327642 2015-08-19 19:27:22 15.04 0 15.0 127.89 15.02 0 1 0 5.0 0 30 -42 -1 3 0 2015-08-19T19:27:22Z
Cyprid 493327652 2015-08-19 19:27:32 14.99 0 15.0 127.89 15.01 0 1 0 5.0 0 24 -36 50 0 0 2015-08-19T19:27:32Z
Cyprid 493327662 2015-08-19 19:27:42 15.03 0 15.0 127.89 15.02 0 1 0 5.0 0 30 0 66 0 2 2015-08-19T19:27:42Z
Cyprid 493327672 2015-08-19 19:27:52 15.01 0 15.0 127.89 15.02 0 1 0 5.0 0 15 -3 43 2 0 2015-08-19T19:27:52Z
Cyprid 493327682 2015-08-19 19:28:02 14.93 0 15.0 127.89 15.01 0 1 0 5.0 0 27 4 101 2 0 2015-08-19T19:28:02Z
Cyprid 493327692 2015-08-19 19:28:12 14.97 0 15.0 127.89 15.0 0 1 0 5.0 0 -14 -45 120 0 4 2015-08-19T19:28:12Z
Cyprid 493327702 2015-08-19 19:28:22 15.02 0 15.0 127.89 15.01 0 1 0 5.0 0 14 -4 54 1 0 2015-08-19T19:28:22Z
Cyprid 493327712 2015-08-19 19:28:32 15.0 0 15.0 127.89 15.0 0 1 0 5.0 0 -2 -65 42 1 0 2015-08-19T19:28:32Z
Cyprid 493327722 2015-08-19 19:28:42 15.06 0 15.0 127.89 15.0 0 1 0 5.0 0 -18 6 -2 0 4 2015-08-19T19:28:42Z
Cyprid 493327732 2015-08-19 19:28:52 15.03 0 15.0 127.89 15.0 0 1 0 5.0 0 30 -33 -47 5 0 2015-08-19T19:28:52Z
Cyprid 493327742 2015-08-19 19:29:02 14.99 0 15.0 127.89 15.0 0 1 0 5.0 0 14 -69 26 0 2 2015-08-19T19:29:02Z
Cyprid 493327752 2015-08-19 19:29:12 14.94 0 15.0 127.89 15.02 0 1 0 5.0 0 25 -43 64 3 0 2015-08-19T19:29:12Z
Cyprid 493327762 2015-08-19 19:29:22 15.05 0 15.0 127.89 15.01 0 1 0 5.0 0 28 -55 86 0 5 2015-08-19T19:29:22Z
Cyprid 493327772 2015-08-19 19:29:32 15.01 0 15.0 127.89 15.02 0 1 0 5.0 0 17 -42 38 4 0 2015-08-19T19:29:32Z
Cyprid 493327782 2015-08-19 19:29:42 15.02 0 15.0 127.89 15.02 0 1 0 5.0 0 37 15 47 0 4 2015-08-19T19:29:42Z
Cyprid 493327792 2015-08-19 19:29:52 15.12 0 15.0 127.89 15.01 0 1 0 5.0 0 4 -40 -62 0 1 2015-08-19T19:29:52Z
Cyprid 493327802 2015-08-19 19:30:02 15.13 0 15.0 127.89 15.01 0 1 0 5.0 0 30 -27 -155 0 0 2015-08-19T19:30:02Z
Cyprid 493327812 2015-08-19 19:30:12 14.92 0 15.0 127.89 15.03 0 1 0 5.0 0 34 -62 -139 5 0 2015-08-19T19:30:12Z
Cyprid 493327822 2015-08-19 19:30:22 14.91 0 15.0 127.89 15.03 0 1 0 5.0 0 29 -29 3 0 0 2015-08-19T19:30:22Z
Cyprid 493327832 2015-08-19 19:30:32 14.83 0 15.0 127.89 15.03 0 1 0 5.0 0 26 -43 168 3 0 2015-08-19T19:30:32Z
Cyprid 493327842 2015-08-19 19:30:42 14.91 0 15.0 127.89 15.04 0 1 0 5.0 0 9 -39 294 0 5 2015-08-19T19:30:42Z
Cyprid 493327852 2015-08-19 19:30:52 15.08 0 15.0 127.89 15.03 0 1 0 5.0 0 17 -76 116 0 4 2015-08-19T19:30:52Z
Cyprid 493327862 2015-08-19 19:31:02 15.03 0 15.0 127.89 15.03 0 1 0 5.0 0 14 -5 -30 5 0 2015-08-19T19:31:02Z
Cyprid 493327872 2015-08-19 19:31:12 15.09 0 15.0 127.89 15.03 0 1 0 5.0 0 10 -53 -47 0 5 2015-08-19T19:31:12Z
Cyprid 493327882 2015-08-19 19:31:22 15.02 0 15.0 127.89 15.02 0 1 0 5.0 0 43 -25 -139 5 0 2015-08-19T19:31:22Z
Cyprid 493327892 2015-08-19 19:31:32 14.94 0 15.0 127.89 15.03 0 1 0 5.0 0 28 -43 -46 0 0 2015-08-19T19:31:32Z
Cyprid 493327902 2015-08-19 19:31:42 14.93 0 15.0 127.89 15.03 0 1 0 5.0 0 22 -37 31 0 0 2015-08-19T19:31:42Z
Cyprid 493327912 2015-08-19 19:31:52 14.95 0 15.0 127.89 15.03 0 1 0 5.0 0 19 -25 77 0 0 2015-08-19T19:31:52Z
Cyprid 493327922 2015-08-19 19:32:02 15.0 0 15.0 127.89 15.03 0 1 0 5.0 0 -6 -1 76 0 2 2015-08-19T19:32:02Z
Cyprid 493327932 2015-08-19 19:32:12 14.93 0 15.0 127.89 15.03 0 1 0 5.0 0 2 -62 101 5 0 2015-08-19T19:32:12Z
Cyprid 493327942 2015-08-19 19:32:22 15.08 0 15.0 127.89 15.03 0 1 0 5.0 0 18 -13 183 0 5 2015-08-19T19:32:22Z
Cyprid 493327952 2015-08-19 19:32:32 15.1 0 15.0 127.89 15.03 0 1 0 5.0 0 14 12 81 0 2 2015-08-19T19:32:32Z
Cyprid 493327962 2015-08-19 19:32:42 15.07 0 15.0 127.89 15.03 0 1 0 5.0 0 31 -11 -17 3 0 2015-08-19T19:32:42Z
Cyprid 493327972 2015-08-19 19:32:52 15.03 0 15.0 127.89 15.03 0 1 0 5.0 0 37 -16 29 0 1 2015-08-19T19:32:52Z
Cyprid 493327982 2015-08-19 19:33:02 15.05 0 15.0 127.89 15.03 0 1 0 5.0 0 22 -58 27 0 1 2015-08-19T19:33:02Z
Cyprid 493327992 2015-08-19 19:33:12 14.98 0 15.0 127.89 15.04 0 1 0 5.0 0 32 -7 50 4 0 2015-08-19T19:33:12Z
Cyprid 493328002 2015-08-19 19:33:22 14.92 0 15.0 127.89 15.04 0 1 0 5.0 0 28 -36 157 0 0 2015-08-19T19:33:22Z
Cyprid 493328012 2015-08-19 19:33:32 15.01 0 15.0 127.89 15.04 0 1 0 5.0 0 30 -72 200 0 5 2015-08-19T19:33:32Z
Cyprid 493328022 2015-08-19 19:33:42 15.03 0 15.0 127.89 15.03 0 1 0 5.0 0 32 -37 117 3 0 2015-08-19T19:33:42Z
Cyprid 493328032 2015-08-19 19:33:52 14.98 0 15.0 127.89 15.04 0 1 0 5.0 0 19 -40 133 0 0 2015-08-19T19:33:52Z
Cyprid 493328042 2015-08-19 19:34:02 15.03 0 15.0 127.89 15.03 0 1 0 5.0 0 18 11 139 0 2 2015-08-19T19:34:02Z
Cyprid 493328052 2015-08-19 19:34:12 15.06 0 15.0 127.89 15.04 0 1 0 5.0 0 22 -29 79 0 0 2015-08-19T19:34:12Z
Cyprid 493328062 2015-08-19 19:34:22 15.1 0 15.0 127.89 15.04 0 1 0 5.0 0 43 -64 16 0 1 2015-08-19T19:34:22Z
Cyprid 493328072 2015-08-19 19:34:32 15.0 0 15.0 127.89 15.04 0 1 0 5.0 0 18 -17 6 5 0 2015-08-19T19:34:32Z
Cyprid 493328082 2015-08-19 19:34:42 14.96 0 15.0 127.89 15.04 0 1 0 5.0 0 29 -42 120 0 3 2015-08-19T19:34:42Z
Cyprid 493328092 2015-08-19 19:34:52 15.08 0 15.0 127.89 15.03 0 1 0 5.0 0 8 -33 70 0 3 2015-08-19T19:34:52Z
Cyprid 493328102 2015-08-19 19:35:02 15.04 0 15.0 127.89 15.04 0 1 0 5.0 0 26 -63 17 5 0 2015-08-19T19:35:02Z
Cyprid 493328112 2015-08-19 19:35:12 14.99 0 15.0 127.89 15.03 0 1 0 5.0 0 6 -41 453 0 5 2015-08-19T19:35:12Z
Cyprid 493328122 2015-08-19 19:35:22 14.97 0 15.0 127.89 15.04 0 1 0 5.0 0 8 -43 25 5 0 2015-08-19T19:35:22Z
Cyprid 493328132 2015-08-19 19:35:32 14.99 0 15.0 127.89 15.03 0 1 0 5.0 0 12 -28 119 0 3 2015-08-19T19:35:32Z
Cyprid 493328142 2015-08-19 19:35:42 14.95 0 15.0 127.89 15.04 0 1 0 5.0 0 23 28 122 4 0 2015-08-19T19:35:42Z
Cyprid 493328152 2015-08-19 19:35:52 14.92 0 15.0 127.89 15.04 0 1 0 5.0 0 40 -85 253 0 1 2015-08-19T19:35:52Z
Cyprid 493328162 2015-08-19 19:36:02 15.01 0 15.0 127.89 15.03 0 1 0 5.0 0 31 -80 268 0 4 2015-08-19T19:36:02Z
Cyprid 493328173 2015-08-19 19:36:13 15.07 0 15.0 127.89 15.03 0 1 0 5.0 0 8 -72 134 1 0 2015-08-19T19:36:13Z
Cyprid 493328183 2015-08-19 19:36:23 14.99 0 15.0 127.89 15.02 0 1 0 5.0 0 17 -46 157 3 0 2015-08-19T19:36:23Z
Cyprid 493328193 2015-08-19 19:36:33 15.0 0 15.0 127.89 15.03 0 1 0 5.0 0 37 -45 205 0 3 2015-08-19T19:36:33Z
Cyprid 493328203 2015-08-19 19:36:43 14.98 0 15.0 127.89 15.03 0 1 0 5.0 0 31 -67 213 3 0 2015-08-19T19:36:43Z
Cyprid 493328213 2015-08-19 19:36:53 15.03 0 15.0 127.89 15.03 0 1 0 5.0 0 32 -73 253 0 5 2015-08-19T19:36:53Z
Cyprid 493328223 2015-08-19 19:37:03 15.1 0 15.0 127.89 15.04 0 1 0 5.0 0 33 -18 141 1 0 2015-08-19T19:37:03Z
Cyprid 493328233 2015-08-19 19:37:13 15.17 0 15.0 127.89 15.03 0 1 0 5.0 0 1 -12 -1 0 3 2015-08-19T19:37:13Z
Cyprid 493328243 2015-08-19 19:37:23 15.19 0 15.0 127.89 15.03 0 1 0 5.0 0 20 -9 -196 1 0 2015-08-19T19:37:23Z
Cyprid 493328253 2015-08-19 19:37:33 15.07 0 15.0 127.89 15.03 0 1 0 5.0 0 28 -40 -171 5 0 2015-08-19T19:37:33Z
Cyprid 493328263 2015-08-19 19:37:43 14.96 0 15.0 127.89 15.02 0 1 0 5.0 0 33 -52 -46 0 0 2015-08-19T19:37:43Z
Cyprid 493328273 2015-08-19 19:37:53 14.93 0 15.0 127.89 15.04 0 2 0 5.0 0 21 -24 41 0 0 2015-08-19T19:37:53Z
Cyprid 493328283 2015-08-19 19:38:03 14.94 0 15.0 127.89 15.03 0 2 0 5.0 0 17 -34 100 0 0 2015-08-19T19:38:03Z
Cyprid 493328293 2015-08-19 19:38:13 15.04 0 15.0 127.89 15.03 0 2 0 5.0 0 15 -64 60 0 5 2015-08-19T19:38:13Z
Cyprid 493328303 2015-08-19 19:38:23 14.93 0 15.0 127.89 15.02 0 1 0 5.0 0 35 -20 -33 5 0 2015-08-19T19:38:23Z
Cyprid 493328313 2015-08-19 19:38:33 14.91 0 15.0 127.89 15.02 0 2 0 5.0 0 20 -36 57 1 0 2015-08-19T19:38:33Z
Cyprid 493328323 2015-08-19 19:38:43 14.87 0 15.0 127.89 15.03 0 2 0 5.0 0 17 -46 186 1 0 2015-08-19T19:38:43Z
Cyprid 493328333 2015-08-19 19:38:53 14.87 0 15.0 127.89 15.03 0 2 0 5.0 0 24 -19 290 0 0 2015-08-19T19:38:53Z
Cyprid 493328343 2015-08-19 19:39:03 14.99 0 15.0 127.89 15.02 0 1 0 5.0 0 11 -60 245 0 5 2015-08-19T19:39:03Z
Cyprid 493328353 2015-08-19 19:39:13 15.08 0 15.0 127.89 15.03 0 1 0 5.0 0 18 -23 99 0 0 2015-08-19T19:39:13Z
Cyprid 493328363 2015-08-19 19:39:23 15.11 0 15.0 127.89 15.02 0 1 0 5.0 0 -13 -21 -55 0 1 2015-08-19T19:39:23Z
Cyprid 493328373 2015-08-19 19:39:33 15.0 0 15.0 127.89 15.02 0 1 0 5.0 0 21 -64 -109 5 0 2015-08-19T19:39:33Z
Cyprid 493328383 2015-08-19 19:39:43 14.95 0 15.0 127.89 15.03 0 2 0 5.0 0 3 -4 24 0 1 2015-08-19T19:39:43Z
Cyprid 493328393 2015-08-19 19:39:53 15.03 0 15.0 127.89 15.03 0 2 0 5.0 0 -17 -16 43 0 4 2015-08-19T19:39:53Z
Cyprid 493328403 2015-08-19 19:40:03 15.04 0 15.0 127.89 15.03 0 2 0 5.0 0 13 -11 -11 3 0 2015-08-19T19:40:03Z
Cyprid 493328413 2015-08-19 19:40:13 14.97 0 15.0 127.89 15.03 0 2 0 5.0 0 42 8 61 1 0 2015-08-19T19:40:13Z
Cyprid 493328423 2015-08-19 19:40:23 14.96 0 15.0 127.89 15.02 0 2 0 5.0 0 30 -48 97 0 0 2015-08-19T19:40:23Z
Cyprid 493328433 2015-08-19 19:40:33 14.93 0 15.0 127.89 15.02 0 2 0 5.0 0 27 -48 128 0 0 2015-08-19T19:40:33Z
Cyprid 493328443 2015-08-19 19:40:43 14.9 0 15.0 127.89 15.03 0 2 0 5.0 0 11 -71 173 1 0 2015-08-19T19:40:43Z
Cyprid 493328453 2015-08-19 19:40:53 14.93 0 15.0 127.89 15.03 0 2 0 5.0 0 5 14 220 0 1 2015-08-19T19:40:53Z
Cyprid 493328463 2015-08-19 19:41:03 15.02 0 15.0 127.89 15.02 0 2 0 5.0 0 33 -46 156 0 3 2015-08-19T19:41:03Z
Cyprid 493328473 2015-08-19 19:41:13 15.04 0 15.0 127.89 15.02 0 2 0 5.0 0 19 24 59 1 0 2015-08-19T19:41:13Z
Cyprid 493328483 2015-08-19 19:41:23 15.01 0 15.0 127.89 15.02 0 2 0 5.0 0 2 -61 11 1 0 2015-08-19T19:41:23Z
Cyprid 493328493 2015-08-19 19:41:33 14.94 0 15.0 127.89 15.03 0 2 0 5.0 0 12 -36 67 2 0 2015-08-19T19:41:33Z
Cyprid 493328503 2015-08-19 19:41:43 15.0 0 15.0 127.89 15.03 0 2 0 5.0 0 20 -72 98 0 4 2015-08-19T19:41:43Z
Cyprid 493328513 2015-08-19 19:41:53 15.13 0 15.0 127.89 15.02 0 1 0 5.0 0 17 -22 -42 0 3 2015-08-19T19:41:53Z
Cyprid 493328523 2015-08-19 19:42:03 14.96 0 15.0 127.89 15.02 0 1 0 5.0 0 22 -50 -147 5 0 2015-08-19T19:42:03Z
Cyprid 493328534 2015-08-19 19:42:14 14.85 0 15.0 127.89 15.03 0 2 0 5.0 0 21 -3 56 5 0 2015-08-19T19:42:14Z
Cyprid 493328544 2015-08-19 19:42:24 14.86 0 15.0 127.89 15.02 0 2 0 5.0 0 -3 -19 240 0 4 2015-08-19T19:42:24Z
Cyprid 493328554 2015-08-19 19:42:34 14.86 0 15.0 127.89 15.02 0 2 0 5.0 0 -7 -54 272 3 0 2015-08-19T19:42:34Z
Cyprid 493328564 2015-08-19 19:42:44 14.88 0 15.0 127.89 15.02 0 1 0 5.0 0 -10 -64 303 0 3 2015-08-19T19:42:44Z
Cyprid 493328574 2015-08-19 19:42:54 14.9 0 15.0 127.89 15.02 0 2 0 5.0 0 33 -6 282 2 0 2015-08-19T19:42:54Z
Cyprid 493328584 2015-08-19 19:43:04 15.06 0 15.0 127.89 15.01 0 1 0 5.0 0 37 -50 253 0 5 2015-08-19T19:43:04Z
Cyprid 493328594 2015-08-19 19:43:14 15.16 0 15.0 127.89 15.01 0 1 0 5.0 0 59 -29 57 0 3 2015-08-19T19:43:14Z
Cyprid 493328604 2015-08-19 19:43:24 15.11 0 15.0 127.89 15.01 0 1 0 5.0 0 37 -17 -141 5 0 2015-08-19T19:43:24Z
Cyprid 493328614 2015-08-19 19:43:34 15.01 0 15.0 127.89 15.01 0 1 0 5.0 0 16 -28 -51 0 0 2015-08-19T19:43:34Z
Cyprid 493328624 2015-08-19 19:43:44 15.05 0 15.0 127.89 15.01 0 1 0 5.0 0 -34 -94 404 0 2 2015-08-19T19:43:44Z
Cyprid 493328634 2015-08-19 19:43:54 15.02 0 15.0 127.89 15.01 0 1 0 5.0 0 35 -98 198 2 0 2015-08-19T19:43:54Z
Cyprid 493328644 2015-08-19 19:44:04 14.96 0 15.0 127.89 15.02 0 1 0 5.0 0 19 -19 48 1 0 2015-08-19T19:44:04Z
Cyprid 493328654 2015-08-19 19:44:14 14.94 0 15.0 127.89 15.01 0 1 0 5.0 0 11 -26 63 0 0 2015-08-19T19:44:14Z
Cyprid 493328664 2015-08-19 19:44:24 15.06 0 15.0 127.89 15.01 0 1 0 5.0 0 25 -67 8 0 5 2015-08-19T19:44:24Z
Cyprid 493328674 2015-08-19 19:44:34 14.97 0 15.0 127.89 15.01 0 1 0 5.0 0 30 -18 -85 5 0 2015-08-19T19:44:34Z
Cyprid 493328684 2015-08-19 19:44:44 14.91 0 15.0 127.89 15.01 0 2 0 5.0 0 24 -67 7 1 0 2015-08-19T19:44:44Z
Cyprid 493328694 2015-08-19 19:44:54 14.95 0 15.0 127.89 15.01 0 1 0 5.0 0 -10 -71 83 0 2 2015-08-19T19:44:54Z
Cyprid 493328704 2015-08-19 19:45:04 15.05 0 15.0 127.89 15.01 0 1 0 5.0 0 15 -25 30 0 3 2015-08-19T19:45:04Z
Cyprid 493328714 2015-08-19 19:45:14 15.03 0 15.0 127.89 15.02 0 1 0 5.0 0 37 24 -44 4 0 2015-08-19T19:45:14Z
Cyprid 493328724 2015-08-19 19:45:24 14.9 0 15.0 127.89 15.02 0 1 0 5.0 0 30 12 47 2 0 2015-08-19T19:45:24Z
Cyprid 493328734 2015-08-19 19:45:34 14.91 0 15.0 127.89 15.01 0 1 0 5.0 0 25 -10 150 0 2 2015-08-19T19:45:34Z
Cyprid 493328744 2015-08-19 19:45:44 14.89 0 15.0 127.89 15.01 0 1 0 5.0 0 10 -4 187 2 0 2015-08-19T19:45:44Z
Cyprid 493328754 2015-08-19 19:45:54 14.91 0 15.0 127.89 15.0 0 1 0 5.0 0 32 -7 249 0 2 2015-08-19T19:45:54Z
Cyprid 493328764 2015-08-19 19:46:04 14.95 0 15.0 127.89 15.0 0 1 0 5.0 0 47 -37 243 0 0 2015-08-19T19:46:04Z
Cyprid 493328774 2015-08-19 19:46:14 15.02 0 15.0 127.89 14.99 0 1 0 5.0 0 -8 -20 168 0 3 2015-08-19T19:46:14Z
Cyprid 493328784 2015-08-19 19:46:24 15.0 0 15.0 127.89 15.0 0 1 0 5.0 0 -5 -14 76 4 0 2015-08-19T19:46:24Z
Cyprid 493328794 2015-08-19 19:46:34 14.95 0 15.0 127.89 15.0 0 1 0 5.0 0 10 -30 99 0 0 2015-08-19T19:46:34Z
Cyprid 493328804 2015-08-19 19:46:44 14.79 0 15.0 127.89 14.99 0 1 0 5.0 0 1 -68 208 5 0 2015-08-19T19:46:44Z
Cyprid 493328814 2015-08-19 19:46:54 15.0 0 15.0 127.89 14.99 0 2 0 5.0 0 48 -35 391 0 5 2015-08-19T19:46:54Z
Cyprid 493328824 2015-08-19 19:47:04 15.13 0 15.0 127.89 15.0 0 1 0 5.0 0 24 -69 232 0 5 2015-08-19T19:47:04Z
Cyprid 493328834 2015-08-19 19:47:14 15.1 0 15.0 127.89 14.98 0 1 0 5.0 0 15 -72 11 2 0 2015-08-19T19:47:14Z
Cyprid 493328844 2015-08-19 19:47:24 15.0 0 15.0 127.89 14.99 0 1 0 5.0 0 13 -41 -40 3 0 2015-08-19T19:47:24Z
Cyprid 493328854 2015-08-19 19:47:34 15.0 0 15.0 127.89 14.99 0 1 0 5.0 0 0 -39 -25 0 3 2015-08-19T19:47:34Z
Cyprid 493328864 2015-08-19 19:47:44 14.92 0 15.0 127.89 14.99 0 1 0 5.0 0 26 -65 -62 5 0 2015-08-19T19:47:44Z
Cyprid 493328874 2015-08-19 19:47:54 14.93 0 15.0 127.89 14.98 0 2 0 5.0 0 55 -71 10 0 4 2015-08-19T19:47:54Z
Cyprid 493328884 2015-08-19 19:48:04 14.97 0 15.0 127.89 14.99 0 2 0 5.0 0 48 2 -42 1 0 2015-08-19T19:48:04Z
Cyprid 493328894 2015-08-19 19:48:14 15.0 0 15.0 127.89 14.99 0 1 0 5.0 0 47 -65 -75 0 1 2015-08-19T19:48:14Z
Cyprid 493328904 2015-08-19 19:48:24 14.9 0 15.0 127.89 14.99 0 2 0 5.0 0 18 -17 -60 5 0 2015-08-19T19:48:24Z
Cyprid 493328914 2015-08-19 19:48:34 14.84 0 15.0 127.89 14.99 0 1 0 5.0 0 55 -77 80 0 1 2015-08-19T19:48:34Z
Cyprid 493328924 2015-08-19 19:48:44 14.84 0 15.0 127.89 15.0 0 2 0 5.0 0 44 -37 168 0 0 2015-08-19T19:48:44Z
Cyprid 493328934 2015-08-19 19:48:54 14.83 0 15.0 127.89 15.0 0 2 0 5.0 0 12 -36 244 0 0 2015-08-19T19:48:54Z
Cyprid 493328944 2015-08-19 19:49:04 14.91 0 15.0 127.89 14.99 0 1 0 5.0 0 18 -98 240 0 2 2015-08-19T19:49:04Z
Cyprid 493328954 2015-08-19 19:49:14 14.92 0 15.0 127.89 14.99 0 1 0 5.0 0 39 1 196 1 0 2015-08-19T19:49:14Z
Cyprid 493328964 2015-08-19 19:49:24 14.97 0 15.0 127.89 14.99 0 1 0 5.0 0 22 -15 163 0 2 2015-08-19T19:49:24Z
Cyprid 493328974 2015-08-19 19:49:34 14.92 0 15.0 127.89 14.99 0 1 0 5.0 0 35 23 161 4 0 2015-08-19T19:49:34Z
Cyprid 493328984 2015-08-19 19:49:44 15.0 0 15.0 127.89 14.99 0 1 0 5.0 0 36 -71 175 0 5 2015-08-19T19:49:44Z
Cyprid 493328994 2015-08-19 19:49:54 15.1 0 15.0 127.89 14.99 0 1 0 5.0 0 26 -84 41 0 2 2015-08-19T19:49:54Z
Cyprid 493329004 2015-08-19 19:50:04 15.04 0 15.0 127.89 14.99 0 1 0 5.0 0 -9 -4 -95 5 0 2015-08-19T19:50:04Z
Cyprid 493329014 2015-08-19 19:50:14 14.89 0 15.0 127.89 14.99 0 1 0 5.0 0 7 0 32 2 0 2015-08-19T19:50:14Z
Cyprid 493329024 2015-08-19 19:50:24 14.99 0 15.0 127.89 14.99 0 1 0 5.0 0 31 -73 132 0 5 2015-08-19T19:50:24Z
Cyprid 493329034 2015-08-19 19:50:34 15.06 0 15.0 127.89 14.99 0 1 0 5.0 0 23 -15 64 0 0 2015-08-19T19:50:34Z
Cyprid 493329044 2015-08-19 19:50:44 15.02 0 15.0 127.89 14.98 0 1 0 5.0 0 27 -63 -22 2 0 2015-08-19T19:50:44Z
Cyprid 493329054 2015-08-19 19:50:54 14.99 0 15.0 127.89 14.98 0 1 0 5.0 0 22 -38 18 0 0 2015-08-19T19:50:54Z
Cyprid 493329064 2015-08-19 19:51:04 14.99 0 15.0 127.89 14.99 0 1 0 5.0 0 8 -21 57 0 0 2015-08-19T19:51:04Z
Cyprid 493329074 2015-08-19 19:51:14 14.95 0 15.0 127.89 14.98 0 1 0 5.0 0 21 -33 79 0 0 2015-08-19T19:51:14Z
Cyprid 493329084 2015-08-19 19:51:24 14.98 0 15.0 127.89 14.99 0 1 0 5.0 0 18 -32 102 0 0 2015-08-19T19:51:24Z
Cyprid 493329094 2015-08-19 19:51:34 15.07 0 15.0 127.89 14.99 0 1 0 5.0 0 26 -24 39 0 5 2015-08-19T19:51:34Z
Cyprid 493329104 2015-08-19 19:51:44 15.11 0 15.0 127.89 14.99 0 1 0 5.0 0 14 -45 -128 3 0 2015-08-19T19:51:44Z
Cyprid 493329114 2015-08-19 19:51:54 15.04 0 15.0 127.89 14.99 0 1 0 5.0 0 35 19 -136 1 0 2015-08-19T19:51:54Z
Cyprid 493329124 2015-08-19 19:52:04 14.91 0 15.0 127.89 15.0 0 1 0 5.0 0 11 24 -63 4 0 2015-08-19T19:52:04Z
Cyprid 493329135 2015-08-19 19:52:15 14.92 0 15.0 127.89 14.99 0 1 0 5.0 0 2 -15 71 0 4 2015-08-19T19:52:15Z
Cyprid 493329145 2015-08-19 19:52:25 15.05 0 15.0 127.89 15.0 0 1 0 5.0 0 32 -12 -3 0 3 2015-08-19T19:52:25Z
Cyprid 493329155 2015-08-19 19:52:35 15.02 0 15.0 127.89 15.0 0 1 0 5.0 0 3 -21 -116 5 0 2015-08-19T19:52:35Z
Cyprid 493329165 2015-08-19 19:52:45 15.02 0 15.0 127.89 15.0 0 1 0 5.0 0 7 14 -77 0 4 2015-08-19T19:52:45Z
Cyprid 493329175 2015-08-19 19:52:55 15.01 0 15.0 127.89 15.0 0 1 0 5.0 0 -7 -24 -120 3 0 2015-08-19T19:52:55Z
Cyprid 493329185 2015-08-19 19:53:05 15.03 0 15.0 127.89 15.0 0 1 0 5.0 0 18 -30 -89 0 3 2015-08-19T19:53:05Z
Cyprid 493329195 2015-08-19 19:53:15 14.94 0 15.0 127.89 15.0 0 1 0 5.0 0 18 -55 -86 5 0 2015-08-19T19:53:15Z
Cyprid 493329205 2015-08-19 19:53:25 14.98 0 15.0 127.89 15.0 0 1 0 5.0 0 16 4 -25 0 5 2015-08-19T19:53:25Z
Cyprid 493329215 2015-08-19 19:53:35 15.01 0 15.0 127.89 15.01 0 1 0 5.0 0 33 -28 -43 3 0 2015-08-19T19:53:35Z
Cyprid 493329225 2015-08-19 19:53:45 15.0 0 15.0 127.89 15.0 0 1 0 5.0 0 40 -5 31 0 1 2015-08-19T19:53:45Z
Cyprid 493329235 2015-08-19 19:53:55 15.0 0 15.0 127.89 15.01 0 1 0 5.0 0 17 -32 48 0 0 2015-08-19T19:53:55Z
Cyprid 493329245 2015-08-19 19:54:05 15.05 0 15.0 127.89 15.0 0 1 0 5.0 0 6 -75 32 0 2 2015-08-19T19:54:05Z
Cyprid 493329256 2015-08-19 19:54:16 15.07 0 15.0 127.89 15.0 0 1 0 5.0 0 29 -11 -11 1 0 2015-08-19T19:54:16Z
Cyprid 493329266 2015-08-19 19:54:26 15.06 0 15.0 127.89 15.0 0 1 0 5.0 0 20 -30 -10 0 0 2015-08-19T19:54:26Z
Cyprid 493329276 2015-08-19 19:54:36 14.97 0 15.0 127.89 15.01 0 1 0 5.0 0 29 -19 43 3 0 2015-08-19T19:54:36Z
Cyprid 493329286 2015-08-19 19:54:46 15.1 0 15.0 127.89 15.0 0 1 0 5.0 0 7 -15 90 0 5 2015-08-19T19:54:46Z
Cyprid 493329296 2015-08-19 19:54:56 15.15 0 15.0 127.89 15.01 0 1 0 5.0 0 52 3 -21 0 1 2015-08-19T19:54:56Z
Cyprid 493329306 2015-08-19 19:55:06 15.04 0 15.0 127.89 15.01 0 1 0 5.0 0 50 1 -98 5 0 2015-08-19T19:55:06Z
Cyprid 493329316 2015-08-19 19:55:16 15.03 0 15.0 127.89 15.02 0 1 0 5.0 0 18 -42 -29 0 3 2015-08-19T19:55:16Z
Cyprid 493329326 2015-08-19 19:55:26 15.07 0 15.0 127.89 15.02 0 1 0 5.0 0 21 -35 -51 0 0 2015-08-19T19:55:26Z
Cyprid 493329336 2015-08-19 19:55:36 15.01 0 15.0 127.89 15.02 0 1 0 5.0 0 36 -24 -46 3 0 2015-08-19T19:55:36Z
Cyprid 493329346 2015-08-19 19:55:46 14.92 0 15.0 127.89 15.03 0 1 0 5.0 0 23 -38 45 0 0 2015-08-19T19:55:46Z
Cyprid 493329356 2015-08-19 19:55:56 15.08 0 15.0 127.89 15.03 0 1 0 5.0 0 20 -81 52 0 5 2015-08-19T19:55:56Z
Cyprid 493329366 2015-08-19 19:56:06 15.08 0 15.0 127.89 15.03 0 1 0 5.0 0 15 -58 -46 3 0 2015-08-19T19:56:06Z
Cyprid 493329376 2015-08-19 19:56:16 15.01 0 15.0 127.89 15.03 0 1 0 5.0 0 28 -29 -26 0 0 2015-08-19T19:56:16Z
Cyprid 493329386 2015-08-19 19:56:26 14.98 0 15.0 127.89 15.02 0 1 0 5.0 0 4 -88 -3 1 0 2015-08-19T19:56:26Z
Cyprid 493329396 2015-08-19 19:56:36 14.87 0 15.0 127.89 15.02 0 1 0 5.0 0 19 -69 122 4 0 2015-08-19T19:56:36Z
Cyprid 493329406 2015-08-19 19:56:46 14.91 0 15.0 127.89 15.03 0 1 0 5.0 0 16 -20 272 0 5 2015-08-19T19:56:46Z
Cyprid 493329416 2015-08-19 19:56:56 15.03 0 15.0 127.89 15.03 0 1 0 5.0 0 52 -89 171 0 1 2015-08-19T19:56:56Z
Cyprid 493329426 2015-08-19 19:57:06 15.15 0 15.0 127.89 15.03 0 1 0 5.0 0 55 -80 9 0 4 2015-08-19T19:57:06Z
Cyprid 493329436 2015-08-19 19:57:16 15.14 0 15.0 127.89 15.03 0 1 0 5.0 0 24 -74 -208 4 0 2015-08-19T19:57:16Z
Cyprid 493329446 2015-08-19 19:57:26 15.0 0 15.0 127.89 15.03 0 1 0 5.0 0 14 -10 -115 3 0 2015-08-19T19:57:26Z
Cyprid 493329456 2015-08-19 19:57:36 14.95 0 15.0 127.89 15.04 0 1 0 5.0 0 29 -56 7 0 1 2015-08-19T19:57:36Z
Cyprid 493329466 2015-08-19 19:57:46 15.02 0 15.0 127.89 15.04 0 1 0 5.0 0 -3 -18 15 0 3 2015-08-19T19:57:46Z
Cyprid 493329476 2015-08-19 19:57:56 15.05 0 15.0 127.89 15.05 0 1 0 5.0 0 23 -100 -46 1 0 2015-08-19T19:57:56Z
Cyprid 493329486 2015-08-19 19:58:06 15.03 0 15.0 127.89 15.04 0 1 0 5.0 0 7 -37 -531 0 0 2015-08-19T19:58:06Z
Cyprid 493329496 2015-08-19 19:58:16 14.93 0 15.0 127.89 15.04 0 1 0 5.0 0 37 33 -528 5 0 2015-08-19T19:58:16Z
Cyprid 493329506 2015-08-19 19:58:26 14.81 0 15.0 127.89 15.04 0 1 0 5.0 0 30 -56 -24 1 0 2015-08-19T19:58:26Z
Cyprid 493329516 2015-08-19 19:58:36 14.82 0 15.0 127.89 15.05 0 1 0 5.0 0 -2 -72 307 0 2 2015-08-19T19:58:36Z
Cyprid 493329526 2015-08-19 19:58:46 14.83 0 15.0 127.89 15.04 0 1 0 5.0 0 24 -39 445 1 0 2015-08-19T19:58:46Z
Cyprid 493329536 2015-08-19 19:58:56 14.82 0 15.0 127.89 15.04 0 1 0 5.0 0 24 -97 372 0 5 2015-08-19T19:58:56Z
Cyprid 493329546 2015-08-19 19:59:06 14.84 0 15.0 127.89 15.05 0 1 0 5.0 0 26 -35 281 5 0 2015-08-19T19:59:06Z
Cyprid 493329556 2015-08-19 19:59:16 14.95 0 15.0 127.89 15.04 0 1 0 5.0 0 -3 -47 315 0 4 2015-08-19T19:59:16Z
Cyprid 493329566 2015-08-19 19:59:26 14.91 0 15.0 127.89 15.04 0 1 0 5.0 0 30 -45 310 5 0 2015-08-19T19:59:26Z
Cyprid 493329576 2015-08-19 19:59:36 14.94 0 15.0 127.89 15.04 0 1 0 5.0 0 21 -79 430 0 5 2015-08-19T19:59:36Z
Cyprid 493329586 2015-08-19 19:59:46 15.12 0 15.0 127.89 15.03 0 1 0 5.0 0 49 -85 269 0 4 2015-08-19T19:59:46Z
Cyprid 493329596 2015-08-19 19:59:56 15.06 0 15.0 127.89 15.04 0 1 0 5.0 0 10 -13 133 5 0 2015-08-19T19:59:56Z
Cyprid 493329606 2015-08-19 20:00:06 15.06 0 15.0 127.89 15.03 0 1 0 5.0 0 29 15 150 0 2 2015-08-19T20:00:06Z
Cyprid 493329616 2015-08-19 20:00:16 15.1 0 15.0 127.89 15.03 0 1 0 5.0 0 15 -31 116 0 0 2015-08-19T20:00:16Z
Cyprid 493329626 2015-08-19 20:00:26 15.06 0 15.0 127.89 15.04 0 1 0 5.0 0 -14 -89 122 1 0 2015-08-19T20:00:26Z
Cyprid 493329636 2015-08-19 20:00:36 15.08 0 15.0 127.89 15.04 0 1 0 5.0 0 4 -70 147 0 2 2015-08-19T20:00:36Z
Cyprid 493329646 2015-08-19 20:00:46 14.99 0 15.0 127.89 15.04 0 1 0 5.0 0 34 -21 160 5 0 2015-08-19T20:00:46Z
Cyprid 493329656 2015-08-19 20:00:56 15.03 0 15.0 127.89 15.03 0 1 0 5.0 0 6 -81 259 0 5 2015-08-19T20:00:56Z
Cyprid 493329666 2015-08-19 20:01:06 15.0 0 15.0 127.89 15.04 0 1 0 5.0 0 28 -49 260 5 0 2015-08-19T20:01:06Z
Cyprid 493329676 2015-08-19 20:01:16 15.15 0 15.0 127.89 15.04 0 1 0 5.0 0 -5 -78 360 0 5 2015-08-19T20:01:16Z
Cyprid 493329686 2015-08-19 20:01:26 15.24 0 15.0 127.89 15.04 0 1 0 5.0 0 23 -21 184 0 5 2015-08-19T20:01:26Z
Cyprid 493329696 2015-08-19 20:01:36 15.14 0 15.0 127.89 15.04 0 1 0 5.0 0 23 -39 -90 5 0 2015-08-19T20:01:36Z
Cyprid 493329706 2015-08-19 20:01:46 15.03 0 15.0 127.89 15.04 0 1 0 5.0 0 35 -21 -19 3 0 2015-08-19T20:01:46Z
Cyprid 493329716 2015-08-19 20:01:56 15.12 0 15.0 127.89 15.04 0 1 0 5.0 0 18 -52 48 0 5 2015-08-19T20:01:56Z
Cyprid 493329726 2015-08-19 20:02:06 15.07 0 15.0 127.89 15.03 0 1 0 5.0 0 14 -79 -16 4 0 2015-08-19T20:02:06Z
Cyprid 493329737 2015-08-19 20:02:17 14.97 0 15.0 127.89 15.04 0 1 0 5.0 0 27 -48 71 0 0 2015-08-19T20:02:17Z
Cyprid 493329747 2015-08-19 20:02:27 14.99 0 15.0 127.89 15.04 0 1 0 5.0 0 29 -42 134 0 0 2015-08-19T20:02:27Z
Cyprid 493329757 2015-08-19 20:02:37 15.05 0 15.0 127.89 15.05 0 1 0 35.54 0 38 -81 116 0 4 2015-08-19T20:02:37Z
Cyprid 493329767 2015-08-19 20:02:47 15.08 0 15.0 127.89 15.04 0 1 0 5.0 0 42 -52 -1 3 0 2015-08-19T20:02:47Z
Cyprid 493329777 2015-08-19 20:02:57 15.07 0 15.0 127.89 15.04 0 1 0 5.0 0 11 8 -24 0 2 2015-08-19T20:02:57Z
Cyprid 493329787 2015-08-19 20:03:07 15.03 0 15.0 127.89 15.04 0 1 0 5.0 0 -8 -39 -60 3 0 2015-08-19T20:03:07Z
Cyprid 493329797 2015-08-19 20:03:17 14.94 0 15.0 127.89 15.05 0 1 0 5.0 0 17 -14 39 1 0 2015-08-19T20:03:17Z
Cyprid 493329807 2015-08-19 20:03:27 15.02 0 15.0 127.89 15.05 0 1 0 5.0 0 18 -64 50 0 5 2015-08-19T20:03:27Z
Cyprid 493329817 2015-08-19 20:03:37 15.03 0 15.0 127.89 15.04 0 1 0 5.0 0 29 -16 -6 4 0 2015-08-19T20:03:37Z
Cyprid 493329827 2015-08-19 20:03:47 14.91 0 15.0 127.89 15.04 0 1 0 5.0 0 23 -49 106 2 0 2015-08-19T20:03:47Z
Cyprid 493329837 2015-08-19 20:03:57 14.97 0 15.0 127.89 15.06 0 1 0 5.0 0 48 -86 192 0 4 2015-08-19T20:03:57Z
Cyprid 493329847 2015-08-19 20:04:07 14.98 0 15.0 127.89 15.05 0 1 0 5.0 0 51 -22 157 3 0 2015-08-19T20:04:07Z
Cyprid 493329857 2015-08-19 20:04:17 14.95 0 15.0 127.89 15.04 0 1 0 5.0 0 47 -88 187 0 1 2015-08-19T20:04:17Z
Cyprid 493329867 2015-08-19 20:04:27 15.04 0 15.0 127.89 15.04 0 1 0 5.0 0 -8 -39 160 0 3 2015-08-19T20:04:27Z
Cyprid 493329877 2015-08-19 20:04:37 15.13 0 15.0 127.89 15.04 0 1 0 5.0 0 3 18 35 0 2 2015-08-19T20:04:37Z
Cyprid 493329887 2015-08-19 20:04:47 15.22 0 15.0 127.89 15.03 0 1 0 5.0 0 26 12 -218 0 2 2015-08-19T20:04:47Z
Cyprid 493329897 2015-08-19 20:04:57 15.05 0 15.0 127.89 15.04 0 1 0 5.0 0 22 -27 -334 5 0 2015-08-19T20:04:57Z
Cyprid 493329907 2015-08-19 20:05:07 14.86 0 15.0 127.89 15.05 0 2 0 5.0 0 31 12 -106 5 0 2015-08-19T20:05:07Z
Cyprid 493329917 2015-08-19 20:05:17 14.85 0 15.0 127.89 15.05 0 2 0 5.0 0 54 -77 101 0 1 2015-08-19T20:05:17Z
Cyprid 493329927 2015-08-19 20:05:27 14.88 0 15.0 127.89 15.05 0 2 0 5.0 0 -7 -15 249 0 1 2015-08-19T20:05:27Z
Cyprid 493329937 2015-08-19 20:05:37 14.89 0 15.0 127.89 15.05 0 2 0 5.0 0 24 -46 261 0 0 2015-08-19T20:05:37Z
Cyprid 493329947 2015-08-19 20:05:47 14.9 0 15.0 127.89 15.04 0 2 0 5.0 0 17 -35 275 0 0 2015-08-19T20:05:47Z
Cyprid 493329957 2015-08-19 20:05:57 14.95 0 15.0 127.89 15.04 0 1 0 5.0 0 27 -83 292 0 1 2015-08-19T20:05:57Z
Cyprid 493329967 2015-08-19 20:06:07 14.98 0 15.0 127.89 15.04 0 1 0 5.0 0 47 -68 277 0 0 2015-08-19T20:06:07Z
Cyprid 493329977 2015-08-19 20:06:17 14.95 0 15.0 127.89 15.04 0 1 0 5.0 0 29 -36 243 0 0 2015-08-19T20:06:17Z
Cyprid 493329987 2015-08-19 20:06:27 15.05 0 15.0 127.89 15.04 0 1 0 5.0 0 34 -67 171 0 4 2015-08-19T20:06:27Z
Cyprid 493329997 2015-08-19 20:06:37 15.03 0 15.0 127.89 15.04 0 1 0 5.0 0 5 -26 77 5 0 2015-08-19T20:06:37Z
Cyprid 493330007 2015-08-19 20:06:47 15.03 0 15.0 127.89 15.03 0 1 0 5.0 0 -9 23 92 0 4 2015-08-19T20:06:47Z
Cyprid 493330017 2015-08-19 20:06:57 14.96 0 15.0 127.89 15.04 0 2 0 5.0 0 13 -29 63 5 0 2015-08-19T20:06:57Z
Cyprid 493330027 2015-08-19 20:07:07 14.92 0 15.0 127.89 15.04 0 2 0 5.0 0 -26 16 174 0 1 2015-08-19T20:07:07Z
Cyprid 493330037 2015-08-19 20:07:17 15.03 0 15.0 127.89 15.04 0 1 0 5.0 0 -4 -58 172 0 5 2015-08-19T20:07:17Z
Cyprid 493330047 2015-08-19 20:07:27 14.9 0 15.0 127.89 15.04 0 1 0 5.0 0 30 -23 84 5 0 2015-08-19T20:07:27Z
Cyprid 493330057 2015-08-19 20:07:37 14.95 0 15.0 127.89 15.04 0 1 0 5.0 0 44 -76 134 0 1 2015-08-19T20:07:37Z
Cyprid 493330067 2015-08-19 20:07:47 14.92 0 15.0 127.89 15.03 0 1 0 5.0 0 -3 -69 175 2 0 2015-08-19T20:07:47Z
Cyprid 493330077 2015-08-19 20:07:57 14.88 0 15.0 127.89 15.03 0 1 0 5.0 0 29 -65 294 0 0 2015-08-19T20:07:57Z
Cyprid 493330087 2015-08-19 20:08:07 14.93 0 15.0 127.89 15.03 0 1 0 5.0 0 10 -104 325 0 2 2015-08-19T20:08:07Z
Cyprid 493330097 2015-08-19 20:08:17 14.9 0 15.0 127.89 15.02 0 1 0 5.0 0 30 -51 310 3 0 2015-08-19T20:08:17Z
Cyprid 493330107 2015-08-19 20:08:27 14.98 0 15.0 127.89 15.02 0 1 0 5.0 0 -1 -83 333 0 5 2015-08-19T20:08:27Z
Cyprid 493330117 2015-08-19 20:08:37 15.03 0 15.0 127.89 15.01 0 1 0 5.0 0 41 -2 225 1 0 2015-08-19T20:08:37Z
Cyprid 493330127 2015-08-19 20:08:47 14.96 0 15.0 127.89 15.01 0 1 0 5.0 0 35 18 226 4 0 2015-08-19T20:08:47Z
Cyprid 493330137 2015-08-19 20:08:57 15.05 0 15.0 127.89 15.01 0 1 0 5.0 0 23 -81 287 0 5 2015-08-19T20:08:57Z
Cyprid 493330147 2015-08-19 20:09:07 15.08 0 15.0 127.89 15.0 0 1 0 5.0 0 31 -33 183 0 0 2015-08-19T20:09:07Z
Cyprid 493330157 2015-08-19 20:09:17 15.14 0 15.0 127.89 15.0 0 1 0 5.0 0 13 -38 50 0 3 2015-08-19T20:09:17Z
Cyprid 493330167 2015-08-19 20:09:27 15.09 0 15.0 127.89 15.0 0 1 0 5.0 0 15 -52 -62 5 0 2015-08-19T20:09:27Z
Cyprid 493330177 2015-08-19 20:09:37 15.02 0 15.0 127.89 14.99 0 1 0 5.0 0 -2 0 47 0 1 2015-08-19T20:09:37Z
Cyprid 493330187 2015-08-19 20:09:47 15.07 0 15.0 127.89 15.0 0 1 0 5.0 0 38 -6 58 0 2 2015-08-19T20:09:47Z
Cyprid 493330197 2015-08-19 20:09:57 14.95 0 15.0 127.89 15.0 0 1 0 5.0 0 1 -54 52 5 0 2015-08-19T20:09:57Z
Cyprid 493330207 2015-08-19 20:10:07 14.89 0 15.0 127.89 14.99 0 2 0 5.0 0 28 -48 187 0 0 2015-08-19T20:10:07Z
Cyprid 493330217 2015-08-19 20:10:17 14.96 0 15.0 127.89 15.0 0 2 0 5.0 0 34 -111 258 0 4 2015-08-19T20:10:17Z
Cyprid 493330227 2015-08-19 20:10:27 15.08 0 15.0 127.89 15.0 0 1 0 5.0 0 -10 1 156 0 1 2015-08-19T20:10:27Z
Cyprid 493330237 2015-08-19 20:10:37 14.99 0 15.0 127.89 15.0 0 1 0 5.0 0 3 -68 102 5 0 2015-08-19T20:10:37Z
Cyprid 493330247 2015-08-19 20:10:47 15.03 0 15.0 127.89 15.0 0 2 0 5.0 0 26 -36 157 0 5 2015-08-19T20:10:47Z
Cyprid 493330257 2015-08-19 20:10:57 15.09 0 15.0 127.89 15.0 0 1 0 5.0 0 13 -49 63 0 0 2015-08-19T20:10:57Z
Cyprid 493330267 2015-08-19 20:11:07 14.97 0 15.0 127.89 15.0 0 1 0 5.0 0 -6 -59 32 5 0 2015-08-19T20:11:07Z
Cyprid 493330277 2015-08-19 20:11:17 14.95 0 15.0 127.89 14.99 0 1 0 5.0 0 -9 -22 140 0 3 2015-08-19T20:11:17Z
Cyprid 493330287 2015-08-19 20:11:27 15.03 0 15.0 127.89 15.0 0 1 0 5.0 0 37 -72 110 0 1 2015-08-19T20:11:27Z
Cyprid 493330297 2015-08-19 20:11:37 15.11 0 15.0 127.89 14.99 0 1 0 5.0 0 -3 -11 18 0 3 2015-08-19T20:11:37Z
Cyprid 493330307 2015-08-19 20:11:47 15.13 0 15.0 127.89 14.99 0 1 0 5.0 0 21 15 -130 2 0 2015-08-19T20:11:47Z
Cyprid 493330317 2015-08-19 20:11:57 14.97 0 15.0 127.89 14.99 0 1 0 5.0 0 22 -58 -92 5 0 2015-08-19T20:11:57Z
Cyprid 493330327 2015-08-19 20:12:07 15.04 0 15.0 127.89 15.0 0 2 0 5.0 0 53 -9 42 0 5 2015-08-19T20:12:07Z
Cyprid 493330338 2015-08-19 20:12:18 15.11 0 15.0 127.89 15.0 0 1 0 5.0 0 67 -34 -48 0 1 2015-08-19T20:12:18Z
Cyprid 493330348 2015-08-19 20:12:28 15.09 0 15.0 127.89 15.0 0 2 0 5.0 0 26 -60 -148 2 0 2015-08-19T20:12:28Z
Cyprid 493330358 2015-08-19 20:12:38 15.03 0 15.0 127.89 15.0 0 1 0 5.0 0 27 -32 -122 0 0 2015-08-19T20:12:38Z
Cyprid 493330368 2015-08-19 20:12:48 14.87 0 15.0 127.89 15.01 0 2 0 5.0 0 17 -9 -26 5 0 2015-08-19T20:12:48Z
Cyprid 493330378 2015-08-19 20:12:58 14.96 0 15.0 127.89 15.01 0 2 0 5.0 0 35 -53 92 0 5 2015-08-19T20:12:58Z
Cyprid 493330388 2015-08-19 20:13:08 15.07 0 15.0 127.89 15.01 0 2 0 5.0 0 36 -84 4 0 2 2015-08-19T20:13:08Z
Cyprid 493330398 2015-08-19 20:13:18 14.95 0 15.0 127.89 15.02 0 2 0 5.0 0 36 -10 -71 5 0 2015-08-19T20:13:18Z
Cyprid 493330408 2015-08-19 20:13:28 14.89 0 15.0 127.89 15.02 0 2 0 5.0 0 40 -30 24 0 0 2015-08-19T20:13:28Z
Cyprid 493330418 2015-08-19 20:13:38 14.92 0 15.0 127.89 15.02 0 2 0 5.0 0 46 -51 101 0 1 2015-08-19T20:13:38Z
Cyprid 493330428 2015-08-19 20:13:48 14.91 0 15.0 127.89 15.03 0 2 0 5.0 0 13 -37 132 1 0 2015-08-19T20:13:48Z
Cyprid 493330438 2015-08-19 20:13:58 15.05 0 15.0 127.89 15.02 0 1 0 5.0 0 39 -29 115 0 5 2015-08-19T20:13:58Z
Cyprid 493330448 2015-08-19 20:14:08 15.12 0 15.0 127.89 15.03 0 1 0 5.0 0 19 -29 -29 0 0 2015-08-19T20:14:08Z
Cyprid 493330458 2015-08-19 20:14:18 15.15 0 15.0 127.89 15.02 0 1 0 5.0 0 47 -62 -223 0 1 2015-08-19T20:14:18Z
Cyprid 493330468 2015-08-19 20:14:28 15.04 0 15.0 127.89 15.03 0 1 0 5.0 0 29 -4 -265 5 0 2015-08-19T20:14:28Z
Cyprid 493330478 2015-08-19 20:14:38 14.86 0 15.0 127.89 15.02 0 1 0 5.0 0 35 -4 -78 4 0 2015-08-19T20:14:38Z
Cyprid 493330488 2015-08-19 20:14:48 14.92 0 15.0 127.89 15.03 0 2 0 5.0 0 27 -56 87 0 5 2015-08-19T20:14:48Z
Cyprid 493330498 2015-08-19 20:14:58 14.99 0 15.0 127.89 15.03 0 2 0 5.0 0 18 -47 51 0 0 2015-08-19T20:14:58Z
Cyprid 493330508 2015-08-19 20:15:08 14.96 0 15.0 127.89 15.02 0 2 0 5.0 0 40 -9 16 1 0 2015-08-19T20:15:08Z
Cyprid 493330518 2015-08-19 20:15:18 14.88 0 15.0 127.89 15.03 0 2 0 5.0 0 31 -10 81 3 0 2015-08-19T20:15:18Z
Cyprid 493330528 2015-08-19 20:15:28 14.91 0 15.0 127.89 15.04 0 2 0 5.0 0 47 -34 158 0 4 2015-08-19T20:15:28Z
Cyprid 493330538 2015-08-19 20:15:38 15.0 0 15.0 127.89 15.03 0 2 0 5.0 0 -1 -55 93 0 0 2015-08-19T20:15:38Z
Cyprid 493330548 2015-08-19 20:15:48 15.07 0 15.0 127.89 15.03 0 2 0 5.0 0 -1 -43 -6 0 3 2015-08-19T20:15:48Z
Cyprid 493330558 2015-08-19 20:15:58 15.03 0 15.0 127.89 15.03 0 2 0 5.0 0 8 -53 -104 5 0 2015-08-19T20:15:58Z
Cyprid 493330568 2015-08-19 20:16:08 14.97 0 15.0 127.89 15.03 0 2 0 5.0 0 3 -55 -25 0 2 2015-08-19T20:16:08Z
Cyprid 493330579 2015-08-19 20:16:19 14.94 0 15.0 127.89 15.03 0 2 0 5.0 0 10 -75 -11 2 0 2015-08-19T20:16:19Z
Cyprid 493330589 2015-08-19 20:16:29 14.89 0 15.0 127.89 15.04 0 2 0 5.0 0 38 -28 84 1 0 2015-08-19T20:16:29Z
Cyprid 493330599 2015-08-19 20:16:39 14.92 0 15.0 127.89 15.03 0 2 0 5.0 0 19 5 160 0 2 2015-08-19T20:16:39Z
Cyprid 493330609 2015-08-19 20:16:49 15.08 0 15.0 127.89 15.03 0 1 0 5.0 0 35 -48 55 0 5 2015-08-19T20:16:49Z
Cyprid 493330619 2015-08-19 20:16:59 15.05 0 15.0 127.89 15.04 0 1 0 5.0 0 29 -4 -97 5 0 2015-08-19T20:16:59Z
Cyprid 493330629 2015-08-19 20:17:09 14.88 0 15.0 127.89 15.03 0 2 0 5.0 0 28 -47 34 5 0 2015-08-19T20:17:09Z
Cyprid 493330639 2015-08-19 20:17:19 14.91 0 15.0 127.89 15.03 0 2 0 5.0 0 40 7 256 0 5 2015-08-19T20:17:19Z
Cyprid 493330649 2015-08-19 20:17:29 14.96 0 15.0 127.89 15.03 0 2 0 5.0 0 36 -42 207 0 0 2015-08-19T20:17:29Z
Cyprid 493330659 2015-08-19 20:17:39 15.14 0 15.0 127.89 15.03 0 2 0 5.0 0 29 -69 81 0 5 2015-08-19T20:17:39Z
Cyprid 493330669 2015-08-19 20:17:49 15.03 0 15.0 127.89 15.03 0 1 0 5.0 0 44 -14 -87 5 0 2015-08-19T20:17:49Z
Cyprid 493330679 2015-08-19 20:17:59 14.94 0 15.0 127.89 15.03 0 2 0 5.0 0 12 -64 -37 1 0 2015-08-19T20:17:59Z
Cyprid 493330689 2015-08-19 20:18:09 14.97 0 15.0 127.89 15.03 0 2 0 5.0 0 18 -75 32 0 2 2015-08-19T20:18:09Z
Cyprid 493330700 2015-08-19 20:18:20 15.01 0 15.0 127.89 15.03 0 2 0 5.0 0 30 -41 13 0 0 2015-08-19T20:18:20Z
Cyprid 493330710 2015-08-19 20:18:30 15.05 0 15.0 127.89 15.04 0 2 0 5.0 0 40 -53 -41 0 2 2015-08-19T20:18:30Z
Cyprid 493330720 2015-08-19 20:18:40 14.96 0 15.0 127.89 15.03 0 2 0 5.0 0 17 -18 -72 5 0 2015-08-19T20:18:40Z
Cyprid 493330730 2015-08-19 20:18:50 14.96 0 15.0 127.89 15.03 0 2 0 5.0 0 34 -26 15 0 3 2015-08-19T20:18:50Z
Cyprid 493330740 2015-08-19 20:19:00 15.01 0 15.0 127.89 15.04 0 2 0 5.0 0 28 -49 3 0 0 2015-08-19T20:19:00Z
Cyprid 493330750 2015-08-19 20:19:10 14.92 0 15.0 127.89 15.04 0 2 0 5.0 0 25 -74 52 4 0 2015-08-19T20:19:10Z
Cyprid 493330760 2015-08-19 20:19:20 14.88 0 15.0 127.89 15.04 0 2 0 5.0 0 32 -70 170 0 2 2015-08-19T20:19:20Z
Cyprid 493330770 2015-08-19 20:19:30 14.9 0 15.0 127.89 15.03 0 2 0 5.0 0 -5 -41 192 0 0 2015-08-19T20:19:30Z
Cyprid 493330780 2015-08-19 20:19:40 15.03 0 15.0 127.89 15.03 0 2 0 5.0 0 -29 -11 118 0 5 2015-08-19T20:19:40Z
Cyprid 493330790 2015-08-19 20:19:50 14.94 0 15.0 127.89 15.04 0 2 0 5.0 0 40 -53 43 5 0 2015-08-19T20:19:50Z
Cyprid 493330800 2015-08-19 20:20:00 14.86 0 15.0 127.89 15.04 0 2 0 5.0 0 11 -15 195 3 0 2015-08-19T20:20:00Z
Cyprid 493330810 2015-08-19 20:20:10 15.04 0 15.0 127.89 15.04 0 2 0 5.0 0 8 -87 363 0 5 2015-08-19T20:20:10Z
Cyprid 493330820 2015-08-19 20:20:20 15.11 0 15.0 127.89 15.03 0 2 0 5.0 0 24 -30 265 0 3 2015-08-19T20:20:20Z
Cyprid 493330830 2015-08-19 20:20:30 15.06 0 15.0 127.89 15.03 0 2 0 5.0 0 18 -54 181 5 0 2015-08-19T20:20:30Z
Cyprid 493330840 2015-08-19 20:20:40 15.16 0 15.0 127.89 15.03 0 2 0 5.0 0 13 22 215 0 5 2015-08-19T20:20:40Z
Cyprid 493330850 2015-08-19 20:20:50 15.21 0 15.0 127.89 15.04 0 2 0 5.0 0 12 21 72 0 2 2015-08-19T20:20:50Z
Cyprid 493330860 2015-08-19 20:21:00 15.2 0 15.0 127.89 15.02 0 2 0 5.0 0 14 -91 -129 1 0 2015-08-19T20:21:00Z
Cyprid 493330870 2015-08-19 20:21:10 15.09 0 15.0 127.89 15.03 0 2 0 5.0 0 9 -91 -124 4 0 2015-08-19T20:21:10Z
Cyprid 493330880 2015-08-19 20:21:20 15.03 0 15.0 127.89 15.03 0 2 0 5.0 0 15 -15 12 0 1 2015-08-19T20:21:20Z
Cyprid 493330890 2015-08-19 20:21:30 15.11 0 15.0 127.89 15.03 0 2 0 5.0 0 36 -23 25 0 3 2015-08-19T20:21:30Z
Cyprid 493330900 2015-08-19 20:21:40 14.98 0 15.0 127.89 15.03 0 2 0 5.0 0 31 -15 5 5 0 2015-08-19T20:21:40Z
Cyprid 493330910 2015-08-19 20:21:50 14.96 0 15.0 127.89 15.03 0 2 0 5.0 0 29 -86 98 0 1 2015-08-19T20:21:50Z
Cyprid 493330920 2015-08-19 20:22:00 14.95 0 15.0 127.89 15.03 0 2 0 5.0 0 30 3 172 1 0 2015-08-19T20:22:00Z
Cyprid 493330930 2015-08-19 20:22:10 14.88 0 15.0 127.89 15.03 0 2 0 5.0 0 36 3 275 2 0 2015-08-19T20:22:10Z
Cyprid 493330940 2015-08-19 20:22:20 14.94 0 15.0 127.89 15.03 0 2 0 5.0 0 3 -52 323 0 4 2015-08-19T20:22:20Z
Cyprid 493330950 2015-08-19 20:22:30 15.0 0 15.0 127.89 15.03 0 2 0 5.0 0 30 -41 249 0 0 2015-08-19T20:22:30Z
Cyprid 493330960 2015-08-19 20:22:40 14.95 0 15.0 127.89 15.02 0 2 0 5.0 0 26 -77 270 4 0 2015-08-19T20:22:40Z
Cyprid 493330970 2015-08-19 20:22:50 14.97 0 15.0 127.89 15.03 0 1 0 5.0 0 26 -38 393 0 5 2015-08-19T20:22:50Z
Cyprid 493330980 2015-08-19 20:23:00 15.08 0 15.0 127.89 15.03 0 1 0 5.0 0 26 -49 304 0 0 2015-08-19T20:23:00Z
Cyprid 493330990 2015-08-19 20:23:10 15.14 0 15.0 127.89 15.02 0 1 0 5.0 0 30 -43 182 0 3 2015-08-19T20:23:10Z
Cyprid 493331000 2015-08-19 20:23:20 15.0 0 15.0 127.89 15.02 0 1 0 5.0 0 10 -35 71 5 0 2015-08-19T20:23:20Z
Cyprid 493331010 2015-08-19 20:23:30 15.08 0 15.0 127.89 15.01 0 1 0 5.0 0 31 -68 88 0 5 2015-08-19T20:23:30Z
Cyprid 493331020 2015-08-19 20:23:40 15.08 0 15.0 127.89 15.01 0 1 0 5.0 0 21 -36 54 5 0 2015-08-19T20:23:40Z
Cyprid 493331030 2015-08-19 20:23:50 15.01 0 15.0 127.89 15.0 0 1 0 5.0 0 59 -49 139 0 1 2015-08-19T20:23:50Z
Cyprid 493331040 2015-08-19 20:24:00 15.03 0 15.0 127.89 15.01 0 1 0 5.0 0 37 -31 182 0 0 2015-08-19T20:24:00Z
Cyprid 493331050 2015-08-19 20:24:10 15.19 0 15.0 127.89 14.99 0 1 0 5.0 0 28 -35 142 0 5 2015-08-19T20:24:10Z
Cyprid 493331060 2015-08-19 20:24:20 15.19 0 15.0 127.89 15.0 0 1 0 5.0 0 29 -16 1 1 0 2015-08-19T20:24:20Z
Cyprid 493331070 2015-08-19 20:24:30 15.04 0 15.0 127.89 15.0 0 1 0 5.0 0 17 -10 -15 5 0 2015-08-19T20:24:30Z
Cyprid 493331080 2015-08-19 20:24:40 15.1 0 15.0 127.89 15.0 0 1 0 5.0 0 19 -69 54 0 5 2015-08-19T20:24:40Z
Cyprid 493331090 2015-08-19 20:24:50 14.99 0 15.0 127.89 15.0 0 1 0 5.0 0 -14 -37 40 5 0 2015-08-19T20:24:50Z
Cyprid 493331100 2015-08-19 20:25:00 14.95 0 15.0 127.89 15.0 0 2 0 5.0 0 26 -41 137 0 0 2015-08-19T20:25:00Z
Cyprid 493331110 2015-08-19 20:25:10 15.07 0 15.0 127.89 15.0 0 2 0 5.0 0 27 -66 170 0 5 2015-08-19T20:25:10Z
Cyprid 493331120 2015-08-19 20:25:20 15.06 0 15.0 127.89 15.0 0 1 0 5.0 0 -10 -48 99 4 0 2015-08-19T20:25:20Z
Cyprid 493331130 2015-08-19 20:25:30 15.03 0 15.0 127.89 15.01 0 1 0 5.0 0 36 -64 134 0 2 2015-08-19T20:25:30Z
Cyprid 493331140 2015-08-19 20:25:40 15.03 0 15.0 127.89 15.01 0 1 0 5.0 0 39 -39 112 1 0 2015-08-19T20:25:40Z
Cyprid 493331150 2015-08-19 20:25:50 15.05 0 15.0 127.89 15.01 0 2 0 5.0 0 71 -9 113 0 1 2015-08-19T20:25:50Z
Cyprid 493331160 2015-08-19 20:26:00 15.09 0 15.0 127.89 15.0 0 1 0 5.0 0 2 -61 68 0 1 2015-08-19T20:26:00Z
Cyprid 493331171 2015-08-19 20:26:11 14.99 0 15.0 127.89 15.0 0 1 0 5.0 0 3 -62 73 5 0 2015-08-19T20:26:11Z
Cyprid 493331181 2015-08-19 20:26:21 14.95 0 15.0 127.89 15.0 0 2 0 5.0 0 -4 -25 179 0 3 2015-08-19T20:26:21Z
Cyprid 493331191 2015-08-19 20:26:31 15.16 0 15.0 127.89 15.01 0 1 0 5.0 0 42 -54 96 0 5 2015-08-19T20:26:31Z
Cyprid 493331201 2015-08-19 20:26:41 15.06 0 15.0 127.89 15.01 0 1 0 5.0 0 22 0 -33 5 0 2015-08-19T20:26:41Z
Cyprid 493331211 2015-08-19 20:26:51 14.99 0 15.0 127.89 15.0 0 2 0 5.0 0 36 -31 11 0 0 2015-08-19T20:26:51Z
Cyprid 493331221 2015-08-19 20:27:01 14.97 0 15.0 127.89 15.01 0 1 0 5.0 0 18 -24 55 0 0 2015-08-19T20:27:01Z
Cyprid 493331231 2015-08-19 20:27:11 15.04 0 15.0 127.89 15.0 0 1 0 5.0 0 6 -21 62 0 2 2015-08-19T20:27:11Z
Cyprid 493331241 2015-08-19 20:27:21 14.96 0 15.0 127.89 15.01 0 1 0 5.0 0 2 -64 70 5 0 2015-08-19T20:27:21Z
Cyprid 493331251 2015-08-19 20:27:31 14.89 0 15.0 127.89 15.0 0 1 0 5.0 0 -15 -20 191 0 1 2015-08-19T20:27:31Z
Cyprid 493331261 2015-08-19 20:27:41 15.02 0 15.0 127.89 15.01 0 1 0 5.0 0 17 -54 189 0 5 2015-08-19T20:27:41Z
Cyprid 493331271 2015-08-19 20:27:51 15.09 0 15.0 127.89 15.01 0 2 0 5.0 0 39 -27 61 0 0 2015-08-19T20:27:51Z
Cyprid 493331281 2015-08-19 20:28:01 15.13 0 15.0 127.89 15.01 0 1 0 5.0 0 29 -35 -78 0 0 2015-08-19T20:28:01Z
Cyprid 493331291 2015-08-19 20:28:11 14.95 0 15.0 127.89 15.01 0 1 0 5.0 0 36 -29 -89 5 0 2015-08-19T20:28:11Z
Cyprid 493331301 2015-08-19 20:28:21 14.81 0 15.0 127.89 15.02 0 2 0 5.0 0 16 22 116 4 0 2015-08-19T20:28:21Z
Cyprid 493331311 2015-08-19 20:28:31 15.04 0 15.0 127.89 15.02 0 2 0 5.0 0 23 -75 375 0 5 2015-08-19T20:28:31Z
Cyprid 493331321 2015-08-19 20:28:41 15.18 0 15.0 127.89 15.01 0 1 0 5.0 0 54 -19 247 0 5 2015-08-19T20:28:41Z
Cyprid 493331331 2015-08-19 20:28:51 15.06 0 15.0 127.89 15.01 0 1 0 5.0 0 3 -60 110 5 0 2015-08-19T20:28:51Z
Cyprid 493331341 2015-08-19 20:29:01 15.08 0 15.0 127.89 15.0 0 1 0 5.0 0 37 -5 96 0 5 2015-08-19T20:29:01Z
Cyprid 493331351 2015-08-19 20:29:11 15.01 0 15.0 127.89 15.01 0 1 0 5.0 0 5 -44 -16 5 0 2015-08-19T20:29:11Z
Cyprid 493331361 2015-08-19 20:29:21 15.01 0 15.0 127.89 15.01 0 1 0 5.0 0 17 -84 31 0 4 2015-08-19T20:29:21Z
Cyprid 493331371 2015-08-19 20:29:31 15.03 0 15.0 127.89 15.0 0 1 0 5.0 0 23 -61 -29 2 0 2015-08-19T20:29:31Z
Cyprid 493331381 2015-08-19 20:29:41 15.06 0 15.0 127.89 15.0 0 1 0 5.0 0 21 -56 -35 0 2 2015-08-19T20:29:41Z
Cyprid 493331391 2015-08-19 20:29:51 15.04 0 15.0 127.89 15.0 0 2 0 5.0 0 30 -48 -95 2 0 2015-08-19T20:29:51Z
Cyprid 493331401 2015-08-19 20:30:01 14.98 0 15.0 127.89 15.01 0 1 0 5.0 0 36 20 -33 1 0 2015-08-19T20:30:01Z
Cyprid 493331411 2015-08-19 20:30:11 14.95 0 15.0 127.89 15.01 0 2 0 5.0 0 30 -28 15 0 0 2015-08-19T20:30:11Z
Cyprid 493331421 2015-08-19 20:30:21 14.92 0 15.0 127.89 15.0 0 2 0 5.0 0 16 -29 61 1 0 2015-08-19T20:30:21Z
Cyprid 493331431 2015-08-19 20:30:31 14.94 0 15.0 127.89 15.0 0 2 0 5.0 0 3 26 122 0 1 2015-08-19T20:30:31Z
Cyprid 493331441 2015-08-19 20:30:41 14.99 0 15.0 127.89 15.01 0 2 0 5.0 0 45 13 99 0 2 2015-08-19T20:30:41Z
Cyprid 493331451 2015-08-19 20:30:51 14.95 0 15.0 127.89 15.01 0 1 0 5.0 0 13 -4 76 4 0 2015-08-19T20:30:51Z
Cyprid 493331461 2015-08-19 20:31:01 14.89 0 15.0 127.89 15.02 0 1 0 5.0 0 3 -37 154 0 0 2015-08-19T20:31:01Z
Cyprid 493331471 2015-08-19 20:31:11 14.95 0 15.0 127.89 15.0 0 1 0 5.0 0 35 -46 193 0 3 2015-08-19T20:31:11Z
Cyprid 493331481 2015-08-19 20:31:21 15.07 0 15.0 127.89 15.01 0 1 0 5.0 0 25 -34 79 0 3 2015-08-19T20:31:21Z
Cyprid 493331491 2015-08-19 20:31:31 15.03 0 15.0 127.89 15.01 0 1 0 5.0 0 29 -46 0 5 0 2015-08-19T20:31:31Z
Cyprid 493331501 2015-08-19 20:31:41 15.01 0 15.0 127.89 15.01 0 1 0 5.0 0 5 -55 58 0 4 2015-08-19T20:31:41Z
Cyprid 493331511 2015-08-19 20:31:51 15.05 0 15.0 127.89 15.01 0 1 0 5.0 0 2 -30 18 1 0 2015-08-19T20:31:51Z
Cyprid 493331521 2015-08-19 20:32:01 14.98 0 15.0 127.89 15.01 0 1 0 5.0 0 39 -84 64 3 0 2015-08-19T20:32:01Z
Cyprid 493331531 2015-08-19 20:32:11 14.96 0 15.0 127.89 15.01 0 1 0 5.0 0 25 -83 140 0 2 2015-08-19T20:32:11Z
Cyprid 493331541 2015-08-19 20:32:21 15.05 0 15.0 127.89 15.0 0 1 0 5.0 0 10 -43 149 0 3 2015-08-19T20:32:21Z
Cyprid 493331551 2015-08-19 20:32:31 15.03 0 15.0 127.89 15.0 0 1 0 5.0 0 25 -2 117 4 0 2015-08-19T20:32:31Z
Cyprid 493331561 2015-08-19 20:32:41 14.9 0 15.0 127.89 15.01 0 1 0 5.0 0 -11 -62 240 3 0 2015-08-19T20:32:41Z
Cyprid 493331571 2015-08-19 20:32:51 15.08 0 15.0 127.89 15.0 0 1 0 5.0 0 29 -12 395 0 5 2015-08-19T20:32:51Z
Cyprid 493331581 2015-08-19 20:33:01 15.15 0 15.0 127.89 15.0 0 1 0 5.0 0 14 -49 213 0 5 2015-08-19T20:33:01Z
Cyprid 493331591 2015-08-19 20:33:11 15.17 0 15.0 127.89 15.0 0 1 0 5.0 0 23 -7 -7 3 0 2015-08-19T20:33:11Z
Cyprid 493331601 2015-08-19 20:33:21 15.23 0 15.0 127.89 15.0 0 1 0 5.0 0 17 -43 -161 0 5 2015-08-19T20:33:21Z
Cyprid 493331611 2015-08-19 20:33:31 15.18 0 15.0 127.89 15.0 0 1 0 5.0 0 14 -2 -278 5 0 2015-08-19T20:33:31Z
Cyprid 493331621 2015-08-19 20:33:41 15.08 0 15.0 127.89 15.0 0 1 0 5.0 0 14 -96 -183 1 0 2015-08-19T20:33:41Z
Cyprid 493331631 2015-08-19 20:33:51 14.96 0 15.0 127.89 15.01 0 2 0 5.0 0 17 -72 -26 4 0 2015-08-19T20:33:51Z
Cyprid 493331641 2015-08-19 20:34:01 14.99 0 15.0 127.89 15.0 0 2 0 5.0 0 28 12 109 0 5 2015-08-19T20:34:01Z
Cyprid 493331652 2015-08-19 20:34:12 14.93 0 15.0 127.89 15.0 0 2 0 5.0 0 31 -29 119 5 0 2015-08-19T20:34:12Z
Cyprid 493331662 2015-08-19 20:34:22 14.95 0 15.0 127.89 15.01 0 2 0 5.0 0 42 -16 189 0 4 2015-08-19T20:34:22Z
Cyprid 493331672 2015-08-19 20:34:32 15.0 0 15.0 127.89 15.01 0 2 0 5.0 0 47 -47 146 1 0 2015-08-19T20:34:32Z
Cyprid 493331682 2015-08-19 20:34:42 14.88 0 15.0 127.89 15.01 0 2 0 5.0 0 24 -48 211 5 0 2015-08-19T20:34:42Z
Cyprid 493331692 2015-08-19 20:34:52 14.93 0 15.0 127.89 15.01 0 2 0 5.0 0 30 -3 354 0 5 2015-08-19T20:34:52Z
Cyprid 493331702 2015-08-19 20:35:02 15.14 0 15.0 127.89 15.0 0 1 0 5.0 0 22 -63 193 0 5 2015-08-19T20:35:02Z
Cyprid 493331712 2015-08-19 20:35:12 15.0 0 15.0 127.89 15.0 0 1 0 5.0 0 -2 -18 0 5 0 2015-08-19T20:35:12Z
Cyprid 493331722 2015-08-19 20:35:22 14.85 0 15.0 127.89 15.0 0 1 0 5.0 0 25 -84 109 5 0 2015-08-19T20:35:22Z
Cyprid 493331732 2015-08-19 20:35:32 14.93 0 15.0 127.89 15.0 0 1 0 5.0 0 31 -33 306 0 5 2015-08-19T20:35:32Z
Cyprid 493331742 2015-08-19 20:35:42 15.12 0 15.0 127.89 15.0 0 1 0 5.0 0 29 -54 165 0 5 2015-08-19T20:35:42Z
Cyprid 493331752 2015-08-19 20:35:52 14.96 0 15.0 127.89 15.0 0 1 0 5.0 0 -14 3 -16 5 0 2015-08-19T20:35:52Z
Cyprid 493331762 2015-08-19 20:36:02 14.88 0 15.0 127.89 14.99 0 1 0 5.0 0 19 -27 86 4 0 2015-08-19T20:36:02Z
Cyprid 493331773 2015-08-19 20:36:13 15.01 0 15.0 127.89 15.0 0 1 0 5.0 0 10 -11 282 0 5 2015-08-19T20:36:13Z
Cyprid 493331783 2015-08-19 20:36:23 15.12 0 15.0 127.89 14.99 0 1 0 5.0 0 -15 4 171 0 4 2015-08-19T20:36:23Z
Cyprid 493331793 2015-08-19 20:36:33 15.13 0 15.0 127.89 14.99 0 1 0 5.0 0 25 0 39 4 0 2015-08-19T20:36:33Z
Cyprid 493331803 2015-08-19 20:36:43 14.99 0 15.0 127.89 14.98 0 1 0 5.0 0 22 -31 101 3 0 2015-08-19T20:36:43Z
Cyprid 493331813 2015-08-19 20:36:53 15.08 0 15.0 127.89 14.97 0 1 0 5.0 0 28 -3 190 0 5 2015-08-19T20:36:53Z
Cyprid 493331823 2015-08-19 20:37:03 15.13 0 15.0 127.89 14.98 0 1 0 5.0 0 33 -45 101 0 0 2015-08-19T20:37:03Z
Cyprid 493331833 2015-08-19 20:37:13 15.11 0 15.0 127.89 14.96 0 1 0 5.0 0 15 -35 8 0 0 2015-08-19T20:37:13Z
Cyprid 493331843 2015-08-19 20:37:23 14.98 0 15.0 127.89 14.97 0 1 0 5.0 0 37 -55 44 5 0 2015-08-19T20:37:23Z
Cyprid 493331853 2015-08-19 20:37:33 15.02 0 15.0 127.89 14.97 0 1 0 5.0 0 15 -73 181 0 5 2015-08-19T20:37:33Z
Cyprid 493331863 2015-08-19 20:37:43 15.0 0 15.0 127.89 14.98 0 1 0 5.0 0 3 -103 184 4 0 2015-08-19T20:37:43Z
Cyprid 493331873 2015-08-19 20:37:53 15.0 0 15.0 127.89 14.97 0 1 0 5.0 0 -4 -51 242 0 3 2015-08-19T20:37:53Z
Cyprid 493331883 2015-08-19 20:38:03 15.02 0 15.0 127.89 14.97 0 1 0 5.0 0 1 -54 197 1 0 2015-08-19T20:38:03Z
Cyprid 493331893 2015-08-19 20:38:13 14.99 0 15.0 127.89 14.97 0 1 0 5.0 0 23 -54 207 0 0 2015-08-19T20:38:13Z
Cyprid 493331903 2015-08-19 20:38:23 15.04 0 15.0 127.89 14.96 0 1 0 5.0 0 -7 -25 187 0 1 2015-08-19T20:38:23Z
Cyprid 493331913 2015-08-19 20:38:33 15.11 0 15.0 127.89 14.94 0 1 0 5.0 0 56 -27 94 0 3 2015-08-19T20:38:33Z
Cyprid 493331923 2015-08-19 20:38:43 15.12 0 15.0 127.89 14.94 0 1 0 5.0 0 18 -56 -28 2 0 2015-08-19T20:38:43Z
Cyprid 493331933 2015-08-19 20:38:53 15.13 0 15.0 127.89 14.93 0 1 0 35.54 0 5 21 -55 0 1 2015-08-19T20:38:53Z
Cyprid 493331943 2015-08-19 20:39:03 15.07 0 15.0 127.89 14.93 0 1 0 5.0 0 25 0 -74 2 0 2015-08-19T20:39:03Z
Cyprid 493331953 2015-08-19 20:39:13 14.99 0 15.0 127.89 14.94 0 1 0 5.0 0 0 -88 -9 1 0 2015-08-19T20:39:13Z
Cyprid 493331963 2015-08-19 20:39:23 15.04 0 15.0 127.89 14.94 0 1 0 5.0 0 -9 -28 35 0 3 2015-08-19T20:39:23Z
Cyprid 493331973 2015-08-19 20:39:33 14.98 0 15.0 127.89 14.95 0 1 0 5.0 0 2 -63 48 5 0 2015-08-19T20:39:33Z
Cyprid 493331983 2015-08-19 20:39:43 14.85 0 15.0 127.89 14.96 0 1 0 5.0 0 25 -3 207 1 0 2015-08-19T20:39:43Z
Cyprid 493331993 2015-08-19 20:39:53 14.97 0 15.0 127.89 14.97 0 1 0 5.0 0 11 -67 290 0 5 2015-08-19T20:39:53Z
Cyprid 493332003 2015-08-19 20:40:03 15.0 0 15.0 127.89 14.96 0 1 0 5.0 0 22 -60 198 2 0 2015-08-19T20:40:03Z
Cyprid 493332013 2015-08-19 20:40:13 15.09 0 15.0 127.89 14.94 0 1 0 5.0 0 4 -60 99 0 5 2015-08-19T20:40:13Z
Cyprid 493332023 2015-08-19 20:40:23 15.04 0 15.0 127.89 14.93 0 1 0 5.0 0 31 -69 3 5 0 2015-08-19T20:40:23Z
Cyprid 493332033 2015-08-19 20:40:33 14.98 0 15.0 127.89 14.93 0 1 0 5.0 0 28 -37 95 0 0 2015-08-19T20:40:33Z
Cyprid 493332043 2015-08-19 20:40:43 15.09 0 15.0 127.89 14.93 0 1 0 5.0 0 2 -90 106 0 5 2015-08-19T20:40:43Z
Cyprid 493332053 2015-08-19 20:40:53 15.12 0 15.0 127.89 14.92 0 1 0 5.0 0 10 -87 -3 2 0 2015-08-19T20:40:53Z
Cyprid 493332063 2015-08-19 20:41:03 15.09 0 15.0 127.89 14.91 0 1 0 5.0 0 27 -26 -10 0 0 2015-08-19T20:41:03Z
Cyprid 493332073 2015-08-19 20:41:13 15.05 0 15.0 127.89 14.91 0 1 0 5.0 0 30 5 3 1 0 2015-08-19T20:41:13Z
Cyprid 493332083 2015-08-19 20:41:23 15.02 0 15.0 127.89 14.92 0 1 0 5.0 0 23 -23 25 0 0 2015-08-19T20:41:23Z
Cyprid 493332093 2015-08-19 20:41:33 15.03 0 15.0 127.89 14.93 0 1 0 5.0 0 23 -33 49 0 0 2015-08-19T20:41:33Z
Cyprid 493332103 2015-08-19 20:41:43 15.0 0 15.0 127.89 14.93 0 1 0 5.0 0 19 -24 77 1 0 2015-08-19T20:41:43Z
Cyprid 493332113 2015-08-19 20:41:53 14.96 0 15.0 127.89 14.94 0 1 0 5.0 0 18 -80 138 1 0 2015-08-19T20:41:53Z
Cyprid 493332123 2015-08-19 20:42:03 14.98 0 15.0 127.89 14.93 0 1 0 5.0 0 17 -4 201 0 2 2015-08-19T20:42:03Z
Cyprid 493332134 2015-08-19 20:42:14 15.05 0 15.0 127.89 14.93 0 1 0 5.0 0 49 -65 150 0 1 2015-08-19T20:42:14Z
Cyprid 493332144 2015-08-19 20:42:24 15.09 0 15.0 127.89 14.92 0 1 0 5.0 0 -10 -6 60 0 1 2015-08-19T20:42:24Z
Cyprid 493332154 2015-08-19 20:42:34 15.06 0 15.0 127.89 14.91 0 1 0 5.0 0 12 -11 -8 2 0 2015-08-19T20:42:34Z
Cyprid 493332164 2015-08-19 20:42:44 14.99 0 15.0 127.89 14.91 0 1 0 5.0 0 20 -23 45 2 0 2015-08-19T20:42:44Z
Cyprid 493332174 2015-08-19 20:42:54 15.07 0 15.0 127.89 14.91 0 1 0 5.0 0 32 -62 64 0 5 2015-08-19T20:42:54Z
Cyprid 493332184 2015-08-19 20:43:04 15.13 0 15.0 127.89 14.92 0 1 0 5.0 0 15 -22 -49 0 0 2015-08-19T20:43:04Z
Cyprid 493332194 2015-08-19 20:43:14 14.91 0 15.0 127.89 14.91 0 1 0 5.0 0 15 -25 -86 5 0 2015-08-19T20:43:14Z
Cyprid 493332204 2015-08-19 20:43:24 14.94 0 15.0 127.89 14.93 0 1 0 5.0 0 64 -56 45 0 1 2015-08-19T20:43:24Z
Cyprid 493332214 2015-08-19 20:43:34 15.03 0 15.0 127.89 14.93 0 1 0 5.0 0 10 -46 70 0 3 2015-08-19T20:43:34Z
Cyprid 493332224 2015-08-19 20:43:44 15.03 0 15.0 127.89 14.93 0 1 0 5.0 0 14 26 37 2 0 2015-08-19T20:43:44Z
Cyprid 493332234 2015-08-19 20:43:54 14.99 0 15.0 127.89 14.94 0 1 0 5.0 0 -3 -60 74 1 0 2015-08-19T20:43:54Z
Cyprid 493332244 2015-08-19 20:44:04 15.03 0 15.0 127.89 14.94 0 1 0 5.0 0 -12 -47 94 0 3 2015-08-19T20:44:04Z
Cyprid 493332255 2015-08-19 20:44:15 14.96 0 15.0 127.89 14.95 0 1 0 5.0 0 38 -67 90 5 0 2015-08-19T20:44:15Z
Cyprid 493332265 2015-08-19 20:44:25 15.03 0 15.0 127.89 14.95 0 1 0 5.0 0 32 -30 158 0 5 2015-08-19T20:44:25Z
Cyprid 493332275 2015-08-19 20:44:35 15.09 0 15.0 127.89 14.95 0 1 0 5.0 0 25 -18 73 0 0 2015-08-19T20:44:35Z
Cyprid 493332285 2015-08-19 20:44:45 15.04 0 15.0 127.89 14.95 0 1 0 5.0 0 4 8 20 2 0 2015-08-19T20:44:45Z
Cyprid 493332295 2015-08-19 20:44:55 14.92 0 15.0 127.89 14.94 0 1 0 5.0 0 -16 12 95 3 0 2015-08-19T20:44:55Z
Cyprid 493332305 2015-08-19 20:45:05 14.94 0 15.0 127.89 14.95 0 1 0 5.0 0 -10 -22 232 0 4 2015-08-19T20:45:05Z
Cyprid 493332315 2015-08-19 20:45:15 14.97 0 15.0 127.89 14.94 0 1 0 5.0 0 16 -15 220 2 0 2015-08-19T20:45:15Z
Cyprid 493332325 2015-08-19 20:45:25 15.11 0 15.0 127.89 14.93 0 1 0 5.0 0 11 -96 170 0 5 2015-08-19T20:45:25Z
Cyprid 493332335 2015-08-19 20:45:35 15.09 0 15.0 127.89 14.92 0 1 0 5.0 0 31 -23 65 3 0 2015-08-19T20:45:35Z
Cyprid 493332345 2015-08-19 20:45:45 15.0 0 15.0 127.89 14.91 0 1 0 5.0 0 19 -26 79 1 0 2015-08-19T20:45:45Z
Cyprid 493332355 2015-08-19 20:45:55 15.04 0 15.0 127.89 14.91 0 1 0 5.0 0 35 -35 82 0 3 2015-08-19T20:45:55Z
Cyprid 493332365 2015-08-19 20:46:05 15.02 0 15.0 127.89 14.91 0 1 0 5.0 0 39 -11 67 4 0 2015-08-19T20:46:05Z
Cyprid 493332376 2015-08-19 20:46:16 14.98 0 15.0 127.89 14.9 0 1 0 5.0 0 -7 -10 113 0 2 2015-08-19T20:46:16Z
Cyprid 493332386 2015-08-19 20:46:26 14.97 0 15.0 127.89 14.9 0 1 0 5.0 0 0 -83 112 1 0 2015-08-19T20:46:26Z
Cyprid 493332396 2015-08-19 20:46:36 15.01 0 15.0 127.89 14.9 0 1 0 5.0 0 7 -86 104 0 2 2015-08-19T20:46:36Z
Cyprid 493332406 2015-08-19 20:46:46 14.96 0 15.0 127.89 14.89 0 1 0 5.0 0 20 -75 106 4 0 2015-08-19T20:46:46Z
Cyprid 493332416 2015-08-19 20:46:56 14.95 0 15.0 127.89 14.89 0 1 0 5.0 0 28 -11 172 0 3 2015-08-19T20:46:56Z
Cyprid 493332426 2015-08-19 20:47:06 15.02 0 15.0 127.89 14.9 0 1 0 5.0 0 33 -63 103 0 1 2015-08-19T20:47:06Z
Cyprid 493332436 2015-08-19 20:47:16 15.17 0 15.0 127.89 14.89 0 1 0 5.0 0 38 -25 -47 0 5 2015-08-19T20:47:16Z
Cyprid 493332446 2015-08-19 20:47:26 15.16 0 15.0 127.89 14.89 0 1 0 5.0 0 31 -67 -220 5 0 2015-08-19T20:47:26Z
Cyprid 493332456 2015-08-19 20:47:36 14.96 0 15.0 127.89 14.9 0 1 0 5.0 0 5 -60 -36 5 0 2015-08-19T20:47:36Z
Cyprid 493332466 2015-08-19 20:47:46 14.91 0 15.0 127.89 14.9 0 1 0 5.0 0 29 -98 195 0 4 2015-08-19T20:47:46Z
Cyprid 493332476 2015-08-19 20:47:56 14.88 0 15.0 127.89 14.91 0 1 0 5.0 0 5 -65 271 4 0 2015-08-19T20:47:56Z
Cyprid 493332486 2015-08-19 20:48:06 14.91 0 15.0 127.89 14.92 0 1 0 5.0 0 64 -44 352 0 4 2015-08-19T20:48:06Z
Cyprid 493332497 2015-08-19 20:48:17 15.03 0 15.0 127.89 14.9 0 1 0 5.0 0 15 -17 255 0 1 2015-08-19T20:48:17Z
Cyprid 493332507 2015-08-19 20:48:27 15.07 0 15.0 127.89 14.89 0 1 0 5.0 0 9 -53 183 0 0 2015-08-19T20:48:27Z
Cyprid 493332517 2015-08-19 20:48:37 15.2 0 15.0 127.89 14.88 0 1 0 5.0 0 21 -60 49 0 5 2015-08-19T20:48:37Z
Cyprid 493332527 2015-08-19 20:48:47 15.1 0 15.0 127.89 14.88 0 1 0 5.0 0 0 -13 -160 5 0 2015-08-19T20:48:47Z
Cyprid 493332537 2015-08-19 20:48:57 14.94 0 15.0 127.89 14.87 0 1 0 5.0 0 17 -46 -16 5 0 2015-08-19T20:48:57Z
Cyprid 493332547 2015-08-19 20:49:07 14.93 0 15.0 127.89 14.87 0 1 0 5.0 0 32 -4 200 0 5 2015-08-19T20:49:07Z
Cyprid 493332557 2015-08-19 20:49:17 15.01 0 15.0 127.89 14.88 0 1 0 5.0 0 22 -45 172 0 0 2015-08-19T20:49:17Z
Cyprid 493332567 2015-08-19 20:49:27 15.01 0 15.0 127.89 14.88 0 1 0 5.0 0 -4 -83 150 1 0 2015-08-19T20:49:27Z
Cyprid 493332577 2015-08-19 20:49:37 15.1 0 15.0 127.89 14.87 0 1 0 5.0 0 7 -20 97 0 5 2015-08-19T20:49:37Z
Cyprid 493332587 2015-08-19 20:49:47 15.06 0 15.0 127.89 14.87 0 1 0 5.0 0 1 -77 -36 5 0 2015-08-19T20:49:47Z
Cyprid 493332597 2015-08-19 20:49:57 15.04 0 15.0 127.89 14.86 0 1 0 5.0 0 37 -66 -13 0 2 2015-08-19T20:49:57Z
Cyprid 493332607 2015-08-19 20:50:07 14.78 0 15.0 127.89 14.86 0 1 0 5.0 0 16 -2 21 5 0 2015-08-19T20:50:07Z
Cyprid 493332617 2015-08-19 20:50:17 14.8 0 15.0 127.89 14.86 0 2 0 5.0 0 8 -117 200 1 0 2015-08-19T20:50:17Z
Cyprid 493332627 2015-08-19 20:50:27 14.95 0 15.0 127.89 14.86 0 1 0 5.0 0 -4 -46 348 0 5 2015-08-19T20:50:27Z
Cyprid 493332637 2015-08-19 20:50:37 14.98 0 15.0 127.89 14.85 0 1 0 5.0 0 26 2 256 2 0 2015-08-19T20:50:37Z
Cyprid 493332647 2015-08-19 20:50:47 14.98 0 15.0 127.89 14.84 0 1 0 5.0 0 54 -95 228 0 1 2015-08-19T20:50:47Z
Cyprid 493332657 2015-08-19 20:50:57 14.94 0 15.0 127.89 14.83 0 1 0 5.0 0 -4 -86 213 2 0 2015-08-19T20:50:57Z
Cyprid 493332667 2015-08-19 20:51:07 14.99 0 15.0 127.89 14.82 0 1 0 5.0 0 23 -90 219 0 4 2015-08-19T20:51:07Z
Cyprid 493332677 2015-08-19 20:51:17 15.2 0 15.0 127.89 14.8 0 1 0 5.0 0 34 -22 14 0 5 2015-08-19T20:51:17Z
Cyprid 493332687 2015-08-19 20:51:27 15.08 0 15.0 127.89 14.79 0 1 0 5.0 0 14 -39 -237 5 0 2015-08-19T20:51:27Z
Cyprid 493332697 2015-08-19 20:51:37 14.92 0 15.0 127.89 14.79 0 1 0 5.0 0 4 -9 -79 5 0 2015-08-19T20:51:37Z
Cyprid 493332707 2015-08-19 20:51:47 15.04 0 15.0 127.89 14.8 0 1 0 5.0 0 4 -57 75 0 5 2015-08-19T20:51:47Z
Cyprid 493332717 2015-08-19 20:51:57 15.02 0 15.0 127.89 14.8 0 1 0 5.0 0 27 -68 53 2 0 2015-08-19T20:51:57Z
Cyprid 493332727 2015-08-19 20:52:07 14.89 0 15.0 127.89 14.79 0 1 0 5.0 0 34 -91 150 4 0 2015-08-19T20:52:07Z
Cyprid 493332738 2015-08-19 20:52:18 15.04 0 15.0 127.89 14.79 0 1 0 5.0 0 23 -5 312 0 5 2015-08-19T20:52:18Z
Cyprid 493332748 2015-08-19 20:52:28 15.13 0 15.0 127.89 14.78 0 1 0 5.0 0 -14 7 146 0 4 2015-08-19T20:52:28Z
Cyprid 493332758 2015-08-19 20:52:38 15.11 0 15.0 127.89 14.78 0 1 0 5.0 0 49 -18 -34 4 0 2015-08-19T20:52:38Z
Cyprid 493332768 2015-08-19 20:52:48 15.05 0 15.0 127.89 14.78 0 1 0 5.0 0 37 -23 -28 0 0 2015-08-19T20:52:48Z
Cyprid 493332778 2015-08-19 20:52:58 15.02 0 15.0 127.89 14.78 0 1 0 5.0 0 25 -37 -6 0 0 2015-08-19T20:52:58Z
Cyprid 493332788 2015-08-19 20:53:08 15.09 0 15.0 127.89 14.78 0 1 0 5.0 0 -6 -45 -47 0 3 2015-08-19T20:53:08Z
Cyprid 493332798 2015-08-19 20:53:18 15.07 0 15.0 127.89 14.8 0 1 0 5.0 0 26 -18 -145 3 0 2015-08-19T20:53:18Z
Cyprid 493332808 2015-08-19 20:53:28 14.93 0 15.0 127.89 14.81 0 1 0 5.0 0 0 2 -28 4 0 2015-08-19T20:53:28Z
Cyprid 493332818 2015-08-19 20:53:38 14.86 0 15.0 127.89 14.81 0 1 0 5.0 0 24 -41 155 0 0 2015-08-19T20:53:38Z
Cyprid 493332828 2015-08-19 20:53:48 14.97 0 15.0 127.89 14.82 0 1 0 5.0 0 17 -69 272 0 5 2015-08-19T20:53:48Z
Cyprid 493332838 2015-08-19 20:53:58 14.94 0 15.0 127.89 14.81 0 1 0 5.0 0 41 -18 219 5 0 2015-08-19T20:53:58Z
Cyprid 493332848 2015-08-19 20:54:08 14.91 0 15.0 127.89 14.82 0 1 0 5.0 0 18 12 294 0 2 2015-08-19T20:54:08Z
Cyprid 493332859 2015-08-19 20:54:19 15.04 0 15.0 127.89 14.8 0 1 0 5.0 0 46 -67 200 0 5 2015-08-19T20:54:19Z
Cyprid 493332869 2015-08-19 20:54:29 15.17 0 15.0 127.89 14.8 0 1 0 5.0 0 34 -62 1 0 1 2015-08-19T20:54:29Z
Cyprid 493332879 2015-08-19 20:54:39 15.11 0 15.0 127.89 14.8 0 1 0 5.0 0 22 -47 -142 5 0 2015-08-19T20:54:39Z
Cyprid 493332889 2015-08-19 20:54:49 15.06 0 15.0 127.89 14.79 0 1 0 5.0 0 27 -24 -64 0 3 2015-08-19T20:54:49Z
Cyprid 493332899 2015-08-19 20:54:59 14.95 0 15.0 127.89 14.8 0 1 0 5.0 0 30 -46 -21 5 0 2015-08-19T20:54:59Z
Cyprid 493332909 2015-08-19 20:55:09 14.91 0 15.0 127.89 14.8 0 1 0 5.0 0 -6 -18 121 0 1 2015-08-19T20:55:09Z
Cyprid 493332919 2015-08-19 20:55:19 15.04 0 15.0 127.89 14.8 0 1 0 5.0 0 24 -65 131 0 5 2015-08-19T20:55:19Z
Cyprid 493332929 2015-08-19 20:55:29 15.07 0 15.0 127.89 14.81 0 1 0 5.0 0 2 -43 12 3 0 2015-08-19T20:55:29Z
Cyprid 493332939 2015-08-19 20:55:39 15.02 0 15.0 127.89 14.81 0 1 0 5.0 0 41 -36 21 0 0 2015-08-19T20:55:39Z
Cyprid 493332949 2015-08-19 20:55:49 15.09 0 15.0 127.89 14.81 0 1 0 5.0 0 1 -38 -30 0 4 2015-08-19T20:55:49Z
Cyprid 493332959 2015-08-19 20:55:59 15.04 0 15.0 127.89 14.81 0 1 0 5.0 0 45 -43 -77 5 0 2015-08-19T20:55:59Z
Cyprid 493332969 2015-08-19 20:56:09 14.94 0 15.0 127.89 14.81 0 1 0 5.0 0 35 -28 70 1 0 2015-08-19T20:56:09Z
Cyprid 493332980 2015-08-19 20:56:20 14.97 0 15.0 127.89 14.81 0 1 0 5.0 0 28 -78 229 0 2 2015-08-19T20:56:20Z
Cyprid 493332990 2015-08-19 20:56:30 15.11 0 15.0 127.89 14.81 0 1 0 5.0 0 18 2 141 0 5 2015-08-19T20:56:30Z
Cyprid 493333000 2015-08-19 20:56:40 15.08 0 15.0 127.89 14.81 0 1 0 5.0 0 20 -41 18 5 0 2015-08-19T20:56:40Z
Cyprid 493333010 2015-08-19 20:56:50 15.08 0 15.0 127.89 14.8 0 1 0 5.0 0 -20 -30 28 0 3 2015-08-19T20:56:50Z
Cyprid 493333020 2015-08-19 20:57:00 15.07 0 15.0 127.89 14.81 0 1 0 5.0 0 32 10 -25 2 0 2015-08-19T20:57:00Z
Cyprid 493333030 2015-08-19 20:57:10 15.05 0 15.0 127.89 14.82 0 1 0 5.0 0 27 -27 2 0 0 2015-08-19T20:57:10Z
Cyprid 493333040 2015-08-19 20:57:20 15.11 0 15.0 127.89 14.82 0 1 0 5.0 0 -16 -68 -43 0 4 2015-08-19T20:57:20Z
Cyprid 493333050 2015-08-19 20:57:30 15.15 0 15.0 127.89 14.82 0 1 0 5.0 0 20 -30 -141 2 0 2015-08-19T20:57:30Z
Cyprid 493333060 2015-08-19 20:57:40 15.15 0 15.0 127.89 14.83 0 1 0 5.0 0 50 -30 -159 0 1 2015-08-19T20:57:40Z
Cyprid 493333070 2015-08-19 20:57:50 14.98 0 15.0 127.89 14.84 0 1 0 5.0 0 24 -2 -115 5 0 2015-08-19T20:57:50Z
Cyprid 493333080 2015-08-19 20:58:00 14.9 0 15.0 127.89 14.85 0 1 0 5.0 0 11 -64 46 1 0 2015-08-19T20:58:00Z
Cyprid 493333090 2015-08-19 20:58:10 14.82 0 15.0 127.89 14.86 0 1 0 5.0 0 4 -86 288 2 0 2015-08-19T20:58:10Z
Cyprid 493333100 2015-08-19 20:58:20 14.9 0 15.0 127.89 14.87 0 1 0 5.0 0 18 -25 422 0 5 2015-08-19T20:58:20Z
Cyprid 493333110 2015-08-19 20:58:30 14.93 0 15.0 127.89 14.87 0 1 0 5.0 0 25 -18 350 3 0 2015-08-19T20:58:30Z
Cyprid 493333120 2015-08-19 20:58:40 15.02 0 15.0 127.89 14.86 0 1 0 5.0 0 37 -59 349 0 5 2015-08-19T20:58:40Z
Cyprid 493333130 2015-08-19 20:58:50 15.14 0 15.0 127.89 14.85 0 1 0 5.0 0 40 -33 162 0 2 2015-08-19T20:58:50Z
Cyprid 493333140 2015-08-19 20:59:00 15.18 0 15.0 127.89 14.83 0 1 0 5.0 0 44 -44 -14 0 0 2015-08-19T20:59:00Z
Cyprid 493333150 2015-08-19 20:59:10 15.22 0 15.0 127.89 14.83 0 1 0 5.0 0 -18 -24 -178 0 1 2015-08-19T20:59:10Z
Cyprid 493333160 2015-08-19 20:59:20 15.12 0 15.0 127.89 14.83 0 1 0 5.0 0 17 -67 -162 5 0 2015-08-19T20:59:20Z
Cyprid 493333170 2015-08-19 20:59:30 15.09 0 15.0 127.89 14.83 0 1 0 5.0 0 48 -61 -66 0 4 2015-08-19T20:59:30Z
Cyprid 493333180 2015-08-19 20:59:40 14.94 0 15.0 127.89 14.84 0 1 0 5.0 0 17 6 -57 5 0 2015-08-19T20:59:40Z
Cyprid 493333190 2015-08-19 20:59:50 14.88 0 15.0 127.89 14.84 0 1 0 5.0 0 35 6 104 2 0 2015-08-19T20:59:50Z
Cyprid 493333200 2015-08-19 21:00:00 15.0 0 15.0 127.89 14.85 0 1 0 5.0 0 29 -81 241 0 5 2015-08-19T21:00:00Z
Cyprid 493333212 2015-08-19 21:00:12 15.11 0 15.0 127.89 14.85 0 1 0 5.0 0 6 -74 136 0 1 2015-08-19T21:00:12Z
Cyprid 493333222 2015-08-19 21:00:22 15.07 0 15.0 127.89 14.85 0 1 0 5.0 0 -22 -28 77 3 0 2015-08-19T21:00:22Z
Cyprid 493333232 2015-08-19 21:00:32 15.15 0 15.0 127.89 14.84 0 1 0 5.0 0 14 -92 89 0 5 2015-08-19T21:00:32Z
Cyprid 493333242 2015-08-19 21:00:42 15.13 0 15.0 127.89 14.86 0 1 0 5.0 0 44 -15 3 3 0 2015-08-19T21:00:42Z
Cyprid 493333252 2015-08-19 21:00:52 14.87 0 15.0 127.89 14.84 0 1 0 5.0 0 17 -42 96 5 0 2015-08-19T21:00:52Z
Cyprid 493333262 2015-08-19 21:01:02 15.0 0 15.0 127.89 14.86 0 1 0 5.0 0 32 -22 273 0 5 2015-08-19T21:01:02Z
Cyprid 493333272 2015-08-19 21:01:12 15.2 0 15.0 127.89 14.85 0 1 0 5.0 0 26 -78 116 0 5 2015-08-19T21:01:12Z
Cyprid 493333282 2015-08-19 21:01:22 15.12 0 15.0 127.89 14.85 0 1 0 5.0 0 4 -32 -67 5 0 2015-08-19T21:01:22Z
Cyprid 493333292 2015-08-19 21:01:32 15.16 0 15.0 127.89 14.84 0 1 0 5.0 0 25 -38 -111 0 5 2015-08-19T21:01:32Z
Cyprid 493333302 2015-08-19 21:01:42 15.08 0 15.0 127.89 14.84 0 1 0 5.0 0 22 18 -183 5 0 2015-08-19T21:01:42Z
Cyprid 493333312 2015-08-19 21:01:52 14.99 0 15.0 127.89 14.85 0 1 0 5.0 0 20 -4 -41 2 0 2015-08-19T21:01:52Z
Cyprid 493333322 2015-08-19 21:02:02 14.91 0 15.0 127.89 14.86 0 1 0 5.0 0 17 -53 108 1 0 2015-08-19T21:02:02Z
Cyprid 493333332 2015-08-19 21:02:12 15.02 0 15.0 127.89 14.86 0 1 0 5.0 0 37 -6 237 0 5 2015-08-19T21:02:12Z
Cyprid 493333342 2015-08-19 21:02:22 14.96 0 15.0 127.89 14.87 0 1 0 5.0 0 19 -65 188 5 0 2015-08-19T21:02:22Z
Cyprid 493333352 2015-08-19 21:02:32 15.02 0 15.0 127.89 14.86 0 1 0 5.0 0 35 -27 221 0 5 2015-08-19T21:02:32Z
Cyprid 493333362 2015-08-19 21:02:42 15.04 0 15.0 127.89 14.86 0 1 0 5.0 0 33 -17 115 3 0 2015-08-19T21:02:42Z
Cyprid 493333372 2015-08-19 21:02:52 14.96 0 15.0 127.89 14.86 0 1 0 5.0 0 5 -44 95 1 0 2015-08-19T21:02:52Z
Cyprid 493333382 2015-08-19 21:03:02 14.77 0 15.0 127.89 14.86 0 1 0 5.0 0 25 -37 271 5 0 2015-08-19T21:03:02Z
Cyprid 493333392 2015-08-19 21:03:12 14.88 0 15.0 127.89 14.88 0 1 0 5.0 0 50 -8 401 0 5 2015-08-19T21:03:12Z
Cyprid 493333402 2015-08-19 21:03:22 15.04 0 15.0 127.89 14.87 0 1 0 5.0 0 17 -62 256 0 5 2015-08-19T21:03:22Z
Cyprid 493333412 2015-08-19 21:03:32 15.06 0 15.0 127.89 14.86 0 1 0 5.0 0 25 -22 143 5 0 2015-08-19T21:03:32Z
Cyprid 493333422 2015-08-19 21:03:42 15.03 0 15.0 127.89 14.83 0 1 0 5.0 0 32 -36 230 0 3 2015-08-19T21:03:42Z
Cyprid 493333432 2015-08-19 21:03:52 15.07 0 15.0 127.89 14.81 0 1 0 5.0 0 28 -42 147 0 0 2015-08-19T21:03:52Z
Cyprid 493333442 2015-08-19 21:04:02 15.02 0 15.0 127.89 14.8 0 1 0 5.0 0 10 -73 91 2 0 2015-08-19T21:04:02Z
Cyprid 493333453 2015-08-19 21:04:13 15.08 0 15.0 127.89 14.79 0 1 0 5.0 0 31 -13 74 0 4 2015-08-19T21:04:13Z
Cyprid 493333463 2015-08-19 21:04:23 15.05 0 15.0 127.89 14.78 0 1 0 5.0 0 8 -5 5 5 0 2015-08-19T21:04:23Z
Cyprid 493333473 2015-08-19 21:04:33 14.96 0 15.0 127.89 14.79 0 1 0 5.0 0 17 -39 84 0 0 2015-08-19T21:04:33Z
Cyprid 493333483 2015-08-19 21:04:43 15.0 0 15.0 127.89 14.78 0 1 0 5.0 0 33 -43 159 0 3 2015-08-19T21:04:43Z
Cyprid 493333493 2015-08-19 21:04:53 15.16 0 15.0 127.89 14.8 0 1 0 5.0 0 11 -6 8 0 5 2015-08-19T21:04:53Z
Cyprid 493333503 2015-08-19 21:05:03 15.02 0 15.0 127.89 14.79 0 1 0 5.0 0 6 -40 -227 5 0 2015-08-19T21:05:03Z
Cyprid 493333513 2015-08-19 21:05:13 15.01 0 15.0 127.89 14.8 0 1 0 5.0 0 1 -59 -124 2 0 2015-08-19T21:05:13Z
Cyprid 493333523 2015-08-19 21:05:23 15.01 0 15.0 127.89 14.81 0 1 0 5.0 0 6 -67 -28 0 2 2015-08-19T21:05:23Z
Cyprid 493333533 2015-08-19 21:05:33 14.93 0 15.0 127.89 14.83 0 1 0 5.0 0 34 -26 58 5 0 2015-08-19T21:05:33Z
Cyprid 493333543 2015-08-19 21:05:43 15.07 0 15.0 127.89 14.83 0 1 0 5.0 0 25 -79 180 0 5 2015-08-19T21:05:43Z
Cyprid 493333553 2015-08-19 21:05:53 15.1 0 15.0 127.89 14.84 0 1 0 5.0 0 18 -82 84 0 2 2015-08-19T21:05:53Z
Cyprid 493333563 2015-08-19 21:06:03 15.14 0 15.0 127.89 14.83 0 1 0 5.0 0 -2 -57 -64 0 0 2015-08-19T21:06:03Z
Cyprid 493333573 2015-08-19 21:06:13 15.07 0 15.0 127.89 14.84 0 1 0 5.0 0 15 -39 -137 3 0 2015-08-19T21:06:13Z
Cyprid 493333583 2015-08-19 21:06:23 15.08 0 15.0 127.89 14.83 0 1 0 5.0 0 45 -36 -91 0 3 2015-08-19T21:06:23Z
Cyprid 493333593 2015-08-19 21:06:33 14.98 0 15.0 127.89 14.85 0 1 0 5.0 0 25 -14 -83 5 0 2015-08-19T21:06:33Z
Cyprid 493333603 2015-08-19 21:06:43 14.89 0 15.0 127.89 14.85 0 1 0 5.0 0 12 -52 47 0 0 2015-08-19T21:06:43Z
Cyprid 493333613 2015-08-19 21:06:53 14.84 0 15.0 127.89 14.86 0 1 0 5.0 0 33 2 214 2 0 2015-08-19T21:06:53Z
Cyprid 493333623 2015-08-19 21:07:03 14.87 0 15.0 127.89 14.86 0 1 0 5.0 0 40 -34 345 0 3 2015-08-19T21:07:03Z
Cyprid 493333633 2015-08-19 21:07:13 14.97 0 15.0 127.89 14.86 0 1 0 5.0 0 4 -19 269 0 1 2015-08-19T21:07:13Z
Cyprid 493333643 2015-08-19 21:07:23 15.0 0 15.0 127.89 14.86 0 1 0 5.0 0 9 -41 211 0 0 2015-08-19T21:07:23Z
Cyprid 493333653 2015-08-19 21:07:33 14.92 0 15.0 127.89 14.85 0 1 0 5.0 0 -18 -38 219 3 0 2015-08-19T21:07:33Z
Cyprid 493333663 2015-08-19 21:07:43 15.08 0 15.0 127.89 14.83 0 1 0 5.0 0 25 -21 257 0 5 2015-08-19T21:07:43Z
Cyprid 493333673 2015-08-19 21:07:53 15.02 0 15.0 127.89 14.82 0 1 0 5.0 0 21 -41 150 3 0 2015-08-19T21:07:53Z
Cyprid 493333683 2015-08-19 21:08:03 14.97 0 15.0 127.89 14.81 0 1 0 5.0 0 10 -41 173 0 0 2015-08-19T21:08:03Z
Cyprid 493333693 2015-08-19 21:08:13 15.09 0 15.0 127.89 14.81 0 1 0 5.0 0 -2 -71 980 0 5 2015-08-19T21:08:13Z
Cyprid 493333703 2015-08-19 21:08:23 14.93 0 15.0 127.89 14.8 0 1 0 5.0 0 -54 -163 429 0 5 2015-08-19T21:08:23Z
Cyprid 493333713 2015-08-19 21:08:33 14.85 0 15.0 127.89 14.79 0 1 0 5.0 0 42 14 -501 5 0 2015-08-19T21:08:33Z
Cyprid 493333723 2015-08-19 21:08:43 14.77 0 15.0 127.89 14.79 0 1 0 5.0 0 32 -61 -348 5 0 2015-08-19T21:08:43Z
Cyprid 493333733 2015-08-19 21:08:53 14.74 0 15.0 127.89 14.81 0 1 0 5.0 0 17 -17 -11 5 0 2015-08-19T21:08:53Z
Cyprid 493333743 2015-08-19 21:09:03 14.75 0 15.0 127.89 14.82 0 1 0 5.0 0 34 -53 351 0 0 2015-08-19T21:09:03Z
Cyprid 493333753 2015-08-19 21:09:13 14.82 0 15.0 127.89 14.81 0 1 0 5.0 0 4 -75 529 0 5 2015-08-19T21:09:13Z
Cyprid 493333763 2015-08-19 21:09:23 14.98 0 15.0 127.89 14.82 0 1 0 5.0 0 1 -9 426 0 1 2015-08-19T21:09:23Z
Cyprid 493333773 2015-08-19 21:09:33 15.0 0 15.0 127.89 14.83 0 1 0 5.0 0 10 -96 321 1 0 2015-08-19T21:09:33Z
Cyprid 493333783 2015-08-19 21:09:43 15.06 0 15.0 127.89 14.83 0 1 0 5.0 0 23 -35 276 0 3 2015-08-19T21:09:43Z
Cyprid 493333793 2015-08-19 21:09:53 15.01 0 15.0 127.89 14.82 0 1 0 5.0 0 24 -61 211 5 0 2015-08-19T21:09:53Z
Cyprid 493333803 2015-08-19 21:10:03 15.05 0 15.0 127.89 14.8 0 1 0 5.0 0 16 -8 209 0 5 2015-08-19T21:10:03Z
Cyprid 493333813 2015-08-19 21:10:13 15.17 0 15.0 127.89 14.8 0 1 0 5.0 0 44 -32 64 0 3 2015-08-19T21:10:13Z
Cyprid 493333823 2015-08-19 21:10:23 15.14 0 15.0 127.89 14.79 0 1 0 5.0 0 32 -16 -92 5 0 2015-08-19T21:10:23Z
Cyprid 493333833 2015-08-19 21:10:33 14.97 0 15.0 127.89 14.78 0 1 0 5.0 0 7 -39 40 3 0 2015-08-19T21:10:33Z
Cyprid 493333843 2015-08-19 21:10:43 14.98 0 15.0 127.89 14.8 0 1 0 5.0 0 37 -96 174 0 4 2015-08-19T21:10:43Z
Cyprid 493333853 2015-08-19 21:10:53 15.02 0 15.0 127.89 14.8 0 1 0 5.0 0 34 -9 149 1 0 2015-08-19T21:10:53Z
Cyprid 493333863 2015-08-19 21:11:03 14.94 0 15.0 127.89 14.79 0 1 0 5.0 0 17 -44 180 3 0 2015-08-19T21:11:03Z
Cyprid 493333873 2015-08-19 21:11:13 15.05 0 15.0 127.89 14.79 0 1 0 5.0 0 53 -24 252 0 5 2015-08-19T21:11:13Z
Cyprid 493333883 2015-08-19 21:11:23 15.12 0 15.0 127.89 14.78 0 1 0 5.0 0 57 -91 124 0 1 2015-08-19T21:11:23Z
Cyprid 493333893 2015-08-19 21:11:33 15.01 0 15.0 127.89 14.77 0 1 0 5.0 0 8 -21 45 5 0 2015-08-19T21:11:33Z
Cyprid 493333903 2015-08-19 21:11:43 15.03 0 15.0 127.89 14.76 0 1 0 5.0 0 10 -57 89 0 5 2015-08-19T21:11:43Z
Cyprid 493333913 2015-08-19 21:11:53 15.07 0 15.0 127.89 14.76 0 1 0 5.0 0 23 -78 10 2 0 2015-08-19T21:11:53Z
Cyprid 493333923 2015-08-19 21:12:03 15.09 0 15.0 127.89 14.77 0 1 0 5.0 0 24 -76 -13 0 2 2015-08-19T21:12:03Z
Cyprid 493333933 2015-08-19 21:12:13 15.0 0 15.0 127.89 14.79 0 1 0 5.0 0 16 -30 -35 5 0 2015-08-19T21:12:13Z
Cyprid 493333943 2015-08-19 21:12:23 15.0 0 15.0 127.89 14.79 0 1 0 5.0 0 33 -94 100 0 4 2015-08-19T21:12:23Z
Cyprid 493333953 2015-08-19 21:12:33 15.0 0 15.0 127.89 14.81 0 1 0 5.0 0 30 -28 134 3 0 2015-08-19T21:12:33Z
Cyprid 493333963 2015-08-19 21:12:43 15.12 0 15.0 127.89 14.83 0 1 0 5.0 0 59 -70 163 0 5 2015-08-19T21:12:43Z
Cyprid 493333973 2015-08-19 21:12:53 15.14 0 15.0 127.89 14.83 0 1 0 5.0 0 30 -2 63 1 0 2015-08-19T21:12:53Z
Cyprid 493333983 2015-08-19 21:13:03 15.01 0 15.0 127.89 14.84 0 1 0 5.0 0 17 -44 72 5 0 2015-08-19T21:13:03Z
Cyprid 493333993 2015-08-19 21:13:13 15.18 0 15.0 127.89 14.84 0 1 0 5.0 0 43 -29 175 0 5 2015-08-19T21:13:13Z
Cyprid 493334003 2015-08-19 21:13:23 15.27 0 15.0 127.89 14.84 0 1 0 5.0 0 34 -37 18 0 5 2015-08-19T21:13:23Z
Cyprid 493334013 2015-08-19 21:13:33 15.1 0 15.0 127.89 14.84 0 1 0 5.0 0 32 0 -212 5 0 2015-08-19T21:13:33Z
Cyprid 493334023 2015-08-19 21:13:43 15.08 0 15.0 127.89 14.84 0 1 0 5.0 0 44 -19 -146 0 0 2015-08-19T21:13:43Z
Cyprid 493334033 2015-08-19 21:13:53 15.04 0 15.0 127.89 14.84 0 1 0 5.0 0 -10 -87 -118 1 0 2015-08-19T21:13:53Z
Cyprid 493334043 2015-08-19 21:14:03 14.79 0 15.0 127.89 14.84 0 1 0 5.0 0 12 -52 32 5 0 2015-08-19T21:14:03Z
Cyprid 493334054 2015-08-19 21:14:14 14.85 0 15.0 127.89 14.85 0 1 0 5.0 0 34 1 299 0 2 2015-08-19T21:14:14Z
Cyprid 493334064 2015-08-19 21:14:24 14.88 0 15.0 127.89 14.86 0 1 0 5.0 0 30 -60 376 0 0 2015-08-19T21:14:24Z
Cyprid 493334074 2015-08-19 21:14:34 14.89 0 15.0 127.89 14.86 0 1 0 5.0 0 1 -23 418 1 0 2015-08-19T21:14:34Z
Cyprid 493334084 2015-08-19 21:14:44 14.9 0 15.0 127.89 14.85 0 1 0 5.0 0 21 -30 374 0 5 2015-08-19T21:14:44Z
Cyprid 493334094 2015-08-19 21:14:54 14.91 0 15.0 127.89 14.83 0 1 0 5.0 0 3 -61 272 5 0 2015-08-19T21:14:54Z
Cyprid 493334104 2015-08-19 21:15:04 14.98 0 15.0 127.89 14.82 0 1 0 5.0 0 33 -84 293 0 4 2015-08-19T21:15:04Z
Cyprid 493334114 2015-08-19 21:15:14 15.1 0 15.0 127.89 14.8 0 1 0 5.0 0 28 -103 161 0 2 2015-08-19T21:15:14Z
Cyprid 493334124 2015-08-19 21:15:24 15.07 0 15.0 127.89 14.79 0 1 0 5.0 0 21 -26 54 3 0 2015-08-19T21:15:24Z
Cyprid 493334134 2015-08-19 21:15:34 15.03 0 15.0 127.89 14.78 0 1 0 5.0 0 40 3 74 0 0 2015-08-19T21:15:34Z
Cyprid 493334144 2015-08-19 21:15:44 15.21 0 15.0 127.89 14.77 0 1 0 5.0 0 13 -71 3 0 5 2015-08-19T21:15:44Z
Cyprid 493334154 2015-08-19 21:15:54 15.13 0 15.0 127.89 14.77 0 1 0 5.0 0 24 -32 -122 5 0 2015-08-19T21:15:54Z
Cyprid 493334164 2015-08-19 21:16:04 15.03 0 15.0 127.89 14.78 0 1 0 5.0 0 45 -12 -54 0 1 2015-08-19T21:16:04Z
Cyprid 493334175 2015-08-19 21:16:15 15.09 0 15.0 127.89 14.81 0 1 0 5.0 0 20 -52 -51 0 2 2015-08-19T21:16:15Z
Cyprid 493334185 2015-08-19 21:16:25 14.99 0 15.0 127.89 14.83 0 1 0 5.0 0 19 -17 -34 5 0 2015-08-19T21:16:25Z
Cyprid 493334195 2015-08-19 21:16:35 15.03 0 15.0 127.89 14.83 0 1 0 5.0 0 21 -57 54 0 5 2015-08-19T21:16:35Z
Cyprid 493334205 2015-08-19 21:16:45 15.04 0 15.0 127.89 14.85 0 1 0 5.0 0 30 -44 11 3 0 2015-08-19T21:16:45Z
Cyprid 493334215 2015-08-19 21:16:55 14.88 0 15.0 127.89 14.85 0 1 0 5.0 0 3 -63 144 5 0 2015-08-19T21:16:55Z
Cyprid 493334225 2015-08-19 21:17:05 14.98 0 15.0 127.89 14.85 0 1 0 5.0 0 30 -14 349 0 5 2015-08-19T21:17:05Z
Cyprid 493334235 2015-08-19 21:17:15 15.22 0 15.0 127.89 14.86 0 1 0 5.0 0 46 -83 210 0 5 2015-08-19T21:17:15Z
Cyprid 493334245 2015-08-19 21:17:25 15.12 0 15.0 127.89 14.85 0 1 0 5.0 0 22 -3 39 4 0 2015-08-19T21:17:25Z
Cyprid 493334255 2015-08-19 21:17:35 15.13 0 15.0 127.89 14.85 0 1 0 5.0 0 29 -57 -11 0 4 2015-08-19T21:17:35Z
Cyprid 493334265 2015-08-19 21:17:45 15.14 0 15.0 127.89 14.85 0 1 0 5.0 0 4 -10 -113 2 0 2015-08-19T21:17:45Z
Cyprid 493334275 2015-08-19 21:17:55 15.16 0 15.0 127.89 14.85 0 1 0 5.0 0 31 -18 -143 0 3 2015-08-19T21:17:55Z
Cyprid 493334285 2015-08-19 21:18:05 15.0 0 15.0 127.89 14.86 0 1 0 5.0 0 42 -7 -176 5 0 2015-08-19T21:18:05Z
Cyprid 493334296 2015-08-19 21:18:16 15.0 0 15.0 127.89 14.87 0 1 0 5.0 0 45 -20 -37 0 0 2015-08-19T21:18:16Z
Cyprid 493334306 2015-08-19 21:18:26 14.92 0 15.0 127.89 14.86 0 1 0 5.0 0 11 -45 86 3 0 2015-08-19T21:18:26Z
Cyprid 493334316 2015-08-19 21:18:36 14.89 0 15.0 127.89 14.87 0 1 0 5.0 0 -11 -76 280 0 1 2015-08-19T21:18:36Z
Cyprid 493334326 2015-08-19 21:18:46 14.9 0 15.0 127.89 14.87 0 1 0 5.0 0 8 -49 324 0 0 2015-08-19T21:18:46Z
Cyprid 493334336 2015-08-19 21:18:56 14.93 0 15.0 127.89 14.87 0 1 0 5.0 0 53 -38 346 0 1 2015-08-19T21:18:56Z
Cyprid 493334346 2015-08-19 21:19:06 15.12 0 15.0 127.89 14.87 0 1 0 5.0 0 30 -8 241 0 5 2015-08-19T21:19:06Z
Cyprid 493334356 2015-08-19 21:19:16 15.16 0 15.0 127.89 14.86 0 1 0 5.0 0 21 -48 56 0 0 2015-08-19T21:19:16Z
Cyprid 493334366 2015-08-19 21:19:26 14.99 0 15.0 127.89 14.84 0 1 0 5.0 0 11 -63 -92 5 0 2015-08-19T21:19:26Z
Cyprid 493334376 2015-08-19 21:19:36 14.95 0 15.0 127.89 14.83 0 1 0 5.0 0 17 -19 39 0 0 2015-08-19T21:19:36Z
Cyprid 493334386 2015-08-19 21:19:46 15.07 0 15.0 127.89 14.82 0 1 0 5.0 0 35 -7 131 0 5 2015-08-19T21:19:46Z
Cyprid 493334396 2015-08-19 21:19:56 15.04 0 15.0 127.89 14.81 0 1 0 5.0 0 15 -55 52 5 0 2015-08-19T21:19:56Z
Cyprid 493334406 2015-08-19 21:20:06 14.83 0 15.0 127.89 14.82 0 1 0 5.0 0 29 -32 239 5 0 2015-08-19T21:20:06Z
Cyprid 493334416 2015-08-19 21:20:16 15.0 0 15.0 127.89 14.8 0 1 0 5.0 0 29 -102 422 0 5 2015-08-19T21:20:16Z
Cyprid 493334426 2015-08-19 21:20:26 15.08 0 15.0 127.89 14.78 0 1 0 5.0 0 45 -29 210 0 5 2015-08-19T21:20:26Z
Cyprid 493334436 2015-08-19 21:20:36 15.14 0 15.0 127.89 14.77 0 1 0 5.0 0 21 -27 15 0 0 2015-08-19T21:20:36Z
Cyprid 493334446 2015-08-19 21:20:46 15.05 0 15.0 127.89 14.76 0 1 0 5.0 0 12 -22 -65 5 0 2015-08-19T21:20:46Z
Cyprid 493334456 2015-08-19 21:20:56 14.96 0 15.0 127.89 14.76 0 1 0 5.0 0 14 -13 47 0 0 2015-08-19T21:20:56Z
Cyprid 493334466 2015-08-19 21:21:06 15.04 0 15.0 127.89 14.77 0 1 0 5.0 0 24 14 59 0 5 2015-08-19T21:21:06Z
Cyprid 493334476 2015-08-19 21:21:16 15.05 0 15.0 127.89 14.78 0 1 0 5.0 0 28 35 -57 4 0 2015-08-19T21:21:16Z
Cyprid 493334486 2015-08-19 21:21:26 15.01 0 15.0 127.89 14.77 0 1 0 5.0 0 51 -61 -42 0 1 2015-08-19T21:21:26Z
Cyprid 493334496 2015-08-19 21:21:36 15.01 0 15.0 127.89 14.78 0 1 0 5.0 0 43 -42 -39 0 0 2015-08-19T21:21:36Z
Cyprid 493334506 2015-08-19 21:21:46 14.87 0 15.0 127.89 14.78 0 1 0 5.0 0 6 -18 35 5 0 2015-08-19T21:21:46Z
Cyprid 493334516 2015-08-19 21:21:56 14.84 0 15.0 127.89 14.78 0 1 0 5.0 0 40 -8 205 0 2 2015-08-19T21:21:56Z
Cyprid 493334526 2015-08-19 21:22:06 14.92 0 15.0 127.89 14.78 0 1 0 5.0 0 30 -1 258 0 2 2015-08-19T21:22:06Z
Cyprid 493334536 2015-08-19 21:22:16 15.07 0 15.0 127.89 14.79 0 1 0 5.0 0 19 -53 128 0 5 2015-08-19T21:22:16Z
Cyprid 493334546 2015-08-19 21:22:26 15.04 0 15.0 127.89 14.78 0 1 0 5.0 0 25 0 -51 5 0 2015-08-19T21:22:26Z
Cyprid 493334556 2015-08-19 21:22:36 15.03 0 15.0 127.89 14.78 0 1 0 5.0 0 30 19 -43 0 2 2015-08-19T21:22:36Z
Cyprid 493334566 2015-08-19 21:22:46 15.03 0 15.0 127.89 14.77 0 1 0 5.0 0 4 -89 -84 1 0 2015-08-19T21:22:46Z
Cyprid 493334576 2015-08-19 21:22:56 14.93 0 15.0 127.89 14.77 0 1 0 5.0 0 -8 -86 20 4 0 2015-08-19T21:22:56Z
Cyprid 493334586 2015-08-19 21:23:06 15.06 0 15.0 127.89 14.78 0 1 0 5.0 0 14 8 159 0 5 2015-08-19T21:23:06Z
Cyprid 493334596 2015-08-19 21:23:16 15.18 0 15.0 127.89 14.79 0 1 0 5.0 0 13 -80 21 0 5 2015-08-19T21:23:16Z
Cyprid 493334606 2015-08-19 21:23:26 15.1 0 15.0 127.89 14.78 0 1 0 5.0 0 24 -12 -193 5 0 2015-08-19T21:23:26Z
Cyprid 493334616 2015-08-19 21:23:36 15.11 0 15.0 127.89 14.79 0 1 0 5.0 0 41 11 -149 0 2 2015-08-19T21:23:36Z
Cyprid 493334626 2015-08-19 21:23:46 15.03 0 15.0 127.89 14.81 0 1 0 5.0 0 23 29 -159 4 0 2015-08-19T21:23:46Z
Cyprid 493334636 2015-08-19 21:23:56 15.0 0 15.0 127.89 14.82 0 1 0 5.0 0 19 3 -75 0 2 2015-08-19T21:23:56Z
Cyprid 493334646 2015-08-19 21:24:06 14.85 0 15.0 127.89 14.83 0 1 0 5.0 0 19 -45 3 5 0 2015-08-19T21:24:06Z
Cyprid 493334656 2015-08-19 21:24:16 14.88 0 15.0 127.89 14.84 0 1 0 5.0 0 9 -20 171 0 3 2015-08-19T21:24:16Z
Cyprid 493334666 2015-08-19 21:24:26 15.02 0 15.0 127.89 14.84 0 1 0 5.0 0 2 14 149 0 4 2015-08-19T21:24:26Z
Cyprid 493334676 2015-08-19 21:24:36 14.89 0 15.0 127.89 14.85 0 1 0 5.0 0 8 -70 50 5 0 2015-08-19T21:24:36Z
Cyprid 493334686 2015-08-19 21:24:46 14.93 0 15.0 127.89 14.85 0 1 0 5.0 0 -14 -20 123 0 1 2015-08-19T21:24:46Z
Cyprid 493334696 2015-08-19 21:24:56 14.92 0 15.0 127.89 14.85 0 1 0 5.0 0 2 -106 171 1 0 2015-08-19T21:24:56Z
Cyprid 493334706 2015-08-19 21:25:06 14.92 0 15.0 127.89 14.85 0 1 0 5.0 0 38 -6 343 0 0 2015-08-19T21:25:06Z
Cyprid 493334716 2015-08-19 21:25:16 14.92 0 15.0 127.89 14.85 0 1 0 5.0 0 -21 -66 312 0 0 2015-08-19T21:25:16Z
Cyprid 493334726 2015-08-19 21:25:26 14.85 0 15.0 127.89 14.86 0 1 0 5.0 0 18 -42 292 3 0 2015-08-19T21:25:26Z
Cyprid 493334736 2015-08-19 21:25:36 14.84 0 15.0 127.89 14.86 0 1 0 5.0 0 11 -93 504 0 5 2015-08-19T21:25:36Z
Cyprid 493334746 2015-08-19 21:25:46 14.79 0 15.0 127.89 14.86 0 1 0 5.0 0 24 -41 392 5 0 2015-08-19T21:25:46Z
Cyprid 493334756 2015-08-19 21:25:56 14.95 0 15.0 127.89 14.88 0 1 0 5.0 0 31 -64 425 0 5 2015-08-19T21:25:56Z
Cyprid 493334766 2015-08-19 21:26:06 15.02 0 15.0 127.89 14.88 0 1 0 5.0 0 23 -47 290 0 0 2015-08-19T21:26:06Z
Cyprid 493334776 2015-08-19 21:26:16 15.01 0 15.0 127.89 14.88 0 1 0 5.0 0 35 5 194 1 0 2015-08-19T21:26:16Z
Cyprid 493334786 2015-08-19 21:26:26 15.18 0 15.0 127.89 14.88 0 1 0 5.0 0 24 -55 98 0 5 2015-08-19T21:26:26Z
Cyprid 493334796 2015-08-19 21:26:36 15.21 0 15.0 127.89 14.88 0 1 0 5.0 0 23 -7 -72 0 0 2015-08-19T21:26:36Z
Cyprid 493334806 2015-08-19 21:26:46 15.03 0 15.0 127.89 14.88 0 1 0 5.0 0 22 -11 -142 5 0 2015-08-19T21:26:46Z
Cyprid 493334816 2015-08-19 21:26:56 14.88 0 15.0 127.89 14.88 0 1 0 5.0 0 8 -61 62 5 0 2015-08-19T21:26:56Z
Cyprid 493334826 2015-08-19 21:27:06 14.97 0 15.0 127.89 14.88 0 1 0 5.0 0 32 -22 335 0 5 2015-08-19T21:27:06Z
Cyprid 493334836 2015-08-19 21:27:16 15.1 0 15.0 127.89 14.88 0 1 0 5.0 0 3 -83 198 0 5 2015-08-19T21:27:16Z
Cyprid 493334846 2015-08-19 21:27:26 15.06 0 15.0 127.89 14.89 0 1 0 5.0 0 18 -27 37 5 0 2015-08-19T21:27:26Z
Cyprid 493334856 2015-08-19 21:27:36 15.0 0 15.0 127.89 14.88 0 1 0 5.0 0 54 -76 53 0 1 2015-08-19T21:27:36Z
Cyprid 493334866 2015-08-19 21:27:46 14.97 0 15.0 127.89 14.89 0 1 0 5.0 0 9 -2 66 1 0 2015-08-19T21:27:46Z
Cyprid 493334876 2015-08-19 21:27:56 14.94 0 15.0 127.89 14.89 0 1 0 5.0 0 3 -96 126 1 0 2015-08-19T21:27:56Z
Cyprid 493334886 2015-08-19 21:28:06 14.98 0 15.0 127.89 14.87 0 1 0 5.0 0 -3 -46 196 0 3 2015-08-19T21:28:06Z
Cyprid 493334897 2015-08-19 21:28:17 15.05 0 15.0 127.89 14.85 0 1 0 5.0 0 28 -38 138 0 0 2015-08-19T21:28:17Z
Cyprid 493334907 2015-08-19 21:28:27 14.98 0 15.0 127.89 14.83 0 1 0 5.0 0 41 -2 137 4 0 2015-08-19T21:28:27Z
Cyprid 493334917 2015-08-19 21:28:37 14.9 0 15.0 127.89 14.83 0 1 0 5.0 0 -9 -52 225 0 0 2015-08-19T21:28:37Z
Cyprid 493334927 2015-08-19 21:28:47 15.01 0 15.0 127.89 14.82 0 1 0 5.0 0 28 -84 268 0 5 2015-08-19T21:28:47Z
Cyprid 493334937 2015-08-19 21:28:57 14.98 0 15.0 127.89 14.84 0 1 0 5.0 0 41 -37 191 5 0 2015-08-19T21:28:57Z
Cyprid 493334947 2015-08-19 21:29:07 14.99 0 15.0 127.89 14.83 0 1 0 5.0 0 2 -57 178 0 4 2015-08-19T21:29:07Z
Cyprid 493334957 2015-08-19 21:29:17 15.2 0 15.0 127.89 14.83 0 1 0 5.0 0 26 -50 -8 0 5 2015-08-19T21:29:17Z
Cyprid 493334967 2015-08-19 21:29:27 15.1 0 15.0 127.89 14.83 0 1 0 5.0 0 19 11 -240 5 0 2015-08-19T21:29:27Z
Cyprid 493334977 2015-08-19 21:29:37 14.94 0 15.0 127.89 14.83 0 1 0 5.0 0 24 -48 -72 5 0 2015-08-19T21:29:37Z
Cyprid 493334987 2015-08-19 21:29:47 15.05 0 15.0 127.89 14.84 0 1 0 5.0 0 32 -3 114 0 5 2015-08-19T21:29:47Z
Cyprid 493334997 2015-08-19 21:29:57 15.0 0 15.0 127.89 14.85 0 1 0 5.0 0 34 26 100 2 0 2015-08-19T21:29:57Z
Cyprid 493335007 2015-08-19 21:30:07 14.94 0 15.0 127.89 14.85 0 1 0 5.0 0 -10 -43 151 1 0 2015-08-19T21:30:07Z
Cyprid 493335017 2015-08-19 21:30:17 14.97 0 15.0 127.89 14.84 0 1 0 5.0 0 27 -87 202 0 2 2015-08-19T21:30:17Z
Cyprid 493335027 2015-08-19 21:30:27 15.08 0 15.0 127.89 14.84 0 1 0 5.0 0 24 -84 103 0 4 2015-08-19T21:30:27Z
Cyprid 493335037 2015-08-19 21:30:37 15.14 0 15.0 127.89 14.83 0 1 0 5.0 0 21 5 -91 1 0 2015-08-19T21:30:37Z
Cyprid 493335047 2015-08-19 21:30:47 15.14 0 15.0 127.89 14.83 0 1 0 5.0 0 0 -27 -204 0 0 2015-08-19T21:30:47Z
Cyprid 493335057 2015-08-19 21:30:57 14.97 0 15.0 127.89 14.83 0 1 0 5.0 0 17 -43 -160 5 0 2015-08-19T21:30:57Z
Cyprid 493335067 2015-08-19 21:31:07 14.98 0 15.0 127.89 14.84 0 1 0 5.0 0 34 -76 -43 0 4 2015-08-19T21:31:07Z
Cyprid 493335077 2015-08-19 21:31:17 14.96 0 15.0 127.89 14.85 0 1 0 5.0 0 17 -25 -5 5 0 2015-08-19T21:31:17Z
Cyprid 493335087 2015-08-19 21:31:27 14.86 0 15.0 127.89 14.85 0 1 0 5.0 0 36 -31 144 0 0 2015-08-19T21:31:27Z
Cyprid 493335097 2015-08-19 21:31:37 14.95 0 15.0 127.89 14.85 0 1 0 5.0 0 -4 -4 227 0 4 2015-08-19T21:31:37Z
Cyprid 493335107 2015-08-19 21:31:47 14.95 0 15.0 127.89 14.85 0 1 0 5.0 0 -4 -42 180 3 0 2015-08-19T21:31:47Z
Cyprid 493335117 2015-08-19 21:31:57 15.01 0 15.0 127.89 14.86 0 1 0 5.0 0 28 -15 157 0 5 2015-08-19T21:31:57Z
Cyprid 493335127 2015-08-19 21:32:07 14.93 0 15.0 127.89 14.86 0 1 0 5.0 0 -13 -68 61 5 0 2015-08-19T21:32:07Z
Cyprid 493335137 2015-08-19 21:32:17 14.97 0 15.0 127.89 14.86 0 1 0 5.0 0 -14 -48 102 0 3 2015-08-19T21:32:17Z
Cyprid 493335147 2015-08-19 21:32:27 15.06 0 15.0 127.89 14.85 0 1 0 5.0 0 44 -95 30 0 1 2015-08-19T21:32:27Z
Cyprid 493335157 2015-08-19 21:32:37 14.93 0 15.0 127.89 14.85 0 1 0 5.0 0 31 -36 6 5 0 2015-08-19T21:32:37Z
Cyprid 493335167 2015-08-19 21:32:47 14.96 0 15.0 127.89 14.85 0 1 0 5.0 0 6 17 90 0 4 2015-08-19T21:32:47Z
Cyprid 493335177 2015-08-19 21:32:57 14.92 0 15.0 127.89 14.85 0 1 0 5.0 0 6 -71 124 5 0 2015-08-19T21:32:57Z
Cyprid 493335187 2015-08-19 21:33:07 15.0 0 15.0 127.89 14.84 0 1 0 5.0 0 19 -18 222 0 5 2015-08-19T21:33:07Z
Cyprid 493335197 2015-08-19 21:33:17 15.08 0 15.0 127.89 14.84 0 1 0 5.0 0 35 23 96 0 2 2015-08-19T21:33:17Z
Cyprid 493335207 2015-08-19 21:33:27 15.08 0 15.0 127.89 14.84 0 1 0 5.0 0 27 27 -37 2 0 2015-08-19T21:33:27Z
Cyprid 493335217 2015-08-19 21:33:37 15.02 0 15.0 127.89 14.83 0 1 0 5.0 0 30 -51 -43 1 0 2015-08-19T21:33:37Z
Cyprid 493335227 2015-08-19 21:33:47 14.98 0 15.0 127.89 14.83 0 1 0 5.0 0 37 -31 17 0 0 2015-08-19T21:33:47Z
Cyprid 493335237 2015-08-19 21:33:57 14.98 0 15.0 127.89 14.84 0 1 0 5.0 0 26 -40 60 0 0 2015-08-19T21:33:57Z
Cyprid 493335247 2015-08-19 21:34:07 15.12 0 15.0 127.89 14.85 0 1 0 5.0 0 36 -34 22 0 5 2015-08-19T21:34:07Z
Cyprid 493335257 2015-08-19 21:34:17 15.27 0 15.0 127.89 14.84 0 1 0 5.0 0 31 -2 -244 0 3 2015-08-19T21:34:17Z
Cyprid 493335267 2015-08-19 21:34:27 15.11 0 15.0 127.89 14.83 0 1 0 5.0 0 14 5 -353 5 0 2015-08-19T21:34:27Z
Cyprid 493335277 2015-08-19 21:34:37 14.84 0 15.0 127.89 14.84 0 1 0 5.0 0 -7 -27 -199 5 0 2015-08-19T21:34:37Z
Cyprid 493335287 2015-08-19 21:34:47 14.94 0 15.0 127.89 14.85 0 1 0 5.0 0 -1 -36 -5 0 3 2015-08-19T21:34:47Z
Cyprid 493335297 2015-08-19 21:34:57 14.94 0 15.0 127.89 14.86 0 1 0 5.0 0 -2 -49 45 3 0 2015-08-19T21:34:57Z
Cyprid 493335307 2015-08-19 21:35:07 14.8 0 15.0 127.89 14.87 0 1 0 5.0 0 -21 -89 222 4 0 2015-08-19T21:35:07Z
Cyprid 493335317 2015-08-19 21:35:17 14.96 0 15.0 127.89 14.89 0 1 0 5.0 0 23 -40 450 0 5 2015-08-19T21:35:17Z
Cyprid 493335327 2015-08-19 21:35:27 15.08 0 15.0 127.89 14.89 0 1 0 5.0 0 25 -92 268 0 5 2015-08-19T21:35:27Z
Cyprid 493335337 2015-08-19 21:35:37 15.16 0 15.0 127.89 14.87 0 1 0 5.0 0 16 -18 40 0 0 2015-08-19T21:35:37Z
Cyprid 493335347 2015-08-19 21:35:47 15.0 0 15.0 127.89 14.87 0 1 0 5.0 0 20 5 -129 5 0 2015-08-19T21:35:47Z
Cyprid 493335357 2015-08-19 21:35:57 15.03 0 15.0 127.89 14.87 0 1 0 5.0 0 3 35 -48 0 4 2015-08-19T21:35:57Z
Cyprid 493335367 2015-08-19 21:36:07 15.13 0 15.0 127.89 14.88 0 1 0 5.0 0 47 -58 -126 0 1 2015-08-19T21:36:07Z
Cyprid 493335377 2015-08-19 21:36:17 15.07 0 15.0 127.89 14.89 0 1 0 5.0 0 43 -51 -188 3 0 2015-08-19T21:36:17Z
Cyprid 493335387 2015-08-19 21:36:27 14.94 0 15.0 127.89 14.88 0 1 0 5.0 0 35 -25 -54 3 0 2015-08-19T21:36:27Z
Cyprid 493335397 2015-08-19 21:36:37 14.78 0 15.0 127.89 14.89 0 1 0 5.0 0 25 -32 210 5 0 2015-08-19T21:36:37Z
Cyprid 493335407 2015-08-19 21:36:47 15.03 0 15.0 127.89 14.9 0 1 0 5.0 0 22 -84 459 0 5 2015-08-19T21:36:47Z
Cyprid 493335417 2015-08-19 21:36:57 15.12 0 15.0 127.89 14.88 0 1 0 5.0 0 4 2 319 0 5 2015-08-19T21:36:57Z
Cyprid 493335427 2015-08-19 21:37:07 15.05 0 15.0 127.89 14.88 0 1 0 5.0 0 -28 -16 164 3 0 2015-08-19T21:37:07Z
Cyprid 493335437 2015-08-19 21:37:17 15.11 0 15.0 127.89 14.87 0 1 0 5.0 0 37 -62 103 0 5 2015-08-19T21:37:17Z
Cyprid 493335447 2015-08-19 21:37:27 15.2 0 15.0 127.89 14.86 0 1 0 5.0 0 6 -13 -114 0 1 2015-08-19T21:37:27Z
Cyprid 493335457 2015-08-19 21:37:37 15.12 0 15.0 127.89 14.86 0 1 0 5.0 0 18 -53 -219 5 0 2015-08-19T21:37:37Z
Cyprid 493335467 2015-08-19 21:37:47 15.08 0 15.0 127.89 14.88 0 1 0 5.0 0 67 -27 -120 0 4 2015-08-19T21:37:47Z
Cyprid 493335477 2015-08-19 21:37:57 15.02 0 15.0 127.89 14.88 0 1 0 5.0 0 -3 -23 -141 5 0 2015-08-19T21:37:57Z
Cyprid 493335487 2015-08-19 21:38:07 14.98 0 15.0 127.89 14.89 0 1 0 5.0 0 50 -5 -13 0 1 2015-08-19T21:38:07Z
Cyprid 493335498 2015-08-19 21:38:18 14.99 0 15.0 127.89 14.88 0 1 0 5.0 0 33 -31 51 0 0 2015-08-19T21:38:18Z
Cyprid 493335508 2015-08-19 21:38:28 14.88 0 15.0 127.89 14.88 0 1 0 5.0 0 3 -27 157 5 0 2015-08-19T21:38:28Z
Cyprid 493335518 2015-08-19 21:38:38 15.05 0 15.0 127.89 14.89 0 1 0 5.0 0 45 -71 317 0 5 2015-08-19T21:38:38Z
Cyprid 493335528 2015-08-19 21:38:48 15.14 0 15.0 127.89 14.88 0 1 0 5.0 0 22 8 169 0 5 2015-08-19T21:38:48Z
Cyprid 493335538 2015-08-19 21:38:58 15.23 0 15.0 127.89 14.88 0 1 0 5.0 0 -21 22 -111 0 2 2015-08-19T21:38:58Z
Cyprid 493335548 2015-08-19 21:39:08 14.99 0 15.0 127.89 14.88 0 1 0 5.0 0 15 -54 -303 5 0 2015-08-19T21:39:08Z
Cyprid 493335558 2015-08-19 21:39:18 14.88 0 15.0 127.89 14.88 0 1 0 5.0 0 43 -17 -93 5 0 2015-08-19T21:39:18Z
Cyprid 493335568 2015-08-19 21:39:28 15.01 0 15.0 127.89 14.89 0 1 0 5.0 0 34 -55 56 0 5 2015-08-19T21:39:28Z
Cyprid 493335578 2015-08-19 21:39:38 15.09 0 15.0 127.89 14.89 0 1 0 5.0 0 56 -15 -32 0 2 2015-08-19T21:39:38Z
Cyprid 493335588 2015-08-19 21:39:48 14.84 0 15.0 127.89 14.9 0 1 0 5.0 0 25 -24 -70 5 0 2015-08-19T21:39:48Z
Cyprid 493335598 2015-08-19 21:39:58 14.86 0 15.0 127.89 14.9 0 1 0 5.0 0 37 5 92 2 0 2015-08-19T21:39:58Z
Cyprid 493335608 2015-08-19 21:40:08 14.98 0 15.0 127.89 14.91 0 1 0 5.0 0 38 -55 216 0 5 2015-08-19T21:40:08Z
Cyprid 493335619 2015-08-19 21:40:19 14.95 0 15.0 127.89 14.92 0 1 0 5.0 0 0 -125 175 4 0 2015-08-19T21:40:19Z
Cyprid 493335629 2015-08-19 21:40:29 14.95 0 15.0 127.89 14.93 0 1 0 5.0 0 5 -43 230 0 3 2015-08-19T21:40:29Z
Cyprid 493335639 2015-08-19 21:40:39 15.13 0 15.0 127.89 14.91 0 1 0 5.0 0 40 -65 88 0 5 2015-08-19T21:40:39Z
Cyprid 493335649 2015-08-19 21:40:49 15.09 0 15.0 127.89 14.91 0 1 0 5.0 0 22 -25 -113 5 0 2015-08-19T21:40:49Z
Cyprid 493335659 2015-08-19 21:40:59 15.08 0 15.0 127.89 14.9 0 1 0 5.0 0 -1 -36 -129 0 3 2015-08-19T21:40:59Z
Cyprid 493335669 2015-08-19 21:41:09 15.05 0 15.0 127.89 14.91 0 1 0 5.0 0 29 -3 -193 3 0 2015-08-19T21:41:09Z
Cyprid 493335679 2015-08-19 21:41:19 15.01 0 15.0 127.89 14.91 0 1 0 5.0 0 2 -18 -108 0 0 2015-08-19T21:41:19Z
Cyprid 493335689 2015-08-19 21:41:29 14.87 0 15.0 127.89 14.92 0 1 0 5.0 0 16 -44 25 5 0 2015-08-19T21:41:29Z
Cyprid 493335699 2015-08-19 21:41:39 14.93 0 15.0 127.89 14.92 0 1 0 5.0 0 35 -37 200 0 5 2015-08-19T21:41:39Z
Cyprid 493335709 2015-08-19 21:41:49 14.88 0 15.0 127.89 14.92 0 1 0 5.0 0 6 -54 224 5 0 2015-08-19T21:41:49Z
Cyprid 493335719 2015-08-19 21:41:59 14.91 0 15.0 127.89 14.93 0 1 0 5.0 0 23 5 333 0 5 2015-08-19T21:41:59Z
Cyprid 493335729 2015-08-19 21:42:09 15.12 0 15.0 127.89 14.94 0 1 0 5.0 0 53 -48 138 0 5 2015-08-19T21:42:09Z
Cyprid 493335740 2015-08-19 21:42:20 15.03 0 15.0 127.89 14.92 0 1 0 5.0 0 37 -25 -132 5 0 2015-08-19T21:42:20Z
Cyprid 493335750 2015-08-19 21:42:30 14.92 0 15.0 127.89 14.91 0 1 0 5.0 0 20 11 -39 4 0 2015-08-19T21:42:30Z
Cyprid 493335760 2015-08-19 21:42:40 15.05 0 15.0 127.89 14.91 0 1 0 5.0 0 19 -69 112 0 5 2015-08-19T21:42:40Z
Cyprid 493335770 2015-08-19 21:42:50 15.1 0 15.0 127.89 14.91 0 1 0 5.0 0 15 -88 14 0 2 2015-08-19T21:42:50Z
Cyprid 493335780 2015-08-19 21:43:00 15.05 0 15.0 127.89 14.91 0 1 0 5.0 0 32 -33 -112 3 0 2015-08-19T21:43:00Z
Cyprid 493335790 2015-08-19 21:43:10 15.07 0 15.0 127.89 14.91 0 1 0 5.0 0 50 -27 -131 0 3 2015-08-19T21:43:10Z
Cyprid 493335800 2015-08-19 21:43:20 15.01 0 15.0 127.89 14.92 0 1 0 5.0 0 16 -3 -154 5 0 2015-08-19T21:43:20Z
Cyprid 493335810 2015-08-19 21:43:30 14.98 0 15.0 127.89 14.92 0 1 0 5.0 0 5 3 -65 0 3 2015-08-19T21:43:30Z
Cyprid 493335820 2015-08-19 21:43:40 14.88 0 15.0 127.89 14.93 0 1 0 5.0 0 40 -12 18 5 0 2015-08-19T21:43:40Z
Cyprid 493335830 2015-08-19 21:43:50 14.77 0 15.0 127.89 14.93 0 1 0 5.0 0 36 -16 206 1 0 2015-08-19T21:43:50Z
Cyprid 493335840 2015-08-19 21:44:00 14.92 0 15.0 127.89 14.93 0 1 0 5.0 0 17 -6 326 0 5 2015-08-19T21:44:00Z
Cyprid 493335850 2015-08-19 21:44:10 15.11 0 15.0 127.89 14.94 0 1 0 5.0 0 -1 -41 129 0 5 2015-08-19T21:44:10Z
Cyprid 493335860 2015-08-19 21:44:20 15.02 0 15.0 127.89 14.93 0 1 0 5.0 0 35 -9 -110 5 0 2015-08-19T21:44:20Z
Cyprid 493335870 2015-08-19 21:44:30 15.02 0 15.0 127.89 14.93 0 1 0 5.0 0 80 -67 -103 0 1 2015-08-19T21:44:30Z
Cyprid 493335880 2015-08-19 21:44:40 14.91 0 15.0 127.89 14.93 0 1 0 5.0 0 32 -9 -39 5 0 2015-08-19T21:44:40Z
Cyprid 493335890 2015-08-19 21:44:50 15.01 0 15.0 127.89 14.93 0 1 0 5.0 0 3 -63 95 0 5 2015-08-19T21:44:50Z
Cyprid 493335900 2015-08-19 21:45:00 15.0 0 15.0 127.89 14.93 0 1 0 5.0 0 15 5 57 1 0 2015-08-19T21:45:00Z
Cyprid 493335910 2015-08-19 21:45:10 14.93 0 15.0 127.89 14.92 0 1 0 5.0 0 -5 -45 75 3 0 2015-08-19T21:45:10Z
Cyprid 493335920 2015-08-19 21:45:20 15.03 0 15.0 127.89 14.91 0 1 0 5.0 0 14 -7 140 0 5 2015-08-19T21:45:20Z
Cyprid 493335930 2015-08-19 21:45:30 15.0 0 15.0 127.89 14.92 0 1 0 5.0 0 8 -36 56 3 0 2015-08-19T21:45:30Z
Cyprid 493335940 2015-08-19 21:45:40 15.01 0 15.0 127.89 14.91 0 1 0 5.0 0 16 -19 47 0 3 2015-08-19T21:45:40Z
Cyprid 493335950 2015-08-19 21:45:50 15.08 0 15.0 127.89 14.9 0 1 0 5.0 0 52 -21 -46 0 0 2015-08-19T21:45:50Z
Cyprid 493335960 2015-08-19 21:46:00 14.9 0 15.0 127.89 14.91 0 1 0 5.0 0 6 -39 -72 5 0 2015-08-19T21:46:00Z
Cyprid 493335971 2015-08-19 21:46:11 14.86 0 15.0 127.89 14.91 0 1 0 5.0 0 12 -73 106 0 0 2015-08-19T21:46:11Z
Cyprid 493335981 2015-08-19 21:46:21 14.99 0 15.0 127.89 14.91 0 1 0 5.0 0 19 -39 185 0 5 2015-08-19T21:46:21Z
Cyprid 493335991 2015-08-19 21:46:31 14.94 0 15.0 127.89 14.92 0 1 0 5.0 0 35 -51 149 5 0 2015-08-19T21:46:31Z
Cyprid 493336001 2015-08-19 21:46:41 14.96 0 15.0 127.89 14.91 0 1 0 5.0 0 3 -18 232 0 4 2015-08-19T21:46:41Z
Cyprid 493336011 2015-08-19 21:46:51 15.03 0 15.0 127.89 14.9 0 1 0 5.0 0 4 -23 173 0 0 2015-08-19T21:46:51Z
Cyprid 493336021 2015-08-19 21:47:01 14.96 0 15.0 127.89 14.89 0 1 0 5.0 0 3 -17 191 3 0 2015-08-19T21:47:01Z
Cyprid 493336031 2015-08-19 21:47:11 15.06 0 15.0 127.89 14.88 0 1 0 5.0 0 42 -55 217 0 5 2015-08-19T21:47:11Z
Cyprid 493336041 2015-08-19 21:47:21 14.99 0 15.0 127.89 14.87 0 1 0 5.0 0 17 -12 130 5 0 2015-08-19T21:47:21Z
Cyprid 493336051 2015-08-19 21:47:31 15.06 0 15.0 127.89 14.86 0 1 0 5.0 0 5 -70 136 0 5 2015-08-19T21:47:31Z
Cyprid 493336061 2015-08-19 21:47:41 15.18 0 15.0 127.89 14.84 0 1 0 5.0 0 11 -7 -27 0 3 2015-08-19T21:47:41Z
Cyprid 493336071 2015-08-19 21:47:51 15.02 0 15.0 127.89 14.84 0 1 0 5.0 0 52 -45 -191 5 0 2015-08-19T21:47:51Z
Cyprid 493336081 2015-08-19 21:48:01 15.11 0 15.0 127.89 14.84 0 1 0 5.0 0 58 -16 -152 0 4 2015-08-19T21:48:01Z
Cyprid 493336092 2015-08-19 21:48:12 15.14 0 15.0 127.89 14.84 0 1 0 5.0 0 30 -26 -214 2 0 2015-08-19T21:48:12Z
Cyprid 493336102 2015-08-19 21:48:22 15.1 0 15.0 127.89 14.83 0 1 0 5.0 0 32 -9 -126 0 0 2015-08-19T21:48:22Z
Cyprid 493336112 2015-08-19 21:48:32 15.0 0 15.0 127.89 14.85 0 1 0 5.0 0 35 18 3 4 0 2015-08-19T21:48:32Z
Cyprid 493336122 2015-08-19 21:48:42 14.92 0 15.0 127.89 14.85 0 1 0 5.0 0 18 -50 162 0 0 2015-08-19T21:48:42Z
Cyprid 493336132 2015-08-19 21:48:52 15.13 0 15.0 127.89 14.85 0 1 0 5.0 0 37 -74 235 0 5 2015-08-19T21:48:52Z
Cyprid 493336142 2015-08-19 21:49:02 15.2 0 15.0 127.89 14.87 0 1 0 5.0 0 18 -31 77 0 3 2015-08-19T21:49:02Z
Cyprid 493336152 2015-08-19 21:49:12 15.13 0 15.0 127.89 14.88 0 1 0 5.0 0 15 -34 -85 5 0 2015-08-19T21:49:12Z
Cyprid 493336162 2015-08-19 21:49:22 15.07 0 15.0 127.89 14.88 0 1 0 5.0 0 0 -50 -39 0 1 2015-08-19T21:49:22Z
Cyprid 493336172 2015-08-19 21:49:32 15.01 0 15.0 127.89 14.89 0 1 0 5.0 0 23 8 21 2 0 2015-08-19T21:49:32Z
Cyprid 493336182 2015-08-19 21:49:42 15.11 0 15.0 127.89 14.89 0 1 0 5.0 0 22 -42 50 0 5 2015-08-19T21:49:42Z
Cyprid 493336192 2015-08-19 21:49:52 15.05 0 15.0 127.89 14.89 0 1 0 5.0 0 43 9 -4 5 0 2015-08-19T21:49:52Z
Cyprid 493336202 2015-08-19 21:50:02 15.09 0 15.0 127.89 14.88 0 1 0 5.0 0 23 -92 7 0 5 2015-08-19T21:50:02Z
Cyprid 493336213 2015-08-19 21:50:13 15.09 0 15.0 127.89 14.87 0 1 0 5.0 0 38 -34 -71 3 0 2015-08-19T21:50:13Z
Cyprid 493336223 2015-08-19 21:50:23 14.94 0 15.0 127.89 14.88 0 1 0 5.0 0 37 -49 59 5 0 2015-08-19T21:50:23Z
Cyprid 493336233 2015-08-19 21:50:33 15.09 0 15.0 127.89 14.87 0 1 0 5.0 0 30 -15 249 0 5 2015-08-19T21:50:33Z
Cyprid 493336243 2015-08-19 21:50:43 15.08 0 15.0 127.89 14.88 0 1 0 5.0 0 41 4 195 0 1 2015-08-19T21:50:43Z
Cyprid 493336253 2015-08-19 21:50:53 15.01 0 15.0 127.89 14.88 0 1 0 5.0 0 25 -87 148 3 0 2015-08-19T21:50:53Z
Cyprid 493336263 2015-08-19 21:51:03 15.08 0 15.0 127.89 14.88 0 1 0 5.0 0 25 -78 123 0 5 2015-08-19T21:51:03Z
Cyprid 493336273 2015-08-19 21:51:13 15.13 0 15.0 127.89 14.87 0 1 0 5.0 0 22 -34 -7 0 0 2015-08-19T21:51:13Z
Cyprid 493336283 2015-08-19 21:51:23 15.02 0 15.0 127.89 14.87 0 1 0 5.0 0 16 1 -90 5 0 2015-08-19T21:51:23Z
Cyprid 493336293 2015-08-19 21:51:33 15.02 0 15.0 127.89 14.89 0 1 0 5.0 0 -15 -4 -11 0 4 2015-08-19T21:51:33Z
Cyprid 493336303 2015-08-19 21:51:43 14.95 0 15.0 127.89 14.9 0 1 0 5.0 0 20 -67 14 5 0 2015-08-19T21:51:43Z
Cyprid 493336313 2015-08-19 21:51:53 14.95 0 15.0 127.89 14.9 0 1 0 5.0 0 -12 -42 132 0 3 2015-08-19T21:51:53Z
Cyprid 493336323 2015-08-19 21:52:03 15.07 0 15.0 127.89 14.91 0 1 0 5.0 0 27 -16 77 0 3 2015-08-19T21:52:03Z
Cyprid 493336334 2015-08-19 21:52:14 15.02 0 15.0 127.89 14.91 0 1 0 5.0 0 34 -28 -26 5 0 2015-08-19T21:52:14Z
Cyprid 493336344 2015-08-19 21:52:24 14.9 0 15.0 127.89 14.9 0 1 0 5.0 0 32 -14 102 1 0 2015-08-19T21:52:24Z
Cyprid 493336354 2015-08-19 21:52:34 14.97 0 15.0 127.89 14.9 0 1 0 5.0 0 35 -29 201 0 5 2015-08-19T21:52:34Z
Cyprid 493336364 2015-08-19 21:52:44 14.98 0 15.0 127.89 14.91 0 1 0 5.0 0 2 -42 162 5 0 2015-08-19T21:52:44Z
Cyprid 493336374 2015-08-19 21:52:54 14.92 0 15.0 127.89 14.91 0 1 0 5.0 0 -7 -32 246 0 1 2015-08-19T21:52:54Z
Cyprid 493336384 2015-08-19 21:53:04 15.03 0 15.0 127.89 14.9 0 1 0 5.0 0 19 -57 206 0 5 2015-08-19T21:53:04Z
Cyprid 493336394 2015-08-19 21:53:14 15.03 0 15.0 127.89 14.88 0 1 0 5.0 0 38 15 115 5 0 2015-08-19T21:53:14Z
Cyprid 493336404 2015-08-19 21:53:24 15.05 0 15.0 127.89 14.86 0 1 0 5.0 0 21 -58 100 0 5 2015-08-19T21:53:24Z
Cyprid 493336414 2015-08-19 21:53:34 15.13 0 15.0 127.89 14.86 0 1 0 5.0 0 18 -21 -46 0 0 2015-08-19T21:53:34Z
Cyprid 493336424 2015-08-19 21:53:44 15.05 0 15.0 127.89 14.86 0 1 0 5.0 0 13 3 -111 4 0 2015-08-19T21:53:44Z
Cyprid 493336434 2015-08-19 21:53:54 14.9 0 15.0 127.89 14.87 0 1 0 5.0 0 10 -34 77 3 0 2015-08-19T21:53:54Z
Cyprid 493336444 2015-08-19 21:54:04 14.94 0 15.0 127.89 14.89 0 1 0 5.0 0 14 -26 256 0 5 2015-08-19T21:54:04Z
Cyprid 493336455 2015-08-19 21:54:15 14.9 0 15.0 127.89 14.88 0 1 0 5.0 0 15 -88 289 5 0 2015-08-19T21:54:15Z
Cyprid 493336465 2015-08-19 21:54:25 15.11 0 15.0 127.89 14.86 0 1 0 5.0 0 28 -38 361 0 5 2015-08-19T21:54:25Z
Cyprid 493336475 2015-08-19 21:54:35 15.06 0 15.0 127.89 14.86 0 1 0 5.0 0 33 -38 247 0 0 2015-08-19T21:54:35Z
Cyprid 493336485 2015-08-19 21:54:45 15.05 0 15.0 127.89 14.86 0 1 0 5.0 0 28 -19 182 0 0 2015-08-19T21:54:45Z
Cyprid 493336495 2015-08-19 21:54:55 15.17 0 15.0 127.89 14.85 0 1 0 5.0 0 40 -68 49 0 5 2015-08-19T21:54:55Z
Cyprid 493336505 2015-08-19 21:55:05 15.14 0 15.0 127.89 14.85 0 1 0 5.0 0 9 -1 -143 5 0 2015-08-19T21:55:05Z
Cyprid 493336515 2015-08-19 21:55:15 14.94 0 15.0 127.89 14.85 0 1 0 5.0 0 15 -3 -28 4 0 2015-08-19T21:55:15Z
Cyprid 493336525 2015-08-19 21:55:25 14.97 0 15.0 127.89 14.85 0 1 0 5.0 0 3 -76 116 0 5 2015-08-19T21:55:25Z
Cyprid 493336535 2015-08-19 21:55:35 15.02 0 15.0 127.89 14.85 0 1 0 5.0 0 23 -16 69 0 0 2015-08-19T21:55:35Z
Cyprid 493336545 2015-08-19 21:55:45 14.92 0 15.0 127.89 14.86 0 1 0 5.0 0 24 -13 77 5 0 2015-08-19T21:55:45Z
Cyprid 493336555 2015-08-19 21:55:55 14.91 0 15.0 127.89 14.85 0 1 0 5.0 0 52 -22 158 0 3 2015-08-19T21:55:55Z
Cyprid 493336565 2015-08-19 21:56:05 14.97 0 15.0 127.89 14.85 0 1 0 5.0 0 19 -56 196 0 0 2015-08-19T21:56:05Z
Cyprid 493336575 2015-08-19 21:56:15 14.91 0 15.0 127.89 14.83 0 1 0 5.0 0 38 -52 236 3 0 2015-08-19T21:56:15Z
Cyprid 493336585 2015-08-19 21:56:25 15.0 0 15.0 127.89 14.84 0 1 0 5.0 0 9 -52 284 0 5 2015-08-19T21:56:25Z
Cyprid 493336595 2015-08-19 21:56:35 15.13 0 15.0 127.89 14.83 0 1 0 5.0 0 71 -24 115 0 4 2015-08-19T21:56:35Z
Cyprid 493336605 2015-08-19 21:56:45 15.13 0 15.0 127.89 14.84 0 1 0 5.0 0 9 -43 -138 4 0 2015-08-19T21:56:45Z
Cyprid 493336615 2015-08-19 21:56:55 15.11 0 15.0 127.89 14.84 0 1 0 5.0 0 36 -38 -104 0 2 2015-08-19T21:56:55Z
Cyprid 493336625 2015-08-19 21:57:05 15.21 0 15.0 127.89 14.85 0 1 0 5.0 0 12 -44 -238 0 3 2015-08-19T21:57:05Z
Cyprid 493336635 2015-08-19 21:57:15 15.22 0 15.0 127.89 14.85 0 1 0 5.0 0 15 -24 -341 1 0 2015-08-19T21:57:15Z
Cyprid 493336645 2015-08-19 21:57:25 14.97 0 15.0 127.89 14.87 0 1 0 5.0 0 22 -16 -291 5 0 2015-08-19T21:57:25Z
Cyprid 493336655 2015-08-19 21:57:35 14.87 0 15.0 127.89 14.89 0 1 0 5.0 0 36 -19 -61 4 0 2015-08-19T21:57:35Z
Cyprid 493336665 2015-08-19 21:57:45 14.88 0 15.0 127.89 14.9 0 1 0 5.0 0 29 -35 152 0 3 2015-08-19T21:57:45Z
Cyprid 493336675 2015-08-19 21:57:55 14.96 0 15.0 127.89 14.9 0 1 0 5.0 0 64 -77 186 0 2 2015-08-19T21:57:55Z
Cyprid 493336685 2015-08-19 21:58:05 14.99 0 15.0 127.89 14.9 0 1 0 5.0 0 23 -59 146 1 0 2015-08-19T21:58:05Z
Cyprid 493336696 2015-08-19 21:58:16 14.91 0 15.0 127.89 14.91 0 1 0 5.0 0 19 -52 196 3 0 2015-08-19T21:58:16Z
Cyprid 493336706 2015-08-19 21:58:26 15.0 0 15.0 127.89 14.91 0 1 0 5.0 0 27 -30 269 0 5 2015-08-19T21:58:26Z
Cyprid 493336716 2015-08-19 21:58:36 15.05 0 15.0 127.89 14.92 0 1 0 5.0 0 23 -61 166 0 0 2015-08-19T21:58:36Z
Cyprid 493336726 2015-08-19 21:58:46 14.97 0 15.0 127.89 14.92 0 1 0 5.0 0 22 -58 136 5 0 2015-08-19T21:58:46Z
Cyprid 493336736 2015-08-19 21:58:56 15.02 0 15.0 127.89 14.92 0 1 0 5.0 0 18 -11 216 0 5 2015-08-19T21:58:56Z
Cyprid 493336746 2015-08-19 21:59:06 15.08 0 15.0 127.89 14.92 0 1 0 5.0 0 35 -44 123 0 1 2015-08-19T21:59:06Z
Cyprid 493336756 2015-08-19 21:59:16 15.09 0 15.0 127.89 14.92 0 1 0 5.0 0 15 -52 -51 0 0 2015-08-19T21:59:16Z
Cyprid 493336766 2015-08-19 21:59:26 14.95 0 15.0 127.89 14.92 0 1 0 5.0 0 10 5 -96 5 0 2015-08-19T21:59:26Z
Cyprid 493336776 2015-08-19 21:59:36 14.93 0 15.0 127.89 14.92 0 1 0 5.0 0 2 31 37 0 2 2015-08-19T21:59:36Z
Cyprid 493336786 2015-08-19 21:59:46 14.94 0 15.0 127.89 14.91 0 1 0 5.0 0 21 -20 77 0 0 2015-08-19T21:59:46Z
Cyprid 493336796 2015-08-19 21:59:56 14.91 0 15.0 127.89 14.91 0 1 0 5.0 0 13 0 131 2 0 2015-08-19T21:59:56Z
Cyprid 493336806 2015-08-19 22:00:06 14.96 0 15.0 127.89 14.91 0 1 0 5.0 0 13 0 131 0 0 2015-08-19T22:00:06Z
Cyprid 493336806 2015-08-19 22:00:06 14.95 0 15.0 127.89 14.91 0 1 0 5.0 0 13 0 131 0 120 2015-08-19T22:00:06Z
Cyprid 493336833 2015-08-19 22:00:33 14.13 0 15.0 127.89 14.91 0 1 0 5.0 0 13 0 131 0 120 2015-08-19T22:00:33Z
Cyprid 493336860 2015-08-19 22:01:00 11.37 0 15.0 127.89 14.91 0 1 0 5.0 0 13 0 131 0 120 2015-08-19T22:01:00Z
Cyprid 493336887 2015-08-19 22:01:27 7.88 0 15.0 127.89 14.91 0 1 0 5.0 0 13 0 131 0 0 2015-08-19T22:01:27Z
Cyprid 493336887 2015-08-19 22:01:27 7.83 0 15.0 127.89 14.91 0 1 0 5.0 0 13 0 131 0 0 2015-08-19T22:01:27Z
Cyprid 493336888 2015-08-19 22:01:28 7.78 0 15.0 127.89 14.91 0 1 0 5.0 0 13 0 131 0 0 2015-08-19T22:01:28Z
Cyprid 493336888 2015-08-19 22:01:28 7.74 0 15.0 127.89 14.91 0 1 0 5.0 0 13 0 131 0 0 2015-08-19T22:01:28Z
Cyprid 493336888 2015-08-19 22:01:28 7.69 0 15.0 127.89 14.91 0 1 0 5.0 0 13 0 131 0 0 2015-08-19T22:01:28Z
Cyprid 493336888 2015-08-19 22:01:28 7.63 0 15.0 127.89 14.91 0 1 0 5.0 0 13 0 131 0 0 2015-08-19T22:01:28Z
Cyprid 493336889 2015-08-19 22:01:29 7.58 0 15.0 127.89 14.91 0 1 0 5.0 0 13 0 131 0 0 2015-08-19T22:01:29Z
Cyprid 493336889 2015-08-19 22:01:29 7.54 0 15.0 127.89 14.91 0 1 0 5.0 0 13 0 131 0 0 2015-08-19T22:01:29Z
Cyprid 493336889 2015-08-19 22:01:29 7.49 0 15.0 127.89 14.91 0 1 0 5.0 0 13 0 131 0 0 2015-08-19T22:01:29Z
Cyprid 493336896 2015-08-19 22:01:36 6.59 0 15.0 127.89 14.91 0 1 0 5.0 0 13 0 131 0 0 2015-08-19T22:01:36Z
Cyprid 493336906 2015-08-19 22:01:46 5.16 0 15.0 127.89 14.91 0 1 0 5.0 0 13 0 131 0 0 2015-08-19T22:01:46Z
Cyprid 493336916 2015-08-19 22:01:56 3.75 0 15.0 127.89 14.91 0 1 0 5.0 0 13 0 131 0 0 2015-08-19T22:01:56Z
Cyprid 493336926 2015-08-19 22:02:06 2.35 0 15.0 127.89 14.91 0 1 0 5.0 0 13 0 131 0 0 2015-08-19T22:02:06Z
Cyprid 493336936 2015-08-19 22:02:16 0.9 0 15.0 127.89 14.91 0 1 0 5.0 0 13 0 131 0 0 2015-08-19T22:02:16Z
Cyprid 493336946 2015-08-19 22:02:26 0.04 0 15.0 127.89 14.91 0 1 0 5.0 0 13 0 131 0 0 2015-08-19T22:02:26Z
Cyprid 493336990 2015-08-19 22:03:10 5 17.4 0 226 0 15.59 0 38.288397 -123.008817 5.2 8.79 2015-08-19T22:03:10Z
Cyprid 493336991 2015-08-19 22:03:11 0.04 0 15.0 127.89 17.44 0 226 0 5.0 0 13 0 131 0 120 2015-08-19T22:03:11Z
Cyprid 493337235 2015-08-19 22:07:15 0.0 0 15.0 127.89 17.44 0 4 0 5.0 0 -1408 -1555 -397 22 0 2015-08-19T22:07:15Z
Cyprid 493337240 2015-08-19 22:07:20 0.0 0 15.0 127.89 17.44 0 4 0 5.0 0 -1581 -1619 -328 22 0 2015-08-19T22:07:20Z
Cyprid 493337245 2015-08-19 22:07:25 0.0 0 15.0 127.89 17.44 0 4 0 5.0 0 1433 32 417 21 0 2015-08-19T22:07:25Z
Cyprid 493337250 2015-08-19 22:07:30 0.0 0 15.0 127.89 17.44 0 4 0 5.0 0 -1881 -1916 379 22 0 2015-08-19T22:07:30Z
Cyprid 493337255 2015-08-19 22:07:35 0.0 0 15.0 127.89 17.44 0 4 0 5.0 0 1508 -1936 487 21 0 2015-08-19T22:07:35Z
Cyprid 493337260 2015-08-19 22:07:40 0.0 0 15.0 127.89 17.44 0 4 0 5.0 0 215 -2338 557 22 0 2015-08-19T22:07:40Z
Cyprid 493337265 2015-08-19 22:07:45 0.0 0 15.0 127.89 17.44 0 4 0 5.0 0 1159 -136 638 22 0 2015-08-19T22:07:45Z
Cyprid 493337270 2015-08-19 22:07:50 0.0 0 15.0 127.89 17.44 0 4 0 5.0 0 -1174 34 -150 22 0 2015-08-19T22:07:50Z
Cyprid 493337275 2015-08-19 22:07:55 0.0 0 15.0 127.89 17.44 0 4 0 5.0 0 -2123 1409 1119 21 0 2015-08-19T22:07:55Z
Cyprid 493337280 2015-08-19 22:08:00 0.0 0 15.0 127.89 17.44 0 4 0 5.0 0 -535 1649 -22 22 0 2015-08-19T22:08:00Z
Cyprid 493337285 2015-08-19 22:08:05 0.0 0 15.0 127.89 17.44 0 4 0 5.0 0 -398 -598 -139 22 0 2015-08-19T22:08:05Z
Cyprid 493337290 2015-08-19 22:08:10 0.0 0 15.0 127.89 17.44 0 4 0 5.0 0 -72 -2761 52 22 0 2015-08-19T22:08:10Z
Cyprid 493337295 2015-08-19 22:08:15 0.0 0 15.0 127.89 17.44 0 4 0 5.0 0 -1262 862 549 21 0 2015-08-19T22:08:15Z
Cyprid 493337300 2015-08-19 22:08:20 0.0 0 15.0 127.89 17.44 0 4 0 5.0 0 673 -556 -395 21 0 2015-08-19T22:08:20Z
Cyprid 493337305 2015-08-19 22:08:25 0.0 0 15.0 127.89 17.44 0 4 0 5.0 0 140 845 97 22 0 2015-08-19T22:08:25Z
Cyprid 493337310 2015-08-19 22:08:30 0.0 0 15.0 127.89 17.44 0 4 0 5.0 0 -140 -477 -375 22 0 2015-08-19T22:08:30Z
Cyprid 493337315 2015-08-19 22:08:35 0.0 0 15.0 127.89 17.44 0 4 0 5.0 0 1919 -504 448 22 0 2015-08-19T22:08:35Z
Cyprid 493337320 2015-08-19 22:08:40 0.0 0 15.0 127.89 17.44 0 4 0 5.0 0 747 -1998 -204 22 0 2015-08-19T22:08:40Z
Cyprid 493337325 2015-08-19 22:08:45 0.0 0 15.0 127.89 17.44 0 4 0 5.0 0 729 216 244 22 0 2015-08-19T22:08:45Z
Cyprid 493337330 2015-08-19 22:08:50 0.0 0 15.0 127.89 17.44 0 4 0 5.0 0 -235 -1185 455 22 0 2015-08-19T22:08:50Z
Cyprid 493337335 2015-08-19 22:08:55 0.04 0 15.0 127.89 17.44 0 4 0 5.0 0 -280 -567 462 22 0 2015-08-19T22:08:55Z
Cyprid 493337340 2015-08-19 22:09:00 0.09 0 15.0 127.89 17.44 0 4 0 5.0 0 -1503 -1033 592 22 0 2015-08-19T22:09:00Z
Cyprid 493337345 2015-08-19 22:09:05 0.19 0 15.0 127.89 17.44 0 4 0 5.0 0 -1400 -933 1302 22 0 2015-08-19T22:09:05Z
Cyprid 493337350 2015-08-19 22:09:10 0.35 0 15.0 127.89 17.44 0 4 0 5.0 0 588 -90 2246 22 0 2015-08-19T22:09:10Z
Cyprid 493337350 2015-08-19 22:09:10 0.39 0 15.0 127.89 17.44 0 5 0 5.0 0 -909 -98 2245 125 0 2015-08-19T22:09:10Z
Cyprid 493337382 2015-08-19 22:09:42 2.9 0 15.0 127.89 17.44 0 7 0 5.0 0 37 -140 4903 0 0 2015-08-19T22:09:42Z
Cyprid 493337387 2015-08-19 22:09:47 3.48 0 15.0 127.89 17.44 0 7 0 5.0 0 -3 -191 3508 0 125 2015-08-19T22:09:47Z
Cyprid 493337419 2015-08-19 22:10:19 6.74 0 15.0 127.89 17.44 0 7 0 5.0 0 -11 -109 1910 0 70 2015-08-19T22:10:19Z
Cyprid 493337439 2015-08-19 22:10:39 7.89 0 15.0 127.89 17.44 0 8 0 5.0 0 -22 -93 1756 0 5 2015-08-19T22:10:39Z
Cyprid 493337449 2015-08-19 22:10:49 8.3 0 15.0 127.89 17.44 0 8 0 5.0 0 23 -70 1542 0 5 2015-08-19T22:10:49Z
Cyprid 493337459 2015-08-19 22:10:59 8.61 0 15.0 127.89 17.44 0 8 0 5.0 0 14 -78 1397 0 0 2015-08-19T22:10:59Z
Cyprid 493337469 2015-08-19 22:11:09 8.93 0 15.0 127.89 17.44 0 8 0 5.0 0 28 -100 1311 0 2 2015-08-19T22:11:09Z
Cyprid 493337479 2015-08-19 22:11:19 9.25 0 15.0 127.89 17.44 0 8 0 5.0 0 15 -75 1268 0 1 2015-08-19T22:11:19Z
Cyprid 493337489 2015-08-19 22:11:29 9.57 0 15.0 127.89 17.44 0 8 0 5.0 0 14 -88 1226 0 2 2015-08-19T22:11:29Z
Cyprid 493337499 2015-08-19 22:11:39 9.8 0 15.0 127.89 17.44 0 8 0 5.0 0 -27 -71 1162 1 0 2015-08-19T22:11:39Z
Cyprid 493337509 2015-08-19 22:11:49 10.05 0 15.0 127.89 17.44 0 8 0 5.0 0 -11 -50 1206 0 1 2015-08-19T22:11:49Z
Cyprid 493337519 2015-08-19 22:11:59 10.32 0 15.0 127.89 17.44 0 8 0 5.0 0 27 -68 1138 0 2 2015-08-19T22:11:59Z
Cyprid 493337529 2015-08-19 22:12:09 10.58 0 15.0 127.89 17.44 0 8 0 5.0 0 15 -82 1056 0 0 2015-08-19T22:12:09Z
Cyprid 493337539 2015-08-19 22:12:19 10.83 0 15.0 127.89 17.44 0 8 0 5.0 0 -3 -59 1075 0 2 2015-08-19T22:12:19Z
Cyprid 493337549 2015-08-19 22:12:29 11.11 0 15.0 127.89 17.44 0 8 0 5.0 0 1 -67 1005 0 4 2015-08-19T22:12:29Z
Cyprid 493337559 2015-08-19 22:12:39 11.31 0 15.0 127.89 17.44 0 8 0 5.0 0 32 -43 810 1 0 2015-08-19T22:12:39Z
Cyprid 493337569 2015-08-19 22:12:49 11.42 0 15.0 127.89 17.44 0 8 0 5.0 0 -7 -13 819 2 0 2015-08-19T22:12:49Z
Cyprid 493337579 2015-08-19 22:12:59 11.67 0 15.0 127.89 17.44 0 8 0 5.0 0 14 -64 928 0 5 2015-08-19T22:12:59Z
Cyprid 493337589 2015-08-19 22:13:09 11.87 0 15.0 127.89 17.44 0 8 0 5.0 0 27 -35 743 0 0 2015-08-19T22:13:09Z
Cyprid 493337599 2015-08-19 22:13:19 12.05 0 15.0 127.89 17.44 0 8 0 5.0 0 23 -37 726 0 1 2015-08-19T22:13:19Z
Cyprid 493337609 2015-08-19 22:13:29 12.08 0 15.0 127.89 17.44 0 8 0 5.0 0 -21 -89 659 5 0 2015-08-19T22:13:29Z
Cyprid 493337619 2015-08-19 22:13:39 12.3 0 15.0 127.89 17.44 0 8 0 5.0 0 -22 -53 894 0 5 2015-08-19T22:13:39Z
Cyprid 493337629 2015-08-19 22:13:49 12.62 0 15.0 127.89 17.44 0 8 0 5.0 0 21 -27 730 0 5 2015-08-19T22:13:49Z
Cyprid 493337639 2015-08-19 22:13:59 12.62 0 15.0 127.89 17.44 0 8 0 5.0 0 0 -20 462 5 0 2015-08-19T22:13:59Z
Cyprid 493337649 2015-08-19 22:14:09 12.72 0 15.0 127.89 17.44 0 8 0 5.0 0 33 -41 608 0 3 2015-08-19T22:14:09Z
Cyprid 493337659 2015-08-19 22:14:19 13.07 0 15.0 127.89 17.44 0 8 0 5.0 0 -16 -31 537 0 5 2015-08-19T22:14:19Z
Cyprid 493337669 2015-08-19 22:14:29 13.0 0 15.0 127.89 17.44 0 8 0 5.0 0 15 -56 259 5 0 2015-08-19T22:14:29Z
Cyprid 493337679 2015-08-19 22:14:39 13.14 0 15.0 127.89 17.44 0 8 0 5.0 0 6 -56 310 0 5 2015-08-19T22:14:39Z
Cyprid 493337689 2015-08-19 22:14:49 13.2 0 15.0 127.89 17.44 0 8 0 5.0 0 -7 -23 194 3 0 2015-08-19T22:14:49Z
Cyprid 493337699 2015-08-19 22:14:59 13.23 0 15.0 127.89 17.44 0 8 0 5.0 0 0 -40 249 1 0 2015-08-19T22:14:59Z
Cyprid 493337709 2015-08-19 22:15:09 13.28 0 15.0 127.89 17.44 0 8 0 5.0 0 11 -60 350 1 0 2015-08-19T22:15:09Z
Cyprid 493337719 2015-08-19 22:15:19 13.28 0 15.0 127.89 17.44 0 8 0 5.0 0 20 -38 430 5 0 2015-08-19T22:15:19Z
Cyprid 493337729 2015-08-19 22:15:29 13.53 0 15.0 127.89 17.44 0 8 0 5.0 0 0 -64 720 0 5 2015-08-19T22:15:29Z
Cyprid 493337739 2015-08-19 22:15:39 13.66 0 15.0 127.89 17.44 0 8 0 5.0 0 20 -57 579 0 3 2015-08-19T22:15:39Z
Cyprid 493337749 2015-08-19 22:15:49 13.75 0 15.0 127.89 17.44 0 8 0 5.0 0 14 -32 368 0 0 2015-08-19T22:15:49Z
Cyprid 493337759 2015-08-19 22:15:59 13.94 0 15.0 127.89 17.44 0 8 0 5.0 0 12 -49 267 0 5 2015-08-19T22:15:59Z
Cyprid 493337769 2015-08-19 22:16:09 13.86 0 15.0 127.89 17.44 0 8 0 5.0 0 6 -11 19 5 0 2015-08-19T22:16:09Z
Cyprid 493337779 2015-08-19 22:16:19 13.93 0 15.0 127.89 17.44 0 8 0 5.0 0 21 -1 21 0 3 2015-08-19T22:16:19Z
Cyprid 493337789 2015-08-19 22:16:29 13.79 0 15.0 127.89 17.44 0 8 0 5.0 0 20 3 -112 5 0 2015-08-19T22:16:29Z
Cyprid 493337799 2015-08-19 22:16:39 13.74 0 15.0 127.89 17.44 0 8 0 5.0 0 10 -7 41 5 0 2015-08-19T22:16:39Z
Cyprid 493337809 2015-08-19 22:16:49 13.95 0 15.0 127.89 17.44 0 8 0 5.0 0 24 -36 485 0 5 2015-08-19T22:16:49Z
Cyprid 493337819 2015-08-19 22:16:59 14.02 0 15.0 127.89 17.44 0 8 0 5.0 0 9 -36 451 0 0 2015-08-19T22:16:59Z
Cyprid 493337829 2015-08-19 22:17:09 14.1 0 15.0 127.89 17.44 0 8 0 5.0 0 17 -37 413 0 0 2015-08-19T22:17:09Z
Cyprid 493337839 2015-08-19 22:17:19 14.23 0 15.0 127.89 17.44 0 8 0 5.0 0 21 -40 398 0 5 2015-08-19T22:17:19Z
Cyprid 493337849 2015-08-19 22:17:29 14.3 0 15.0 127.89 17.44 0 8 0 5.0 0 11 -45 181 2 0 2015-08-19T22:17:29Z
Cyprid 493337859 2015-08-19 22:17:39 14.3 0 15.0 127.89 17.44 0 8 0 5.0 0 26 -1 130 0 0 2015-08-19T22:17:39Z
Cyprid 493337869 2015-08-19 22:17:49 14.31 0 15.0 127.89 17.44 0 8 0 5.0 0 11 -40 109 1 0 2015-08-19T22:17:49Z
Cyprid 493337879 2015-08-19 22:17:59 14.38 0 15.0 127.89 17.44 0 8 0 5.0 0 24 -26 140 0 2 2015-08-19T22:17:59Z
Cyprid 493337889 2015-08-19 22:18:09 14.6 0 15.0 127.89 17.44 0 8 0 5.0 0 15 -27 81 0 5 2015-08-19T22:18:09Z
Cyprid 493337899 2015-08-19 22:18:19 14.45 0 15.0 127.89 17.44 0 8 0 5.0 0 11 -5 -194 5 0 2015-08-19T22:18:19Z
Cyprid 493337909 2015-08-19 22:18:29 14.35 0 15.0 127.89 17.44 0 8 0 5.0 0 25 -13 -97 4 0 2015-08-19T22:18:29Z
Cyprid 493337919 2015-08-19 22:18:39 14.45 0 15.0 127.89 17.44 0 8 0 5.0 0 21 -12 179 0 5 2015-08-19T22:18:39Z
Cyprid 493337929 2015-08-19 22:18:49 14.41 0 15.0 127.89 17.44 0 8 0 5.0 0 18 -25 165 5 0 2015-08-19T22:18:49Z
Cyprid 493337939 2015-08-19 22:18:59 14.45 0 15.0 127.89 17.44 0 8 0 5.0 0 15 -50 337 0 2 2015-08-19T22:18:59Z
Cyprid 493337949 2015-08-19 22:19:09 14.49 0 15.0 127.89 17.44 0 8 0 5.0 0 27 -21 346 1 0 2015-08-19T22:19:09Z
Cyprid 493337959 2015-08-19 22:19:19 14.67 0 15.0 127.89 17.44 0 8 0 5.0 0 21 -7 386 0 5 2015-08-19T22:19:19Z
Cyprid 493337969 2015-08-19 22:19:29 14.73 0 15.0 127.89 17.44 0 8 0 5.0 0 9 -29 195 0 1 2015-08-19T22:19:29Z
Cyprid 493337979 2015-08-19 22:19:39 14.69 0 15.0 127.89 17.44 0 8 0 5.0 0 6 -27 27 2 0 2015-08-19T22:19:39Z
Cyprid 493337989 2015-08-19 22:19:49 14.69 0 15.0 127.89 17.44 0 8 0 5.0 0 34 -34 -5 0 1 2015-08-19T22:19:49Z
Cyprid 493337999 2015-08-19 22:19:59 14.62 0 15.0 127.89 17.44 0 8 0 5.0 0 21 -41 -61 5 0 2015-08-19T22:19:59Z
Cyprid 493338009 2015-08-19 22:20:09 14.62 0 15.0 127.89 17.44 0 8 0 5.0 0 -2 -25 126 0 3 2015-08-19T22:20:09Z
Cyprid 493338019 2015-08-19 22:20:19 14.7 0 15.0 127.89 17.44 0 8 0 5.0 0 5 -33 136 0 1 2015-08-19T22:20:19Z
Cyprid 493338029 2015-08-19 22:20:29 14.65 0 15.0 127.89 17.44 0 8 0 5.0 0 4 -37 98 4 0 2015-08-19T22:20:29Z
Cyprid 493338039 2015-08-19 22:20:39 14.63 0 15.0 127.89 17.44 0 8 0 5.0 0 14 -53 230 0 1 2015-08-19T22:20:39Z
Cyprid 493338049 2015-08-19 22:20:49 14.7 0 15.0 127.89 17.44 0 8 0 5.0 0 2 -41 270 0 1 2015-08-19T22:20:49Z
Cyprid 493338059 2015-08-19 22:20:59 14.84 0 15.0 127.89 17.44 0 8 0 5.0 0 43 -34 241 0 5 2015-08-19T22:20:59Z
Cyprid 493338069 2015-08-19 22:21:09 14.85 0 15.0 127.89 17.44 0 8 0 5.0 0 10 -34 26 3 0 2015-08-19T22:21:09Z
Cyprid 493338079 2015-08-19 22:21:19 14.78 0 15.0 127.89 17.44 0 8 0 5.0 0 43 -19 -7 1 0 2015-08-19T22:21:19Z
Cyprid 493338089 2015-08-19 22:21:29 14.91 0 15.0 127.89 17.44 0 8 0 5.0 0 30 -31 47 0 5 2015-08-19T22:21:29Z
Cyprid 493338099 2015-08-19 22:21:39 14.78 0 15.0 127.89 17.44 0 8 0 5.0 0 18 -4 -124 5 0 2015-08-19T22:21:39Z
Cyprid 493338109 2015-08-19 22:21:49 14.62 0 15.0 127.89 17.44 0 8 0 5.0 0 5 -35 -29 5 0 2015-08-19T22:21:49Z
Cyprid 493338119 2015-08-19 22:21:59 14.8 0 15.0 127.89 17.44 0 8 0 5.0 0 33 -32 263 0 5 2015-08-19T22:21:59Z
Cyprid 493338129 2015-08-19 22:22:09 14.86 0 15.0 127.89 17.44 0 8 0 5.0 0 29 -41 232 0 1 2015-08-19T22:22:09Z
Cyprid 493338139 2015-08-19 22:22:19 14.87 0 15.0 127.89 17.44 0 8 0 5.0 0 41 -18 165 0 0 2015-08-19T22:22:19Z
Cyprid 493338149 2015-08-19 22:22:29 14.94 0 15.0 127.89 17.44 0 8 0 5.0 0 25 -30 118 0 3 2015-08-19T22:22:29Z
Cyprid 493338159 2015-08-19 22:22:39 14.9 0 15.0 127.89 17.44 0 8 0 5.0 0 25 -19 -80 3 0 2015-08-19T22:22:39Z
Cyprid 493338169 2015-08-19 22:22:49 14.89 0 15.0 127.89 17.44 0 8 0 5.0 0 -3 -10 -73 0 1 2015-08-19T22:22:49Z
Cyprid 493338179 2015-08-19 22:22:59 14.94 0 15.0 127.89 17.44 0 8 0 5.0 0 4 -22 -87 0 2 2015-08-19T22:22:59Z
Cyprid 493338189 2015-08-19 22:23:09 14.75 0 15.0 127.89 17.44 0 8 0 5.0 0 -4 -34 -221 5 0 2015-08-19T22:23:09Z
Cyprid 493338199 2015-08-19 22:23:19 14.72 0 15.0 127.89 17.44 0 8 0 5.0 0 5 -40 -67 2 0 2015-08-19T22:23:19Z
Cyprid 493338209 2015-08-19 22:23:29 14.91 0 15.0 127.89 17.44 0 8 0 5.0 0 21 -28 142 0 5 2015-08-19T22:23:29Z
Cyprid 493338219 2015-08-19 22:23:39 15.09 0 15.0 127.89 17.44 0 8 0 5.0 0 20 17 80 0 5 2015-08-19T22:23:39Z
Cyprid 493338229 2015-08-19 22:23:49 14.99 0 15.0 127.89 17.44 0 8 0 5.0 0 13 -32 -258 5 0 2015-08-19T22:23:49Z
Cyprid 493338239 2015-08-19 22:23:59 14.86 0 15.0 127.89 17.44 0 8 0 5.0 0 12 4 -192 3 0 2015-08-19T22:23:59Z
Cyprid 493338249 2015-08-19 22:24:09 14.91 0 15.0 127.89 17.44 0 8 0 5.0 0 27 -12 17 0 5 2015-08-19T22:24:09Z
Cyprid 493338259 2015-08-19 22:24:19 14.97 0 15.0 127.89 17.44 0 8 0 5.0 0 9 -32 -57 1 0 2015-08-19T22:24:19Z
Cyprid 493338269 2015-08-19 22:24:29 14.97 0 15.0 127.89 17.44 0 8 0 5.0 0 5 -24 -65 0 0 2015-08-19T22:24:29Z
Cyprid 493338279 2015-08-19 22:24:39 14.86 0 15.0 127.89 17.44 0 8 0 5.0 0 27 -39 -53 5 0 2015-08-19T22:24:39Z
Cyprid 493338289 2015-08-19 22:24:49 14.73 0 15.0 127.89 17.44 0 8 0 5.0 0 28 -33 131 2 0 2015-08-19T22:24:49Z
Cyprid 493338299 2015-08-19 22:24:59 14.84 0 15.0 127.89 17.44 0 8 0 5.0 0 27 -63 413 0 5 2015-08-19T22:24:59Z
Cyprid 493338309 2015-08-19 22:25:09 14.94 0 15.0 127.89 17.44 0 8 0 5.0 0 7 -51 313 0 1 2015-08-19T22:25:09Z
Cyprid 493338319 2015-08-19 22:25:19 14.96 0 15.0 127.89 17.44 0 8 0 5.0 0 13 -38 200 0 0 2015-08-19T22:25:19Z
Cyprid 493338329 2015-08-19 22:25:29 14.91 0 15.0 127.89 17.44 0 8 0 5.0 0 30 -29 120 3 0 2015-08-19T22:25:29Z
Cyprid 493338339 2015-08-19 22:25:39 14.93 0 15.0 127.89 17.44 0 8 0 5.0 0 23 -34 189 0 3 2015-08-19T22:25:39Z
Cyprid 493338349 2015-08-19 22:25:49 15.11 0 15.0 127.89 17.44 0 8 0 5.0 0 25 -11 112 0 5 2015-08-19T22:25:49Z
Cyprid 493338351 2015-08-19 22:25:51 15.11 0 15.0 127.89 17.44 0 8 0 5.0 0 25 -11 112 0 0 2015-08-19T22:25:51Z
Cyprid 493338361 2015-08-19 22:26:01 15.04 0 15.0 127.89 14.87 0 1 0 5.0 0 6 -4 153 10 0 2015-08-19T22:26:01Z
Cyprid 493338372 2015-08-19 22:26:12 14.99 0 15.0 127.89 14.86 0 1 0 5.0 0 21 -17 427 3 0 2015-08-19T22:26:12Z
Cyprid 493338382 2015-08-19 22:26:22 15.0 0 15.0 127.89 14.85 0 1 0 5.0 0 8 -38 601 0 3 2015-08-19T22:26:22Z
Cyprid 493338392 2015-08-19 22:26:32 15.16 0 15.0 127.89 14.85 0 1 0 5.0 0 52 -88 480 0 5 2015-08-19T22:26:32Z
Cyprid 493338402 2015-08-19 22:26:42 15.3 0 15.0 127.89 14.84 0 1 0 5.0 0 -1 -55 304 0 1 2015-08-19T22:26:42Z
Cyprid 493338412 2015-08-19 22:26:52 15.4 0 15.0 127.89 14.83 0 1 0 5.0 0 3 -55 124 0 4 2015-08-19T22:26:52Z
Cyprid 493338422 2015-08-19 22:27:02 15.36 0 15.0 127.89 14.82 0 1 0 5.0 0 34 -54 -60 5 0 2015-08-19T22:27:02Z
Cyprid 493338432 2015-08-19 22:27:12 15.31 0 15.0 127.89 14.83 0 1 0 5.0 0 9 -25 10 0 2 2015-08-19T22:27:12Z
Cyprid 493338442 2015-08-19 22:27:22 15.22 0 15.0 127.89 14.82 0 1 0 5.0 0 2 -58 110 5 0 2015-08-19T22:27:22Z
Cyprid 493338452 2015-08-19 22:27:32 15.46 0 15.0 127.89 14.81 0 1 0 5.0 0 20 24 299 0 5 2015-08-19T22:27:32Z
Cyprid 493338462 2015-08-19 22:27:42 15.46 0 15.0 127.89 14.81 0 1 0 5.0 0 14 -78 141 0 5 2015-08-19T22:27:42Z
Cyprid 493338472 2015-08-19 22:27:52 15.4 0 15.0 127.89 14.8 0 1 0 5.0 0 11 -46 -65 4 0 2015-08-19T22:27:52Z
Cyprid 493338482 2015-08-19 22:28:02 15.42 0 15.0 127.89 14.8 0 1 0 5.0 0 34 8 -140 0 5 2015-08-19T22:28:02Z
Cyprid 493338493 2015-08-19 22:28:13 15.27 0 15.0 127.89 14.81 0 1 0 5.0 0 53 -3 -252 5 0 2015-08-19T22:28:13Z
Cyprid 493338503 2015-08-19 22:28:23 15.14 0 15.0 127.89 14.82 0 1 0 5.0 0 43 -14 -60 5 0 2015-08-19T22:28:23Z
Cyprid 493338513 2015-08-19 22:28:33 15.17 0 15.0 127.89 14.82 0 1 0 5.0 0 -8 -42 99 0 5 2015-08-19T22:28:33Z
Cyprid 493338523 2015-08-19 22:28:43 15.26 0 15.0 127.89 14.83 0 1 0 5.0 0 -7 3 36 0 3 2015-08-19T22:28:43Z
Cyprid 493338533 2015-08-19 22:28:53 15.16 0 15.0 127.89 14.83 0 1 0 5.0 0 7 -47 -67 5 0 2015-08-19T22:28:53Z
Cyprid 493338543 2015-08-19 22:29:03 15.05 0 15.0 127.89 14.83 0 1 0 5.0 0 1 -27 80 3 0 2015-08-19T22:29:03Z
Cyprid 493338553 2015-08-19 22:29:13 15.12 0 15.0 127.89 14.82 0 1 0 5.0 0 -20 -56 218 0 5 2015-08-19T22:29:13Z
Cyprid 493338563 2015-08-19 22:29:23 15.02 0 15.0 127.89 14.82 0 1 0 5.0 0 28 -29 240 5 0 2015-08-19T22:29:23Z
Cyprid 493338573 2015-08-19 22:29:33 15.08 0 15.0 127.89 14.83 0 1 0 5.0 0 37 -69 309 0 5 2015-08-19T22:29:33Z
Cyprid 493338583 2015-08-19 22:29:43 15.02 0 15.0 127.89 14.83 0 1 0 5.0 0 23 -40 295 5 0 2015-08-19T22:29:43Z
Cyprid 493338593 2015-08-19 22:29:53 15.14 0 15.0 127.89 14.82 0 1 0 5.0 0 40 -64 329 0 5 2015-08-19T22:29:53Z
Cyprid 493338603 2015-08-19 22:30:03 15.26 0 15.0 127.89 14.82 0 1 0 5.0 0 3 -2 156 0 5 2015-08-19T22:30:03Z
Cyprid 493338615 2015-08-19 22:30:15 15.23 0 15.0 127.89 14.82 0 1 0 5.0 0 26 -43 -108 5 0 2015-08-19T22:30:15Z
Cyprid 493338625 2015-08-19 22:30:25 15.22 0 15.0 127.89 14.82 0 1 0 5.0 0 5 -34 -105 0 3 2015-08-19T22:30:25Z
Cyprid 493338635 2015-08-19 22:30:35 15.23 0 15.0 127.89 14.83 0 1 0 5.0 0 25 -50 -164 1 0 2015-08-19T22:30:35Z
Cyprid 493338645 2015-08-19 22:30:45 15.26 0 15.0 127.89 14.82 0 1 0 5.0 0 36 -22 -182 0 2 2015-08-19T22:30:45Z
Cyprid 493338655 2015-08-19 22:30:55 15.13 0 15.0 127.89 14.83 0 1 0 5.0 0 35 -14 -185 5 0 2015-08-19T22:30:55Z
Cyprid 493338665 2015-08-19 22:31:05 14.98 0 15.0 127.89 14.82 0 1 0 5.0 0 3 -9 -4 3 0 2015-08-19T22:31:05Z
Cyprid 493338675 2015-08-19 22:31:15 15.02 0 15.0 127.89 14.83 0 1 0 5.0 0 5 3 158 0 5 2015-08-19T22:31:15Z
Cyprid 493338685 2015-08-19 22:31:25 15.21 0 15.0 127.89 14.82 0 1 0 5.0 0 20 -57 33 0 5 2015-08-19T22:31:25Z
Cyprid 493338695 2015-08-19 22:31:35 14.94 0 15.0 127.89 14.82 0 1 0 5.0 0 8 2 -194 5 0 2015-08-19T22:31:35Z
Cyprid 493338705 2015-08-19 22:31:45 14.97 0 15.0 127.89 14.83 0 1 0 5.0 0 -13 -61 -51 5 0 2015-08-19T22:31:45Z
Cyprid 493338715 2015-08-19 22:31:55 15.03 0 15.0 127.89 14.83 0 1 0 5.0 0 5 -1 128 0 5 2015-08-19T22:31:55Z
Cyprid 493338725 2015-08-19 22:32:05 14.9 0 15.0 127.89 14.84 0 1 0 5.0 0 34 -62 157 5 0 2015-08-19T22:32:05Z
Cyprid 493338736 2015-08-19 22:32:16 14.82 0 15.0 127.89 14.83 0 1 0 5.0 0 -7 -59 389 2 0 2015-08-19T22:32:16Z
Cyprid 493338746 2015-08-19 22:32:26 14.96 0 15.0 127.89 14.83 0 1 0 5.0 0 1 -19 477 0 5 2015-08-19T22:32:26Z
Cyprid 493338756 2015-08-19 22:32:36 14.99 0 15.0 127.89 14.83 0 1 0 5.0 0 7 -33 390 1 0 2015-08-19T22:32:36Z
Cyprid 493338766 2015-08-19 22:32:46 15.12 0 15.0 127.89 14.82 0 1 0 5.0 0 31 24 312 0 5 2015-08-19T22:32:46Z
Cyprid 493338776 2015-08-19 22:32:56 15.16 0 15.0 127.89 14.82 0 1 0 5.0 0 16 22 154 2 0 2015-08-19T22:32:56Z
Cyprid 493338786 2015-08-19 22:33:06 15.09 0 15.0 127.89 14.82 0 1 0 5.0 0 -9 -60 96 1 0 2015-08-19T22:33:06Z
Cyprid 493338796 2015-08-19 22:33:16 15.26 0 15.0 127.89 14.82 0 1 0 5.0 0 17 14 50 0 5 2015-08-19T22:33:16Z
Cyprid 493338806 2015-08-19 22:33:26 15.32 0 15.0 127.89 14.82 0 1 0 5.0 0 1 68 -198 0 2 2015-08-19T22:33:26Z
Cyprid 493338816 2015-08-19 22:33:36 15.05 0 15.0 127.89 14.83 0 1 0 5.0 0 30 -37 -310 5 0 2015-08-19T22:33:36Z
Cyprid 493338826 2015-08-19 22:33:46 15.17 0 15.0 127.89 14.82 0 1 0 5.0 0 32 11 -239 0 3 2015-08-19T22:33:46Z
Cyprid 493338836 2015-08-19 22:33:56 14.96 0 15.0 127.89 14.83 0 1 0 5.0 0 59 2 -261 5 0 2015-08-19T22:33:56Z
Cyprid 493338846 2015-08-19 22:34:06 14.77 0 15.0 127.89 14.83 0 1 0 5.0 0 33 -42 -85 5 0 2015-08-19T22:34:06Z
Cyprid 493338857 2015-08-19 22:34:17 14.74 0 15.0 127.89 14.82 0 1 0 5.0 0 53 -4 227 1 0 2015-08-19T22:34:17Z
Cyprid 493338867 2015-08-19 22:34:27 14.95 0 15.0 127.89 14.83 0 1 0 5.0 0 23 -101 417 0 5 2015-08-19T22:34:27Z
Cyprid 493338877 2015-08-19 22:34:37 14.93 0 15.0 127.89 14.83 0 1 0 5.0 0 18 -90 337 2 0 2015-08-19T22:34:37Z
Cyprid 493338887 2015-08-19 22:34:47 14.96 0 15.0 127.89 14.83 0 1 0 5.0 0 -8 -2 316 0 3 2015-08-19T22:34:47Z
Cyprid 493338897 2015-08-19 22:34:57 15.03 0 15.0 127.89 14.83 0 1 0 5.0 0 8 -16 227 0 0 2015-08-19T22:34:57Z
Cyprid 493338907 2015-08-19 22:35:07 15.13 0 15.0 127.89 14.82 0 1 0 5.0 0 46 -47 87 0 5 2015-08-19T22:35:07Z
Cyprid 493338917 2015-08-19 22:35:17 14.85 0 15.0 127.89 14.83 0 1 0 5.0 0 15 -6 -119 5 0 2015-08-19T22:35:17Z
Cyprid 493338927 2015-08-19 22:35:27 14.82 0 15.0 127.89 14.83 0 1 0 5.0 0 11 -40 8 5 0 2015-08-19T22:35:27Z
Cyprid 493338937 2015-08-19 22:35:37 15.0 0 15.0 127.89 14.82 0 1 0 5.0 0 21 24 248 0 5 2015-08-19T22:35:37Z
Cyprid 493338947 2015-08-19 22:35:47 15.06 0 15.0 127.89 14.82 0 1 0 5.0 0 56 -43 201 0 1 2015-08-19T22:35:47Z
Cyprid 493338957 2015-08-19 22:35:57 14.86 0 15.0 127.89 14.83 0 1 0 5.0 0 19 -45 184 5 0 2015-08-19T22:35:57Z
Cyprid 493338967 2015-08-19 22:36:07 14.87 0 15.0 127.89 14.82 0 1 0 5.0 0 10 -44 308 0 0 2015-08-19T22:36:07Z
Cyprid 493338977 2015-08-19 22:36:17 15.14 0 15.0 127.89 14.82 0 1 0 5.0 0 21 -78 349 0 5 2015-08-19T22:36:17Z
Cyprid 493338987 2015-08-19 22:36:27 15.15 0 15.0 127.89 14.82 0 1 0 5.0 0 -6 -98 194 0 2 2015-08-19T22:36:27Z
Cyprid 493338997 2015-08-19 22:36:37 15.15 0 15.0 127.89 14.82 0 1 0 5.0 0 40 4 53 1 0 2015-08-19T22:36:37Z
Cyprid 493339007 2015-08-19 22:36:47 15.22 0 15.0 127.89 14.81 0 1 0 5.0 0 -5 31 -127 0 4 2015-08-19T22:36:47Z
Cyprid 493339017 2015-08-19 22:36:57 15.11 0 15.0 127.89 14.81 0 1 0 5.0 0 30 -35 -256 5 0 2015-08-19T22:36:57Z
Cyprid 493339027 2015-08-19 22:37:07 15.13 0 15.0 127.89 14.81 0 1 0 5.0 0 20 -14 -199 0 3 2015-08-19T22:37:07Z
Cyprid 493339037 2015-08-19 22:37:17 14.98 0 15.0 127.89 14.82 0 1 0 5.0 0 9 -25 -196 5 0 2015-08-19T22:37:17Z
Cyprid 493339047 2015-08-19 22:37:27 14.87 0 15.0 127.89 14.82 0 1 0 5.0 0 10 -87 14 4 0 2015-08-19T22:37:27Z
Cyprid 493339057 2015-08-19 22:37:37 14.75 0 15.0 127.89 14.83 0 1 0 5.0 0 1 -62 366 2 0 2015-08-19T22:37:37Z
Cyprid 493339067 2015-08-19 22:37:47 14.89 0 15.0 127.89 14.82 0 1 0 5.0 0 26 -3 519 0 5 2015-08-19T22:37:47Z
Cyprid 493339077 2015-08-19 22:37:57 15.1 0 15.0 127.89 14.82 0 1 0 5.0 0 15 -72 342 0 5 2015-08-19T22:37:57Z
Cyprid 493339087 2015-08-19 22:38:07 15.01 0 15.0 127.89 14.81 0 1 0 5.0 0 19 -32 215 5 0 2015-08-19T22:38:07Z
Cyprid 493339098 2015-08-19 22:38:18 15.07 0 15.0 127.89 14.81 0 1 0 5.0 0 12 -91 195 0 5 2015-08-19T22:38:18Z
Cyprid 493339108 2015-08-19 22:38:28 15.05 0 15.0 127.89 14.8 0 1 0 5.0 0 -18 -70 121 4 0 2015-08-19T22:38:28Z
Cyprid 493339118 2015-08-19 22:38:38 15.17 0 15.0 127.89 14.81 0 1 0 5.0 0 17 6 107 0 5 2015-08-19T22:38:38Z
Cyprid 493339128 2015-08-19 22:38:48 15.2 0 15.0 127.89 14.8 0 1 0 5.0 0 23 -31 -37 0 0 2015-08-19T22:38:48Z
Cyprid 493339138 2015-08-19 22:38:58 14.98 0 15.0 127.89 14.79 0 1 0 5.0 0 23 -53 -140 5 0 2015-08-19T22:38:58Z
Cyprid 493339148 2015-08-19 22:39:08 15.04 0 15.0 127.89 14.8 0 1 0 5.0 0 65 -18 -36 0 4 2015-08-19T22:39:08Z
Cyprid 493339158 2015-08-19 22:39:18 15.05 0 15.0 127.89 14.79 0 1 0 5.0 0 -3 -42 -39 3 0 2015-08-19T22:39:18Z
Cyprid 493339168 2015-08-19 22:39:28 14.92 0 15.0 127.89 14.8 0 1 0 5.0 0 25 -30 87 3 0 2015-08-19T22:39:28Z
Cyprid 493339178 2015-08-19 22:39:38 15.02 0 15.0 127.89 14.8 0 1 0 5.0 0 18 -1 202 0 5 2015-08-19T22:39:38Z
Cyprid 493339188 2015-08-19 22:39:48 15.07 0 15.0 127.89 14.8 0 1 0 5.0 0 21 -31 128 0 0 2015-08-19T22:39:48Z
Cyprid 493339198 2015-08-19 22:39:58 15.01 0 15.0 127.89 14.79 0 1 0 5.0 0 2 -6 122 3 0 2015-08-19T22:39:58Z
Cyprid 493339208 2015-08-19 22:40:08 15.11 0 15.0 127.89 14.8 0 1 0 5.0 0 52 -55 149 0 5 2015-08-19T22:40:08Z
Cyprid 493339219 2015-08-19 22:40:19 15.06 0 15.0 127.89 14.8 0 1 0 5.0 0 44 -72 97 4 0 2015-08-19T22:40:19Z
Cyprid 493339229 2015-08-19 22:40:29 14.97 0 15.0 127.89 14.79 0 1 0 5.0 0 25 -3 171 0 0 2015-08-19T22:40:29Z
Cyprid 493339239 2015-08-19 22:40:39 14.99 0 15.0 127.89 14.79 0 1 0 5.0 0 8 -53 221 0 1 2015-08-19T22:40:39Z
Cyprid 493339249 2015-08-19 22:40:49 15.26 0 15.0 127.89 14.79 0 1 0 5.0 0 49 -45 128 0 5 2015-08-19T22:40:49Z
Cyprid 493339259 2015-08-19 22:40:59 15.13 0 15.0 127.89 14.79 0 1 0 5.0 0 21 -27 14 5 0 2015-08-19T22:40:59Z
Cyprid 493339269 2015-08-19 22:41:09 15.02 0 15.0 127.89 14.79 0 1 0 5.0 0 52 -48 72 0 0 2015-08-19T22:41:09Z
Cyprid 493339279 2015-08-19 22:41:19 15.11 0 15.0 127.89 14.78 0 1 0 5.0 0 2 -57 45 0 5 2015-08-19T22:41:19Z
Cyprid 493339289 2015-08-19 22:41:29 15.08 0 15.0 127.89 14.78 0 1 0 5.0 0 2 6 -47 5 0 2015-08-19T22:41:29Z
Cyprid 493339299 2015-08-19 22:41:39 15.02 0 15.0 127.89 14.78 0 1 0 5.0 0 19 -23 25 0 1 2015-08-19T22:41:39Z
Cyprid 493339309 2015-08-19 22:41:49 15.03 0 15.0 127.89 14.79 0 1 0 5.0 0 33 -2 49 0 0 2015-08-19T22:41:49Z
Cyprid 493339319 2015-08-19 22:41:59 15.06 0 15.0 127.89 14.78 0 1 0 5.0 0 -11 -16 45 0 1 2015-08-19T22:41:59Z
Cyprid 493339329 2015-08-19 22:42:09 14.95 0 15.0 127.89 14.79 0 1 0 5.0 0 11 -47 101 5 0 2015-08-19T22:42:09Z
Cyprid 493339340 2015-08-19 22:42:20 15.04 0 15.0 127.89 14.79 0 1 0 5.0 0 19 -24 240 0 5 2015-08-19T22:42:20Z
Cyprid 493339350 2015-08-19 22:42:30 15.12 0 15.0 127.89 14.79 0 1 0 5.0 0 -35 -59 134 0 2 2015-08-19T22:42:30Z
Cyprid 493339360 2015-08-19 22:42:40 14.97 0 15.0 127.89 14.79 0 1 0 5.0 0 -20 -61 65 5 0 2015-08-19T22:42:40Z
Cyprid 493339370 2015-08-19 22:42:50 14.93 0 15.0 127.89 14.79 0 1 0 5.0 0 -8 -41 161 0 0 2015-08-19T22:42:50Z
Cyprid 493339380 2015-08-19 22:43:00 15.05 0 15.0 127.89 14.79 0 1 0 5.0 0 24 -5 182 0 5 2015-08-19T22:43:00Z
Cyprid 493339390 2015-08-19 22:43:10 15.06 0 15.0 127.89 14.79 0 1 0 5.0 0 -8 -19 91 3 0 2015-08-19T22:43:10Z
Cyprid 493339400 2015-08-19 22:43:20 15.03 0 15.0 127.89 14.79 0 1 0 5.0 0 27 -24 111 0 0 2015-08-19T22:43:20Z
Cyprid 493339410 2015-08-19 22:43:30 15.22 0 15.0 127.89 14.79 0 1 0 5.0 0 16 -12 53 0 5 2015-08-19T22:43:30Z
Cyprid 493339420 2015-08-19 22:43:40 15.19 0 15.0 127.89 14.78 0 1 0 5.0 0 4 19 -139 1 0 2015-08-19T22:43:40Z
Cyprid 493339430 2015-08-19 22:43:50 15.03 0 15.0 127.89 14.78 0 1 0 5.0 0 32 5 -154 5 0 2015-08-19T22:43:50Z
Cyprid 493339440 2015-08-19 22:44:00 14.91 0 15.0 127.89 14.8 0 1 0 5.0 0 23 16 -4 1 0 2015-08-19T22:44:00Z
Cyprid 493339451 2015-08-19 22:44:11 15.05 0 15.0 127.89 14.79 0 1 0 5.0 0 37 5 105 0 5 2015-08-19T22:44:11Z
Cyprid 493339461 2015-08-19 22:44:21 15.07 0 15.0 127.89 14.79 0 1 0 5.0 0 12 8 23 2 0 2015-08-19T22:44:21Z
Cyprid 493339471 2015-08-19 22:44:31 14.84 0 15.0 127.89 14.8 0 1 0 5.0 0 2 -62 77 5 0 2015-08-19T22:44:31Z
Cyprid 493339481 2015-08-19 22:44:41 14.94 0 15.0 127.89 14.78 0 1 0 5.0 0 35 7 230 0 5 2015-08-19T22:44:41Z
Cyprid 493339491 2015-08-19 22:44:51 15.02 0 15.0 127.89 14.79 0 1 0 5.0 0 25 -32 175 0 0 2015-08-19T22:44:51Z
Cyprid 493339501 2015-08-19 22:45:01 14.96 0 15.0 127.89 14.8 0 1 0 5.0 0 20 -58 178 3 0 2015-08-19T22:45:01Z
Cyprid 493339511 2015-08-19 22:45:11 14.9 0 15.0 127.89 14.79 0 1 0 5.0 0 28 -38 276 0 0 2015-08-19T22:45:11Z
Cyprid 493339521 2015-08-19 22:45:21 14.97 0 15.0 127.89 14.79 0 1 0 5.0 0 35 -35 327 0 3 2015-08-19T22:45:21Z
Cyprid 493339531 2015-08-19 22:45:31 15.19 0 15.0 127.89 14.79 0 1 0 5.0 0 38 -23 176 0 5 2015-08-19T22:45:31Z
Cyprid 493339541 2015-08-19 22:45:41 15.15 0 15.0 127.89 14.8 0 1 0 5.0 0 11 -56 23 5 0 2015-08-19T22:45:41Z
Cyprid 493339551 2015-08-19 22:45:51 15.1 0 15.0 127.89 14.79 0 1 0 5.0 0 50 -77 22 0 2 2015-08-19T22:45:51Z
Cyprid 493339561 2015-08-19 22:46:01 15.09 0 15.0 127.89 14.79 0 1 0 5.0 0 51 -38 -36 0 0 2015-08-19T22:46:01Z
Cyprid 493339571 2015-08-19 22:46:11 15.13 0 15.0 127.89 14.79 0 1 0 5.0 0 -16 -7 -105 0 1 2015-08-19T22:46:11Z
Cyprid 493339581 2015-08-19 22:46:21 14.94 0 15.0 127.89 14.79 0 1 0 5.0 0 39 -27 -71 5 0 2015-08-19T22:46:21Z
Cyprid 493339591 2015-08-19 22:46:31 14.93 0 15.0 127.89 14.79 0 1 0 5.0 0 28 -43 77 0 0 2015-08-19T22:46:31Z
Cyprid 493339601 2015-08-19 22:46:41 14.95 0 15.0 127.89 14.8 0 1 0 5.0 0 -9 -70 199 0 1 2015-08-19T22:46:41Z
Cyprid 493339611 2015-08-19 22:46:51 14.99 0 15.0 127.89 14.8 0 1 0 5.0 0 63 -3 234 0 1 2015-08-19T22:46:51Z
Cyprid 493339621 2015-08-19 22:47:01 15.01 0 15.0 127.89 14.8 0 1 0 5.0 0 68 -48 207 0 0 2015-08-19T22:47:01Z
Cyprid 493339631 2015-08-19 22:47:11 14.98 0 15.0 127.89 14.79 0 1 0 5.0 0 34 -9 197 1 0 2015-08-19T22:47:11Z
Cyprid 493339641 2015-08-19 22:47:21 14.97 0 15.0 127.89 14.79 0 1 0 5.0 0 10 -46 216 0 0 2015-08-19T22:47:21Z
Cyprid 493339651 2015-08-19 22:47:31 14.9 0 15.0 127.89 14.79 0 1 0 5.0 0 24 -30 285 3 0 2015-08-19T22:47:31Z
Cyprid 493339661 2015-08-19 22:47:41 15.08 0 15.0 127.89 14.79 0 1 0 5.0 0 24 -24 356 0 5 2015-08-19T22:47:41Z
Cyprid 493339671 2015-08-19 22:47:51 15.14 0 15.0 127.89 14.78 0 1 0 5.0 0 -3 -64 163 0 4 2015-08-19T22:47:51Z
Cyprid 493339681 2015-08-19 22:48:01 15.07 0 15.0 127.89 14.77 0 1 0 5.0 0 25 -41 18 5 0 2015-08-19T22:48:01Z
Cyprid 493339693 2015-08-19 22:48:13 15.21 0 15.0 127.89 14.76 0 1 0 5.0 0 18 -47 51 0 5 2015-08-19T22:48:13Z
Cyprid 493339703 2015-08-19 22:48:23 15.26 0 15.0 127.89 14.76 0 1 0 5.0 0 -6 -1 -107 0 1 2015-08-19T22:48:23Z
Cyprid 493339713 2015-08-19 22:48:33 15.03 0 15.0 127.89 14.76 0 1 0 5.0 0 10 -32 -164 5 0 2015-08-19T22:48:33Z
Cyprid 493339723 2015-08-19 22:48:43 14.92 0 15.0 127.89 14.77 0 1 0 5.0 0 17 25 41 5 0 2015-08-19T22:48:43Z
Cyprid 493339733 2015-08-19 22:48:53 14.88 0 15.0 127.89 14.77 0 1 0 5.0 0 18 -11 288 0 3 2015-08-19T22:48:53Z
Cyprid 493339743 2015-08-19 22:49:03 15.02 0 15.0 127.89 14.77 0 1 0 5.0 0 52 -23 281 0 4 2015-08-19T22:49:03Z
Cyprid 493339753 2015-08-19 22:49:13 15.09 0 15.0 127.89 14.77 0 1 0 5.0 0 28 -19 132 0 0 2015-08-19T22:49:13Z
Cyprid 493339763 2015-08-19 22:49:23 14.99 0 15.0 127.89 14.77 0 1 0 5.0 0 26 -30 110 5 0 2015-08-19T22:49:23Z
Cyprid 493339773 2015-08-19 22:49:33 14.97 0 15.0 127.89 14.78 0 1 0 5.0 0 29 -44 204 0 3 2015-08-19T22:49:33Z
Cyprid 493339783 2015-08-19 22:49:43 15.03 0 15.0 127.89 14.78 0 1 0 5.0 0 30 -37 187 0 0 2015-08-19T22:49:43Z
Cyprid 493339793 2015-08-19 22:49:53 15.08 0 15.0 127.89 14.76 0 1 0 5.0 0 32 -74 143 0 2 2015-08-19T22:49:53Z
Cyprid 493339803 2015-08-19 22:50:03 14.97 0 15.0 127.89 14.76 0 1 0 5.0 0 29 11 153 5 0 2015-08-19T22:50:03Z
Cyprid 493339814 2015-08-19 22:50:14 15.14 0 15.0 127.89 14.76 0 1 0 5.0 0 12 -72 224 0 5 2015-08-19T22:50:14Z
Cyprid 493339824 2015-08-19 22:50:24 15.39 0 15.0 127.89 14.76 0 1 0 5.0 0 0 -33 37 0 5 2015-08-19T22:50:24Z
Cyprid 493339834 2015-08-19 22:50:34 15.19 0 15.0 127.89 14.75 0 1 0 5.0 0 29 -64 -142 5 0 2015-08-19T22:50:34Z
Cyprid 493339844 2015-08-19 22:50:44 15.1 0 15.0 127.89 14.75 0 1 0 5.0 0 15 -21 -72 0 0 2015-08-19T22:50:44Z
Cyprid 493339854 2015-08-19 22:50:54 15.14 0 15.0 127.89 14.76 0 1 0 5.0 0 9 7 -49 0 2 2015-08-19T22:50:54Z
Cyprid 493339864 2015-08-19 22:51:04 15.03 0 15.0 127.89 14.76 0 1 0 5.0 0 15 -36 -29 5 0 2015-08-19T22:51:04Z
Cyprid 493339874 2015-08-19 22:51:14 15.1 0 15.0 127.89 14.76 0 1 0 5.0 0 18 -10 58 0 5 2015-08-19T22:51:14Z
Cyprid 493339884 2015-08-19 22:51:24 15.17 0 15.0 127.89 14.76 0 1 0 5.0 0 36 -42 -26 0 1 2015-08-19T22:51:24Z
Cyprid 493339894 2015-08-19 22:51:34 15.02 0 15.0 127.89 14.76 0 1 0 5.0 0 36 -1 -57 5 0 2015-08-19T22:51:34Z
Cyprid 493339904 2015-08-19 22:51:44 15.08 0 15.0 127.89 14.76 0 1 0 5.0 0 35 -62 -9 0 5 2015-08-19T22:51:44Z
Cyprid 493339914 2015-08-19 22:51:54 14.9 0 15.0 127.89 14.76 0 1 0 5.0 0 18 -27 -18 5 0 2015-08-19T22:51:54Z
Cyprid 493339924 2015-08-19 22:52:04 14.81 0 15.0 127.89 14.76 0 1 0 5.0 0 11 -35 194 5 0 2015-08-19T22:52:04Z
Cyprid 493339935 2015-08-19 22:52:15 14.93 0 15.0 127.89 14.76 0 1 0 5.0 0 26 6 463 0 5 2015-08-19T22:52:15Z
Cyprid 493339945 2015-08-19 22:52:25 14.96 0 15.0 127.89 14.75 0 1 0 5.0 0 21 -26 387 0 0 2015-08-19T22:52:25Z
Cyprid 493339955 2015-08-19 22:52:35 15.05 0 15.0 127.89 14.75 0 1 0 5.0 0 -20 -25 276 0 4 2015-08-19T22:52:35Z
Cyprid 493339965 2015-08-19 22:52:45 15.17 0 15.0 127.89 14.76 0 1 0 5.0 0 31 -33 120 0 1 2015-08-19T22:52:45Z
Cyprid 493339975 2015-08-19 22:52:55 15.13 0 15.0 127.89 14.73 0 1 0 5.0 0 17 -48 -14 3 0 2015-08-19T22:52:55Z
Cyprid 493339985 2015-08-19 22:53:05 15.07 0 15.0 127.89 14.73 0 1 0 5.0 0 -2 -25 42 0 0 2015-08-19T22:53:05Z
Cyprid 493339995 2015-08-19 22:53:15 15.0 0 15.0 127.89 14.73 0 1 0 5.0 0 53 -5 112 2 0 2015-08-19T22:53:15Z
Cyprid 493340005 2015-08-19 22:53:25 15.23 0 15.0 127.89 14.73 0 1 0 5.0 0 14 -47 130 0 5 2015-08-19T22:53:25Z
Cyprid 493340015 2015-08-19 22:53:35 15.13 0 15.0 127.89 14.73 0 1 0 5.0 0 20 -8 42 2 0 2015-08-19T22:53:35Z
Cyprid 493340025 2015-08-19 22:53:45 15.11 0 15.0 127.89 14.73 0 1 0 5.0 0 -14 -73 29 0 1 2015-08-19T22:53:45Z
Cyprid 493340035 2015-08-19 22:53:55 15.16 0 15.0 127.89 14.73 0 1 0 5.0 0 19 -2 -78 0 3 2015-08-19T22:53:55Z
Cyprid 493340045 2015-08-19 22:54:05 15.03 0 15.0 127.89 14.73 0 1 0 5.0 0 24 20 -177 5 0 2015-08-19T22:54:05Z
Cyprid 493340056 2015-08-19 22:54:16 14.92 0 15.0 127.89 14.73 0 1 0 5.0 0 25 -29 12 3 0 2015-08-19T22:54:16Z
Cyprid 493340066 2015-08-19 22:54:26 15.0 0 15.0 127.89 14.74 0 1 0 5.0 0 19 -16 124 0 5 2015-08-19T22:54:26Z
Cyprid 493340076 2015-08-19 22:54:36 15.03 0 15.0 127.89 14.74 0 1 0 5.0 0 14 6 93 2 0 2015-08-19T22:54:36Z
Cyprid 493340086 2015-08-19 22:54:46 15.02 0 15.0 127.89 14.75 0 1 0 5.0 0 52 3 87 0 1 2015-08-19T22:54:46Z
Cyprid 493340096 2015-08-19 22:54:56 15.0 0 15.0 127.89 14.75 0 1 0 5.0 0 22 -70 72 1 0 2015-08-19T22:54:56Z
Cyprid 493340106 2015-08-19 22:55:06 15.04 0 15.0 127.89 14.75 0 1 0 5.0 0 32 -27 45 0 3 2015-08-19T22:55:06Z
Cyprid 493340116 2015-08-19 22:55:16 15.05 0 15.0 127.89 14.74 0 1 0 5.0 0 21 -53 -23 2 0 2015-08-19T22:55:16Z
Cyprid 493340126 2015-08-19 22:55:26 14.88 0 15.0 127.89 14.75 0 1 0 5.0 0 17 -27 67 5 0 2015-08-19T22:55:26Z
Cyprid 493340136 2015-08-19 22:55:36 15.0 0 15.0 127.89 14.75 0 1 0 5.0 0 33 -95 192 0 5 2015-08-19T22:55:36Z
Cyprid 493340146 2015-08-19 22:55:46 15.02 0 15.0 127.89 14.75 0 1 0 5.0 0 13 -35 145 0 0 2015-08-19T22:55:46Z
Cyprid 493340156 2015-08-19 22:55:56 15.0 0 15.0 127.89 14.76 0 1 0 5.0 0 26 -37 117 1 0 2015-08-19T22:55:56Z
Cyprid 493340166 2015-08-19 22:56:06 15.08 0 15.0 127.89 14.75 0 1 0 5.0 0 29 -68 48 0 5 2015-08-19T22:56:06Z
Cyprid 493340178 2015-08-19 22:56:18 15.01 0 15.0 127.89 14.74 0 1 0 5.0 0 25 10 -92 5 0 2015-08-19T22:56:18Z
Cyprid 493340188 2015-08-19 22:56:28 14.91 0 15.0 127.89 14.75 0 1 0 5.0 0 33 -9 99 2 0 2015-08-19T22:56:28Z
Cyprid 493340198 2015-08-19 22:56:38 14.93 0 15.0 127.89 14.74 0 1 0 5.0 0 9 -5 317 0 2 2015-08-19T22:56:38Z
Cyprid 493340208 2015-08-19 22:56:48 15.04 0 15.0 127.89 14.74 0 1 0 5.0 0 -6 -34 307 0 4 2015-08-19T22:56:48Z
Cyprid 493340218 2015-08-19 22:56:58 15.04 0 15.0 127.89 14.74 0 1 0 5.0 0 38 -13 238 4 0 2015-08-19T22:56:58Z
Cyprid 493340228 2015-08-19 22:57:08 15.01 0 15.0 127.89 14.74 0 1 0 5.0 0 44 -45 289 0 1 2015-08-19T22:57:08Z
Cyprid 493340238 2015-08-19 22:57:18 15.18 0 15.0 127.89 14.74 0 1 0 5.0 0 0 -36 205 0 5 2015-08-19T22:57:18Z
Cyprid 493340248 2015-08-19 22:57:28 15.21 0 15.0 127.89 14.74 0 1 0 5.0 0 14 -26 41 0 0 2015-08-19T22:57:28Z
Cyprid 493340258 2015-08-19 22:57:38 15.1 0 15.0 127.89 14.73 0 1 0 5.0 0 21 -58 -3 5 0 2015-08-19T22:57:38Z
Cyprid 493340268 2015-08-19 22:57:48 15.06 0 15.0 127.89 14.73 0 1 0 5.0 0 31 -25 114 0 3 2015-08-19T22:57:48Z
Cyprid 493340278 2015-08-19 22:57:58 14.97 0 15.0 127.89 14.74 0 1 0 5.0 0 21 2 187 5 0 2015-08-19T22:57:58Z
Cyprid 493340288 2015-08-19 22:58:08 15.08 0 15.0 127.89 14.73 0 1 0 5.0 0 50 -81 297 0 5 2015-08-19T22:58:08Z
Cyprid 493340299 2015-08-19 22:58:19 15.24 0 15.0 127.89 14.73 0 1 0 5.0 0 4 -1 114 0 5 2015-08-19T22:58:19Z
Cyprid 493340309 2015-08-19 22:58:29 15.12 0 15.0 127.89 14.73 0 1 0 5.0 0 23 -45 -44 5 0 2015-08-19T22:58:29Z
Cyprid 493340319 2015-08-19 22:58:39 15.14 0 15.0 127.89 14.73 0 1 0 5.0 0 30 -22 -14 0 2 2015-08-19T22:58:39Z
Cyprid 493340329 2015-08-19 22:58:49 15.19 0 15.0 127.89 14.73 0 1 0 5.0 0 19 -68 -61 0 1 2015-08-19T22:58:49Z
Cyprid 493340339 2015-08-19 22:58:59 15.08 0 15.0 127.89 14.73 0 1 0 5.0 0 31 -65 -40 5 0 2015-08-19T22:58:59Z
Cyprid 493340349 2015-08-19 22:59:09 14.91 0 15.0 127.89 14.73 0 1 0 5.0 0 55 -24 189 4 0 2015-08-19T22:59:09Z
Cyprid 493340359 2015-08-19 22:59:19 14.96 0 15.0 127.89 14.73 0 1 0 5.0 0 18 -89 417 0 5 2015-08-19T22:59:19Z
Cyprid 493340369 2015-08-19 22:59:29 15.14 0 15.0 127.89 14.72 0 1 0 5.0 0 12 0 250 0 5 2015-08-19T22:59:29Z
Cyprid 493340379 2015-08-19 22:59:39 14.93 0 15.0 127.89 14.73 0 1 0 5.0 0 31 -69 107 5 0 2015-08-19T22:59:39Z
Cyprid 493340389 2015-08-19 22:59:49 15.05 0 15.0 127.89 14.72 0 1 0 5.0 0 5 -58 116 0 2 2015-08-19T22:59:49Z
Cyprid 493340399 2015-08-19 22:59:59 15.18 0 15.0 127.89 14.71 0 1 0 5.0 0 37 -18 27 0 4 2015-08-19T22:59:59Z
Cyprid 493340409 2015-08-19 23:00:09 15.05 0 15.0 127.89 14.71 0 1 0 5.0 0 32 -20 -66 5 0 2015-08-19T23:00:09Z
Cyprid 493340420 2015-08-19 23:00:20 15.13 0 15.0 127.89 14.72 0 1 0 5.0 0 47 -81 -20 0 4 2015-08-19T23:00:20Z
Cyprid 493340430 2015-08-19 23:00:30 15.03 0 15.0 127.89 14.72 0 1 0 5.0 0 33 -44 -12 5 0 2015-08-19T23:00:30Z
Cyprid 493340440 2015-08-19 23:00:40 14.91 0 15.0 127.89 14.72 0 1 0 5.0 0 46 -73 173 4 0 2015-08-19T23:00:40Z
Cyprid 493340450 2015-08-19 23:00:50 15.08 0 15.0 127.89 14.71 0 1 0 5.0 0 7 -19 360 0 5 2015-08-19T23:00:50Z
Cyprid 493340460 2015-08-19 23:01:00 15.3 0 15.0 127.89 14.72 0 1 0 5.0 0 25 -86 212 0 5 2015-08-19T23:01:00Z
Cyprid 493340470 2015-08-19 23:01:10 15.31 0 15.0 127.89 14.72 0 1 0 5.0 0 34 -66 -38 0 2 2015-08-19T23:01:10Z
Cyprid 493340480 2015-08-19 23:01:20 15.24 0 15.0 127.89 14.72 0 1 0 5.0 0 7 -8 -242 4 0 2015-08-19T23:01:20Z
Cyprid 493340490 2015-08-19 23:01:30 15.18 0 15.0 127.89 14.72 0 1 0 5.0 0 -40 -30 -190 0 1 2015-08-19T23:01:30Z
Cyprid 493340500 2015-08-19 23:01:40 15.13 0 15.0 127.89 14.72 0 1 0 5.0 0 -5 2 -208 1 0 2015-08-19T23:01:40Z
Cyprid 493340510 2015-08-19 23:01:50 15.04 0 15.0 127.89 14.73 0 1 0 5.0 0 22 -58 -145 3 0 2015-08-19T23:01:50Z
Cyprid 493340520 2015-08-19 23:02:00 15.1 0 15.0 127.89 14.73 0 1 0 5.0 0 29 -58 -96 0 5 2015-08-19T23:02:00Z
Cyprid 493340530 2015-08-19 23:02:10 14.92 0 15.0 127.89 14.72 0 1 0 5.0 0 20 4 -135 5 0 2015-08-19T23:02:10Z
Cyprid 493340540 2015-08-19 23:02:20 14.83 0 15.0 127.89 14.73 0 1 0 5.0 0 19 -67 65 5 0 2015-08-19T23:02:20Z
Cyprid 493340550 2015-08-19 23:02:30 15.01 0 15.0 127.89 14.73 0 1 0 5.0 0 36 -43 316 0 5 2015-08-19T23:02:30Z
Cyprid 493340560 2015-08-19 23:02:40 15.13 0 15.0 127.89 14.74 0 1 0 5.0 0 21 -73 200 0 5 2015-08-19T23:02:40Z
Cyprid 493340570 2015-08-19 23:02:50 15.05 0 15.0 127.89 14.74 0 1 0 5.0 0 9 -21 78 5 0 2015-08-19T23:02:50Z
Cyprid 493340580 2015-08-19 23:03:00 14.98 0 15.0 127.89 14.74 0 1 0 5.0 0 32 -73 103 0 1 2015-08-19T23:03:00Z
Cyprid 493340590 2015-08-19 23:03:10 14.86 0 15.0 127.89 14.74 0 1 0 5.0 0 51 9 192 5 0 2015-08-19T23:03:10Z
Cyprid 493340600 2015-08-19 23:03:20 14.92 0 15.0 127.89 14.74 0 1 0 5.0 0 29 -81 296 0 5 2015-08-19T23:03:20Z
Cyprid 493340610 2015-08-19 23:03:30 14.91 0 15.0 127.89 14.74 0 1 0 5.0 0 67 -36 280 3 0 2015-08-19T23:03:30Z
Cyprid 493340620 2015-08-19 23:03:40 15.02 0 15.0 127.89 14.73 0 1 0 5.0 0 45 -76 277 0 5 2015-08-19T23:03:40Z
Cyprid 493340630 2015-08-19 23:03:50 15.05 0 15.0 127.89 14.73 0 1 0 5.0 0 48 -23 155 1 0 2015-08-19T23:03:50Z
Cyprid 493340640 2015-08-19 23:04:00 15.07 0 15.0 127.89 14.73 0 1 0 5.0 0 61 -63 80 0 1 2015-08-19T23:04:00Z
Cyprid 493340650 2015-08-19 23:04:10 15.24 0 15.0 127.89 14.73 0 1 0 5.0 0 30 -5 -80 0 5 2015-08-19T23:04:10Z
Cyprid 493340660 2015-08-19 23:04:20 15.25 0 15.0 127.89 14.72 0 1 0 5.0 0 22 -40 -300 1 0 2015-08-19T23:04:20Z
Cyprid 493340670 2015-08-19 23:04:30 15.16 0 15.0 127.89 14.73 0 1 0 5.0 0 23 -10 -312 3 0 2015-08-19T23:04:30Z
Cyprid 493340680 2015-08-19 23:04:40 15.13 0 15.0 127.89 14.73 0 1 0 5.0 0 42 -30 -238 0 1 2015-08-19T23:04:40Z
Cyprid 493340690 2015-08-19 23:04:50 14.97 0 15.0 127.89 14.73 0 1 0 5.0 0 47 -15 -220 5 0 2015-08-19T23:04:50Z
Cyprid 493340700 2015-08-19 23:05:00 14.8 0 15.0 127.89 14.73 0 1 0 5.0 0 25 42 34 4 0 2015-08-19T23:05:00Z
Cyprid 493340710 2015-08-19 23:05:10 14.86 0 15.0 127.89 14.73 0 1 0 5.0 0 31 -56 268 0 5 2015-08-19T23:05:10Z
Cyprid 493340720 2015-08-19 23:05:20 15.02 0 15.0 127.89 14.73 0 1 0 5.0 0 62 -58 171 0 4 2015-08-19T23:05:20Z
Cyprid 493340730 2015-08-19 23:05:30 14.94 0 15.0 127.89 14.74 0 1 0 5.0 0 0 11 68 5 0 2015-08-19T23:05:30Z
Cyprid 493340740 2015-08-19 23:05:40 14.69 0 15.0 127.89 14.72 0 1 0 5.0 0 15 -3 210 5 0 2015-08-19T23:05:40Z
Cyprid 493340750 2015-08-19 23:05:50 14.93 0 15.0 127.89 14.73 0 1 0 5.0 0 32 -3 405 0 5 2015-08-19T23:05:50Z
Cyprid 493340760 2015-08-19 23:06:00 15.12 0 15.0 127.89 14.73 0 1 0 5.0 0 18 -93 270 0 5 2015-08-19T23:06:00Z
Cyprid 493340771 2015-08-19 23:06:11 15.17 0 15.0 127.89 14.72 0 1 0 5.0 0 64 -52 20 0 1 2015-08-19T23:06:11Z
Cyprid 493340781 2015-08-19 23:06:21 14.95 0 15.0 127.89 14.73 0 1 0 5.0 0 30 -4 -88 5 0 2015-08-19T23:06:21Z
Cyprid 493340791 2015-08-19 23:06:31 15.13 0 15.0 127.89 14.72 0 1 0 5.0 0 19 4 -33 0 5 2015-08-19T23:06:31Z
Cyprid 493340801 2015-08-19 23:06:41 14.99 0 15.0 127.89 14.73 0 1 0 5.0 0 8 -58 -73 5 0 2015-08-19T23:06:41Z
Cyprid 493340811 2015-08-19 23:06:51 14.96 0 15.0 127.89 14.73 0 1 0 5.0 0 26 -41 38 0 0 2015-08-19T23:06:51Z
Cyprid 493340821 2015-08-19 23:07:01 15.03 0 15.0 127.89 14.73 0 1 0 5.0 0 62 -49 65 0 4 2015-08-19T23:07:01Z
Cyprid 493340831 2015-08-19 23:07:11 15.03 0 15.0 127.89 14.73 0 1 0 5.0 0 3 -20 3 3 0 2015-08-19T23:07:11Z
Cyprid 493340841 2015-08-19 23:07:21 14.87 0 15.0 127.89 14.72 0 1 0 5.0 0 12 -45 122 5 0 2015-08-19T23:07:21Z
Cyprid 493340851 2015-08-19 23:07:31 14.87 0 15.0 127.89 14.72 0 1 0 5.0 0 13 -36 261 0 5 2015-08-19T23:07:31Z
Cyprid 493340861 2015-08-19 23:07:41 15.11 0 15.0 127.89 14.73 0 1 0 5.0 0 65 -62 111 0 5 2015-08-19T23:07:41Z
Cyprid 493340871 2015-08-19 23:07:51 15.1 0 15.0 127.89 14.72 0 1 0 5.0 0 20 -23 -60 4 0 2015-08-19T23:07:51Z
Cyprid 493340881 2015-08-19 23:08:01 14.98 0 15.0 127.89 14.72 0 1 0 5.0 0 32 -38 11 3 0 2015-08-19T23:08:01Z
Cyprid 493340892 2015-08-19 23:08:12 15.03 0 15.0 127.89 14.73 0 1 0 5.0 0 0 -3 87 0 5 2015-08-19T23:08:12Z
Cyprid 493340902 2015-08-19 23:08:22 15.1 0 15.0 127.89 14.72 0 1 0 5.0 0 44 -28 28 0 0 2015-08-19T23:08:22Z
Cyprid 493340912 2015-08-19 23:08:32 15.13 0 15.0 127.89 14.72 0 1 0 5.0 0 30 -31 -61 0 1 2015-08-19T23:08:32Z
Cyprid 493340922 2015-08-19 23:08:42 15.03 0 15.0 127.89 14.72 0 1 0 5.0 0 11 -22 -88 5 0 2015-08-19T23:08:42Z
Cyprid 493340932 2015-08-19 23:08:52 14.95 0 15.0 127.89 14.72 0 1 0 5.0 0 26 -40 55 0 0 2015-08-19T23:08:52Z
Cyprid 493340942 2015-08-19 23:09:02 14.99 0 15.0 127.89 14.72 0 1 0 5.0 0 11 -41 123 0 3 2015-08-19T23:09:02Z
Cyprid 493340952 2015-08-19 23:09:12 14.92 0 15.0 127.89 14.72 0 1 0 5.0 0 20 -38 134 5 0 2015-08-19T23:09:12Z
Cyprid 493340962 2015-08-19 23:09:22 14.93 0 15.0 127.89 14.73 0 1 0 5.0 0 25 -63 228 0 5 2015-08-19T23:09:22Z
Cyprid 493340972 2015-08-19 23:09:32 14.99 0 15.0 127.89 14.73 0 1 0 5.0 0 -8 -65 191 2 0 2015-08-19T23:09:32Z
Cyprid 493340982 2015-08-19 23:09:42 14.86 0 15.0 127.89 14.73 0 1 0 5.0 0 11 -17 296 5 0 2015-08-19T23:09:42Z
Cyprid 493340992 2015-08-19 23:09:52 15.08 0 15.0 127.89 14.73 0 1 0 5.0 0 17 -117 415 0 5 2015-08-19T23:09:52Z
Cyprid 493341002 2015-08-19 23:10:02 15.11 0 15.0 127.89 14.73 0 1 0 5.0 0 27 -8 253 0 5 2015-08-19T23:10:02Z
Cyprid 493341012 2015-08-19 23:10:12 15.11 0 15.0 127.89 14.73 0 1 0 5.0 0 -13 -49 87 3 0 2015-08-19T23:10:12Z
Cyprid 493341022 2015-08-19 23:10:22 15.25 0 15.0 127.89 14.73 0 1 0 5.0 0 11 9 -26 0 5 2015-08-19T23:10:22Z
Cyprid 493341032 2015-08-19 23:10:32 15.25 0 15.0 127.89 14.73 0 1 0 5.0 0 17 -27 -249 0 0 2015-08-19T23:10:32Z
Cyprid 493341042 2015-08-19 23:10:42 15.23 0 15.0 127.89 14.73 0 1 0 5.0 0 19 -3 -289 0 0 2015-08-19T23:10:42Z
Cyprid 493341052 2015-08-19 23:10:52 15.23 0 15.0 127.89 14.73 0 1 0 5.0 0 20 -17 -382 0 0 2015-08-19T23:10:52Z
Cyprid 493341062 2015-08-19 23:11:02 14.93 0 15.0 127.89 14.73 0 1 0 5.0 0 -12 -42 -379 5 0 2015-08-19T23:11:02Z
Cyprid 493341072 2015-08-19 23:11:12 14.8 0 15.0 127.89 14.74 0 1 0 5.0 0 48 8 -79 5 0 2015-08-19T23:11:12Z
Cyprid 493341082 2015-08-19 23:11:22 15.0 0 15.0 127.89 14.74 0 1 0 5.0 0 38 -53 113 0 5 2015-08-19T23:11:22Z
Cyprid 493341092 2015-08-19 23:11:32 15.03 0 15.0 127.89 14.74 0 1 0 5.0 0 5 9 60 0 1 2015-08-19T23:11:32Z
Cyprid 493341102 2015-08-19 23:11:42 14.84 0 15.0 127.89 14.74 0 1 0 5.0 0 -20 -75 48 5 0 2015-08-19T23:11:42Z
Cyprid 493341112 2015-08-19 23:11:52 14.76 0 15.0 127.89 14.74 0 1 0 5.0 0 -30 -96 260 2 0 2015-08-19T23:11:52Z
Cyprid 493341122 2015-08-19 23:12:02 14.98 0 15.0 127.89 14.74 0 1 0 5.0 0 15 -16 382 0 5 2015-08-19T23:12:02Z
Cyprid 493341133 2015-08-19 23:12:13 15.26 0 15.0 127.89 14.74 0 1 0 5.0 0 9 -52 140 0 5 2015-08-19T23:12:13Z
Cyprid 493341143 2015-08-19 23:12:23 15.2 0 15.0 127.89 14.74 0 1 0 5.0 0 19 -32 -111 0 0 2015-08-19T23:12:23Z
Cyprid 493341153 2015-08-19 23:12:33 14.96 0 15.0 127.89 14.74 0 1 0 5.0 0 -5 -6 -220 5 0 2015-08-19T23:12:33Z
Cyprid 493341163 2015-08-19 23:12:43 15.05 0 15.0 127.89 14.73 0 1 0 5.0 0 -4 -12 -139 0 4 2015-08-19T23:12:43Z
Cyprid 493341173 2015-08-19 23:12:53 15.04 0 15.0 127.89 14.73 0 1 0 5.0 0 33 -40 -168 4 0 2015-08-19T23:12:53Z
Cyprid 493341183 2015-08-19 23:13:03 14.95 0 15.0 127.89 14.74 0 1 0 5.0 0 11 -28 -81 0 0 2015-08-19T23:13:03Z
Cyprid 493341193 2015-08-19 23:13:13 14.98 0 15.0 127.89 14.73 0 1 0 5.0 0 36 13 -21 0 1 2015-08-19T23:13:13Z
Cyprid 493341203 2015-08-19 23:13:23 14.99 0 15.0 127.89 14.73 0 1 0 5.0 0 8 -23 -19 0 0 2015-08-19T23:13:23Z
Cyprid 493341213 2015-08-19 23:13:33 15.08 0 15.0 127.89 14.74 0 1 0 5.0 0 33 -42 -72 0 4 2015-08-19T23:13:33Z
Cyprid 493341223 2015-08-19 23:13:43 14.96 0 15.0 127.89 14.74 0 1 0 5.0 0 2 15 -144 5 0 2015-08-19T23:13:43Z
Cyprid 493341233 2015-08-19 23:13:53 15.0 0 15.0 127.89 14.75 0 1 0 5.0 0 8 -8 -83 0 3 2015-08-19T23:13:53Z
Cyprid 493341243 2015-08-19 23:14:03 15.02 0 15.0 127.89 14.74 0 1 0 5.0 0 38 -81 -101 2 0 2015-08-19T23:14:03Z
Cyprid 493341254 2015-08-19 23:14:14 14.96 0 15.0 127.89 14.76 0 1 0 5.0 0 24 -50 -32 1 0 2015-08-19T23:14:14Z
Cyprid 493341264 2015-08-19 23:14:24 15.03 0 15.0 127.89 14.76 0 1 0 5.0 0 16 -10 -17 0 4 2015-08-19T23:14:24Z
Cyprid 493341274 2015-08-19 23:14:34 15.11 0 15.0 127.89 14.76 0 1 0 5.0 0 7 -23 -73 0 0 2015-08-19T23:14:34Z
Cyprid 493341284 2015-08-19 23:14:44 14.88 0 15.0 127.89 14.76 0 1 0 5.0 0 8 -8 -35 5 0 2015-08-19T23:14:44Z
Cyprid 493341294 2015-08-19 23:14:54 14.87 0 15.0 127.89 14.77 0 1 0 5.0 0 36 -17 115 0 0 2015-08-19T23:14:54Z
Cyprid 493341304 2015-08-19 23:15:04 14.98 0 15.0 127.89 14.76 0 1 0 5.0 0 37 -76 186 0 5 2015-08-19T23:15:04Z
Cyprid 493341314 2015-08-19 23:15:14 15.02 0 15.0 127.89 14.77 0 1 0 5.0 0 31 -38 125 3 0 2015-08-19T23:15:14Z
Cyprid 493341324 2015-08-19 23:15:24 15.02 0 15.0 127.89 14.76 0 1 0 5.0 0 11 -2 138 0 2 2015-08-19T23:15:24Z
Cyprid 493341334 2015-08-19 23:15:34 14.98 0 15.0 127.89 14.77 0 1 0 5.0 0 57 -21 169 4 0 2015-08-19T23:15:34Z
Cyprid 493341344 2015-08-19 23:15:44 15.15 0 15.0 127.89 14.77 0 1 0 5.0 0 33 -69 256 0 5 2015-08-19T23:15:44Z
Cyprid 493341354 2015-08-19 23:15:54 15.14 0 15.0 127.89 14.77 0 1 0 5.0 0 -30 -28 107 0 1 2015-08-19T23:15:54Z
Cyprid 493341364 2015-08-19 23:16:04 14.96 0 15.0 127.89 14.77 0 1 0 5.0 0 46 -69 -24 5 0 2015-08-19T23:16:04Z
Cyprid 493341376 2015-08-19 23:16:16 15.05 0 15.0 127.89 14.79 0 1 0 5.0 0 52 -81 89 0 5 2015-08-19T23:16:16Z
Cyprid 493341386 2015-08-19 23:16:26 14.99 0 15.0 127.89 14.78 0 1 0 5.0 0 72 -19 71 5 0 2015-08-19T23:16:26Z
Cyprid 493341396 2015-08-19 23:16:36 14.83 0 15.0 127.89 14.78 0 1 0 5.0 0 42 -25 252 4 0 2015-08-19T23:16:36Z
Cyprid 493341406 2015-08-19 23:16:46 15.06 0 15.0 127.89 14.77 0 1 0 5.0 0 22 -64 360 0 5 2015-08-19T23:16:46Z
Cyprid 493341416 2015-08-19 23:16:56 15.08 0 15.0 127.89 14.75 0 1 0 5.0 0 64 -45 191 0 4 2015-08-19T23:16:56Z
Cyprid 493341426 2015-08-19 23:17:06 14.93 0 15.0 127.89 14.76 0 1 0 5.0 0 31 -21 73 5 0 2015-08-19T23:17:06Z
Cyprid 493341436 2015-08-19 23:17:16 15.03 0 15.0 127.89 14.74 0 1 0 5.0 0 36 -48 84 0 5 2015-08-19T23:17:16Z
Cyprid 493341446 2015-08-19 23:17:26 15.0 0 15.0 127.89 14.74 0 1 0 5.0 0 21 -40 14 5 0 2015-08-19T23:17:26Z
Cyprid 493341456 2015-08-19 23:17:36 15.05 0 15.0 127.89 14.75 0 1 0 5.0 0 48 -48 35 0 5 2015-08-19T23:17:36Z
Cyprid 493341466 2015-08-19 23:17:46 14.99 0 15.0 127.89 14.75 0 1 0 5.0 0 29 0 2 5 0 2015-08-19T23:17:46Z
Cyprid 493341476 2015-08-19 23:17:56 14.98 0 15.0 127.89 14.75 0 1 0 5.0 0 17 8 87 0 2 2015-08-19T23:17:56Z
Cyprid 493341486 2015-08-19 23:18:06 15.14 0 15.0 127.89 14.75 0 1 0 5.0 0 21 -42 87 0 5 2015-08-19T23:18:06Z
Cyprid 493341497 2015-08-19 23:18:17 15.13 0 15.0 127.89 14.75 0 1 0 5.0 0 -14 6 -8 4 0 2015-08-19T23:18:17Z
Cyprid 493341507 2015-08-19 23:18:27 14.95 0 15.0 127.89 14.74 0 1 0 5.0 0 22 -1 157 5 0 2015-08-19T23:18:27Z
Cyprid 493341517 2015-08-19 23:18:37 15.07 0 15.0 127.89 14.75 0 1 0 5.0 0 46 -56 316 0 5 2015-08-19T23:18:37Z
Cyprid 493341527 2015-08-19 23:18:47 15.08 0 15.0 127.89 14.75 0 1 0 5.0 0 43 -7 244 0 2 2015-08-19T23:18:47Z
Cyprid 493341537 2015-08-19 23:18:57 15.1 0 15.0 127.89 14.75 0 1 0 5.0 0 27 -7 141 0 0 2015-08-19T23:18:57Z
Cyprid 493341547 2015-08-19 23:19:07 15.09 0 15.0 127.89 14.75 0 1 0 5.0 0 33 -5 53 1 0 2015-08-19T23:19:07Z
Cyprid 493341557 2015-08-19 23:19:17 15.2 0 15.0 127.89 14.75 0 1 0 5.0 0 9 -64 -71 0 5 2015-08-19T23:19:17Z
Cyprid 493341567 2015-08-19 23:19:27 15.0 0 15.0 127.89 14.75 0 1 0 5.0 0 36 1 -239 5 0 2015-08-19T23:19:27Z
Cyprid 493341577 2015-08-19 23:19:37 14.97 0 15.0 127.89 14.74 0 1 0 5.0 0 3 -6 -106 3 0 2015-08-19T23:19:37Z
Cyprid 493341587 2015-08-19 23:19:47 15.07 0 15.0 127.89 14.75 0 1 0 5.0 0 11 8 -5 0 5 2015-08-19T23:19:47Z
Cyprid 493341597 2015-08-19 23:19:57 15.08 0 15.0 127.89 14.75 0 1 0 5.0 0 40 2 -73 2 0 2015-08-19T23:19:57Z
Cyprid 493341607 2015-08-19 23:20:07 15.0 0 15.0 127.89 14.75 0 1 0 5.0 0 41 -40 -54 2 0 2015-08-19T23:20:07Z
Cyprid 493341618 2015-08-19 23:20:18 15.14 0 15.0 127.89 14.75 0 1 0 5.0 0 27 -53 -24 0 5 2015-08-19T23:20:18Z
Cyprid 493341628 2015-08-19 23:20:28 15.28 0 15.0 127.89 14.74 0 1 0 5.0 0 -18 27 -233 0 5 2015-08-19T23:20:28Z
Cyprid 493341638 2015-08-19 23:20:38 15.03 0 15.0 127.89 14.75 0 1 0 5.0 0 23 -32 -443 5 0 2015-08-19T23:20:38Z
Cyprid 493341648 2015-08-19 23:20:48 15.01 0 15.0 127.89 14.76 0 1 0 5.0 0 38 7 -245 5 0 2015-08-19T23:20:48Z
Cyprid 493341658 2015-08-19 23:20:58 15.02 0 15.0 127.89 14.76 0 1 0 5.0 0 -13 -9 -112 0 4 2015-08-19T23:20:58Z
Cyprid 493341668 2015-08-19 23:21:08 14.86 0 15.0 127.89 14.76 0 1 0 5.0 0 30 -56 -64 5 0 2015-08-19T23:21:08Z
Cyprid 493341678 2015-08-19 23:21:18 14.83 0 15.0 127.89 14.76 0 1 0 5.0 0 25 -82 163 2 0 2015-08-19T23:21:18Z
Cyprid 493341688 2015-08-19 23:21:28 14.97 0 15.0 127.89 14.77 0 1 0 5.0 0 27 -46 330 0 5 2015-08-19T23:21:28Z
Cyprid 493341698 2015-08-19 23:21:38 14.96 0 15.0 127.89 14.76 0 1 0 5.0 0 28 -96 268 2 0 2015-08-19T23:21:38Z
Cyprid 493341708 2015-08-19 23:21:48 14.99 0 15.0 127.89 14.76 0 1 0 5.0 0 25 -25 252 0 2 2015-08-19T23:21:48Z
Cyprid 493341718 2015-08-19 23:21:58 15.09 0 15.0 127.89 14.76 0 1 0 5.0 0 -4 -57 127 0 4 2015-08-19T23:21:58Z
Cyprid 493341728 2015-08-19 23:22:08 14.96 0 15.0 127.89 14.77 0 1 0 5.0 0 42 -43 -13 5 0 2015-08-19T23:22:08Z
Cyprid 493341738 2015-08-19 23:22:18 14.86 0 15.0 127.89 14.77 0 1 0 5.0 0 24 -13 150 5 0 2015-08-19T23:22:18Z
Cyprid 493341748 2015-08-19 23:22:28 14.88 0 15.0 127.89 14.77 0 1 0 5.0 0 24 -96 321 0 5 2015-08-19T23:22:28Z
Cyprid 493341758 2015-08-19 23:22:38 15.13 0 15.0 127.89 14.76 0 1 0 5.0 0 14 -11 188 0 5 2015-08-19T23:22:38Z
Cyprid 493341768 2015-08-19 23:22:48 15.03 0 15.0 127.89 14.76 0 1 0 5.0 0 4 -59 58 5 0 2015-08-19T23:22:48Z
Cyprid 493341778 2015-08-19 23:22:58 14.75 0 15.0 127.89 14.76 0 1 0 5.0 0 44 -11 242 5 0 2015-08-19T23:22:58Z
Cyprid 493341788 2015-08-19 23:23:08 15.0 0 15.0 127.89 14.76 0 1 0 5.0 0 15 -90 354 0 5 2015-08-19T23:23:08Z
Cyprid 493341798 2015-08-19 23:23:18 15.08 0 15.0 127.89 14.75 0 1 0 5.0 0 67 -58 203 0 4 2015-08-19T23:23:18Z
Cyprid 493341808 2015-08-19 23:23:28 14.9 0 15.0 127.89 14.75 0 1 0 5.0 0 28 1 71 5 0 2015-08-19T23:23:28Z
Cyprid 493341818 2015-08-19 23:23:38 14.99 0 15.0 127.89 14.74 0 1 0 5.0 0 33 -37 142 0 3 2015-08-19T23:23:38Z
Cyprid 493341828 2015-08-19 23:23:48 15.13 0 15.0 127.89 14.76 0 1 0 5.0 0 10 -25 21 0 3 2015-08-19T23:23:48Z
Cyprid 493341838 2015-08-19 23:23:58 14.88 0 15.0 127.89 14.75 0 1 0 5.0 0 21 -40 -101 5 0 2015-08-19T23:23:58Z
Cyprid 493341848 2015-08-19 23:24:08 14.79 0 15.0 127.89 14.76 0 1 0 5.0 0 17 4 107 5 0 2015-08-19T23:24:08Z
Cyprid 493341858 2015-08-19 23:24:18 14.82 0 15.0 127.89 14.75 0 1 0 5.0 0 36 -47 278 0 3 2015-08-19T23:24:18Z
Cyprid 493341868 2015-08-19 23:24:28 14.88 0 15.0 127.89 14.75 0 1 0 5.0 0 30 -34 290 0 0 2015-08-19T23:24:28Z
Cyprid 493341878 2015-08-19 23:24:38 14.93 0 15.0 127.89 14.75 0 1 0 5.0 0 12 -13 291 0 1 2015-08-19T23:24:38Z
Cyprid 493341888 2015-08-19 23:24:48 15.05 0 15.0 127.89 14.75 0 1 0 5.0 0 26 -81 252 0 5 2015-08-19T23:24:48Z
Cyprid 493341898 2015-08-19 23:24:58 15.06 0 15.0 127.89 14.75 0 1 0 5.0 0 43 -23 127 5 0 2015-08-19T23:24:58Z
Cyprid 493341908 2015-08-19 23:25:08 15.1 0 15.0 127.89 14.75 0 1 0 5.0 0 28 -55 119 0 5 2015-08-19T23:25:08Z
Cyprid 493341918 2015-08-19 23:25:18 15.13 0 15.0 127.89 14.75 0 1 0 5.0 0 38 -101 -26 2 0 2015-08-19T23:25:18Z
Cyprid 493341928 2015-08-19 23:25:28 15.08 0 15.0 127.89 14.75 0 1 0 5.0 0 33 -28 -36 0 0 2015-08-19T23:25:28Z
Cyprid 493341938 2015-08-19 23:25:38 14.96 0 15.0 127.89 14.76 0 1 0 5.0 0 34 -16 65 5 0 2015-08-19T23:25:38Z
Cyprid 493341948 2015-08-19 23:25:48 14.99 0 15.0 127.89 14.75 0 1 0 5.0 0 34 -93 150 0 5 2015-08-19T23:25:48Z
Cyprid 493341958 2015-08-19 23:25:58 15.06 0 15.0 127.89 14.76 0 1 0 5.0 0 12 -34 89 0 0 2015-08-19T23:25:58Z
Cyprid 493341968 2015-08-19 23:26:08 15.04 0 15.0 127.89 14.76 0 1 0 5.0 0 27 -19 57 1 0 2015-08-19T23:26:08Z
Cyprid 493341978 2015-08-19 23:26:18 15.17 0 15.0 127.89 14.75 0 1 0 5.0 0 21 -58 -2 0 5 2015-08-19T23:26:18Z
Cyprid 493341988 2015-08-19 23:26:28 15.21 0 15.0 127.89 14.76 0 1 0 5.0 0 29 -10 -215 0 0 2015-08-19T23:26:28Z
Cyprid 493341998 2015-08-19 23:26:38 14.93 0 15.0 127.89 14.75 0 0 0 5.0 0 38 5 -289 5 0 2015-08-19T23:26:38Z
Cyprid 493342008 2015-08-19 23:26:48 14.96 0 15.0 127.89 14.75 0 1 0 5.0 0 -17 -68 -74 1 0 2015-08-19T23:26:48Z
Cyprid 493342018 2015-08-19 23:26:58 15.01 0 15.0 127.89 14.75 0 1 0 5.0 0 9 -40 1 0 3 2015-08-19T23:26:58Z
Cyprid 493342028 2015-08-19 23:27:08 14.95 0 15.0 127.89 14.76 0 1 0 5.0 0 30 -44 42 5 0 2015-08-19T23:27:08Z
Cyprid 493342038 2015-08-19 23:27:18 14.96 0 15.0 127.89 14.76 0 1 0 5.0 0 47 -58 113 0 4 2015-08-19T23:27:18Z
Cyprid 493342048 2015-08-19 23:27:28 15.0 0 15.0 127.89 14.76 0 1 0 5.0 0 29 -13 80 1 0 2015-08-19T23:27:28Z
Cyprid 493342058 2015-08-19 23:27:38 14.98 0 15.0 127.89 14.75 0 1 0 5.0 0 -13 -67 105 1 0 2015-08-19T23:27:38Z
Cyprid 493342068 2015-08-19 23:27:48 15.06 0 15.0 127.89 14.75 0 1 0 5.0 0 13 2 77 0 5 2015-08-19T23:27:48Z
Cyprid 493342078 2015-08-19 23:27:58 15.04 0 15.0 127.89 14.75 0 1 0 5.0 0 16 -58 -21 5 0 2015-08-19T23:27:58Z
Cyprid 493342088 2015-08-19 23:28:08 14.94 0 15.0 127.89 14.75 0 1 0 5.0 0 -10 -51 67 0 0 2015-08-19T23:28:08Z
Cyprid 493342098 2015-08-19 23:28:18 14.9 0 15.0 127.89 14.76 0 1 0 5.0 0 8 -105 152 2 0 2015-08-19T23:28:18Z
Cyprid 493342108 2015-08-19 23:28:28 15.03 0 15.0 127.89 14.76 0 0 0 5.0 0 36 -5 215 0 5 2015-08-19T23:28:28Z
Cyprid 493342118 2015-08-19 23:28:38 15.08 0 15.0 127.89 14.75 0 1 0 5.0 0 43 -42 67 0 0 2015-08-19T23:28:38Z
Cyprid 493342128 2015-08-19 23:28:48 15.02 0 15.0 127.89 14.76 0 1 0 5.0 0 38 -8 7 3 0 2015-08-19T23:28:48Z
Cyprid 493342138 2015-08-19 23:28:58 14.93 0 15.0 127.89 14.76 0 1 0 5.0 0 56 23 102 1 0 2015-08-19T23:28:58Z
Cyprid 493342148 2015-08-19 23:29:08 15.11 0 15.0 127.89 14.76 0 1 0 5.0 0 3 -73 126 0 5 2015-08-19T23:29:08Z
Cyprid 493342158 2015-08-19 23:29:18 15.22 0 15.0 127.89 14.76 0 1 0 5.0 0 48 -55 -108 0 4 2015-08-19T23:29:18Z
Cyprid 493342168 2015-08-19 23:29:28 15.09 0 15.0 127.89 14.75 0 1 0 5.0 0 34 19 -263 5 0 2015-08-19T23:29:28Z
Cyprid 493342178 2015-08-19 23:29:38 14.89 0 15.0 127.89 14.75 0 1 0 5.0 0 11 -38 -105 5 0 2015-08-19T23:29:38Z
Cyprid 493342188 2015-08-19 23:29:48 14.91 0 15.0 127.89 14.76 0 1 0 5.0 0 5 -56 84 0 3 2015-08-19T23:29:48Z
Cyprid 493342198 2015-08-19 23:29:58 14.98 0 15.0 127.89 14.76 0 1 0 5.0 0 54 -58 104 0 1 2015-08-19T23:29:58Z
Cyprid 493342208 2015-08-19 23:30:08 15.0 0 15.0 127.89 14.76 0 1 0 5.0 0 25 -39 64 0 0 2015-08-19T23:30:08Z
Cyprid 493342218 2015-08-19 23:30:18 14.88 0 15.0 127.89 14.76 0 1 0 5.0 0 8 15 110 5 0 2015-08-19T23:30:18Z
Cyprid 493342228 2015-08-19 23:30:28 14.75 0 15.0 127.89 14.76 0 1 0 5.0 0 21 23 283 2 0 2015-08-19T23:30:28Z
Cyprid 493342238 2015-08-19 23:30:38 14.89 0 15.0 127.89 14.76 0 1 0 5.0 0 43 -52 408 0 5 2015-08-19T23:30:38Z
Cyprid 493342248 2015-08-19 23:30:48 14.95 0 15.0 127.89 14.77 0 1 0 5.0 0 17 -51 300 0 0 2015-08-19T23:30:48Z
Cyprid 493342258 2015-08-19 23:30:58 15.14 0 15.0 127.89 14.77 0 1 0 5.0 0 -2 -19 137 0 5 2015-08-19T23:30:58Z
Cyprid 493342268 2015-08-19 23:31:08 15.24 0 15.0 127.89 14.77 0 0 0 5.0 0 17 -12 -84 0 3 2015-08-19T23:31:08Z
Cyprid 493342278 2015-08-19 23:31:18 15.1 0 15.0 127.89 14.77 0 1 0 5.0 0 25 9 -337 5 0 2015-08-19T23:31:18Z
Cyprid 493342288 2015-08-19 23:31:28 14.97 0 15.0 127.89 14.77 0 1 0 5.0 0 33 -48 -162 5 0 2015-08-19T23:31:28Z
Cyprid 493342298 2015-08-19 23:31:38 14.94 0 15.0 127.89 14.78 0 1 0 5.0 0 46 -18 17 0 4 2015-08-19T23:31:38Z
Cyprid 493342308 2015-08-19 23:31:48 14.92 0 15.0 127.89 14.78 0 1 0 5.0 0 -5 -23 87 4 0 2015-08-19T23:31:48Z
Cyprid 493342318 2015-08-19 23:31:58 15.09 0 15.0 127.89 14.77 0 1 0 5.0 0 16 -11 175 0 5 2015-08-19T23:31:58Z
Cyprid 493342328 2015-08-19 23:32:08 15.09 0 15.0 127.89 14.77 0 1 0 5.0 0 28 -40 84 0 0 2015-08-19T23:32:08Z
Cyprid 493342338 2015-08-19 23:32:18 15.13 0 15.0 127.89 14.77 0 1 0 5.0 0 26 -25 -43 0 3 2015-08-19T23:32:18Z
Cyprid 493342348 2015-08-19 23:32:28 15.08 0 15.0 127.89 14.78 0 1 0 5.0 0 16 13 -160 5 0 2015-08-19T23:32:28Z
Cyprid 493342358 2015-08-19 23:32:38 14.97 0 15.0 127.89 14.76 0 1 0 5.0 0 24 11 -53 0 0 2015-08-19T23:32:38Z
Cyprid 493342368 2015-08-19 23:32:48 14.98 0 15.0 127.89 14.77 0 1 0 5.0 0 18 -20 29 0 0 2015-08-19T23:32:48Z
Cyprid 493342378 2015-08-19 23:32:58 14.9 0 15.0 127.89 14.77 0 0 0 5.0 0 1 -8 106 3 0 2015-08-19T23:32:58Z
Cyprid 493342388 2015-08-19 23:33:08 14.9 0 15.0 127.89 14.77 0 0 0 5.0 0 -14 -25 226 0 3 2015-08-19T23:33:08Z
Cyprid 493342398 2015-08-19 23:33:18 14.91 0 15.0 127.89 14.76 0 1 0 5.0 0 -1 40 213 2 0 2015-08-19T23:33:18Z
Cyprid 493342408 2015-08-19 23:33:28 14.83 0 15.0 127.89 14.76 0 1 0 5.0 0 20 32 289 2 0 2015-08-19T23:33:28Z
Cyprid 493342418 2015-08-19 23:33:38 14.97 0 15.0 127.89 14.76 0 1 0 5.0 0 25 -78 307 0 5 2015-08-19T23:33:38Z
Cyprid 493342428 2015-08-19 23:33:48 15.0 0 15.0 127.89 14.76 0 1 0 5.0 0 48 3 187 0 0 2015-08-19T23:33:48Z
Cyprid 493342438 2015-08-19 23:33:58 14.99 0 15.0 127.89 14.76 0 1 0 5.0 0 32 23 105 1 0 2015-08-19T23:33:58Z
Cyprid 493342448 2015-08-19 23:34:08 15.03 0 15.0 127.89 14.76 0 1 0 5.0 0 39 16 82 0 2 2015-08-19T23:34:08Z
Cyprid 493342458 2015-08-19 23:34:18 15.21 0 15.0 127.89 14.76 0 0 0 5.0 0 50 -82 -43 0 5 2015-08-19T23:34:18Z
Cyprid 493342468 2015-08-19 23:34:28 15.12 0 15.0 127.89 14.76 0 1 0 5.0 0 28 8 -314 5 0 2015-08-19T23:34:28Z
Cyprid 493342478 2015-08-19 23:34:38 14.94 0 15.0 127.89 14.76 0 1 0 5.0 0 -6 -21 -169 5 0 2015-08-19T23:34:38Z
Cyprid 493342488 2015-08-19 23:34:48 14.85 0 15.0 127.89 14.76 0 1 0 5.0 0 15 -16 76 0 0 2015-08-19T23:34:48Z
Cyprid 493342498 2015-08-19 23:34:58 15.07 0 15.0 127.89 14.76 0 1 0 5.0 0 14 8 292 0 5 2015-08-19T23:34:58Z
Cyprid 493342508 2015-08-19 23:35:08 14.94 0 15.0 127.89 14.77 0 1 0 5.0 0 2 -63 215 5 0 2015-08-19T23:35:08Z
Cyprid 493342518 2015-08-19 23:35:18 14.79 0 15.0 127.89 14.77 0 1 0 5.0 0 7 -98 310 2 0 2015-08-19T23:35:18Z
Cyprid 493342528 2015-08-19 23:35:28 14.84 0 15.0 127.89 14.76 0 1 0 5.0 0 44 -75 395 0 4 2015-08-19T23:35:28Z
Cyprid 493342538 2015-08-19 23:35:38 14.92 0 15.0 127.89 14.76 0 1 0 5.0 0 33 -31 317 0 0 2015-08-19T23:35:38Z
Cyprid 493342548 2015-08-19 23:35:48 14.93 0 15.0 127.89 14.76 0 1 0 5.0 0 20 -43 208 0 0 2015-08-19T23:35:48Z
Cyprid 493342558 2015-08-19 23:35:58 14.95 0 15.0 127.89 14.76 0 1 0 5.0 0 21 -48 125 0 0 2015-08-19T23:35:58Z
Cyprid 493342568 2015-08-19 23:36:08 14.9 0 15.0 127.89 14.76 0 0 0 5.0 0 19 -75 109 2 0 2015-08-19T23:36:08Z
Cyprid 493342578 2015-08-19 23:36:18 15.13 0 15.0 127.89 14.76 0 1 0 5.0 0 4 -4 161 0 5 2015-08-19T23:36:18Z
Cyprid 493342588 2015-08-19 23:36:28 15.18 0 15.0 127.89 14.77 0 1 0 5.0 0 -8 6 -29 0 4 2015-08-19T23:36:28Z
Cyprid 493342598 2015-08-19 23:36:38 14.93 0 15.0 127.89 14.77 0 1 0 5.0 0 25 -37 -198 5 0 2015-08-19T23:36:38Z
Cyprid 493342608 2015-08-19 23:36:48 15.03 0 15.0 127.89 14.78 0 1 0 5.0 0 -5 -4 -166 0 1 2015-08-19T23:36:48Z
Cyprid 493342618 2015-08-19 23:36:58 15.13 0 15.0 127.89 14.8 0 1 0 5.0 0 32 -26 -220 0 3 2015-08-19T23:36:58Z
Cyprid 493342628 2015-08-19 23:37:08 14.99 0 15.0 127.89 14.79 0 1 0 5.0 0 18 -25 -244 5 0 2015-08-19T23:37:08Z
Cyprid 493342638 2015-08-19 23:37:18 14.88 0 15.0 127.89 14.79 0 1 0 5.0 0 43 14 -4 4 0 2015-08-19T23:37:18Z
Cyprid 493342648 2015-08-19 23:37:28 14.75 0 15.0 127.89 14.78 0 1 0 5.0 0 -2 -27 292 3 0 2015-08-19T23:37:28Z
Cyprid 493342658 2015-08-19 23:37:38 14.89 0 15.0 127.89 14.79 0 1 0 5.0 0 31 -6 479 0 5 2015-08-19T23:37:38Z
Cyprid 493342668 2015-08-19 23:37:48 15.08 0 15.0 127.89 14.8 0 1 0 5.0 0 11 -80 324 0 5 2015-08-19T23:37:48Z
Cyprid 493342678 2015-08-19 23:37:58 15.08 0 15.0 127.89 14.8 0 0 0 5.0 0 21 -79 135 2 0 2015-08-19T23:37:58Z
Cyprid 493342688 2015-08-19 23:38:08 15.16 0 15.0 127.89 14.79 0 1 0 5.0 0 -2 -16 -22 0 5 2015-08-19T23:38:08Z
Cyprid 493342699 2015-08-19 23:38:19 15.12 0 15.0 127.89 14.8 0 0 0 5.0 0 4 -63 -236 5 0 2015-08-19T23:38:19Z
Cyprid 493342709 2015-08-19 23:38:29 14.93 0 15.0 127.89 14.79 0 1 0 5.0 0 19 -27 -47 5 0 2015-08-19T23:38:29Z
Cyprid 493342719 2015-08-19 23:38:39 14.86 0 15.0 127.89 14.8 0 1 0 5.0 0 17 -12 200 0 2 2015-08-19T23:38:39Z
Cyprid 493342729 2015-08-19 23:38:49 14.93 0 15.0 127.89 14.8 0 0 0 5.0 0 -18 -9 275 0 2 2015-08-19T23:38:49Z
Cyprid 493342739 2015-08-19 23:38:59 14.77 0 15.0 127.89 14.79 0 1 0 5.0 0 17 -46 296 5 0 2015-08-19T23:38:59Z
Cyprid 493342749 2015-08-19 23:39:09 14.94 0 15.0 127.89 14.78 0 1 0 5.0 0 -2 -38 365 0 5 2015-08-19T23:39:09Z
Cyprid 493342759 2015-08-19 23:39:19 15.11 0 15.0 127.89 14.78 0 1 0 5.0 0 36 -51 217 0 5 2015-08-19T23:39:19Z
Cyprid 493342769 2015-08-19 23:39:29 15.12 0 15.0 127.89 14.77 0 0 0 5.0 0 6 -18 52 4 0 2015-08-19T23:39:29Z
Cyprid 493342779 2015-08-19 23:39:39 14.98 0 15.0 127.89 14.76 0 0 0 5.0 0 0 -50 88 3 0 2015-08-19T23:39:39Z
Cyprid 493342789 2015-08-19 23:39:49 15.03 0 15.0 127.89 14.77 0 0 0 5.0 0 0 -10 202 0 5 2015-08-19T23:39:49Z
Cyprid 493342799 2015-08-19 23:39:59 15.05 0 15.0 127.89 14.77 0 0 0 5.0 0 12 0 151 2 0 2015-08-19T23:39:59Z
Cyprid 493342809 2015-08-19 23:40:09 14.94 0 15.0 127.89 14.76 0 0 0 5.0 0 47 -18 230 4 0 2015-08-19T23:40:09Z
Cyprid 493342820 2015-08-19 23:40:20 14.97 0 15.0 127.89 14.77 0 0 0 5.0 0 63 -56 331 0 5 2015-08-19T23:40:20Z
Cyprid 493342830 2015-08-19 23:40:30 15.21 0 15.0 127.89 14.77 0 0 0 5.0 0 32 -44 140 0 5 2015-08-19T23:40:30Z
Cyprid 493342840 2015-08-19 23:40:40 15.1 0 15.0 127.89 14.77 0 0 0 5.0 0 55 -42 -56 5 0 2015-08-19T23:40:40Z
Cyprid 493342850 2015-08-19 23:40:50 14.97 0 15.0 127.89 14.77 0 0 0 5.0 0 48 -26 64 5 0 2015-08-19T23:40:50Z
Cyprid 493342860 2015-08-19 23:41:00 15.15 0 15.0 127.89 14.77 0 0 0 5.0 0 29 -71 224 0 5 2015-08-19T23:41:00Z
Cyprid 493342870 2015-08-19 23:41:10 15.25 0 15.0 127.89 14.76 0 0 0 5.0 0 7 7 102 0 5 2015-08-19T23:41:10Z
Cyprid 493342880 2015-08-19 23:41:20 15.11 0 15.0 127.89 14.77 0 0 0 5.0 0 50 -81 -105 5 0 2015-08-19T23:41:20Z
Cyprid 493342890 2015-08-19 23:41:30 15.09 0 15.0 127.89 14.77 0 0 0 5.0 0 59 -56 -87 0 2 2015-08-19T23:41:30Z
Cyprid 493342900 2015-08-19 23:41:40 15.02 0 15.0 127.89 14.77 0 0 0 5.0 0 6 -53 -117 4 0 2015-08-19T23:41:40Z
Cyprid 493342910 2015-08-19 23:41:50 15.1 0 15.0 127.89 14.77 0 0 0 5.0 0 17 -8 -53 0 5 2015-08-19T23:41:50Z
Cyprid 493342920 2015-08-19 23:42:00 14.86 0 15.0 127.89 14.77 0 0 0 5.0 0 27 -39 -100 5 0 2015-08-19T23:42:00Z
Cyprid 493342932 2015-08-19 23:42:12 14.81 0 15.0 127.89 14.77 0 1 0 5.0 0 14 -36 129 5 0 2015-08-19T23:42:12Z
Cyprid 493342942 2015-08-19 23:42:22 14.98 0 15.0 127.89 14.77 0 0 0 5.0 0 30 -14 424 0 5 2015-08-19T23:42:22Z
Cyprid 493342952 2015-08-19 23:42:32 15.06 0 15.0 127.89 14.77 0 0 0 5.0 0 22 -89 296 0 5 2015-08-19T23:42:32Z
Cyprid 493342962 2015-08-19 23:42:42 15.13 0 15.0 127.89 14.77 0 0 0 5.0 0 40 -43 139 1 0 2015-08-19T23:42:42Z
Cyprid 493342972 2015-08-19 23:42:52 15.11 0 15.0 127.89 14.77 0 0 0 5.0 0 39 -35 45 0 0 2015-08-19T23:42:52Z
Cyprid 493342982 2015-08-19 23:43:02 14.95 0 15.0 127.89 14.77 0 0 0 5.0 0 32 -75 -2 5 0 2015-08-19T23:43:02Z
Cyprid 493342992 2015-08-19 23:43:12 15.07 0 15.0 127.89 14.77 0 0 0 5.0 0 18 -33 146 0 5 2015-08-19T23:43:12Z
Cyprid 493343002 2015-08-19 23:43:22 15.16 0 15.0 127.89 14.77 0 0 0 5.0 0 4 -67 3 0 3 2015-08-19T23:43:22Z
Cyprid 493343012 2015-08-19 23:43:32 15.05 0 15.0 127.89 14.77 0 0 0 5.0 0 26 -22 -167 5 0 2015-08-19T23:43:32Z
Cyprid 493343022 2015-08-19 23:43:42 14.99 0 15.0 127.89 14.77 0 0 0 5.0 0 50 -26 -97 0 0 2015-08-19T23:43:42Z
Cyprid 493343032 2015-08-19 23:43:52 15.0 0 15.0 127.89 14.76 0 0 0 5.0 0 28 -17 -39 0 0 2015-08-19T23:43:52Z
Cyprid 493343042 2015-08-19 23:44:02 15.16 0 15.0 127.89 14.76 0 0 0 5.0 0 4 6 -90 0 5 2015-08-19T23:44:02Z
Cyprid 493343052 2015-08-19 23:44:12 14.97 0 15.0 127.89 14.77 0 1 0 5.0 0 1 -64 -220 5 0 2015-08-19T23:44:12Z
Cyprid 493343062 2015-08-19 23:44:22 14.86 0 15.0 127.89 14.76 0 1 0 5.0 0 40 19 -51 5 0 2015-08-19T23:44:22Z
Cyprid 493343072 2015-08-19 23:44:32 15.04 0 15.0 127.89 14.77 0 0 0 5.0 0 18 -107 124 0 5 2015-08-19T23:44:32Z
Cyprid 493343082 2015-08-19 23:44:42 14.89 0 15.0 127.89 14.76 0 0 0 5.0 0 24 7 187 5 0 2015-08-19T23:44:42Z
Cyprid 493343092 2015-08-19 23:44:52 14.81 0 15.0 127.89 14.77 0 0 0 5.0 0 42 -65 344 0 1 2015-08-19T23:44:52Z
Cyprid 493343102 2015-08-19 23:45:02 14.95 0 15.0 127.89 14.76 0 0 0 5.0 0 50 -23 332 0 5 2015-08-19T23:45:02Z
Cyprid 493343112 2015-08-19 23:45:12 14.99 0 15.0 127.89 14.77 0 0 0 5.0 0 54 13 227 2 0 2015-08-19T23:45:12Z
Cyprid 493343122 2015-08-19 23:45:22 15.09 0 15.0 127.89 14.76 0 0 0 5.0 0 17 -71 106 0 5 2015-08-19T23:45:22Z
Cyprid 493343132 2015-08-19 23:45:32 15.2 0 15.0 127.89 14.77 0 0 0 5.0 0 -19 -6 -131 0 1 2015-08-19T23:45:32Z
Cyprid 493343142 2015-08-19 23:45:42 14.96 0 15.0 127.89 14.77 0 0 0 5.0 0 7 -59 -272 5 0 2015-08-19T23:45:42Z
Cyprid 493343152 2015-08-19 23:45:52 14.88 0 15.0 127.89 14.76 0 0 0 5.0 0 25 -44 -63 4 0 2015-08-19T23:45:52Z
Cyprid 493343162 2015-08-19 23:46:02 14.89 0 15.0 127.89 14.76 0 0 0 5.0 0 49 -52 119 0 4 2015-08-19T23:46:02Z
Cyprid 493343172 2015-08-19 23:46:12 14.87 0 15.0 127.89 14.77 0 0 0 5.0 0 20 -8 192 5 0 2015-08-19T23:46:12Z
Cyprid 493343182 2015-08-19 23:46:22 14.96 0 15.0 127.89 14.77 0 0 0 5.0 0 11 -63 284 0 5 2015-08-19T23:46:22Z
Cyprid 493343192 2015-08-19 23:46:32 15.03 0 15.0 127.89 14.77 0 0 0 5.0 0 -20 -15 183 0 1 2015-08-19T23:46:32Z
Cyprid 493343202 2015-08-19 23:46:42 15.15 0 15.0 127.89 14.77 0 0 0 5.0 0 -1 -66 8 0 5 2015-08-19T23:46:42Z
Cyprid 493343212 2015-08-19 23:46:52 15.09 0 15.0 127.89 14.76 0 0 0 5.0 0 19 29 -210 5 0 2015-08-19T23:46:52Z
Cyprid 493343222 2015-08-19 23:47:02 14.89 0 15.0 127.89 14.77 0 0 0 5.0 0 24 -29 -69 5 0 2015-08-19T23:47:02Z
Cyprid 493343232 2015-08-19 23:47:12 14.83 0 15.0 127.89 14.77 0 0 0 5.0 0 10 -42 144 0 0 2015-08-19T23:47:12Z
Cyprid 493343242 2015-08-19 23:47:22 14.92 0 15.0 127.89 14.76 0 0 0 5.0 0 33 -2 273 0 5 2015-08-19T23:47:22Z
Cyprid 493343252 2015-08-19 23:47:32 15.07 0 15.0 127.89 14.77 0 0 0 5.0 0 3 -1 132 0 2 2015-08-19T23:47:32Z
Cyprid 493343262 2015-08-19 23:47:42 14.94 0 15.0 127.89 14.76 0 0 0 5.0 0 10 -85 20 5 0 2015-08-19T23:47:42Z
Cyprid 493343272 2015-08-19 23:47:52 15.02 0 15.0 127.89 14.76 0 0 0 5.0 0 10 -22 67 0 5 2015-08-19T23:47:52Z
Cyprid 493343282 2015-08-19 23:48:02 15.03 0 15.0 127.89 14.77 0 0 0 5.0 0 -9 -19 -26 4 0 2015-08-19T23:48:02Z
Cyprid 493343293 2015-08-19 23:48:13 14.91 0 15.0 127.89 14.77 0 0 0 5.0 0 14 -24 70 2 0 2015-08-19T23:48:13Z
Cyprid 493343303 2015-08-19 23:48:23 14.86 0 15.0 127.89 14.77 0 0 0 5.0 0 28 -54 194 0 0 2015-08-19T23:48:23Z
Cyprid 493343313 2015-08-19 23:48:33 14.94 0 15.0 127.89 14.76 0 0 0 5.0 0 5 -61 248 0 4 2015-08-19T23:48:33Z
Cyprid 493343323 2015-08-19 23:48:43 14.93 0 15.0 127.89 14.76 0 0 0 5.0 0 38 -49 207 4 0 2015-08-19T23:48:43Z
Cyprid 493343333 2015-08-19 23:48:53 15.06 0 15.0 127.89 14.77 0 0 0 5.0 0 21 -34 196 0 5 2015-08-19T23:48:53Z
Cyprid 493343343 2015-08-19 23:49:03 14.96 0 15.0 127.89 14.76 0 0 0 5.0 0 35 -15 150 5 0 2015-08-19T23:49:03Z
Cyprid 493343353 2015-08-19 23:49:13 14.95 0 15.0 127.89 14.76 0 0 0 5.0 0 -1 -65 173 0 3 2015-08-19T23:49:13Z
Cyprid 493343363 2015-08-19 23:49:23 15.06 0 15.0 127.89 14.76 0 0 0 5.0 0 20 -35 68 0 3 2015-08-19T23:49:23Z
Cyprid 493343373 2015-08-19 23:49:33 15.01 0 15.0 127.89 14.76 0 0 0 5.0 0 28 -38 -3 5 0 2015-08-19T23:49:33Z
Cyprid 493343383 2015-08-19 23:49:43 15.06 0 15.0 127.89 14.76 0 0 0 5.0 0 23 -1 24 0 5 2015-08-19T23:49:43Z
Cyprid 493343393 2015-08-19 23:49:53 14.97 0 15.0 127.89 14.76 0 0 0 5.0 0 -10 -81 -44 5 0 2015-08-19T23:49:53Z
Cyprid 493343403 2015-08-19 23:50:03 15.09 0 15.0 127.89 14.76 0 0 0 5.0 0 17 3 33 0 5 2015-08-19T23:50:03Z
Cyprid 493343413 2015-08-19 23:50:13 15.06 0 15.0 127.89 14.76 0 0 0 5.0 0 8 -7 -48 3 0 2015-08-19T23:50:13Z
Cyprid 493343423 2015-08-19 23:50:23 15.04 0 15.0 127.89 14.76 0 0 0 5.0 0 14 -73 -46 0 2 2015-08-19T23:50:23Z
Cyprid 493343433 2015-08-19 23:50:33 15.09 0 15.0 127.89 14.77 0 0 0 5.0 0 -11 12 -118 0 1 2015-08-19T23:50:33Z
Cyprid 493343443 2015-08-19 23:50:43 15.06 0 15.0 127.89 14.77 0 0 0 5.0 0 19 22 -176 2 0 2015-08-19T23:50:43Z
Cyprid 493343453 2015-08-19 23:50:53 15.03 0 15.0 127.89 14.77 0 0 0 5.0 0 18 -27 -138 0 0 2015-08-19T23:50:53Z
Cyprid 493343463 2015-08-19 23:51:03 15.0 0 15.0 127.89 14.77 0 0 0 5.0 0 7 -29 -85 1 0 2015-08-19T23:51:03Z
Cyprid 493343473 2015-08-19 23:51:13 14.9 0 15.0 127.89 14.77 0 0 0 5.0 0 -11 -103 8 4 0 2015-08-19T23:51:13Z
Cyprid 493343483 2015-08-19 23:51:23 14.83 0 15.0 127.89 14.76 0 0 0 5.0 0 -4 -40 237 0 1 2015-08-19T23:51:23Z
Cyprid 493343493 2015-08-19 23:51:33 14.79 0 15.0 127.89 14.76 0 0 0 5.0 0 47 -19 370 2 0 2015-08-19T23:51:33Z
Cyprid 493343503 2015-08-19 23:51:43 14.92 0 15.0 127.89 14.77 0 0 0 5.0 0 36 -71 380 0 5 2015-08-19T23:51:43Z
Cyprid 493343513 2015-08-19 23:51:53 15.03 0 15.0 127.89 14.76 0 0 0 5.0 0 36 -90 216 0 2 2015-08-19T23:51:53Z
Cyprid 493343523 2015-08-19 23:52:03 14.93 0 15.0 127.89 14.76 0 0 0 5.0 0 18 -6 148 5 0 2015-08-19T23:52:03Z
Cyprid 493343533 2015-08-19 23:52:13 14.99 0 15.0 127.89 14.77 0 0 0 5.0 0 23 -72 154 0 5 2015-08-19T23:52:13Z
Cyprid 493343543 2015-08-19 23:52:23 15.0 0 15.0 127.89 14.77 0 0 0 5.0 0 37 -43 85 3 0 2015-08-19T23:52:23Z
Cyprid 493343553 2015-08-19 23:52:33 15.05 0 15.0 127.89 14.77 0 0 0 5.0 0 -12 -12 51 0 4 2015-08-19T23:52:33Z
Cyprid 493343563 2015-08-19 23:52:43 15.12 0 15.0 127.89 14.77 0 0 0 5.0 0 31 -17 -60 0 0 2015-08-19T23:52:43Z
Cyprid 493343573 2015-08-19 23:52:53 14.99 0 15.0 127.89 14.76 0 0 0 5.0 0 26 -38 -91 5 0 2015-08-19T23:52:53Z
Cyprid 493343583 2015-08-19 23:53:03 15.03 0 15.0 127.89 14.76 0 0 0 5.0 0 33 18 -10 0 5 2015-08-19T23:53:03Z
Cyprid 493343593 2015-08-19 23:53:13 15.05 0 15.0 127.89 14.77 0 0 0 5.0 0 15 26 -60 2 0 2015-08-19T23:53:13Z
Cyprid 493343603 2015-08-19 23:53:23 15.0 0 15.0 127.89 14.77 0 0 0 5.0 0 16 -74 -50 1 0 2015-08-19T23:53:23Z
Cyprid 493343613 2015-08-19 23:53:33 15.05 0 15.0 127.89 14.77 0 0 0 5.0 0 25 -48 -44 0 3 2015-08-19T23:53:33Z
Cyprid 493343623 2015-08-19 23:53:43 14.87 0 15.0 127.89 14.76 0 0 0 5.0 0 10 -38 -61 5 0 2015-08-19T23:53:43Z
Cyprid 493343633 2015-08-19 23:53:53 14.85 0 15.0 127.89 14.77 0 0 0 5.0 0 10 0 91 1 0 2015-08-19T23:53:53Z
Cyprid 493343643 2015-08-19 23:54:03 14.88 0 15.0 127.89 14.77 0 0 0 5.0 0 41 -41 224 0 1 2015-08-19T23:54:03Z
Cyprid 493343653 2015-08-19 23:54:13 14.83 0 15.0 127.89 14.77 0 0 0 5.0 0 25 -69 322 3 0 2015-08-19T23:54:13Z
Cyprid 493343663 2015-08-19 23:54:23 14.93 0 15.0 127.89 14.76 0 0 0 5.0 0 23 -88 398 0 5 2015-08-19T23:54:23Z
Cyprid 493343673 2015-08-19 23:54:33 15.03 0 15.0 127.89 14.76 0 0 0 5.0 0 20 -27 249 0 1 2015-08-19T23:54:33Z
Cyprid 493343683 2015-08-19 23:54:43 15.03 0 15.0 127.89 14.76 0 0 0 5.0 0 36 -13 155 0 0 2015-08-19T23:54:43Z
Cyprid 493343693 2015-08-19 23:54:53 15.21 0 15.0 127.89 14.77 0 0 0 5.0 0 65 -39 41 0 5 2015-08-19T23:54:53Z
Cyprid 493343703 2015-08-19 23:55:03 15.23 0 15.0 127.89 14.76 0 0 0 5.0 0 10 -66 -274 1 0 2015-08-19T23:55:03Z
Cyprid 493343713 2015-08-19 23:55:13 15.12 0 15.0 127.89 14.76 0 0 0 5.0 0 25 -36 -242 5 0 2015-08-19T23:55:13Z
Cyprid 493343723 2015-08-19 23:55:23 15.07 0 15.0 127.89 14.76 0 0 0 5.0 0 67 8 -149 0 3 2015-08-19T23:55:23Z
Cyprid 493343733 2015-08-19 23:55:33 14.94 0 15.0 127.89 14.77 0 0 0 5.0 0 18 1 -115 5 0 2015-08-19T23:55:33Z
Cyprid 493343743 2015-08-19 23:55:43 14.94 0 15.0 127.89 14.76 0 0 0 5.0 0 3 -47 11 0 2 2015-08-19T23:55:43Z
Cyprid 493343753 2015-08-19 23:55:53 14.9 0 15.0 127.89 14.77 0 0 0 5.0 0 10 -52 101 3 0 2015-08-19T23:55:53Z
Cyprid 493343763 2015-08-19 23:56:03 14.92 0 15.0 127.89 14.76 0 1 0 5.0 0 47 -41 221 0 3 2015-08-19T23:56:03Z
Cyprid 493343774 2015-08-19 23:56:14 15.06 0 15.0 127.89 14.77 0 0 0 5.0 0 43 -57 136 0 3 2015-08-19T23:56:14Z
Cyprid 493343784 2015-08-19 23:56:24 14.89 0 15.0 127.89 14.77 0 0 0 5.0 0 22 -39 79 5 0 2015-08-19T23:56:24Z
Cyprid 493343794 2015-08-19 23:56:34 14.72 0 15.0 127.89 14.76 0 0 0 5.0 0 35 7 215 5 0 2015-08-19T23:56:34Z
Cyprid 493343804 2015-08-19 23:56:44 14.99 0 15.0 127.89 14.77 0 0 0 5.0 0 50 -56 426 0 5 2015-08-19T23:56:44Z
Cyprid 493343814 2015-08-19 23:56:54 15.05 0 15.0 127.89 14.77 0 0 0 5.0 0 9 -22 280 0 5 2015-08-19T23:56:54Z
Cyprid 493343824 2015-08-19 23:57:04 15.13 0 15.0 127.89 14.76 0 0 0 5.0 0 27 -26 99 0 0 2015-08-19T23:57:04Z
Cyprid 493343834 2015-08-19 23:57:14 15.15 0 15.0 127.89 14.76 0 0 0 5.0 0 14 -45 -75 0 0 2015-08-19T23:57:14Z
Cyprid 493343844 2015-08-19 23:57:24 15.1 0 15.0 127.89 14.76 0 0 0 5.0 0 15 -15 -143 1 0 2015-08-19T23:57:24Z
Cyprid 493343854 2015-08-19 23:57:34 15.24 0 15.0 127.89 14.77 0 0 0 5.0 0 25 -17 -220 0 5 2015-08-19T23:57:34Z
Cyprid 493343864 2015-08-19 23:57:44 15.11 0 15.0 127.89 14.76 0 0 0 5.0 0 33 -45 -314 5 0 2015-08-19T23:57:44Z
Cyprid 493343874 2015-08-19 23:57:54 15.02 0 15.0 127.89 14.76 0 0 0 5.0 0 38 -48 -169 2 0 2015-08-19T23:57:54Z
Cyprid 493343884 2015-08-19 23:58:04 14.96 0 15.0 127.89 14.76 0 0 0 5.0 0 42 -23 -59 0 0 2015-08-19T23:58:04Z
Cyprid 493343894 2015-08-19 23:58:14 14.87 0 15.0 127.89 14.76 0 0 0 5.0 0 8 -75 91 4 0 2015-08-19T23:58:14Z
Cyprid 493343904 2015-08-19 23:58:24 14.86 0 15.0 127.89 14.77 0 0 0 5.0 0 11 -34 285 0 3 2015-08-19T23:58:24Z
Cyprid 493343914 2015-08-19 23:58:34 14.87 0 15.0 127.89 14.77 0 0 0 5.0 0 31 11 300 2 0 2015-08-19T23:58:34Z
Cyprid 493343924 2015-08-19 23:58:44 14.95 0 15.0 127.89 14.76 0 0 0 5.0 0 23